<?xml version="1.0" encoding="UTF-8" standalone="no" ?>
<gpx xmlns="http://www.topografix.com/GPX/1/1" xmlns:xsi="http://www.w3.org/2001/XMLSchema-instance" xsi:schemaLocation="http://www.topografix.com/GPX/1/1 http://www.topografix.com/GPX/1/1/gpx.xsd" version="1.1" creator="VisuGPX - https://www.visugpx.com">
  <metadata>
    <name>De Songeson à Clermont-Ferrand</name>
  </metadata>
  <trk>
    <name><![CDATA[De Songeson à Clermont-Ferrand]]></name>
    <trkseg>
      <trkpt lat="46.65001" lon="5.82093">
        <ele>614.286284</ele>
        <time>2020-10-25T10:37:12.949Z</time>
      </trkpt>
      <trkpt lat="46.65003" lon="5.82091">
        <ele>614.286284</ele>
        <time>2020-10-25T10:37:13.399Z</time>
      </trkpt>
      <trkpt lat="46.65008" lon="5.82087">
        <ele>614.286284</ele>
        <time>2020-10-25T10:37:14.325Z</time>
      </trkpt>
      <trkpt lat="46.65019" lon="5.82078">
        <ele>614.286284</ele>
        <time>2020-10-25T10:37:16.600Z</time>
      </trkpt>
      <trkpt lat="46.65037" lon="5.82067">
        <ele>614.286284</ele>
        <time>2020-10-25T10:37:20.205Z</time>
      </trkpt>
      <trkpt lat="46.65053" lon="5.8206">
        <ele>614.286284</ele>
        <time>2020-10-25T10:37:23.081Z</time>
      </trkpt>
      <trkpt lat="46.65097" lon="5.82048">
        <ele>614.061004</ele>
        <time>2020-10-25T10:37:31.121Z</time>
      </trkpt>
      <trkpt lat="46.65116" lon="5.82043">
        <ele>613.713112</ele>
        <time>2020-10-25T10:37:33.950Z</time>
      </trkpt>
      <trkpt lat="46.65119" lon="5.82042">
        <ele>613.655803</ele>
        <time>2020-10-25T10:37:34.483Z</time>
      </trkpt>
      <trkpt lat="46.65124" lon="5.8204">
        <ele>613.545087</ele>
        <time>2020-10-25T10:37:35.513Z</time>
      </trkpt>
      <trkpt lat="46.65131" lon="5.82037">
        <ele>613.411261</ele>
        <time>2020-10-25T10:37:36.825Z</time>
      </trkpt>
      <trkpt lat="46.65148" lon="5.82029">
        <ele>613.085753</ele>
        <time>2020-10-25T10:37:39.424Z</time>
      </trkpt>
      <trkpt lat="46.6516" lon="5.82021">
        <ele>612.840631</ele>
        <time>2020-10-25T10:37:41.639Z</time>
      </trkpt>
      <trkpt lat="46.65187" lon="5.81999">
        <ele>612.260432</ele>
        <time>2020-10-25T10:37:46.649Z</time>
      </trkpt>
      <trkpt lat="46.65202" lon="5.81986">
        <ele>611.948307</ele>
        <time>2020-10-25T10:37:49.469Z</time>
      </trkpt>
      <trkpt lat="46.65222" lon="5.81971">
        <ele>611.522534</ele>
        <time>2020-10-25T10:37:53.100Z</time>
      </trkpt>
      <trkpt lat="46.65233" lon="5.81962">
        <ele>611.300197</ele>
        <time>2020-10-25T10:37:54.958Z</time>
      </trkpt>
      <trkpt lat="46.65243" lon="5.81956">
        <ele>611.101327</ele>
        <time>2020-10-25T10:37:56.435Z</time>
      </trkpt>
      <trkpt lat="46.6536" lon="5.81884">
        <ele>606.605561</ele>
        <time>2020-10-25T10:38:14.183Z</time>
      </trkpt>
      <trkpt lat="46.65383" lon="5.81852">
        <ele>605.440682</ele>
        <time>2020-10-25T10:38:18.506Z</time>
      </trkpt>
      <trkpt lat="46.654" lon="5.81815">
        <ele>604.321337</ele>
        <time>2020-10-25T10:38:22.662Z</time>
      </trkpt>
      <trkpt lat="46.6543" lon="5.81742">
        <ele>602.055656</ele>
        <time>2020-10-25T10:38:30.555Z</time>
      </trkpt>
      <trkpt lat="46.65449" lon="5.8167">
        <ele>600.004444</ele>
        <time>2020-10-25T10:38:37.737Z</time>
      </trkpt>
      <trkpt lat="46.65466" lon="5.81593">
        <ele>597.84482</ele>
        <time>2020-10-25T10:38:45.500Z</time>
      </trkpt>
      <trkpt lat="46.65474" lon="5.81516">
        <ele>596.396957</ele>
        <time>2020-10-25T10:38:53.244Z</time>
      </trkpt>
      <trkpt lat="46.65479" lon="5.81463">
        <ele>595.521789</ele>
        <time>2020-10-25T10:38:58.600Z</time>
      </trkpt>
      <trkpt lat="46.65484" lon="5.81424">
        <ele>594.867141</ele>
        <time>2020-10-25T10:39:02.630Z</time>
      </trkpt>
      <trkpt lat="46.6551" lon="5.81298">
        <ele>592.865217</ele>
        <time>2020-10-25T10:39:16.895Z</time>
      </trkpt>
      <trkpt lat="46.65526" lon="5.81226">
        <ele>592.131162</ele>
        <time>2020-10-25T10:39:25.273Z</time>
      </trkpt>
      <trkpt lat="46.65532" lon="5.812">
        <ele>591.857545</ele>
        <time>2020-10-25T10:39:28.410Z</time>
      </trkpt>
      <trkpt lat="46.65549" lon="5.81151">
        <ele>591.327329</ele>
        <time>2020-10-25T10:39:34.558Z</time>
      </trkpt>
      <trkpt lat="46.6569" lon="5.80737">
        <ele>588.378885</ele>
        <time>2020-10-25T10:40:27.639Z</time>
      </trkpt>
      <trkpt lat="46.65691" lon="5.80677">
        <ele>588.373512</ele>
        <time>2020-10-25T10:40:36.607Z</time>
      </trkpt>
      <trkpt lat="46.6567" lon="5.8054">
        <ele>589.085994</ele>
        <time>2020-10-25T10:41:04.009Z</time>
      </trkpt>
      <trkpt lat="46.6568" lon="5.80442">
        <ele>590.314124</ele>
        <time>2020-10-25T10:41:26.773Z</time>
      </trkpt>
      <trkpt lat="46.65686" lon="5.80384">
        <ele>591.043643</ele>
        <time>2020-10-25T10:41:39.812Z</time>
      </trkpt>
      <trkpt lat="46.6569" lon="5.80351">
        <ele>591.459119</ele>
        <time>2020-10-25T10:41:47.146Z</time>
      </trkpt>
      <trkpt lat="46.65697" lon="5.80275">
        <ele>591.711488</ele>
        <time>2020-10-25T10:42:02.723Z</time>
      </trkpt>
      <trkpt lat="46.65698" lon="5.79875">
        <ele>590.888982</ele>
        <time>2020-10-25T10:42:55.142Z</time>
      </trkpt>
      <trkpt lat="46.65692" lon="5.7983">
        <ele>590.636284</ele>
        <time>2020-10-25T10:43:00.034Z</time>
      </trkpt>
      <trkpt lat="46.65661" lon="5.79671">
        <ele>588.504483</ele>
        <time>2020-10-25T10:43:17.399Z</time>
      </trkpt>
      <trkpt lat="46.6564" lon="5.79537">
        <ele>586.626464</ele>
        <time>2020-10-25T10:43:31.949Z</time>
      </trkpt>
      <trkpt lat="46.65639" lon="5.79517">
        <ele>586.338562</ele>
        <time>2020-10-25T10:43:34.078Z</time>
      </trkpt>
      <trkpt lat="46.65639" lon="5.79494">
        <ele>586.010138</ele>
        <time>2020-10-25T10:43:36.592Z</time>
      </trkpt>
      <trkpt lat="46.65638" lon="5.79428">
        <ele>585.072004</ele>
        <time>2020-10-25T10:43:43.669Z</time>
      </trkpt>
      <trkpt lat="46.65638" lon="5.79413">
        <ele>584.853538</ele>
        <time>2020-10-25T10:43:45.289Z</time>
      </trkpt>
      <trkpt lat="46.65638" lon="5.7938">
        <ele>584.385209</ele>
        <time>2020-10-25T10:43:48.785Z</time>
      </trkpt>
      <trkpt lat="46.65634" lon="5.79259">
        <ele>581.401322</ele>
        <time>2020-10-25T10:44:01.357Z</time>
      </trkpt>
      <trkpt lat="46.65624" lon="5.79174">
        <ele>577.632167</ele>
        <time>2020-10-25T10:44:09.601Z</time>
      </trkpt>
      <trkpt lat="46.65582" lon="5.79066">
        <ele>572.21728</ele>
        <time>2020-10-25T10:44:20.129Z</time>
      </trkpt>
      <trkpt lat="46.65553" lon="5.79024">
        <ele>567.386446</ele>
        <time>2020-10-25T10:44:25.010Z</time>
      </trkpt>
      <trkpt lat="46.65531" lon="5.79003">
        <ele>564.086814</ele>
        <time>2020-10-25T10:44:28.104Z</time>
      </trkpt>
      <trkpt lat="46.6551" lon="5.78983">
        <ele>560.945671</ele>
        <time>2020-10-25T10:44:31.010Z</time>
      </trkpt>
      <trkpt lat="46.65477" lon="5.78929">
        <ele>554.690321</ele>
        <time>2020-10-25T10:44:36.913Z</time>
      </trkpt>
      <trkpt lat="46.65464" lon="5.78901">
        <ele>551.810032</ele>
        <time>2020-10-25T10:44:39.575Z</time>
      </trkpt>
      <trkpt lat="46.65457" lon="5.78874">
        <ele>549.288371</ele>
        <time>2020-10-25T10:44:41.973Z</time>
      </trkpt>
      <trkpt lat="46.65443" lon="5.78803">
        <ele>545.400288</ele>
        <time>2020-10-25T10:44:47.944Z</time>
      </trkpt>
      <trkpt lat="46.65358" lon="5.7846">
        <ele>530.343961</ele>
        <time>2020-10-25T10:45:21.036Z</time>
      </trkpt>
      <trkpt lat="46.65327" lon="5.78308">
        <ele>526.730732</ele>
        <time>2020-10-25T10:45:36.631Z</time>
      </trkpt>
      <trkpt lat="46.65317" lon="5.78219">
        <ele>525.432896</ele>
        <time>2020-10-25T10:45:45.755Z</time>
      </trkpt>
      <trkpt lat="46.65312" lon="5.78111">
        <ele>523.991649</ele>
        <time>2020-10-25T10:45:57.763Z</time>
      </trkpt>
      <trkpt lat="46.65325" lon="5.77989">
        <ele>524.161713</ele>
        <time>2020-10-25T10:46:17.636Z</time>
      </trkpt>
      <trkpt lat="46.65327" lon="5.77983">
        <ele>524.170671</ele>
        <time>2020-10-25T10:46:18.466Z</time>
      </trkpt>
      <trkpt lat="46.65329" lon="5.77973">
        <ele>524.185216</ele>
        <time>2020-10-25T10:46:21.269Z</time>
      </trkpt>
      <trkpt lat="46.65341" lon="5.77956">
        <ele>524.217443</ele>
        <time>2020-10-25T10:46:24.416Z</time>
      </trkpt>
      <trkpt lat="46.65345" lon="5.77952">
        <ele>524.227608</ele>
        <time>2020-10-25T10:46:25.843Z</time>
      </trkpt>
      <trkpt lat="46.65359" lon="5.77937">
        <ele>524.263026</ele>
        <time>2020-10-25T10:46:30.109Z</time>
      </trkpt>
      <trkpt lat="46.65381" lon="5.77911">
        <ele>524.319659</ele>
        <time>2020-10-25T10:46:35.848Z</time>
      </trkpt>
      <trkpt lat="46.6539" lon="5.77897">
        <ele>524.339377</ele>
        <time>2020-10-25T10:46:39.368Z</time>
      </trkpt>
      <trkpt lat="46.65398" lon="5.77895">
        <ele>524.337614</ele>
        <time>2020-10-25T10:46:41.241Z</time>
      </trkpt>
      <trkpt lat="46.65448" lon="5.77881">
        <ele>524.326774</ele>
        <time>2020-10-25T10:46:53.005Z</time>
      </trkpt>
      <trkpt lat="46.65453" lon="5.77875">
        <ele>524.325268</ele>
        <time>2020-10-25T10:46:55.443Z</time>
      </trkpt>
      <trkpt lat="46.65462" lon="5.77862">
        <ele>524.322709</ele>
        <time>2020-10-25T10:46:57.594Z</time>
      </trkpt>
      <trkpt lat="46.65475" lon="5.7785">
        <ele>524.31938</ele>
        <time>2020-10-25T10:47:01.528Z</time>
      </trkpt>
      <trkpt lat="46.65478" lon="5.77846">
        <ele>524.318478</ele>
        <time>2020-10-25T10:47:02.107Z</time>
      </trkpt>
      <trkpt lat="46.65483" lon="5.77852">
        <ele>524.317041</ele>
        <time>2020-10-25T10:47:04.426Z</time>
      </trkpt>
      <trkpt lat="46.65517" lon="5.77873">
        <ele>524.309093</ele>
        <time>2020-10-25T10:47:11.464Z</time>
      </trkpt>
      <trkpt lat="46.65549" lon="5.77871">
        <ele>524.302236</ele>
        <time>2020-10-25T10:47:17.415Z</time>
      </trkpt>
      <trkpt lat="46.65597" lon="5.77853">
        <ele>524.085212</ele>
        <time>2020-10-25T10:47:25.550Z</time>
      </trkpt>
      <trkpt lat="46.65601" lon="5.77852">
        <ele>524.067989</ele>
        <time>2020-10-25T10:47:26.146Z</time>
      </trkpt>
      <trkpt lat="46.6561" lon="5.77849">
        <ele>524.024817</ele>
        <time>2020-10-25T10:47:27.740Z</time>
      </trkpt>
      <trkpt lat="46.65612" lon="5.77848">
        <ele>524.013542</ele>
        <time>2020-10-25T10:47:28.091Z</time>
      </trkpt>
      <trkpt lat="46.65616" lon="5.77847">
        <ele>523.992531</ele>
        <time>2020-10-25T10:47:28.695Z</time>
      </trkpt>
      <trkpt lat="46.65621" lon="5.77845">
        <ele>523.971986</ele>
        <time>2020-10-25T10:47:29.673Z</time>
      </trkpt>
      <trkpt lat="46.65623" lon="5.77844">
        <ele>523.958702</ele>
        <time>2020-10-25T10:47:30.223Z</time>
      </trkpt>
      <trkpt lat="46.65647" lon="5.77836">
        <ele>523.843086</ele>
        <time>2020-10-25T10:47:34.558Z</time>
      </trkpt>
      <trkpt lat="46.65649" lon="5.77835">
        <ele>523.830806</ele>
        <time>2020-10-25T10:47:35.276Z</time>
      </trkpt>
      <trkpt lat="46.65677" lon="5.77825">
        <ele>523.696958</ele>
        <time>2020-10-25T10:47:40.528Z</time>
      </trkpt>
      <trkpt lat="46.65689" lon="5.7782">
        <ele>523.635509</ele>
        <time>2020-10-25T10:47:43.191Z</time>
      </trkpt>
      <trkpt lat="46.65697" lon="5.77813">
        <ele>523.593557</ele>
        <time>2020-10-25T10:47:45.258Z</time>
      </trkpt>
      <trkpt lat="46.65719" lon="5.77795">
        <ele>523.473401</ele>
        <time>2020-10-25T10:47:50.311Z</time>
      </trkpt>
      <trkpt lat="46.65745" lon="5.77769">
        <ele>523.553385</ele>
        <time>2020-10-25T10:47:57.622Z</time>
      </trkpt>
      <trkpt lat="46.65772" lon="5.7774">
        <ele>523.693261</ele>
        <time>2020-10-25T10:48:05.890Z</time>
      </trkpt>
      <trkpt lat="46.65786" lon="5.77727">
        <ele>523.762562</ele>
        <time>2020-10-25T10:48:10.696Z</time>
      </trkpt>
      <trkpt lat="46.65811" lon="5.77716">
        <ele>523.873025</ele>
        <time>2020-10-25T10:48:16.443Z</time>
      </trkpt>
      <trkpt lat="46.65821" lon="5.77718">
        <ele>523.915637</ele>
        <time>2020-10-25T10:48:19.273Z</time>
      </trkpt>
      <trkpt lat="46.65843" lon="5.77721">
        <ele>524.006576</ele>
        <time>2020-10-25T10:48:23.552Z</time>
      </trkpt>
      <trkpt lat="46.65848" lon="5.7772">
        <ele>524.02728</ele>
        <time>2020-10-25T10:48:24.831Z</time>
      </trkpt>
      <trkpt lat="46.65854" lon="5.77718">
        <ele>524.056436</ele>
        <time>2020-10-25T10:48:26.664Z</time>
      </trkpt>
      <trkpt lat="46.65869" lon="5.77709">
        <ele>524.124761</ele>
        <time>2020-10-25T10:48:30.022Z</time>
      </trkpt>
      <trkpt lat="46.65897" lon="5.77691">
        <ele>524.184536</ele>
        <time>2020-10-25T10:48:37.148Z</time>
      </trkpt>
      <trkpt lat="46.65922" lon="5.77674">
        <ele>524.14915</ele>
        <time>2020-10-25T10:48:43.835Z</time>
      </trkpt>
      <trkpt lat="46.65929" lon="5.7767">
        <ele>524.140378</ele>
        <time>2020-10-25T10:48:45.340Z</time>
      </trkpt>
      <trkpt lat="46.65933" lon="5.77667">
        <ele>524.134296</ele>
        <time>2020-10-25T10:48:46.274Z</time>
      </trkpt>
      <trkpt lat="46.66003" lon="5.77622">
        <ele>524.038102</ele>
        <time>2020-10-25T10:49:01.985Z</time>
      </trkpt>
      <trkpt lat="46.66102" lon="5.77556">
        <ele>523.480047</ele>
        <time>2020-10-25T10:49:21.342Z</time>
      </trkpt>
      <trkpt lat="46.66103" lon="5.77555">
        <ele>523.467495</ele>
        <time>2020-10-25T10:49:21.547Z</time>
      </trkpt>
      <trkpt lat="46.66161" lon="5.77504">
        <ele>522.89274</ele>
        <time>2020-10-25T10:49:33.223Z</time>
      </trkpt>
      <trkpt lat="46.66182" lon="5.77484">
        <ele>522.678455</ele>
        <time>2020-10-25T10:49:37.608Z</time>
      </trkpt>
      <trkpt lat="46.6619" lon="5.77476">
        <ele>522.593162</ele>
        <time>2020-10-25T10:49:39.324Z</time>
      </trkpt>
      <trkpt lat="46.66181" lon="5.77459">
        <ele>522.471106</ele>
        <time>2020-10-25T10:49:41.745Z</time>
      </trkpt>
      <trkpt lat="46.66177" lon="5.77443">
        <ele>522.402762</ele>
        <time>2020-10-25T10:49:44.012Z</time>
      </trkpt>
      <trkpt lat="46.66177" lon="5.77434">
        <ele>522.376507</ele>
        <time>2020-10-25T10:49:45.092Z</time>
      </trkpt>
      <trkpt lat="46.66179" lon="5.77428">
        <ele>522.356929</ele>
        <time>2020-10-25T10:49:45.880Z</time>
      </trkpt>
      <trkpt lat="46.66205" lon="5.77386">
        <ele>522.194233</ele>
        <time>2020-10-25T10:49:52.727Z</time>
      </trkpt>
      <trkpt lat="46.66334" lon="5.7712">
        <ele>521.610762</ele>
        <time>2020-10-25T10:50:36.920Z</time>
      </trkpt>
      <trkpt lat="46.66353" lon="5.77073">
        <ele>521.584637</ele>
        <time>2020-10-25T10:50:44.976Z</time>
      </trkpt>
      <trkpt lat="46.66379" lon="5.77008">
        <ele>521.534864</ele>
        <time>2020-10-25T10:50:56.154Z</time>
      </trkpt>
      <trkpt lat="46.66393" lon="5.76959">
        <ele>521.465501</ele>
        <time>2020-10-25T10:51:03.799Z</time>
      </trkpt>
      <trkpt lat="46.6639" lon="5.76925">
        <ele>521.42106</ele>
        <time>2020-10-25T10:51:08.628Z</time>
      </trkpt>
      <trkpt lat="46.66336" lon="5.7674">
        <ele>520.92982</ele>
        <time>2020-10-25T10:51:35.226Z</time>
      </trkpt>
      <trkpt lat="46.66295" lon="5.76602">
        <ele>519.907072</ele>
        <time>2020-10-25T10:51:53.103Z</time>
      </trkpt>
      <trkpt lat="46.66273" lon="5.76526">
        <ele>519.251487</ele>
        <time>2020-10-25T10:52:02.571Z</time>
      </trkpt>
      <trkpt lat="46.66104" lon="5.75973">
        <ele>509.627132</ele>
        <time>2020-10-25T10:53:05.844Z</time>
      </trkpt>
      <trkpt lat="46.66093" lon="5.7595">
        <ele>508.921638</ele>
        <time>2020-10-25T10:53:08.497Z</time>
      </trkpt>
      <trkpt lat="46.66065" lon="5.7592">
        <ele>507.687006</ele>
        <time>2020-10-25T10:53:13.084Z</time>
      </trkpt>
      <trkpt lat="46.65993" lon="5.7587">
        <ele>504.978208</ele>
        <time>2020-10-25T10:53:23.790Z</time>
      </trkpt>
      <trkpt lat="46.65946" lon="5.75833">
        <ele>503.552923</ele>
        <time>2020-10-25T10:53:30.959Z</time>
      </trkpt>
      <trkpt lat="46.65846" lon="5.75753">
        <ele>500.709694</ele>
        <time>2020-10-25T10:53:48.400Z</time>
      </trkpt>
      <trkpt lat="46.65833" lon="5.75738">
        <ele>500.950048</ele>
        <time>2020-10-25T10:53:51.852Z</time>
      </trkpt>
      <trkpt lat="46.65826" lon="5.75719">
        <ele>501.185884</ele>
        <time>2020-10-25T10:53:55.622Z</time>
      </trkpt>
      <trkpt lat="46.65813" lon="5.75649">
        <ele>501.932463</ele>
        <time>2020-10-25T10:54:11.381Z</time>
      </trkpt>
      <trkpt lat="46.65823" lon="5.75586">
        <ele>502.606752</ele>
        <time>2020-10-25T10:54:27.347Z</time>
      </trkpt>
      <trkpt lat="46.65844" lon="5.75513">
        <ele>503.402606</ele>
        <time>2020-10-25T10:54:46.838Z</time>
      </trkpt>
      <trkpt lat="46.65872" lon="5.75416">
        <ele>504.154886</ele>
        <time>2020-10-25T10:55:10.081Z</time>
      </trkpt>
      <trkpt lat="46.65912" lon="5.75278">
        <ele>505.210851</ele>
        <time>2020-10-25T10:55:34.367Z</time>
      </trkpt>
      <trkpt lat="46.65921" lon="5.75228">
        <ele>504.656857</ele>
        <time>2020-10-25T10:55:40.528Z</time>
      </trkpt>
      <trkpt lat="46.65913" lon="5.75189">
        <ele>504.227039</ele>
        <time>2020-10-25T10:55:44.911Z</time>
      </trkpt>
      <trkpt lat="46.65865" lon="5.7512">
        <ele>503.183851</ele>
        <time>2020-10-25T10:55:55.360Z</time>
      </trkpt>
      <trkpt lat="46.65834" lon="5.75055">
        <ele>502.2643</ele>
        <time>2020-10-25T10:56:03.694Z</time>
      </trkpt>
      <trkpt lat="46.65811" lon="5.75031">
        <ele>501.440918</ele>
        <time>2020-10-25T10:56:08.046Z</time>
      </trkpt>
      <trkpt lat="46.65737" lon="5.74987">
        <ele>499.166025</ele>
        <time>2020-10-25T10:56:19.836Z</time>
      </trkpt>
      <trkpt lat="46.65724" lon="5.7497">
        <ele>498.670455</ele>
        <time>2020-10-25T10:56:22.360Z</time>
      </trkpt>
      <trkpt lat="46.65714" lon="5.7494">
        <ele>498.031955</ele>
        <time>2020-10-25T10:56:25.583Z</time>
      </trkpt>
      <trkpt lat="46.65681" lon="5.7476">
        <ele>492.60205</ele>
        <time>2020-10-25T10:56:42.994Z</time>
      </trkpt>
      <trkpt lat="46.65635" lon="5.74639">
        <ele>488.028436</ele>
        <time>2020-10-25T10:56:55.550Z</time>
      </trkpt>
      <trkpt lat="46.6561" lon="5.74588">
        <ele>485.684867</ele>
        <time>2020-10-25T10:57:01.040Z</time>
      </trkpt>
      <trkpt lat="46.6556" lon="5.74529">
        <ele>482.104148</ele>
        <time>2020-10-25T10:57:09.382Z</time>
      </trkpt>
      <trkpt lat="46.65527" lon="5.74458">
        <ele>478.795485</ele>
        <time>2020-10-25T10:57:17.089Z</time>
      </trkpt>
      <trkpt lat="46.65476" lon="5.74345">
        <ele>473.64739</ele>
        <time>2020-10-25T10:57:29.264Z</time>
      </trkpt>
      <trkpt lat="46.65446" lon="5.74277">
        <ele>470.581341</ele>
        <time>2020-10-25T10:57:36.479Z</time>
      </trkpt>
      <trkpt lat="46.65401" lon="5.74175">
        <ele>466.454559</ele>
        <time>2020-10-25T10:57:47.143Z</time>
      </trkpt>
      <trkpt lat="46.654" lon="5.74141">
        <ele>465.346482</ele>
        <time>2020-10-25T10:57:50.199Z</time>
      </trkpt>
      <trkpt lat="46.65405" lon="5.74126">
        <ele>464.788999</ele>
        <time>2020-10-25T10:57:51.804Z</time>
      </trkpt>
      <trkpt lat="46.65415" lon="5.74107">
        <ele>464.01292</ele>
        <time>2020-10-25T10:57:53.977Z</time>
      </trkpt>
      <trkpt lat="46.6545" lon="5.7405">
        <ele>461.55652</ele>
        <time>2020-10-25T10:58:01.186Z</time>
      </trkpt>
      <trkpt lat="46.65458" lon="5.74037">
        <ele>460.995612</ele>
        <time>2020-10-25T10:58:02.849Z</time>
      </trkpt>
      <trkpt lat="46.6547" lon="5.74008">
        <ele>460.497972</ele>
        <time>2020-10-25T10:58:06.176Z</time>
      </trkpt>
      <trkpt lat="46.65477" lon="5.73969">
        <ele>460.277157</ele>
        <time>2020-10-25T10:58:10.236Z</time>
      </trkpt>
      <trkpt lat="46.65479" lon="5.7394">
        <ele>460.119115</ele>
        <time>2020-10-25T10:58:13.264Z</time>
      </trkpt>
      <trkpt lat="46.65483" lon="5.73834">
        <ele>459.53658</ele>
        <time>2020-10-25T10:58:27.032Z</time>
      </trkpt>
      <trkpt lat="46.65492" lon="5.73653">
        <ele>460.460155</ele>
        <time>2020-10-25T10:59:03.488Z</time>
      </trkpt>
      <trkpt lat="46.655" lon="5.73539">
        <ele>461.696466</ele>
        <time>2020-10-25T10:59:26.982Z</time>
      </trkpt>
      <trkpt lat="46.65517" lon="5.7344">
        <ele>463.101398</ele>
        <time>2020-10-25T10:59:49.253Z</time>
      </trkpt>
      <trkpt lat="46.65521" lon="5.73426">
        <ele>463.323426</ele>
        <time>2020-10-25T10:59:52.435Z</time>
      </trkpt>
      <trkpt lat="46.65527" lon="5.73415">
        <ele>463.5314</ele>
        <time>2020-10-25T10:59:56.064Z</time>
      </trkpt>
      <trkpt lat="46.65542" lon="5.73396">
        <ele>463.959207</ele>
        <time>2020-10-25T11:00:01.986Z</time>
      </trkpt>
      <trkpt lat="46.65571" lon="5.73373">
        <ele>464.686621</ele>
        <time>2020-10-25T11:00:13.062Z</time>
      </trkpt>
      <trkpt lat="46.65585" lon="5.73366">
        <ele>465.005568</ele>
        <time>2020-10-25T11:00:18.307Z</time>
      </trkpt>
      <trkpt lat="46.65606" lon="5.73357">
        <ele>465.475587</ele>
        <time>2020-10-25T11:00:25.286Z</time>
      </trkpt>
      <trkpt lat="46.65623" lon="5.73352">
        <ele>465.844691</ele>
        <time>2020-10-25T11:00:31.630Z</time>
      </trkpt>
      <trkpt lat="46.65682" lon="5.73347">
        <ele>467.458641</ele>
        <time>2020-10-25T11:00:52.266Z</time>
      </trkpt>
      <trkpt lat="46.65905" lon="5.73329">
        <ele>474.042079</ele>
        <time>2020-10-25T11:02:15.146Z</time>
      </trkpt>
      <trkpt lat="46.65921" lon="5.73325">
        <ele>474.532205</ele>
        <time>2020-10-25T11:02:21.356Z</time>
      </trkpt>
      <trkpt lat="46.65933" lon="5.73314">
        <ele>474.980642</ele>
        <time>2020-10-25T11:02:26.212Z</time>
      </trkpt>
      <trkpt lat="46.65936" lon="5.73307">
        <ele>475.174898</ele>
        <time>2020-10-25T11:02:29.150Z</time>
      </trkpt>
      <trkpt lat="46.65939" lon="5.73298">
        <ele>475.37514</ele>
        <time>2020-10-25T11:02:32.316Z</time>
      </trkpt>
      <trkpt lat="46.65937" lon="5.73275">
        <ele>475.877236</ele>
        <time>2020-10-25T11:02:37.877Z</time>
      </trkpt>
      <trkpt lat="46.65927" lon="5.7326">
        <ele>476.313905</ele>
        <time>2020-10-25T11:02:43.597Z</time>
      </trkpt>
      <trkpt lat="46.6585" lon="5.73226">
        <ele>479.485299</ele>
        <time>2020-10-25T11:03:17.001Z</time>
      </trkpt>
      <trkpt lat="46.65829" lon="5.7319">
        <ele>480.785276</ele>
        <time>2020-10-25T11:03:30.606Z</time>
      </trkpt>
      <trkpt lat="46.65811" lon="5.73129">
        <ele>482.597689</ele>
        <time>2020-10-25T11:03:47.740Z</time>
      </trkpt>
      <trkpt lat="46.65786" lon="5.72926">
        <ele>490.580706</ele>
        <time>2020-10-25T11:05:03.444Z</time>
      </trkpt>
      <trkpt lat="46.65783" lon="5.729">
        <ele>491.67863</ele>
        <time>2020-10-25T11:05:13.988Z</time>
      </trkpt>
      <trkpt lat="46.6578" lon="5.72874">
        <ele>492.772449</ele>
        <time>2020-10-25T11:05:25.982Z</time>
      </trkpt>
      <trkpt lat="46.65777" lon="5.72844">
        <ele>494.038209</ele>
        <time>2020-10-25T11:05:37.760Z</time>
      </trkpt>
      <trkpt lat="46.65777" lon="5.7284">
        <ele>494.180963</ele>
        <time>2020-10-25T11:05:39.155Z</time>
      </trkpt>
      <trkpt lat="46.65781" lon="5.72839">
        <ele>494.44585</ele>
        <time>2020-10-25T11:05:50.174Z</time>
      </trkpt>
      <trkpt lat="46.65791" lon="5.72832">
        <ele>495.124135</ele>
        <time>2020-10-25T11:06:09.785Z</time>
      </trkpt>
      <trkpt lat="46.65819" lon="5.72779">
        <ele>497.915823</ele>
        <time>2020-10-25T11:07:36.061Z</time>
      </trkpt>
      <trkpt lat="46.65825" lon="5.72776">
        <ele>498.297964</ele>
        <time>2020-10-25T11:07:50.049Z</time>
      </trkpt>
      <trkpt lat="46.6583" lon="5.72784">
        <ele>498.75521</ele>
        <time>2020-10-25T11:07:55.567Z</time>
      </trkpt>
      <trkpt lat="46.65836" lon="5.72794">
        <ele>499.342486</ele>
        <time>2020-10-25T11:08:00.137Z</time>
      </trkpt>
      <trkpt lat="46.65842" lon="5.72806">
        <ele>499.927706</ele>
        <time>2020-10-25T11:08:03.490Z</time>
      </trkpt>
      <trkpt lat="46.65888" lon="5.72989">
        <ele>507.976686</ele>
        <time>2020-10-25T11:09:16.365Z</time>
      </trkpt>
      <trkpt lat="46.65898" lon="5.73015">
        <ele>509.182237</ele>
        <time>2020-10-25T11:09:26.006Z</time>
      </trkpt>
      <trkpt lat="46.65905" lon="5.73028">
        <ele>509.847274</ele>
        <time>2020-10-25T11:09:31.043Z</time>
      </trkpt>
      <trkpt lat="46.65924" lon="5.73049">
        <ele>511.226435</ele>
        <time>2020-10-25T11:09:42.484Z</time>
      </trkpt>
      <trkpt lat="46.65943" lon="5.73054">
        <ele>512.323438</ele>
        <time>2020-10-25T11:09:51.174Z</time>
      </trkpt>
      <trkpt lat="46.65953" lon="5.73052">
        <ele>512.91874</ele>
        <time>2020-10-25T11:09:57.499Z</time>
      </trkpt>
      <trkpt lat="46.65964" lon="5.73046">
        <ele>513.579419</ele>
        <time>2020-10-25T11:10:03.984Z</time>
      </trkpt>
      <trkpt lat="46.65996" lon="5.73">
        <ele>516.230521</ele>
        <time>2020-10-25T11:10:29.018Z</time>
      </trkpt>
      <trkpt lat="46.66006" lon="5.72986">
        <ele>517.2618</ele>
        <time>2020-10-25T11:10:37.391Z</time>
      </trkpt>
      <trkpt lat="46.6601" lon="5.72982">
        <ele>517.586415</ele>
        <time>2020-10-25T11:10:41.082Z</time>
      </trkpt>
      <trkpt lat="46.66046" lon="5.7294">
        <ele>521.03339</ele>
        <time>2020-10-25T11:11:09.683Z</time>
      </trkpt>
      <trkpt lat="46.66063" lon="5.72912">
        <ele>522.910355</ele>
        <time>2020-10-25T11:11:26.532Z</time>
      </trkpt>
      <trkpt lat="46.66092" lon="5.72877">
        <ele>525.761434</ele>
        <time>2020-10-25T11:11:49.983Z</time>
      </trkpt>
      <trkpt lat="46.66207" lon="5.72815">
        <ele>535.308126</ele>
        <time>2020-10-25T11:13:08.355Z</time>
      </trkpt>
      <trkpt lat="46.66263" lon="5.72774">
        <ele>540.407651</ele>
        <time>2020-10-25T11:13:50.539Z</time>
      </trkpt>
      <trkpt lat="46.66282" lon="5.72746">
        <ele>542.575249</ele>
        <time>2020-10-25T11:14:09.049Z</time>
      </trkpt>
      <trkpt lat="46.66315" lon="5.72652">
        <ele>547.830245</ele>
        <time>2020-10-25T11:14:58.739Z</time>
      </trkpt>
      <trkpt lat="46.66322" lon="5.72615">
        <ele>549.689306</ele>
        <time>2020-10-25T11:15:16.248Z</time>
      </trkpt>
      <trkpt lat="46.66322" lon="5.72576">
        <ele>551.554796</ele>
        <time>2020-10-25T11:15:32.870Z</time>
      </trkpt>
      <trkpt lat="46.66314" lon="5.72534">
        <ele>553.618598</ele>
        <time>2020-10-25T11:15:50.078Z</time>
      </trkpt>
      <trkpt lat="46.66295" lon="5.72481">
        <ele>556.488229</ele>
        <time>2020-10-25T11:16:11.916Z</time>
      </trkpt>
      <trkpt lat="46.66275" lon="5.72445">
        <ele>557.112835</ele>
        <time>2020-10-25T11:16:27.519Z</time>
      </trkpt>
      <trkpt lat="46.66166" lon="5.72295">
        <ele>559.583117</ele>
        <time>2020-10-25T11:17:07.355Z</time>
      </trkpt>
      <trkpt lat="46.6615" lon="5.72282">
        <ele>559.536135</ele>
        <time>2020-10-25T11:17:10.640Z</time>
      </trkpt>
      <trkpt lat="46.661" lon="5.72273">
        <ele>559.410321</ele>
        <time>2020-10-25T11:17:17.743Z</time>
      </trkpt>
      <trkpt lat="46.66082" lon="5.72261">
        <ele>559.360323</ele>
        <time>2020-10-25T11:17:20.842Z</time>
      </trkpt>
      <trkpt lat="46.66074" lon="5.72252">
        <ele>559.334492</ele>
        <time>2020-10-25T11:17:23.280Z</time>
      </trkpt>
      <trkpt lat="46.66068" lon="5.72241">
        <ele>559.310143</ele>
        <time>2020-10-25T11:17:24.616Z</time>
      </trkpt>
      <trkpt lat="46.66007" lon="5.72149">
        <ele>560.020079</ele>
        <time>2020-10-25T11:17:48.248Z</time>
      </trkpt>
      <trkpt lat="46.65996" lon="5.72113">
        <ele>561.479944</ele>
        <time>2020-10-25T11:17:57.681Z</time>
      </trkpt>
      <trkpt lat="46.65996" lon="5.72103">
        <ele>561.851503</ele>
        <time>2020-10-25T11:17:59.751Z</time>
      </trkpt>
      <trkpt lat="46.65997" lon="5.72093">
        <ele>562.245489</ele>
        <time>2020-10-25T11:18:05.399Z</time>
      </trkpt>
      <trkpt lat="46.65999" lon="5.72083">
        <ele>562.600339</ele>
        <time>2020-10-25T11:18:07.247Z</time>
      </trkpt>
      <trkpt lat="46.66017" lon="5.72032">
        <ele>564.75155</ele>
        <time>2020-10-25T11:18:28.177Z</time>
      </trkpt>
      <trkpt lat="46.66083" lon="5.71845">
        <ele>571.537088</ele>
        <time>2020-10-25T11:20:03.424Z</time>
      </trkpt>
      <trkpt lat="46.66104" lon="5.71769">
        <ele>573.751054</ele>
        <time>2020-10-25T11:20:25.506Z</time>
      </trkpt>
      <trkpt lat="46.66106" lon="5.71751">
        <ele>574.224083</ele>
        <time>2020-10-25T11:20:31.025Z</time>
      </trkpt>
      <trkpt lat="46.66106" lon="5.71737">
        <ele>574.615748</ele>
        <time>2020-10-25T11:20:32.786Z</time>
      </trkpt>
      <trkpt lat="46.661" lon="5.71678">
        <ele>575.569291</ele>
        <time>2020-10-25T11:20:41.295Z</time>
      </trkpt>
      <trkpt lat="46.6607" lon="5.71566">
        <ele>572.121759</ele>
        <time>2020-10-25T11:20:53.006Z</time>
      </trkpt>
      <trkpt lat="46.66066" lon="5.7153">
        <ele>571.072032</ele>
        <time>2020-10-25T11:20:56.208Z</time>
      </trkpt>
      <trkpt lat="46.66068" lon="5.71494">
        <ele>570.031969</ele>
        <time>2020-10-25T11:20:59.336Z</time>
      </trkpt>
      <trkpt lat="46.66077" lon="5.71457">
        <ele>568.897278</ele>
        <time>2020-10-25T11:21:02.738Z</time>
      </trkpt>
      <trkpt lat="46.66093" lon="5.71419">
        <ele>567.70036</ele>
        <time>2020-10-25T11:21:06.653Z</time>
      </trkpt>
      <trkpt lat="46.66109" lon="5.71398">
        <ele>566.914473</ele>
        <time>2020-10-25T11:21:09.432Z</time>
      </trkpt>
      <trkpt lat="46.66141" lon="5.71357">
        <ele>565.330504</ele>
        <time>2020-10-25T11:21:15.058Z</time>
      </trkpt>
      <trkpt lat="46.66179" lon="5.71312">
        <ele>563.54055</ele>
        <time>2020-10-25T11:21:21.726Z</time>
      </trkpt>
      <trkpt lat="46.66535" lon="5.70884">
        <ele>561.360869</ele>
        <time>2020-10-25T11:22:55.828Z</time>
      </trkpt>
      <trkpt lat="46.6656" lon="5.70865">
        <ele>561.413929</ele>
        <time>2020-10-25T11:23:02.224Z</time>
      </trkpt>
      <trkpt lat="46.66638" lon="5.70835">
        <ele>561.564742</ele>
        <time>2020-10-25T11:23:20.268Z</time>
      </trkpt>
      <trkpt lat="46.66734" lon="5.70822">
        <ele>561.84679</ele>
        <time>2020-10-25T11:23:42.142Z</time>
      </trkpt>
      <trkpt lat="46.66888" lon="5.70812">
        <ele>562.465114</ele>
        <time>2020-10-25T11:24:16.261Z</time>
      </trkpt>
      <trkpt lat="46.66967" lon="5.70806">
        <ele>562.914785</ele>
        <time>2020-10-25T11:24:34.302Z</time>
      </trkpt>
      <trkpt lat="46.66994" lon="5.70804">
        <ele>563.068466</ele>
        <time>2020-10-25T11:24:41.430Z</time>
      </trkpt>
      <trkpt lat="46.67018" lon="5.70788">
        <ele>563.253385</ele>
        <time>2020-10-25T11:24:48.698Z</time>
      </trkpt>
      <trkpt lat="46.67025" lon="5.70763">
        <ele>563.499781</ele>
        <time>2020-10-25T11:24:53.755Z</time>
      </trkpt>
      <trkpt lat="46.67023" lon="5.70707">
        <ele>564.018469</ele>
        <time>2020-10-25T11:25:04.617Z</time>
      </trkpt>
      <trkpt lat="46.67016" lon="5.70661">
        <ele>564.448523</ele>
        <time>2020-10-25T11:25:13.975Z</time>
      </trkpt>
      <trkpt lat="46.66998" lon="5.70571">
        <ele>565.310022</ele>
        <time>2020-10-25T11:25:33.294Z</time>
      </trkpt>
      <trkpt lat="46.66928" lon="5.70384">
        <ele>566.453034</ele>
        <time>2020-10-25T11:26:13.439Z</time>
      </trkpt>
      <trkpt lat="46.66885" lon="5.7031">
        <ele>566.563465</ele>
        <time>2020-10-25T11:26:26.751Z</time>
      </trkpt>
      <trkpt lat="46.66811" lon="5.70233">
        <ele>564.456961</ele>
        <time>2020-10-25T11:26:42.328Z</time>
      </trkpt>
      <trkpt lat="46.6674" lon="5.70116">
        <ele>560.085291</ele>
        <time>2020-10-25T11:26:57.077Z</time>
      </trkpt>
      <trkpt lat="46.66715" lon="5.70016">
        <ele>553.79699</ele>
        <time>2020-10-25T11:27:06.133Z</time>
      </trkpt>
      <trkpt lat="46.66712" lon="5.69958">
        <ele>550.350118</ele>
        <time>2020-10-25T11:27:10.945Z</time>
      </trkpt>
      <trkpt lat="46.66734" lon="5.69767">
        <ele>537.118343</ele>
        <time>2020-10-25T11:27:26.656Z</time>
      </trkpt>
      <trkpt lat="46.66763" lon="5.69627">
        <ele>528.031114</ele>
        <time>2020-10-25T11:27:38.873Z</time>
      </trkpt>
      <trkpt lat="46.66796" lon="5.69524">
        <ele>526.603584</ele>
        <time>2020-10-25T11:27:49.667Z</time>
      </trkpt>
      <trkpt lat="46.66875" lon="5.69321">
        <ele>527.091629</ele>
        <time>2020-10-25T11:28:43.149Z</time>
      </trkpt>
      <trkpt lat="46.669" lon="5.69269">
        <ele>528.294931</ele>
        <time>2020-10-25T11:29:00.670Z</time>
      </trkpt>
      <trkpt lat="46.66923" lon="5.69233">
        <ele>529.210556</ele>
        <time>2020-10-25T11:29:13.850Z</time>
      </trkpt>
      <trkpt lat="46.67101" lon="5.69019">
        <ele>534.808997</ele>
        <time>2020-10-25T11:30:36.771Z</time>
      </trkpt>
      <trkpt lat="46.67122" lon="5.68982">
        <ele>534.94533</ele>
        <time>2020-10-25T11:30:46.092Z</time>
      </trkpt>
      <trkpt lat="46.67128" lon="5.68953">
        <ele>535.03294</ele>
        <time>2020-10-25T11:30:51.794Z</time>
      </trkpt>
      <trkpt lat="46.67149" lon="5.68745">
        <ele>534.305374</ele>
        <time>2020-10-25T11:31:18.302Z</time>
      </trkpt>
      <trkpt lat="46.67172" lon="5.67887">
        <ele>518.464134</ele>
        <time>2020-10-25T11:32:42.975Z</time>
      </trkpt>
      <trkpt lat="46.67174" lon="5.67828">
        <ele>517.668346</ele>
        <time>2020-10-25T11:32:49.552Z</time>
      </trkpt>
      <trkpt lat="46.67176" lon="5.67716">
        <ele>516.564716</ele>
        <time>2020-10-25T11:33:03.282Z</time>
      </trkpt>
      <trkpt lat="46.67176" lon="5.67698">
        <ele>516.504502</ele>
        <time>2020-10-25T11:33:05.990Z</time>
      </trkpt>
      <trkpt lat="46.67178" lon="5.67651">
        <ele>516.346859</ele>
        <time>2020-10-25T11:33:12.356Z</time>
      </trkpt>
      <trkpt lat="46.67183" lon="5.67464">
        <ele>515.533028</ele>
        <time>2020-10-25T11:33:37.137Z</time>
      </trkpt>
      <trkpt lat="46.67185" lon="5.67409">
        <ele>515.008064</ele>
        <time>2020-10-25T11:33:43.390Z</time>
      </trkpt>
      <trkpt lat="46.67192" lon="5.67201">
        <ele>513.005944</ele>
        <time>2020-10-25T11:34:06.007Z</time>
      </trkpt>
      <trkpt lat="46.67193" lon="5.67115">
        <ele>512.082112</ele>
        <time>2020-10-25T11:34:15.344Z</time>
      </trkpt>
      <trkpt lat="46.67178" lon="5.67018">
        <ele>511.02499</ele>
        <time>2020-10-25T11:34:26.231Z</time>
      </trkpt>
      <trkpt lat="46.67173" lon="5.6699">
        <ele>510.714622</ele>
        <time>2020-10-25T11:34:29.516Z</time>
      </trkpt>
      <trkpt lat="46.67143" lon="5.66811">
        <ele>509.377073</ele>
        <time>2020-10-25T11:34:50.877Z</time>
      </trkpt>
      <trkpt lat="46.67095" lon="5.66508">
        <ele>507.687659</ele>
        <time>2020-10-25T11:35:28.848Z</time>
      </trkpt>
      <trkpt lat="46.67078" lon="5.66457">
        <ele>507.445655</ele>
        <time>2020-10-25T11:35:36.028Z</time>
      </trkpt>
      <trkpt lat="46.67031" lon="5.66349">
        <ele>507.108877</ele>
        <time>2020-10-25T11:35:52.527Z</time>
      </trkpt>
      <trkpt lat="46.67001" lon="5.66221">
        <ele>506.816334</ele>
        <time>2020-10-25T11:36:10.541Z</time>
      </trkpt>
      <trkpt lat="46.66947" lon="5.66071">
        <ele>507.167269</ele>
        <time>2020-10-25T11:36:34.446Z</time>
      </trkpt>
      <trkpt lat="46.66874" lon="5.65886">
        <ele>508.71268</ele>
        <time>2020-10-25T11:37:14.227Z</time>
      </trkpt>
      <trkpt lat="46.66856" lon="5.65839">
        <ele>509.262193</ele>
        <time>2020-10-25T11:37:25.534Z</time>
      </trkpt>
      <trkpt lat="46.668" lon="5.65701">
        <ele>511.370897</ele>
        <time>2020-10-25T11:38:01.232Z</time>
      </trkpt>
      <trkpt lat="46.66777" lon="5.65646">
        <ele>512.36146</ele>
        <time>2020-10-25T11:38:16.051Z</time>
      </trkpt>
      <trkpt lat="46.66701" lon="5.65457">
        <ele>515.664788</ele>
        <time>2020-10-25T11:39:07.708Z</time>
      </trkpt>
      <trkpt lat="46.66672" lon="5.65373">
        <ele>517.064847</ele>
        <time>2020-10-25T11:39:29.809Z</time>
      </trkpt>
      <trkpt lat="46.66658" lon="5.65333">
        <ele>517.727452</ele>
        <time>2020-10-25T11:39:39.184Z</time>
      </trkpt>
      <trkpt lat="46.66649" lon="5.65305">
        <ele>517.951662</ele>
        <time>2020-10-25T11:39:45.497Z</time>
      </trkpt>
      <trkpt lat="46.6664" lon="5.65274">
        <ele>517.953724</ele>
        <time>2020-10-25T11:39:51.605Z</time>
      </trkpt>
      <trkpt lat="46.66631" lon="5.65237">
        <ele>517.956117</ele>
        <time>2020-10-25T11:39:58.720Z</time>
      </trkpt>
      <trkpt lat="46.66627" lon="5.65205">
        <ele>517.958074</ele>
        <time>2020-10-25T11:40:04.227Z</time>
      </trkpt>
      <trkpt lat="46.66625" lon="5.65188">
        <ele>517.959142</ele>
        <time>2020-10-25T11:40:06.320Z</time>
      </trkpt>
      <trkpt lat="46.66599" lon="5.65127">
        <ele>517.963491</ele>
        <time>2020-10-25T11:40:15.468Z</time>
      </trkpt>
      <trkpt lat="46.6656" lon="5.65073">
        <ele>517.747414</ele>
        <time>2020-10-25T11:40:24.227Z</time>
      </trkpt>
      <trkpt lat="46.66539" lon="5.65051">
        <ele>517.433551</ele>
        <time>2020-10-25T11:40:28.266Z</time>
      </trkpt>
      <trkpt lat="46.66535" lon="5.65044">
        <ele>517.354618</ele>
        <time>2020-10-25T11:40:29.298Z</time>
      </trkpt>
      <trkpt lat="46.66533" lon="5.65042">
        <ele>517.327749</ele>
        <time>2020-10-25T11:40:29.622Z</time>
      </trkpt>
      <trkpt lat="46.66531" lon="5.65031">
        <ele>517.232377</ele>
        <time>2020-10-25T11:40:30.765Z</time>
      </trkpt>
      <trkpt lat="46.66533" lon="5.64982">
        <ele>516.826732</ele>
        <time>2020-10-25T11:40:36.450Z</time>
      </trkpt>
      <trkpt lat="46.6654" lon="5.64928">
        <ele>516.367005</ele>
        <time>2020-10-25T11:40:42.840Z</time>
      </trkpt>
      <trkpt lat="46.66541" lon="5.6492">
        <ele>516.296154</ele>
        <time>2020-10-25T11:40:43.788Z</time>
      </trkpt>
      <trkpt lat="46.66545" lon="5.64891">
        <ele>516.054229</ele>
        <time>2020-10-25T11:40:47.333Z</time>
      </trkpt>
      <trkpt lat="46.66555" lon="5.64832">
        <ele>515.74462</ele>
        <time>2020-10-25T11:40:54.394Z</time>
      </trkpt>
      <trkpt lat="46.66556" lon="5.64826">
        <ele>515.736909</ele>
        <time>2020-10-25T11:40:55.123Z</time>
      </trkpt>
      <trkpt lat="46.66555" lon="5.64812">
        <ele>515.71963</ele>
        <time>2020-10-25T11:40:56.838Z</time>
      </trkpt>
      <trkpt lat="46.66553" lon="5.64801">
        <ele>515.706474</ele>
        <time>2020-10-25T11:40:58.280Z</time>
      </trkpt>
      <trkpt lat="46.6655" lon="5.64788">
        <ele>515.689075</ele>
        <time>2020-10-25T11:41:00.162Z</time>
      </trkpt>
      <trkpt lat="46.66548" lon="5.64775">
        <ele>515.673029</ele>
        <time>2020-10-25T11:41:01.972Z</time>
      </trkpt>
      <trkpt lat="46.66547" lon="5.64767">
        <ele>515.664134</ele>
        <time>2020-10-25T11:41:02.839Z</time>
      </trkpt>
      <trkpt lat="46.66553" lon="5.64721">
        <ele>515.607913</ele>
        <time>2020-10-25T11:41:09.082Z</time>
      </trkpt>
      <trkpt lat="46.66563" lon="5.64679">
        <ele>515.554975</ele>
        <time>2020-10-25T11:41:15.762Z</time>
      </trkpt>
      <trkpt lat="46.66573" lon="5.64638">
        <ele>515.502203</ele>
        <time>2020-10-25T11:41:22.544Z</time>
      </trkpt>
      <trkpt lat="46.6658" lon="5.64607">
        <ele>515.465287</ele>
        <time>2020-10-25T11:41:27.527Z</time>
      </trkpt>
      <trkpt lat="46.66584" lon="5.64588">
        <ele>515.580318</ele>
        <time>2020-10-25T11:41:31.385Z</time>
      </trkpt>
      <trkpt lat="46.66595" lon="5.64509">
        <ele>516.050967</ele>
        <time>2020-10-25T11:41:44.429Z</time>
      </trkpt>
      <trkpt lat="46.66599" lon="5.64473">
        <ele>516.259453</ele>
        <time>2020-10-25T11:41:50.765Z</time>
      </trkpt>
      <trkpt lat="46.66601" lon="5.64397">
        <ele>516.701934</ele>
        <time>2020-10-25T11:42:03.617Z</time>
      </trkpt>
      <trkpt lat="46.66598" lon="5.64385">
        <ele>516.778438</ele>
        <time>2020-10-25T11:42:06.663Z</time>
      </trkpt>
      <trkpt lat="46.66592" lon="5.64353">
        <ele>516.969591</ele>
        <time>2020-10-25T11:42:12.746Z</time>
      </trkpt>
      <trkpt lat="46.6659" lon="5.64323">
        <ele>517.230131</ele>
        <time>2020-10-25T11:42:19.334Z</time>
      </trkpt>
      <trkpt lat="46.66596" lon="5.64224">
        <ele>518.108355</ele>
        <time>2020-10-25T11:42:39.763Z</time>
      </trkpt>
      <trkpt lat="46.66595" lon="5.6421">
        <ele>518.232075</ele>
        <time>2020-10-25T11:42:42.449Z</time>
      </trkpt>
      <trkpt lat="46.66594" lon="5.64186">
        <ele>518.440897</ele>
        <time>2020-10-25T11:42:46.848Z</time>
      </trkpt>
      <trkpt lat="46.66594" lon="5.64163">
        <ele>518.648171</ele>
        <time>2020-10-25T11:42:51.956Z</time>
      </trkpt>
      <trkpt lat="46.66599" lon="5.64124">
        <ele>518.999548</ele>
        <time>2020-10-25T11:42:59.001Z</time>
      </trkpt>
      <trkpt lat="46.6662" lon="5.64061">
        <ele>519.297594</ele>
        <time>2020-10-25T11:43:11.202Z</time>
      </trkpt>
      <trkpt lat="46.66631" lon="5.6402">
        <ele>519.294512</ele>
        <time>2020-10-25T11:43:18.334Z</time>
      </trkpt>
      <trkpt lat="46.66606" lon="5.64007">
        <ele>519.291796</ele>
        <time>2020-10-25T11:43:25.314Z</time>
      </trkpt>
      <trkpt lat="46.6655" lon="5.63982">
        <ele>519.285834</ele>
        <time>2020-10-25T11:43:41.011Z</time>
      </trkpt>
      <trkpt lat="46.66521" lon="5.63949">
        <ele>519.282118</ele>
        <time>2020-10-25T11:43:50.577Z</time>
      </trkpt>
      <trkpt lat="46.66504" lon="5.63917">
        <ele>519.437263</ele>
        <time>2020-10-25T11:43:57.957Z</time>
      </trkpt>
      <trkpt lat="46.66493" lon="5.6389">
        <ele>519.57289</ele>
        <time>2020-10-25T11:44:03.205Z</time>
      </trkpt>
      <trkpt lat="46.66474" lon="5.63823">
        <ele>519.895169</ele>
        <time>2020-10-25T11:44:17.380Z</time>
      </trkpt>
      <trkpt lat="46.66457" lon="5.63709">
        <ele>520.408802</ele>
        <time>2020-10-25T11:44:44.318Z</time>
      </trkpt>
      <trkpt lat="46.66459" lon="5.63649">
        <ele>521.518068</ele>
        <time>2020-10-25T11:45:03.822Z</time>
      </trkpt>
      <trkpt lat="46.66474" lon="5.6358">
        <ele>522.97567</ele>
        <time>2020-10-25T11:45:27.937Z</time>
      </trkpt>
      <trkpt lat="46.66482" lon="5.63519">
        <ele>524.216904</ele>
        <time>2020-10-25T11:45:47.875Z</time>
      </trkpt>
      <trkpt lat="46.66479" lon="5.63491">
        <ele>524.78653</ele>
        <time>2020-10-25T11:45:57.875Z</time>
      </trkpt>
      <trkpt lat="46.66459" lon="5.63485">
        <ele>525.376515</ele>
        <time>2020-10-25T11:46:06.048Z</time>
      </trkpt>
      <trkpt lat="46.66442" lon="5.63477">
        <ele>525.764417</ele>
        <time>2020-10-25T11:46:14.301Z</time>
      </trkpt>
      <trkpt lat="46.66422" lon="5.6346">
        <ele>525.985923</ele>
        <time>2020-10-25T11:46:23.338Z</time>
      </trkpt>
      <trkpt lat="46.66387" lon="5.63436">
        <ele>526.366378</ele>
        <time>2020-10-25T11:46:38.754Z</time>
      </trkpt>
      <trkpt lat="46.66369" lon="5.63409">
        <ele>526.614787</ele>
        <time>2020-10-25T11:46:47.660Z</time>
      </trkpt>
      <trkpt lat="46.66364" lon="5.63387">
        <ele>526.767941</ele>
        <time>2020-10-25T11:46:53.835Z</time>
      </trkpt>
      <trkpt lat="46.6636" lon="5.63359">
        <ele>526.959986</ele>
        <time>2020-10-25T11:46:59.594Z</time>
      </trkpt>
      <trkpt lat="46.66358" lon="5.63333">
        <ele>527.133679</ele>
        <time>2020-10-25T11:47:04.330Z</time>
      </trkpt>
      <trkpt lat="46.66348" lon="5.63295">
        <ele>527.405396</ele>
        <time>2020-10-25T11:47:11.257Z</time>
      </trkpt>
      <trkpt lat="46.66324" lon="5.63247">
        <ele>526.905501</ele>
        <time>2020-10-25T11:47:20.928Z</time>
      </trkpt>
      <trkpt lat="46.66275" lon="5.63199">
        <ele>526.050973</ele>
        <time>2020-10-25T11:47:34.143Z</time>
      </trkpt>
      <trkpt lat="46.66268" lon="5.63185">
        <ele>525.880396</ele>
        <time>2020-10-25T11:47:36.864Z</time>
      </trkpt>
      <trkpt lat="46.66244" lon="5.63093">
        <ele>524.909449</ele>
        <time>2020-10-25T11:47:52.443Z</time>
      </trkpt>
      <trkpt lat="46.66241" lon="5.63069">
        <ele>524.742367</ele>
        <time>2020-10-25T11:47:56.363Z</time>
      </trkpt>
      <trkpt lat="46.66232" lon="5.63064">
        <ele>524.661814</ele>
        <time>2020-10-25T11:47:58.348Z</time>
      </trkpt>
      <trkpt lat="46.66178" lon="5.63043">
        <ele>524.168773</ele>
        <time>2020-10-25T11:48:11.920Z</time>
      </trkpt>
      <trkpt lat="46.66152" lon="5.63023">
        <ele>523.918248</ele>
        <time>2020-10-25T11:48:18.839Z</time>
      </trkpt>
      <trkpt lat="46.66135" lon="5.6299">
        <ele>523.670063</ele>
        <time>2020-10-25T11:48:25.782Z</time>
      </trkpt>
      <trkpt lat="46.66119" lon="5.62922">
        <ele>523.338251</ele>
        <time>2020-10-25T11:48:38.740Z</time>
      </trkpt>
      <trkpt lat="46.66066" lon="5.62853">
        <ele>524.228295</ele>
        <time>2020-10-25T11:49:00.933Z</time>
      </trkpt>
      <trkpt lat="46.65991" lon="5.6273">
        <ele>525.804159</ele>
        <time>2020-10-25T11:49:44.211Z</time>
      </trkpt>
      <trkpt lat="46.65937" lon="5.62642">
        <ele>528.224105</ele>
        <time>2020-10-25T11:50:22.191Z</time>
      </trkpt>
      <trkpt lat="46.65924" lon="5.62624">
        <ele>528.781811</ele>
        <time>2020-10-25T11:50:31.405Z</time>
      </trkpt>
      <trkpt lat="46.65865" lon="5.62573">
        <ele>530.845921</ele>
        <time>2020-10-25T11:51:02.564Z</time>
      </trkpt>
      <trkpt lat="46.65862" lon="5.62569">
        <ele>530.946751</ele>
        <time>2020-10-25T11:51:05.436Z</time>
      </trkpt>
      <trkpt lat="46.65855" lon="5.62558">
        <ele>531.100405</ele>
        <time>2020-10-25T11:51:09.103Z</time>
      </trkpt>
      <trkpt lat="46.65831" lon="5.62516">
        <ele>531.670662</ele>
        <time>2020-10-25T11:51:22.247Z</time>
      </trkpt>
      <trkpt lat="46.65817" lon="5.62501">
        <ele>531.936201</ele>
        <time>2020-10-25T11:51:27.320Z</time>
      </trkpt>
      <trkpt lat="46.65814" lon="5.62487">
        <ele>532.08606</ele>
        <time>2020-10-25T11:51:31.233Z</time>
      </trkpt>
      <trkpt lat="46.65768" lon="5.62387">
        <ele>533.343127</ele>
        <time>2020-10-25T11:51:53.841Z</time>
      </trkpt>
      <trkpt lat="46.65743" lon="5.62351">
        <ele>533.602654</ele>
        <time>2020-10-25T11:52:00.291Z</time>
      </trkpt>
      <trkpt lat="46.65689" lon="5.62298">
        <ele>533.312964</ele>
        <time>2020-10-25T11:52:12.348Z</time>
      </trkpt>
      <trkpt lat="46.6567" lon="5.62279">
        <ele>533.208997</ele>
        <time>2020-10-25T11:52:16.944Z</time>
      </trkpt>
      <trkpt lat="46.6566" lon="5.62265">
        <ele>533.149077</ele>
        <time>2020-10-25T11:52:19.224Z</time>
      </trkpt>
      <trkpt lat="46.65599" lon="5.6213">
        <ele>532.587505</ele>
        <time>2020-10-25T11:52:39.649Z</time>
      </trkpt>
      <trkpt lat="46.65568" lon="5.62108">
        <ele>532.381474</ele>
        <time>2020-10-25T11:52:46.016Z</time>
      </trkpt>
      <trkpt lat="46.65555" lon="5.62092">
        <ele>532.281045</ele>
        <time>2020-10-25T11:52:49.442Z</time>
      </trkpt>
      <trkpt lat="46.65544" lon="5.62052">
        <ele>532.105955</ele>
        <time>2020-10-25T11:52:55.147Z</time>
      </trkpt>
      <trkpt lat="46.65528" lon="5.61891">
        <ele>531.005431</ele>
        <time>2020-10-25T11:53:14.472Z</time>
      </trkpt>
      <trkpt lat="46.65474" lon="5.61761">
        <ele>529.630353</ele>
        <time>2020-10-25T11:53:31.237Z</time>
      </trkpt>
      <trkpt lat="46.65445" lon="5.61638">
        <ele>528.959888</ele>
        <time>2020-10-25T11:53:45.434Z</time>
      </trkpt>
      <trkpt lat="46.65399" lon="5.61518">
        <ele>528.355472</ele>
        <time>2020-10-25T11:54:03.923Z</time>
      </trkpt>
      <trkpt lat="46.65387" lon="5.615">
        <ele>528.345637</ele>
        <time>2020-10-25T11:54:07.732Z</time>
      </trkpt>
      <trkpt lat="46.65346" lon="5.61439">
        <ele>529.058751</ele>
        <time>2020-10-25T11:54:23.703Z</time>
      </trkpt>
      <trkpt lat="46.65309" lon="5.61383">
        <ele>529.704304</ele>
        <time>2020-10-25T11:54:39.662Z</time>
      </trkpt>
      <trkpt lat="46.65227" lon="5.61257">
        <ele>530.524168</ele>
        <time>2020-10-25T11:55:14.218Z</time>
      </trkpt>
      <trkpt lat="46.65221" lon="5.61244">
        <ele>530.536274</ele>
        <time>2020-10-25T11:55:16.996Z</time>
      </trkpt>
      <trkpt lat="46.65217" lon="5.61236">
        <ele>530.543689</ele>
        <time>2020-10-25T11:55:18.446Z</time>
      </trkpt>
      <trkpt lat="46.65206" lon="5.61205">
        <ele>530.570328</ele>
        <time>2020-10-25T11:55:23.898Z</time>
      </trkpt>
      <trkpt lat="46.65188" lon="5.61173">
        <ele>530.602085</ele>
        <time>2020-10-25T11:55:29.682Z</time>
      </trkpt>
      <trkpt lat="46.65003" lon="5.60967">
        <ele>527.489501</ele>
        <time>2020-10-25T11:56:07.500Z</time>
      </trkpt>
      <trkpt lat="46.64973" lon="5.60912">
        <ele>525.289889</ele>
        <time>2020-10-25T11:56:14.029Z</time>
      </trkpt>
      <trkpt lat="46.64962" lon="5.60886">
        <ele>524.302061</ele>
        <time>2020-10-25T11:56:16.892Z</time>
      </trkpt>
      <trkpt lat="46.6496" lon="5.60875">
        <ele>523.94499</ele>
        <time>2020-10-25T11:56:17.918Z</time>
      </trkpt>
      <trkpt lat="46.64961" lon="5.6084">
        <ele>522.838658</ele>
        <time>2020-10-25T11:56:21.077Z</time>
      </trkpt>
      <trkpt lat="46.64973" lon="5.60799">
        <ele>521.435859</ele>
        <time>2020-10-25T11:56:25.072Z</time>
      </trkpt>
      <trkpt lat="46.64982" lon="5.60784">
        <ele>520.802632</ele>
        <time>2020-10-25T11:56:26.867Z</time>
      </trkpt>
      <trkpt lat="46.65005" lon="5.60758">
        <ele>519.445082</ele>
        <time>2020-10-25T11:56:30.627Z</time>
      </trkpt>
      <trkpt lat="46.65037" lon="5.60728">
        <ele>517.656742</ele>
        <time>2020-10-25T11:56:35.534Z</time>
      </trkpt>
      <trkpt lat="46.65127" lon="5.6067">
        <ele>512.985298</ele>
        <time>2020-10-25T11:56:48.388Z</time>
      </trkpt>
      <trkpt lat="46.65186" lon="5.6065">
        <ele>510.468717</ele>
        <time>2020-10-25T11:56:56.960Z</time>
      </trkpt>
      <trkpt lat="46.65224" lon="5.60625">
        <ele>509.802677</ele>
        <time>2020-10-25T11:57:03.333Z</time>
      </trkpt>
      <trkpt lat="46.65247" lon="5.6062">
        <ele>509.441827</ele>
        <time>2020-10-25T11:57:06.956Z</time>
      </trkpt>
      <trkpt lat="46.65255" lon="5.60625">
        <ele>509.292397</ele>
        <time>2020-10-25T11:57:08.572Z</time>
      </trkpt>
      <trkpt lat="46.6527" lon="5.60656">
        <ele>508.877681</ele>
        <time>2020-10-25T11:57:13.119Z</time>
      </trkpt>
      <trkpt lat="46.6529" lon="5.6076">
        <ele>507.698987</ele>
        <time>2020-10-25T11:57:26.553Z</time>
      </trkpt>
      <trkpt lat="46.6534" lon="5.60884">
        <ele>506.010839</ele>
        <time>2020-10-25T11:57:42.608Z</time>
      </trkpt>
      <trkpt lat="46.65368" lon="5.60987">
        <ele>504.695371</ele>
        <time>2020-10-25T11:57:54.249Z</time>
      </trkpt>
      <trkpt lat="46.65394" lon="5.61049">
        <ele>501.226554</ele>
        <time>2020-10-25T11:58:01.470Z</time>
      </trkpt>
      <trkpt lat="46.6541" lon="5.61127">
        <ele>497.333002</ele>
        <time>2020-10-25T11:58:09.331Z</time>
      </trkpt>
      <trkpt lat="46.6543" lon="5.61194">
        <ele>493.861166</ele>
        <time>2020-10-25T11:58:15.363Z</time>
      </trkpt>
      <trkpt lat="46.65467" lon="5.6128">
        <ele>484.488284</ele>
        <time>2020-10-25T11:58:23.496Z</time>
      </trkpt>
      <trkpt lat="46.65492" lon="5.61321">
        <ele>478.165107</ele>
        <time>2020-10-25T11:58:27.862Z</time>
      </trkpt>
      <trkpt lat="46.65496" lon="5.61324">
        <ele>477.383375</ele>
        <time>2020-10-25T11:58:28.406Z</time>
      </trkpt>
      <trkpt lat="46.65501" lon="5.61324">
        <ele>476.607276</ele>
        <time>2020-10-25T11:58:28.924Z</time>
      </trkpt>
      <trkpt lat="46.65508" lon="5.61323">
        <ele>475.300234</ele>
        <time>2020-10-25T11:58:29.875Z</time>
      </trkpt>
      <trkpt lat="46.65516" lon="5.61318">
        <ele>473.930164</ele>
        <time>2020-10-25T11:58:30.819Z</time>
      </trkpt>
      <trkpt lat="46.6552" lon="5.61314">
        <ele>473.080907</ele>
        <time>2020-10-25T11:58:31.432Z</time>
      </trkpt>
      <trkpt lat="46.65528" lon="5.61298">
        <ele>470.873351</ele>
        <time>2020-10-25T11:58:32.960Z</time>
      </trkpt>
      <trkpt lat="46.65554" lon="5.61196">
        <ele>458.783184</ele>
        <time>2020-10-25T11:58:41.572Z</time>
      </trkpt>
      <trkpt lat="46.65564" lon="5.61175">
        <ele>456.254055</ele>
        <time>2020-10-25T11:58:43.566Z</time>
      </trkpt>
      <trkpt lat="46.65611" lon="5.6111">
        <ele>446.726187</ele>
        <time>2020-10-25T11:58:51.115Z</time>
      </trkpt>
      <trkpt lat="46.65716" lon="5.61009">
        <ele>431.748982</ele>
        <time>2020-10-25T11:59:06.387Z</time>
      </trkpt>
      <trkpt lat="46.65881" lon="5.60965">
        <ele>418.054237</ele>
        <time>2020-10-25T11:59:27.296Z</time>
      </trkpt>
      <trkpt lat="46.65949" lon="5.60958">
        <ele>411.960999</ele>
        <time>2020-10-25T11:59:35.669Z</time>
      </trkpt>
      <trkpt lat="46.66065" lon="5.60964">
        <ele>400.793267</ele>
        <time>2020-10-25T11:59:49.644Z</time>
      </trkpt>
      <trkpt lat="46.66067" lon="5.60953">
        <ele>399.917097</ele>
        <time>2020-10-25T11:59:50.610Z</time>
      </trkpt>
      <trkpt lat="46.66058" lon="5.60935">
        <ele>398.253662</ele>
        <time>2020-10-25T11:59:52.455Z</time>
      </trkpt>
      <trkpt lat="46.66013" lon="5.60909">
        <ele>392.948819</ele>
        <time>2020-10-25T11:59:58.302Z</time>
      </trkpt>
      <trkpt lat="46.65886" lon="5.60809">
        <ele>376.767541</ele>
        <time>2020-10-25T12:00:15.409Z</time>
      </trkpt>
      <trkpt lat="46.65874" lon="5.60795">
        <ele>375.056355</ele>
        <time>2020-10-25T12:00:17.166Z</time>
      </trkpt>
      <trkpt lat="46.65835" lon="5.60745">
        <ele>369.035129</ele>
        <time>2020-10-25T12:00:23.434Z</time>
      </trkpt>
      <trkpt lat="46.65793" lon="5.60703">
        <ele>363.701556</ele>
        <time>2020-10-25T12:00:29.455Z</time>
      </trkpt>
      <trkpt lat="46.65714" lon="5.60662">
        <ele>356.509272</ele>
        <time>2020-10-25T12:00:39.574Z</time>
      </trkpt>
      <trkpt lat="46.65695" lon="5.60649">
        <ele>354.654256</ele>
        <time>2020-10-25T12:00:42.285Z</time>
      </trkpt>
      <trkpt lat="46.65679" lon="5.60635">
        <ele>353.085445</ele>
        <time>2020-10-25T12:00:44.632Z</time>
      </trkpt>
      <trkpt lat="46.65659" lon="5.6061">
        <ele>350.8289</ele>
        <time>2020-10-25T12:00:47.993Z</time>
      </trkpt>
      <trkpt lat="46.65652" lon="5.60601">
        <ele>349.947723</ele>
        <time>2020-10-25T12:00:49.297Z</time>
      </trkpt>
      <trkpt lat="46.6563" lon="5.60575">
        <ele>348.145554</ele>
        <time>2020-10-25T12:00:52.771Z</time>
      </trkpt>
      <trkpt lat="46.65601" lon="5.60547">
        <ele>345.901923</ele>
        <time>2020-10-25T12:00:57.319Z</time>
      </trkpt>
      <trkpt lat="46.65598" lon="5.60544">
        <ele>345.674601</ele>
        <time>2020-10-25T12:00:57.804Z</time>
      </trkpt>
      <trkpt lat="46.65589" lon="5.60534">
        <ele>344.974437</ele>
        <time>2020-10-25T12:00:59.196Z</time>
      </trkpt>
      <trkpt lat="46.65583" lon="5.60522">
        <ele>344.349973</ele>
        <time>2020-10-25T12:01:00.421Z</time>
      </trkpt>
      <trkpt lat="46.65578" lon="5.6051">
        <ele>343.724342</ele>
        <time>2020-10-25T12:01:01.667Z</time>
      </trkpt>
      <trkpt lat="46.6557" lon="5.60473">
        <ele>342.05035</ele>
        <time>2020-10-25T12:01:05.152Z</time>
      </trkpt>
      <trkpt lat="46.65562" lon="5.60438">
        <ele>340.470764</ele>
        <time>2020-10-25T12:01:08.443Z</time>
      </trkpt>
      <trkpt lat="46.65556" lon="5.60411">
        <ele>339.242529</ele>
        <time>2020-10-25T12:01:10.958Z</time>
      </trkpt>
      <trkpt lat="46.6554" lon="5.60354">
        <ele>336.595005</ele>
        <time>2020-10-25T12:01:16.442Z</time>
      </trkpt>
      <trkpt lat="46.65536" lon="5.60328">
        <ele>335.477912</ele>
        <time>2020-10-25T12:01:18.731Z</time>
      </trkpt>
      <trkpt lat="46.65534" lon="5.60312">
        <ele>334.783619</ele>
        <time>2020-10-25T12:01:20.130Z</time>
      </trkpt>
      <trkpt lat="46.65534" lon="5.60265">
        <ele>332.80505</ele>
        <time>2020-10-25T12:01:24.169Z</time>
      </trkpt>
      <trkpt lat="46.6553" lon="5.60245">
        <ele>331.878468</ele>
        <time>2020-10-25T12:01:26.091Z</time>
      </trkpt>
      <trkpt lat="46.65523" lon="5.60214">
        <ele>330.506958</ele>
        <time>2020-10-25T12:01:28.844Z</time>
      </trkpt>
      <trkpt lat="46.65517" lon="5.60189">
        <ele>329.389369</ele>
        <time>2020-10-25T12:01:31.223Z</time>
      </trkpt>
      <trkpt lat="46.65513" lon="5.60171">
        <ele>328.570309</ele>
        <time>2020-10-25T12:01:32.894Z</time>
      </trkpt>
      <trkpt lat="46.65514" lon="5.60072">
        <ele>325.142656</ele>
        <time>2020-10-25T12:01:41.862Z</time>
      </trkpt>
      <trkpt lat="46.65514" lon="5.60026">
        <ele>323.724948</ele>
        <time>2020-10-25T12:01:46.088Z</time>
      </trkpt>
      <trkpt lat="46.65516" lon="5.60009">
        <ele>323.186857</ele>
        <time>2020-10-25T12:01:47.663Z</time>
      </trkpt>
      <trkpt lat="46.65509" lon="5.59946">
        <ele>321.214019</ele>
        <time>2020-10-25T12:01:53.630Z</time>
      </trkpt>
      <trkpt lat="46.6549" lon="5.59896">
        <ele>319.479128</ele>
        <time>2020-10-25T12:01:59.054Z</time>
      </trkpt>
      <trkpt lat="46.65484" lon="5.59886">
        <ele>319.06548</ele>
        <time>2020-10-25T12:02:00.375Z</time>
      </trkpt>
      <trkpt lat="46.65475" lon="5.59873">
        <ele>318.682079</ele>
        <time>2020-10-25T12:02:02.081Z</time>
      </trkpt>
      <trkpt lat="46.6546" lon="5.59849">
        <ele>317.997037</ele>
        <time>2020-10-25T12:02:05.128Z</time>
      </trkpt>
      <trkpt lat="46.65463" lon="5.59839">
        <ele>317.760345</ele>
        <time>2020-10-25T12:02:06.174Z</time>
      </trkpt>
      <trkpt lat="46.6548" lon="5.5978">
        <ele>316.400995</ele>
        <time>2020-10-25T12:02:12.508Z</time>
      </trkpt>
      <trkpt lat="46.65507" lon="5.59724">
        <ele>314.94116</ele>
        <time>2020-10-25T12:02:19.423Z</time>
      </trkpt>
      <trkpt lat="46.6552" lon="5.59702">
        <ele>314.304891</ele>
        <time>2020-10-25T12:02:22.294Z</time>
      </trkpt>
      <trkpt lat="46.65534" lon="5.59675">
        <ele>313.598798</ele>
        <time>2020-10-25T12:02:25.582Z</time>
      </trkpt>
      <trkpt lat="46.65604" lon="5.59544">
        <ele>310.615985</ele>
        <time>2020-10-25T12:02:42.340Z</time>
      </trkpt>
      <trkpt lat="46.65617" lon="5.59525">
        <ele>310.144814</ele>
        <time>2020-10-25T12:02:44.981Z</time>
      </trkpt>
      <trkpt lat="46.65623" lon="5.59519">
        <ele>309.955886</ele>
        <time>2020-10-25T12:02:46.070Z</time>
      </trkpt>
      <trkpt lat="46.6566" lon="5.5947">
        <ele>308.66694</ele>
        <time>2020-10-25T12:02:53.655Z</time>
      </trkpt>
      <trkpt lat="46.65711" lon="5.59403">
        <ele>307.058552</ele>
        <time>2020-10-25T12:03:03.821Z</time>
      </trkpt>
      <trkpt lat="46.65768" lon="5.59326">
        <ele>305.232831</ele>
        <time>2020-10-25T12:03:15.514Z</time>
      </trkpt>
      <trkpt lat="46.65788" lon="5.593">
        <ele>304.596892</ele>
        <time>2020-10-25T12:03:19.617Z</time>
      </trkpt>
      <trkpt lat="46.65843" lon="5.59227">
        <ele>303.018006</ele>
        <time>2020-10-25T12:03:30.770Z</time>
      </trkpt>
      <trkpt lat="46.65847" lon="5.59222">
        <ele>302.902277</ele>
        <time>2020-10-25T12:03:31.598Z</time>
      </trkpt>
      <trkpt lat="46.65924" lon="5.59121">
        <ele>300.730181</ele>
        <time>2020-10-25T12:03:47.331Z</time>
      </trkpt>
      <trkpt lat="46.65979" lon="5.59049">
        <ele>299.567988</ele>
        <time>2020-10-25T12:03:59.165Z</time>
      </trkpt>
      <trkpt lat="46.65984" lon="5.59042">
        <ele>299.464071</ele>
        <time>2020-10-25T12:04:00.266Z</time>
      </trkpt>
      <trkpt lat="46.65992" lon="5.5903">
        <ele>299.286997</ele>
        <time>2020-10-25T12:04:02.082Z</time>
      </trkpt>
      <trkpt lat="46.65997" lon="5.59023">
        <ele>299.18042</ele>
        <time>2020-10-25T12:04:03.177Z</time>
      </trkpt>
      <trkpt lat="46.66006" lon="5.59015">
        <ele>299.012552</ele>
        <time>2020-10-25T12:04:04.916Z</time>
      </trkpt>
      <trkpt lat="46.66011" lon="5.59008">
        <ele>298.8981</ele>
        <time>2020-10-25T12:04:06.154Z</time>
      </trkpt>
      <trkpt lat="46.66038" lon="5.58969">
        <ele>298.299373</ele>
        <time>2020-10-25T12:04:12.381Z</time>
      </trkpt>
      <trkpt lat="46.66082" lon="5.58905">
        <ele>297.324679</ele>
        <time>2020-10-25T12:04:22.396Z</time>
      </trkpt>
      <trkpt lat="46.66084" lon="5.58903">
        <ele>297.293173</ele>
        <time>2020-10-25T12:04:22.823Z</time>
      </trkpt>
      <trkpt lat="46.66092" lon="5.58891">
        <ele>297.106004</ele>
        <time>2020-10-25T12:04:24.797Z</time>
      </trkpt>
      <trkpt lat="46.66107" lon="5.58868">
        <ele>296.768443</ele>
        <time>2020-10-25T12:04:28.304Z</time>
      </trkpt>
      <trkpt lat="46.66125" lon="5.58842">
        <ele>296.370508</ele>
        <time>2020-10-25T12:04:32.520Z</time>
      </trkpt>
      <trkpt lat="46.66127" lon="5.58838">
        <ele>296.319134</ele>
        <time>2020-10-25T12:04:33.011Z</time>
      </trkpt>
      <trkpt lat="46.6616" lon="5.58788">
        <ele>295.571231</ele>
        <time>2020-10-25T12:04:40.608Z</time>
      </trkpt>
      <trkpt lat="46.66168" lon="5.58776">
        <ele>295.392738</ele>
        <time>2020-10-25T12:04:42.398Z</time>
      </trkpt>
      <trkpt lat="46.66185" lon="5.58751">
        <ele>294.988412</ele>
        <time>2020-10-25T12:04:46.232Z</time>
      </trkpt>
      <trkpt lat="46.66216" lon="5.58707">
        <ele>294.245343</ele>
        <time>2020-10-25T12:04:52.712Z</time>
      </trkpt>
      <trkpt lat="46.66262" lon="5.58635">
        <ele>293.064009</ele>
        <time>2020-10-25T12:05:03.158Z</time>
      </trkpt>
      <trkpt lat="46.66296" lon="5.58582">
        <ele>292.196562</ele>
        <time>2020-10-25T12:05:11.210Z</time>
      </trkpt>
      <trkpt lat="46.6631" lon="5.58559">
        <ele>291.875996</ele>
        <time>2020-10-25T12:05:14.713Z</time>
      </trkpt>
      <trkpt lat="46.66342" lon="5.5851">
        <ele>291.297423</ele>
        <time>2020-10-25T12:05:22.473Z</time>
      </trkpt>
      <trkpt lat="46.66358" lon="5.58486">
        <ele>291.00319</ele>
        <time>2020-10-25T12:05:26.288Z</time>
      </trkpt>
      <trkpt lat="46.66378" lon="5.58455">
        <ele>290.635082</ele>
        <time>2020-10-25T12:05:31.172Z</time>
      </trkpt>
      <trkpt lat="46.66424" lon="5.58382">
        <ele>289.771873</ele>
        <time>2020-10-25T12:05:42.504Z</time>
      </trkpt>
      <trkpt lat="46.66436" lon="5.58365">
        <ele>289.543342</ele>
        <time>2020-10-25T12:05:45.251Z</time>
      </trkpt>
      <trkpt lat="46.66443" lon="5.58354">
        <ele>289.397037</ele>
        <time>2020-10-25T12:05:47.032Z</time>
      </trkpt>
      <trkpt lat="46.66448" lon="5.58344">
        <ele>289.273405</ele>
        <time>2020-10-25T12:05:48.477Z</time>
      </trkpt>
      <trkpt lat="46.66455" lon="5.58334">
        <ele>289.142611</ele>
        <time>2020-10-25T12:05:49.982Z</time>
      </trkpt>
      <trkpt lat="46.66499" lon="5.58262">
        <ele>288.200274</ele>
        <time>2020-10-25T12:06:00.941Z</time>
      </trkpt>
      <trkpt lat="46.66532" lon="5.58212">
        <ele>287.530927</ele>
        <time>2020-10-25T12:06:08.515Z</time>
      </trkpt>
      <trkpt lat="46.66543" lon="5.58195">
        <ele>287.301565</ele>
        <time>2020-10-25T12:06:11.087Z</time>
      </trkpt>
      <trkpt lat="46.66546" lon="5.58189">
        <ele>287.224944</ele>
        <time>2020-10-25T12:06:11.931Z</time>
      </trkpt>
      <trkpt lat="46.66555" lon="5.58174">
        <ele>287.050376</ele>
        <time>2020-10-25T12:06:14.033Z</time>
      </trkpt>
      <trkpt lat="46.66559" lon="5.58168">
        <ele>286.973835</ele>
        <time>2020-10-25T12:06:15.001Z</time>
      </trkpt>
      <trkpt lat="46.66574" lon="5.58139">
        <ele>286.648096</ele>
        <time>2020-10-25T12:06:19.020Z</time>
      </trkpt>
      <trkpt lat="46.66594" lon="5.58108">
        <ele>286.26944</ele>
        <time>2020-10-25T12:06:23.774Z</time>
      </trkpt>
      <trkpt lat="46.66653" lon="5.58015">
        <ele>285.147501</ele>
        <time>2020-10-25T12:06:38.405Z</time>
      </trkpt>
      <trkpt lat="46.66685" lon="5.57964">
        <ele>284.549733</ele>
        <time>2020-10-25T12:06:46.290Z</time>
      </trkpt>
      <trkpt lat="46.667" lon="5.57934">
        <ele>284.230011</ele>
        <time>2020-10-25T12:06:50.569Z</time>
      </trkpt>
      <trkpt lat="46.66739" lon="5.5783">
        <ele>283.219497</ele>
        <time>2020-10-25T12:07:04.293Z</time>
      </trkpt>
      <trkpt lat="46.66751" lon="5.578">
        <ele>282.924351</ele>
        <time>2020-10-25T12:07:08.225Z</time>
      </trkpt>
      <trkpt lat="46.66806" lon="5.57684">
        <ele>281.484</ele>
        <time>2020-10-25T12:07:23.831Z</time>
      </trkpt>
      <trkpt lat="46.6683" lon="5.57636">
        <ele>280.835005</ele>
        <time>2020-10-25T12:07:30.305Z</time>
      </trkpt>
      <trkpt lat="46.66836" lon="5.57624">
        <ele>280.677042</ele>
        <time>2020-10-25T12:07:31.867Z</time>
      </trkpt>
      <trkpt lat="46.6684" lon="5.57616">
        <ele>280.572323</ele>
        <time>2020-10-25T12:07:32.950Z</time>
      </trkpt>
      <trkpt lat="46.66846" lon="5.57604">
        <ele>280.418717</ele>
        <time>2020-10-25T12:07:34.529Z</time>
      </trkpt>
      <trkpt lat="46.66857" lon="5.57581">
        <ele>280.109814</ele>
        <time>2020-10-25T12:07:37.711Z</time>
      </trkpt>
      <trkpt lat="46.66869" lon="5.57559">
        <ele>279.811598</ele>
        <time>2020-10-25T12:07:40.821Z</time>
      </trkpt>
      <trkpt lat="46.66874" lon="5.5755">
        <ele>279.669295</ele>
        <time>2020-10-25T12:07:42.143Z</time>
      </trkpt>
      <trkpt lat="46.66892" lon="5.5751">
        <ele>279.096077</ele>
        <time>2020-10-25T12:07:47.442Z</time>
      </trkpt>
      <trkpt lat="46.66893" lon="5.57509">
        <ele>279.081273</ele>
        <time>2020-10-25T12:07:47.578Z</time>
      </trkpt>
      <trkpt lat="46.66898" lon="5.57498">
        <ele>278.92731</ele>
        <time>2020-10-25T12:07:48.985Z</time>
      </trkpt>
      <trkpt lat="46.66909" lon="5.57476">
        <ele>278.596797</ele>
        <time>2020-10-25T12:07:51.969Z</time>
      </trkpt>
      <trkpt lat="46.66922" lon="5.57455">
        <ele>278.252231</ele>
        <time>2020-10-25T12:07:55.067Z</time>
      </trkpt>
      <trkpt lat="46.66941" lon="5.57397">
        <ele>277.485086</ele>
        <time>2020-10-25T12:08:01.851Z</time>
      </trkpt>
      <trkpt lat="46.66944" lon="5.57388">
        <ele>277.371509</ele>
        <time>2020-10-25T12:08:02.836Z</time>
      </trkpt>
      <trkpt lat="46.66949" lon="5.57386">
        <ele>277.275182</ele>
        <time>2020-10-25T12:08:03.695Z</time>
      </trkpt>
      <trkpt lat="46.66954" lon="5.57383">
        <ele>277.188346</ele>
        <time>2020-10-25T12:08:04.461Z</time>
      </trkpt>
      <trkpt lat="46.66957" lon="5.57378">
        <ele>277.103267</ele>
        <time>2020-10-25T12:08:05.252Z</time>
      </trkpt>
      <trkpt lat="46.6696" lon="5.57372">
        <ele>277.017349</ele>
        <time>2020-10-25T12:08:06.032Z</time>
      </trkpt>
      <trkpt lat="46.66962" lon="5.57364">
        <ele>276.919944</ele>
        <time>2020-10-25T12:08:06.934Z</time>
      </trkpt>
      <trkpt lat="46.66962" lon="5.57357">
        <ele>276.82662</ele>
        <time>2020-10-25T12:08:07.796Z</time>
      </trkpt>
      <trkpt lat="46.6696" lon="5.57349">
        <ele>276.734778</ele>
        <time>2020-10-25T12:08:08.642Z</time>
      </trkpt>
      <trkpt lat="46.66961" lon="5.57326">
        <ele>276.418803</ele>
        <time>2020-10-25T12:08:11.188Z</time>
      </trkpt>
      <trkpt lat="46.66962" lon="5.57302">
        <ele>276.088957</ele>
        <time>2020-10-25T12:08:13.644Z</time>
      </trkpt>
      <trkpt lat="46.66966" lon="5.57289">
        <ele>275.887719</ele>
        <time>2020-10-25T12:08:15.213Z</time>
      </trkpt>
      <trkpt lat="46.66972" lon="5.57275">
        <ele>275.663978</ele>
        <time>2020-10-25T12:08:16.982Z</time>
      </trkpt>
      <trkpt lat="46.66979" lon="5.57261">
        <ele>275.42362</ele>
        <time>2020-10-25T12:08:18.736Z</time>
      </trkpt>
      <trkpt lat="46.66985" lon="5.57251">
        <ele>275.231219</ele>
        <time>2020-10-25T12:08:20.234Z</time>
      </trkpt>
      <trkpt lat="46.66991" lon="5.57242">
        <ele>275.051943</ele>
        <time>2020-10-25T12:08:21.634Z</time>
      </trkpt>
      <trkpt lat="46.66997" lon="5.57236">
        <ele>274.915176</ele>
        <time>2020-10-25T12:08:22.702Z</time>
      </trkpt>
      <trkpt lat="46.67013" lon="5.57222">
        <ele>274.537018</ele>
        <time>2020-10-25T12:08:25.514Z</time>
      </trkpt>
      <trkpt lat="46.67022" lon="5.57214">
        <ele>274.315105</ele>
        <time>2020-10-25T12:08:27.219Z</time>
      </trkpt>
      <trkpt lat="46.67026" lon="5.57208">
        <ele>274.196984</ele>
        <time>2020-10-25T12:08:28.141Z</time>
      </trkpt>
      <trkpt lat="46.6703" lon="5.5721">
        <ele>274.120896</ele>
        <time>2020-10-25T12:08:28.675Z</time>
      </trkpt>
      <trkpt lat="46.67035" lon="5.57218">
        <ele>273.961776</ele>
        <time>2020-10-25T12:08:29.854Z</time>
      </trkpt>
      <trkpt lat="46.67042" lon="5.5723">
        <ele>273.747132</ele>
        <time>2020-10-25T12:08:31.386Z</time>
      </trkpt>
      <trkpt lat="46.67049" lon="5.57224">
        <ele>273.575049</ele>
        <time>2020-10-25T12:08:35.098Z</time>
      </trkpt>
      <trkpt lat="46.67055" lon="5.57222">
        <ele>273.457544</ele>
        <time>2020-10-25T12:08:37.673Z</time>
      </trkpt>
      <trkpt lat="46.67055" lon="5.57214">
        <ele>273.347085</ele>
        <time>2020-10-25T12:08:38.424Z</time>
      </trkpt>
      <trkpt lat="46.67061" lon="5.57182">
        <ele>272.884279</ele>
        <time>2020-10-25T12:08:41.915Z</time>
      </trkpt>
      <trkpt lat="46.67058" lon="5.57149">
        <ele>272.423509</ele>
        <time>2020-10-25T12:08:45.521Z</time>
      </trkpt>
      <trkpt lat="46.67086" lon="5.57052">
        <ele>271.001854</ele>
        <time>2020-10-25T12:08:56.608Z</time>
      </trkpt>
      <trkpt lat="46.67089" lon="5.57045">
        <ele>270.886502</ele>
        <time>2020-10-25T12:08:57.455Z</time>
      </trkpt>
      <trkpt lat="46.67098" lon="5.57016">
        <ele>270.45224</ele>
        <time>2020-10-25T12:09:00.809Z</time>
      </trkpt>
      <trkpt lat="46.67098" lon="5.5701">
        <ele>270.371901</ele>
        <time>2020-10-25T12:09:01.505Z</time>
      </trkpt>
      <trkpt lat="46.67131" lon="5.56902">
        <ele>269.037623</ele>
        <time>2020-10-25T12:09:14.401Z</time>
      </trkpt>
      <trkpt lat="46.67124" lon="5.56898">
        <ele>268.953422</ele>
        <time>2020-10-25T12:09:15.562Z</time>
      </trkpt>
      <trkpt lat="46.67139" lon="5.56848">
        <ele>268.503288</ele>
        <time>2020-10-25T12:09:21.596Z</time>
      </trkpt>
      <trkpt lat="46.67144" lon="5.56831">
        <ele>268.349194</ele>
        <time>2020-10-25T12:09:23.696Z</time>
      </trkpt>
      <trkpt lat="46.67159" lon="5.5678">
        <ele>267.892422</ele>
        <time>2020-10-25T12:09:30.282Z</time>
      </trkpt>
      <trkpt lat="46.67162" lon="5.5677">
        <ele>267.802224</ele>
        <time>2020-10-25T12:09:31.582Z</time>
      </trkpt>
      <trkpt lat="46.6719" lon="5.56677">
        <ele>267.038713</ele>
        <time>2020-10-25T12:09:43.976Z</time>
      </trkpt>
      <trkpt lat="46.6719" lon="5.56675">
        <ele>267.021738</ele>
        <time>2020-10-25T12:09:44.306Z</time>
      </trkpt>
      <trkpt lat="46.67194" lon="5.56664">
        <ele>266.940825</ele>
        <time>2020-10-25T12:09:45.841Z</time>
      </trkpt>
      <trkpt lat="46.67199" lon="5.56644">
        <ele>266.804053</ele>
        <time>2020-10-25T12:09:48.349Z</time>
      </trkpt>
      <trkpt lat="46.67242" lon="5.56498">
        <ele>265.769772</ele>
        <time>2020-10-25T12:10:07.245Z</time>
      </trkpt>
      <trkpt lat="46.67248" lon="5.56461">
        <ele>265.491414</ele>
        <time>2020-10-25T12:10:11.603Z</time>
      </trkpt>
      <trkpt lat="46.67249" lon="5.56454">
        <ele>265.421645</ele>
        <time>2020-10-25T12:10:12.401Z</time>
      </trkpt>
      <trkpt lat="46.67255" lon="5.5641">
        <ele>264.992386</ele>
        <time>2020-10-25T12:10:17.527Z</time>
      </trkpt>
      <trkpt lat="46.67274" lon="5.56261">
        <ele>263.546739</ele>
        <time>2020-10-25T12:10:34.241Z</time>
      </trkpt>
      <trkpt lat="46.67298" lon="5.56065">
        <ele>261.890596</ele>
        <time>2020-10-25T12:10:56.751Z</time>
      </trkpt>
      <trkpt lat="46.67302" lon="5.56032">
        <ele>261.626032</ele>
        <time>2020-10-25T12:11:00.673Z</time>
      </trkpt>
      <trkpt lat="46.67303" lon="5.5602">
        <ele>261.52778</ele>
        <time>2020-10-25T12:11:02.161Z</time>
      </trkpt>
      <trkpt lat="46.67304" lon="5.56008">
        <ele>261.436263</ele>
        <time>2020-10-25T12:11:03.535Z</time>
      </trkpt>
      <trkpt lat="46.67306" lon="5.55973">
        <ele>261.156102</ele>
        <time>2020-10-25T12:11:07.781Z</time>
      </trkpt>
      <trkpt lat="46.67306" lon="5.55964">
        <ele>261.088167</ele>
        <time>2020-10-25T12:11:08.831Z</time>
      </trkpt>
      <trkpt lat="46.67306" lon="5.55962">
        <ele>261.068397</ele>
        <time>2020-10-25T12:11:09.139Z</time>
      </trkpt>
      <trkpt lat="46.67306" lon="5.55939">
        <ele>260.937699</ele>
        <time>2020-10-25T12:11:11.837Z</time>
      </trkpt>
      <trkpt lat="46.67308" lon="5.559">
        <ele>260.745588</ele>
        <time>2020-10-25T12:11:16.621Z</time>
      </trkpt>
      <trkpt lat="46.67308" lon="5.55859">
        <ele>260.544601</ele>
        <time>2020-10-25T12:11:21.661Z</time>
      </trkpt>
      <trkpt lat="46.67305" lon="5.55848">
        <ele>260.486924</ele>
        <time>2020-10-25T12:11:23.066Z</time>
      </trkpt>
      <trkpt lat="46.67304" lon="5.5577">
        <ele>260.10832</ele>
        <time>2020-10-25T12:11:32.529Z</time>
      </trkpt>
      <trkpt lat="46.67304" lon="5.55704">
        <ele>259.786329</ele>
        <time>2020-10-25T12:11:40.745Z</time>
      </trkpt>
      <trkpt lat="46.67303" lon="5.55683">
        <ele>259.711181</ele>
        <time>2020-10-25T12:11:43.497Z</time>
      </trkpt>
      <trkpt lat="46.67303" lon="5.55609">
        <ele>259.550748</ele>
        <time>2020-10-25T12:11:53.526Z</time>
      </trkpt>
      <trkpt lat="46.67303" lon="5.55577">
        <ele>259.481062</ele>
        <time>2020-10-25T12:11:57.558Z</time>
      </trkpt>
      <trkpt lat="46.67304" lon="5.55548">
        <ele>259.418191</ele>
        <time>2020-10-25T12:12:01.537Z</time>
      </trkpt>
      <trkpt lat="46.67305" lon="5.55531">
        <ele>259.38206</ele>
        <time>2020-10-25T12:12:03.512Z</time>
      </trkpt>
      <trkpt lat="46.67307" lon="5.55522">
        <ele>259.361377</ele>
        <time>2020-10-25T12:12:05.020Z</time>
      </trkpt>
      <trkpt lat="46.67314" lon="5.55488">
        <ele>259.284131</ele>
        <time>2020-10-25T12:12:09.581Z</time>
      </trkpt>
      <trkpt lat="46.67314" lon="5.55485">
        <ele>259.27806</ele>
        <time>2020-10-25T12:12:09.930Z</time>
      </trkpt>
      <trkpt lat="46.67317" lon="5.55472">
        <ele>259.248334</ele>
        <time>2020-10-25T12:12:11.971Z</time>
      </trkpt>
      <trkpt lat="46.67312" lon="5.55471">
        <ele>259.232735</ele>
        <time>2020-10-25T12:12:13.081Z</time>
      </trkpt>
      <trkpt lat="46.67271" lon="5.55464">
        <ele>259.187239</ele>
        <time>2020-10-25T12:12:21.381Z</time>
      </trkpt>
      <trkpt lat="46.67269" lon="5.55463">
        <ele>259.190324</ele>
        <time>2020-10-25T12:12:21.981Z</time>
      </trkpt>
      <trkpt lat="46.6726" lon="5.55462">
        <ele>259.199915</ele>
        <time>2020-10-25T12:12:23.598Z</time>
      </trkpt>
      <trkpt lat="46.6725" lon="5.5546">
        <ele>259.210801</ele>
        <time>2020-10-25T12:12:25.570Z</time>
      </trkpt>
      <trkpt lat="46.67195" lon="5.55452">
        <ele>259.27162</ele>
        <time>2020-10-25T12:12:37.869Z</time>
      </trkpt>
      <trkpt lat="46.67188" lon="5.55451">
        <ele>259.279103</ele>
        <time>2020-10-25T12:12:39.096Z</time>
      </trkpt>
      <trkpt lat="46.67188" lon="5.55443">
        <ele>259.284823</ele>
        <time>2020-10-25T12:12:40.178Z</time>
      </trkpt>
      <trkpt lat="46.67193" lon="5.55351">
        <ele>259.35396</ele>
        <time>2020-10-25T12:12:53.401Z</time>
      </trkpt>
      <trkpt lat="46.672" lon="5.55208">
        <ele>259.760926</ele>
        <time>2020-10-25T12:13:17.220Z</time>
      </trkpt>
      <trkpt lat="46.67202" lon="5.55188">
        <ele>259.824673</ele>
        <time>2020-10-25T12:13:20.595Z</time>
      </trkpt>
      <trkpt lat="46.67203" lon="5.55182">
        <ele>259.84132</ele>
        <time>2020-10-25T12:13:21.343Z</time>
      </trkpt>
      <trkpt lat="46.67205" lon="5.55172">
        <ele>259.874693</ele>
        <time>2020-10-25T12:13:23.669Z</time>
      </trkpt>
      <trkpt lat="46.67219" lon="5.55082">
        <ele>260.152667</ele>
        <time>2020-10-25T12:13:37.686Z</time>
      </trkpt>
      <trkpt lat="46.67222" lon="5.55067">
        <ele>260.120961</ele>
        <time>2020-10-25T12:13:40.590Z</time>
      </trkpt>
      <trkpt lat="46.67224" lon="5.55057">
        <ele>260.09616</ele>
        <time>2020-10-25T12:13:42.006Z</time>
      </trkpt>
      <trkpt lat="46.67225" lon="5.55054">
        <ele>260.088059</ele>
        <time>2020-10-25T12:13:42.543Z</time>
      </trkpt>
      <trkpt lat="46.67227" lon="5.55047">
        <ele>260.069583</ele>
        <time>2020-10-25T12:13:43.671Z</time>
      </trkpt>
      <trkpt lat="46.67229" lon="5.55043">
        <ele>260.058168</ele>
        <time>2020-10-25T12:13:44.366Z</time>
      </trkpt>
      <trkpt lat="46.67238" lon="5.55013">
        <ele>259.975914</ele>
        <time>2020-10-25T12:13:49.679Z</time>
      </trkpt>
      <trkpt lat="46.67252" lon="5.54962">
        <ele>259.842478</ele>
        <time>2020-10-25T12:13:57.895Z</time>
      </trkpt>
      <trkpt lat="46.67255" lon="5.5492">
        <ele>259.739597</ele>
        <time>2020-10-25T12:14:03.588Z</time>
      </trkpt>
      <trkpt lat="46.67254" lon="5.54913">
        <ele>259.721964</ele>
        <time>2020-10-25T12:14:04.492Z</time>
      </trkpt>
      <trkpt lat="46.67256" lon="5.54865">
        <ele>259.606091</ele>
        <time>2020-10-25T12:14:10.004Z</time>
      </trkpt>
      <trkpt lat="46.67272" lon="5.54778">
        <ele>258.914131</ele>
        <time>2020-10-25T12:14:19.967Z</time>
      </trkpt>
      <trkpt lat="46.67273" lon="5.54773">
        <ele>258.848447</ele>
        <time>2020-10-25T12:14:20.587Z</time>
      </trkpt>
      <trkpt lat="46.67274" lon="5.54764">
        <ele>258.746621</ele>
        <time>2020-10-25T12:14:21.586Z</time>
      </trkpt>
      <trkpt lat="46.67285" lon="5.54695">
        <ele>257.941419</ele>
        <time>2020-10-25T12:14:29.374Z</time>
      </trkpt>
      <trkpt lat="46.67285" lon="5.54678">
        <ele>257.752873</ele>
        <time>2020-10-25T12:14:31.068Z</time>
      </trkpt>
      <trkpt lat="46.67262" lon="5.54495">
        <ele>256.310658</ele>
        <time>2020-10-25T12:14:51.118Z</time>
      </trkpt>
      <trkpt lat="46.67268" lon="5.54395">
        <ele>256.020839</ele>
        <time>2020-10-25T12:15:04.330Z</time>
      </trkpt>
      <trkpt lat="46.67274" lon="5.54383">
        <ele>255.978169</ele>
        <time>2020-10-25T12:15:06.664Z</time>
      </trkpt>
      <trkpt lat="46.67277" lon="5.54381">
        <ele>255.965811</ele>
        <time>2020-10-25T12:15:07.092Z</time>
      </trkpt>
      <trkpt lat="46.67261" lon="5.54325">
        <ele>255.790101</ele>
        <time>2020-10-25T12:15:16.964Z</time>
      </trkpt>
      <trkpt lat="46.67257" lon="5.54298">
        <ele>256.26877</ele>
        <time>2020-10-25T12:15:22.764Z</time>
      </trkpt>
      <trkpt lat="46.67256" lon="5.54296">
        <ele>256.309962</ele>
        <time>2020-10-25T12:15:23.194Z</time>
      </trkpt>
      <trkpt lat="46.67256" lon="5.54295">
        <ele>256.329368</ele>
        <time>2020-10-25T12:15:23.526Z</time>
      </trkpt>
      <trkpt lat="46.67254" lon="5.54278">
        <ele>256.661958</ele>
        <time>2020-10-25T12:15:26.188Z</time>
      </trkpt>
      <trkpt lat="46.67241" lon="5.54259">
        <ele>257.181309</ele>
        <time>2020-10-25T12:15:31.527Z</time>
      </trkpt>
      <trkpt lat="46.6724" lon="5.54256">
        <ele>257.238952</ele>
        <time>2020-10-25T12:15:32.948Z</time>
      </trkpt>
      <trkpt lat="46.67199" lon="5.54125">
        <ele>260.006247</ele>
        <time>2020-10-25T12:16:09.924Z</time>
      </trkpt>
      <trkpt lat="46.67192" lon="5.54096">
        <ele>260.589333</ele>
        <time>2020-10-25T12:16:21.072Z</time>
      </trkpt>
      <trkpt lat="46.67185" lon="5.54047">
        <ele>261.864388</ele>
        <time>2020-10-25T12:16:37.101Z</time>
      </trkpt>
      <trkpt lat="46.67184" lon="5.54038">
        <ele>262.112633</ele>
        <time>2020-10-25T12:16:39.853Z</time>
      </trkpt>
      <trkpt lat="46.67177" lon="5.5404">
        <ele>262.383438</ele>
        <time>2020-10-25T12:16:42.193Z</time>
      </trkpt>
      <trkpt lat="46.6714" lon="5.5404">
        <ele>263.883219</ele>
        <time>2020-10-25T12:16:59.838Z</time>
      </trkpt>
      <trkpt lat="46.67134" lon="5.54043">
        <ele>264.09784</ele>
        <time>2020-10-25T12:17:02.800Z</time>
      </trkpt>
      <trkpt lat="46.67132" lon="5.54017">
        <ele>264.799239</ele>
        <time>2020-10-25T12:17:11.900Z</time>
      </trkpt>
      <trkpt lat="46.67155" lon="5.5393">
        <ele>267.360094</ele>
        <time>2020-10-25T12:17:39.227Z</time>
      </trkpt>
      <trkpt lat="46.67156" lon="5.53903">
        <ele>268.013151</ele>
        <time>2020-10-25T12:17:45.111Z</time>
      </trkpt>
      <trkpt lat="46.67159" lon="5.5389">
        <ele>268.079469</ele>
        <time>2020-10-25T12:17:50.017Z</time>
      </trkpt>
      <trkpt lat="46.67164" lon="5.53874">
        <ele>268.160954</ele>
        <time>2020-10-25T12:17:54.862Z</time>
      </trkpt>
      <trkpt lat="46.67168" lon="5.53861">
        <ele>268.232672</ele>
        <time>2020-10-25T12:17:57.146Z</time>
      </trkpt>
      <trkpt lat="46.67274" lon="5.53475">
        <ele>268.736099</ele>
        <time>2020-10-25T12:18:55.562Z</time>
      </trkpt>
      <trkpt lat="46.67283" lon="5.53388">
        <ele>268.162144</ele>
        <time>2020-10-25T12:19:05.779Z</time>
      </trkpt>
      <trkpt lat="46.67279" lon="5.53256">
        <ele>266.236564</ele>
        <time>2020-10-25T12:19:20.223Z</time>
      </trkpt>
      <trkpt lat="46.67263" lon="5.52902">
        <ele>259.04629</ele>
        <time>2020-10-25T12:19:54.878Z</time>
      </trkpt>
      <trkpt lat="46.67261" lon="5.52872">
        <ele>258.42846</ele>
        <time>2020-10-25T12:19:57.680Z</time>
      </trkpt>
      <trkpt lat="46.6725" lon="5.5268">
        <ele>254.594186</ele>
        <time>2020-10-25T12:20:16.218Z</time>
      </trkpt>
      <trkpt lat="46.67251" lon="5.52581">
        <ele>254.190599</ele>
        <time>2020-10-25T12:20:27.037Z</time>
      </trkpt>
      <trkpt lat="46.67255" lon="5.52542">
        <ele>254.622727</ele>
        <time>2020-10-25T12:20:36.345Z</time>
      </trkpt>
      <trkpt lat="46.67261" lon="5.52499">
        <ele>255.08866</ele>
        <time>2020-10-25T12:20:45.660Z</time>
      </trkpt>
      <trkpt lat="46.67266" lon="5.52469">
        <ele>255.4196</ele>
        <time>2020-10-25T12:20:52.909Z</time>
      </trkpt>
      <trkpt lat="46.67287" lon="5.52376">
        <ele>256.471892</ele>
        <time>2020-10-25T12:21:18.822Z</time>
      </trkpt>
      <trkpt lat="46.67291" lon="5.52364">
        <ele>256.707267</ele>
        <time>2020-10-25T12:21:23.083Z</time>
      </trkpt>
      <trkpt lat="46.67298" lon="5.52343">
        <ele>257.091177</ele>
        <time>2020-10-25T12:21:30.602Z</time>
      </trkpt>
      <trkpt lat="46.67397" lon="5.52086">
        <ele>260.559259</ele>
        <time>2020-10-25T12:22:38.638Z</time>
      </trkpt>
      <trkpt lat="46.67469" lon="5.51886">
        <ele>259.556301</ele>
        <time>2020-10-25T12:23:02.546Z</time>
      </trkpt>
      <trkpt lat="46.67503" lon="5.51763">
        <ele>259.108349</ele>
        <time>2020-10-25T12:23:17.657Z</time>
      </trkpt>
      <trkpt lat="46.67521" lon="5.51673">
        <ele>258.7945</ele>
        <time>2020-10-25T12:23:34.428Z</time>
      </trkpt>
      <trkpt lat="46.6754" lon="5.51535">
        <ele>258.97344</ele>
        <time>2020-10-25T12:24:03.227Z</time>
      </trkpt>
      <trkpt lat="46.67548" lon="5.51419">
        <ele>259.127576</ele>
        <time>2020-10-25T12:24:17.968Z</time>
      </trkpt>
      <trkpt lat="46.67551" lon="5.51373">
        <ele>258.409806</ele>
        <time>2020-10-25T12:24:22.780Z</time>
      </trkpt>
      <trkpt lat="46.6756" lon="5.51225">
        <ele>255.758069</ele>
        <time>2020-10-25T12:24:37.482Z</time>
      </trkpt>
      <trkpt lat="46.67566" lon="5.51117">
        <ele>253.900692</ele>
        <time>2020-10-25T12:24:48.028Z</time>
      </trkpt>
      <trkpt lat="46.67569" lon="5.51047">
        <ele>252.818807</ele>
        <time>2020-10-25T12:24:55.624Z</time>
      </trkpt>
      <trkpt lat="46.6757" lon="5.51042">
        <ele>252.737713</ele>
        <time>2020-10-25T12:24:56.228Z</time>
      </trkpt>
      <trkpt lat="46.67571" lon="5.51023">
        <ele>252.439771</ele>
        <time>2020-10-25T12:24:58.206Z</time>
      </trkpt>
      <trkpt lat="46.67581" lon="5.50852">
        <ele>249.242036</ele>
        <time>2020-10-25T12:25:16.795Z</time>
      </trkpt>
      <trkpt lat="46.67609" lon="5.50392">
        <ele>235.709409</ele>
        <time>2020-10-25T12:25:58.718Z</time>
      </trkpt>
      <trkpt lat="46.67613" lon="5.50337">
        <ele>235.077668</ele>
        <time>2020-10-25T12:26:05.088Z</time>
      </trkpt>
      <trkpt lat="46.67614" lon="5.50289">
        <ele>235.193782</ele>
        <time>2020-10-25T12:26:11.537Z</time>
      </trkpt>
      <trkpt lat="46.67613" lon="5.50258">
        <ele>235.265861</ele>
        <time>2020-10-25T12:26:17.017Z</time>
      </trkpt>
      <trkpt lat="46.6761" lon="5.50225">
        <ele>235.346327</ele>
        <time>2020-10-25T12:26:22.500Z</time>
      </trkpt>
      <trkpt lat="46.67608" lon="5.50204">
        <ele>235.396837</ele>
        <time>2020-10-25T12:26:27.259Z</time>
      </trkpt>
      <trkpt lat="46.67591" lon="5.50099">
        <ele>235.697915</ele>
        <time>2020-10-25T12:26:50.942Z</time>
      </trkpt>
      <trkpt lat="46.67491" lon="5.498">
        <ele>237.505212</ele>
        <time>2020-10-25T12:27:49.180Z</time>
      </trkpt>
      <trkpt lat="46.67472" lon="5.49715">
        <ele>237.609561</ele>
        <time>2020-10-25T12:28:01.616Z</time>
      </trkpt>
      <trkpt lat="46.67461" lon="5.49613">
        <ele>237.699607</ele>
        <time>2020-10-25T12:28:15.601Z</time>
      </trkpt>
      <trkpt lat="46.6746" lon="5.49562">
        <ele>237.623087</ele>
        <time>2020-10-25T12:28:22.322Z</time>
      </trkpt>
      <trkpt lat="46.6746" lon="5.49511">
        <ele>237.545255</ele>
        <time>2020-10-25T12:28:29.210Z</time>
      </trkpt>
      <trkpt lat="46.67462" lon="5.4948">
        <ele>237.498394</ele>
        <time>2020-10-25T12:28:35.100Z</time>
      </trkpt>
      <trkpt lat="46.67473" lon="5.49387">
        <ele>237.356676</ele>
        <time>2020-10-25T12:28:52.859Z</time>
      </trkpt>
      <trkpt lat="46.67495" lon="5.49294">
        <ele>237.022136</ele>
        <time>2020-10-25T12:29:11.082Z</time>
      </trkpt>
      <trkpt lat="46.67521" lon="5.49221">
        <ele>236.691783</ele>
        <time>2020-10-25T12:29:26.004Z</time>
      </trkpt>
      <trkpt lat="46.67476" lon="5.48806">
        <ele>234.685673</ele>
        <time>2020-10-25T12:30:16.323Z</time>
      </trkpt>
      <trkpt lat="46.6746" lon="5.48666">
        <ele>234.435358</ele>
        <time>2020-10-25T12:30:36.130Z</time>
      </trkpt>
      <trkpt lat="46.6745" lon="5.48572">
        <ele>234.208887</ele>
        <time>2020-10-25T12:30:50.391Z</time>
      </trkpt>
      <trkpt lat="46.67447" lon="5.48554">
        <ele>234.138786</ele>
        <time>2020-10-25T12:30:53.156Z</time>
      </trkpt>
      <trkpt lat="46.6743" lon="5.48402">
        <ele>233.547485</ele>
        <time>2020-10-25T12:31:12.869Z</time>
      </trkpt>
      <trkpt lat="46.67397" lon="5.48109">
        <ele>231.429935</ele>
        <time>2020-10-25T12:31:46.656Z</time>
      </trkpt>
      <trkpt lat="46.67389" lon="5.48031">
        <ele>230.991307</ele>
        <time>2020-10-25T12:31:56.077Z</time>
      </trkpt>
      <trkpt lat="46.67344" lon="5.47623">
        <ele>229.190737</ele>
        <time>2020-10-25T12:32:48.584Z</time>
      </trkpt>
      <trkpt lat="46.67333" lon="5.47517">
        <ele>228.602299</ele>
        <time>2020-10-25T12:33:01.145Z</time>
      </trkpt>
      <trkpt lat="46.67297" lon="5.47196">
        <ele>226.725686</ele>
        <time>2020-10-25T12:33:39.652Z</time>
      </trkpt>
      <trkpt lat="46.67272" lon="5.4697">
        <ele>226.058537</ele>
        <time>2020-10-25T12:34:10.465Z</time>
      </trkpt>
      <trkpt lat="46.67228" lon="5.46575">
        <ele>225.761203</ele>
        <time>2020-10-25T12:35:05.715Z</time>
      </trkpt>
      <trkpt lat="46.67206" lon="5.46374">
        <ele>225.756882</ele>
        <time>2020-10-25T12:35:35.679Z</time>
      </trkpt>
      <trkpt lat="46.6717" lon="5.46039">
        <ele>225.495817</ele>
        <time>2020-10-25T12:36:23.295Z</time>
      </trkpt>
      <trkpt lat="46.67117" lon="5.45592">
        <ele>223.31337</ele>
        <time>2020-10-25T12:37:18.834Z</time>
      </trkpt>
      <trkpt lat="46.67115" lon="5.45577">
        <ele>223.229049</ele>
        <time>2020-10-25T12:37:20.613Z</time>
      </trkpt>
      <trkpt lat="46.67106" lon="5.45494">
        <ele>222.754555</ele>
        <time>2020-10-25T12:37:30.727Z</time>
      </trkpt>
      <trkpt lat="46.67035" lon="5.44879">
        <ele>219.705118</ele>
        <time>2020-10-25T12:38:46.666Z</time>
      </trkpt>
      <trkpt lat="46.66987" lon="5.44453">
        <ele>219.182152</ele>
        <time>2020-10-25T12:39:46.982Z</time>
      </trkpt>
      <trkpt lat="46.66869" lon="5.43412">
        <ele>218.380891</ele>
        <time>2020-10-25T12:42:12.487Z</time>
      </trkpt>
      <trkpt lat="46.66861" lon="5.43346">
        <ele>218.508073</ele>
        <time>2020-10-25T12:42:24.052Z</time>
      </trkpt>
      <trkpt lat="46.66856" lon="5.43302">
        <ele>218.591027</ele>
        <time>2020-10-25T12:42:31.237Z</time>
      </trkpt>
      <trkpt lat="46.66851" lon="5.43261">
        <ele>218.668895</ele>
        <time>2020-10-25T12:42:38.053Z</time>
      </trkpt>
      <trkpt lat="46.66846" lon="5.43229">
        <ele>218.73089</ele>
        <time>2020-10-25T12:42:43.378Z</time>
      </trkpt>
      <trkpt lat="46.66837" lon="5.43166">
        <ele>218.826919</ele>
        <time>2020-10-25T12:42:53.386Z</time>
      </trkpt>
      <trkpt lat="46.66797" lon="5.42916">
        <ele>217.671605</ele>
        <time>2020-10-25T12:43:24.531Z</time>
      </trkpt>
      <trkpt lat="46.66787" lon="5.42851">
        <ele>217.228384</ele>
        <time>2020-10-25T12:43:32.406Z</time>
      </trkpt>
      <trkpt lat="46.66778" lon="5.42753">
        <ele>216.563989</ele>
        <time>2020-10-25T12:43:44.160Z</time>
      </trkpt>
      <trkpt lat="46.66776" lon="5.42722">
        <ele>216.35523</ele>
        <time>2020-10-25T12:43:47.781Z</time>
      </trkpt>
      <trkpt lat="46.6677" lon="5.42559">
        <ele>215.492836</ele>
        <time>2020-10-25T12:44:06.775Z</time>
      </trkpt>
      <trkpt lat="46.66766" lon="5.42449">
        <ele>215.018207</ele>
        <time>2020-10-25T12:44:20.595Z</time>
      </trkpt>
      <trkpt lat="46.66754" lon="5.42188">
        <ele>214.679704</ele>
        <time>2020-10-25T12:44:58.377Z</time>
      </trkpt>
      <trkpt lat="46.66753" lon="5.42099">
        <ele>214.560028</ele>
        <time>2020-10-25T12:45:10.472Z</time>
      </trkpt>
      <trkpt lat="46.66759" lon="5.4204">
        <ele>214.386566</ele>
        <time>2020-10-25T12:45:17.793Z</time>
      </trkpt>
      <trkpt lat="46.66795" lon="5.41819">
        <ele>213.824036</ele>
        <time>2020-10-25T12:45:47.150Z</time>
      </trkpt>
      <trkpt lat="46.66812" lon="5.41774">
        <ele>213.761356</ele>
        <time>2020-10-25T12:45:54.210Z</time>
      </trkpt>
      <trkpt lat="46.66817" lon="5.41767">
        <ele>213.748898</ele>
        <time>2020-10-25T12:45:55.806Z</time>
      </trkpt>
      <trkpt lat="46.66823" lon="5.41763">
        <ele>213.737146</ele>
        <time>2020-10-25T12:45:57.104Z</time>
      </trkpt>
      <trkpt lat="46.66829" lon="5.41758">
        <ele>213.725499</ele>
        <time>2020-10-25T12:45:58.567Z</time>
      </trkpt>
      <trkpt lat="46.66833" lon="5.41748">
        <ele>213.7115</ele>
        <time>2020-10-25T12:46:00.079Z</time>
      </trkpt>
      <trkpt lat="46.66836" lon="5.41737">
        <ele>213.697415</ele>
        <time>2020-10-25T12:46:01.693Z</time>
      </trkpt>
      <trkpt lat="46.66836" lon="5.41726">
        <ele>213.683491</ele>
        <time>2020-10-25T12:46:03.543Z</time>
      </trkpt>
      <trkpt lat="46.6683" lon="5.41705">
        <ele>213.655741</ele>
        <time>2020-10-25T12:46:06.774Z</time>
      </trkpt>
      <trkpt lat="46.66826" lon="5.41701">
        <ele>213.647247</ele>
        <time>2020-10-25T12:46:07.817Z</time>
      </trkpt>
      <trkpt lat="46.66823" lon="5.41685">
        <ele>213.626554</ele>
        <time>2020-10-25T12:46:10.362Z</time>
      </trkpt>
      <trkpt lat="46.66823" lon="5.4167">
        <ele>213.608489</ele>
        <time>2020-10-25T12:46:12.658Z</time>
      </trkpt>
      <trkpt lat="46.66825" lon="5.41638">
        <ele>213.555458</ele>
        <time>2020-10-25T12:46:17.536Z</time>
      </trkpt>
      <trkpt lat="46.66894" lon="5.41236">
        <ele>211.09819</ele>
        <time>2020-10-25T12:47:07.712Z</time>
      </trkpt>
      <trkpt lat="46.66923" lon="5.41056">
        <ele>209.392629</ele>
        <time>2020-10-25T12:47:27.734Z</time>
      </trkpt>
      <trkpt lat="46.66965" lon="5.40771">
        <ele>207.028594</ele>
        <time>2020-10-25T12:48:00.158Z</time>
      </trkpt>
      <trkpt lat="46.66971" lon="5.40736">
        <ele>206.899234</ele>
        <time>2020-10-25T12:48:04.598Z</time>
      </trkpt>
      <trkpt lat="46.67042" lon="5.40372">
        <ele>207.790253</ele>
        <time>2020-10-25T12:49:05.265Z</time>
      </trkpt>
      <trkpt lat="46.67064" lon="5.40179">
        <ele>210.942437</ele>
        <time>2020-10-25T12:49:52.616Z</time>
      </trkpt>
      <trkpt lat="46.67068" lon="5.40121">
        <ele>211.873453</ele>
        <time>2020-10-25T12:50:07.447Z</time>
      </trkpt>
      <trkpt lat="46.67074" lon="5.40041">
        <ele>212.578087</ele>
        <time>2020-10-25T12:50:26.257Z</time>
      </trkpt>
      <trkpt lat="46.67076" lon="5.40014">
        <ele>212.783382</ele>
        <time>2020-10-25T12:50:32.449Z</time>
      </trkpt>
      <trkpt lat="46.67081" lon="5.39963">
        <ele>213.174912</ele>
        <time>2020-10-25T12:50:42.989Z</time>
      </trkpt>
      <trkpt lat="46.67086" lon="5.39902">
        <ele>213.644899</ele>
        <time>2020-10-25T12:50:53.832Z</time>
      </trkpt>
      <trkpt lat="46.67104" lon="5.39725">
        <ele>212.732254</ele>
        <time>2020-10-25T12:51:14.471Z</time>
      </trkpt>
      <trkpt lat="46.67132" lon="5.39437">
        <ele>210.369606</ele>
        <time>2020-10-25T12:51:45.253Z</time>
      </trkpt>
      <trkpt lat="46.67154" lon="5.3922">
        <ele>210.445858</ele>
        <time>2020-10-25T12:52:22.484Z</time>
      </trkpt>
      <trkpt lat="46.67157" lon="5.39184">
        <ele>210.684612</ele>
        <time>2020-10-25T12:52:29.761Z</time>
      </trkpt>
      <trkpt lat="46.67156" lon="5.39175">
        <ele>210.740497</ele>
        <time>2020-10-25T12:52:31.767Z</time>
      </trkpt>
      <trkpt lat="46.67155" lon="5.39159">
        <ele>210.847489</ele>
        <time>2020-10-25T12:52:34.838Z</time>
      </trkpt>
      <trkpt lat="46.67139" lon="5.39127">
        <ele>211.103102</ele>
        <time>2020-10-25T12:52:42.416Z</time>
      </trkpt>
      <trkpt lat="46.67069" lon="5.39032">
        <ele>211.739733</ele>
        <time>2020-10-25T12:53:06.785Z</time>
      </trkpt>
      <trkpt lat="46.67049" lon="5.39013">
        <ele>211.860669</ele>
        <time>2020-10-25T12:53:12.216Z</time>
      </trkpt>
      <trkpt lat="46.67029" lon="5.38997">
        <ele>211.977658</ele>
        <time>2020-10-25T12:53:16.821Z</time>
      </trkpt>
      <trkpt lat="46.67021" lon="5.3899">
        <ele>212.025904</ele>
        <time>2020-10-25T12:53:18.783Z</time>
      </trkpt>
      <trkpt lat="46.66953" lon="5.38935">
        <ele>212.481117</ele>
        <time>2020-10-25T12:53:36.135Z</time>
      </trkpt>
      <trkpt lat="46.66932" lon="5.38919">
        <ele>212.667156</ele>
        <time>2020-10-25T12:53:41.704Z</time>
      </trkpt>
      <trkpt lat="46.66905" lon="5.38891">
        <ele>212.940641</ele>
        <time>2020-10-25T12:53:50.822Z</time>
      </trkpt>
      <trkpt lat="46.6685" lon="5.38813">
        <ele>213.560942</ele>
        <time>2020-10-25T12:54:12.243Z</time>
      </trkpt>
      <trkpt lat="46.66779" lon="5.38704">
        <ele>212.631507</ele>
        <time>2020-10-25T12:54:36.120Z</time>
      </trkpt>
      <trkpt lat="46.66728" lon="5.38607">
        <ele>211.288492</ele>
        <time>2020-10-25T12:54:48.816Z</time>
      </trkpt>
      <trkpt lat="46.66704" lon="5.38543">
        <ele>209.811193</ele>
        <time>2020-10-25T12:54:55.551Z</time>
      </trkpt>
      <trkpt lat="46.66694" lon="5.38493">
        <ele>208.382794</ele>
        <time>2020-10-25T12:55:00.246Z</time>
      </trkpt>
      <trkpt lat="46.66684" lon="5.38437">
        <ele>206.784465</ele>
        <time>2020-10-25T12:55:05.524Z</time>
      </trkpt>
      <trkpt lat="46.66678" lon="5.38406">
        <ele>205.905691</ele>
        <time>2020-10-25T12:55:08.443Z</time>
      </trkpt>
      <trkpt lat="46.66669" lon="5.38351">
        <ele>204.354261</ele>
        <time>2020-10-25T12:55:13.754Z</time>
      </trkpt>
      <trkpt lat="46.66664" lon="5.38315">
        <ele>203.732655</ele>
        <time>2020-10-25T12:55:17.414Z</time>
      </trkpt>
      <trkpt lat="46.66638" lon="5.38202">
        <ele>203.950023</ele>
        <time>2020-10-25T12:55:30.981Z</time>
      </trkpt>
      <trkpt lat="46.66624" lon="5.3815">
        <ele>204.051692</ele>
        <time>2020-10-25T12:55:42.566Z</time>
      </trkpt>
      <trkpt lat="46.66606" lon="5.38081">
        <ele>204.191954</ele>
        <time>2020-10-25T12:56:02.024Z</time>
      </trkpt>
      <trkpt lat="46.66576" lon="5.37969">
        <ele>207.004589</ele>
        <time>2020-10-25T12:56:34.019Z</time>
      </trkpt>
      <trkpt lat="46.66569" lon="5.37936">
        <ele>207.810124</ele>
        <time>2020-10-25T12:56:44.361Z</time>
      </trkpt>
      <trkpt lat="46.66568" lon="5.37933">
        <ele>207.87975</ele>
        <time>2020-10-25T12:56:45.531Z</time>
      </trkpt>
      <trkpt lat="46.66564" lon="5.37912">
        <ele>208.396</ele>
        <time>2020-10-25T12:56:51.316Z</time>
      </trkpt>
      <trkpt lat="46.66561" lon="5.37896">
        <ele>208.791694</ele>
        <time>2020-10-25T12:56:56.392Z</time>
      </trkpt>
      <trkpt lat="46.66558" lon="5.37879">
        <ele>209.184965</ele>
        <time>2020-10-25T12:57:01.551Z</time>
      </trkpt>
      <trkpt lat="46.6655" lon="5.37822">
        <ele>210.496549</ele>
        <time>2020-10-25T12:57:17.232Z</time>
      </trkpt>
      <trkpt lat="46.66541" lon="5.37761">
        <ele>211.580242</ele>
        <time>2020-10-25T12:57:34.060Z</time>
      </trkpt>
      <trkpt lat="46.66533" lon="5.37702">
        <ele>212.638655</ele>
        <time>2020-10-25T12:57:50.774Z</time>
      </trkpt>
      <trkpt lat="46.66516" lon="5.37568">
        <ele>214.848103</ele>
        <time>2020-10-25T12:58:20.240Z</time>
      </trkpt>
      <trkpt lat="46.66511" lon="5.37527">
        <ele>214.674354</ele>
        <time>2020-10-25T12:58:28.227Z</time>
      </trkpt>
      <trkpt lat="46.66505" lon="5.37475">
        <ele>214.460239</ele>
        <time>2020-10-25T12:58:36.370Z</time>
      </trkpt>
      <trkpt lat="46.6649" lon="5.37355">
        <ele>213.953196</ele>
        <time>2020-10-25T12:58:50.323Z</time>
      </trkpt>
      <trkpt lat="46.66477" lon="5.37246">
        <ele>212.877666</ele>
        <time>2020-10-25T12:59:01.521Z</time>
      </trkpt>
      <trkpt lat="46.66473" lon="5.37218">
        <ele>212.514316</ele>
        <time>2020-10-25T12:59:04.313Z</time>
      </trkpt>
      <trkpt lat="46.66461" lon="5.37119">
        <ele>211.229844</ele>
        <time>2020-10-25T12:59:15.037Z</time>
      </trkpt>
      <trkpt lat="46.6644" lon="5.36984">
        <ele>210.237747</ele>
        <time>2020-10-25T12:59:31.391Z</time>
      </trkpt>
      <trkpt lat="46.66435" lon="5.36967">
        <ele>210.186866</ele>
        <time>2020-10-25T12:59:33.705Z</time>
      </trkpt>
      <trkpt lat="46.66431" lon="5.36952">
        <ele>210.142917</ele>
        <time>2020-10-25T12:59:36.386Z</time>
      </trkpt>
      <trkpt lat="46.66367" lon="5.36796">
        <ele>209.56124</ele>
        <time>2020-10-25T13:00:01.936Z</time>
      </trkpt>
      <trkpt lat="46.66304" lon="5.36644">
        <ele>208.655679</ele>
        <time>2020-10-25T13:00:24.222Z</time>
      </trkpt>
      <trkpt lat="46.66255" lon="5.36524">
        <ele>207.049074</ele>
        <time>2020-10-25T13:00:39.394Z</time>
      </trkpt>
      <trkpt lat="46.66213" lon="5.36422">
        <ele>205.212959</ele>
        <time>2020-10-25T13:00:51.574Z</time>
      </trkpt>
      <trkpt lat="46.66206" lon="5.36401">
        <ele>204.839747</ele>
        <time>2020-10-25T13:00:53.996Z</time>
      </trkpt>
      <trkpt lat="46.66199" lon="5.36379">
        <ele>204.472624</ele>
        <time>2020-10-25T13:00:56.364Z</time>
      </trkpt>
      <trkpt lat="46.66187" lon="5.36322">
        <ele>203.390099</ele>
        <time>2020-10-25T13:01:02.314Z</time>
      </trkpt>
      <trkpt lat="46.66167" lon="5.36219">
        <ele>201.408134</ele>
        <time>2020-10-25T13:01:12.844Z</time>
      </trkpt>
      <trkpt lat="46.66142" lon="5.35996">
        <ele>198.680557</ele>
        <time>2020-10-25T13:01:36.414Z</time>
      </trkpt>
      <trkpt lat="46.66126" lon="5.35924">
        <ele>198.174039</ele>
        <time>2020-10-25T13:01:46.252Z</time>
      </trkpt>
      <trkpt lat="46.66122" lon="5.35908">
        <ele>198.058338</ele>
        <time>2020-10-25T13:01:48.346Z</time>
      </trkpt>
      <trkpt lat="46.66107" lon="5.35864">
        <ele>197.754057</ele>
        <time>2020-10-25T13:01:55.800Z</time>
      </trkpt>
      <trkpt lat="46.65993" lon="5.35579">
        <ele>199.638031</ele>
        <time>2020-10-25T13:02:56.459Z</time>
      </trkpt>
      <trkpt lat="46.65947" lon="5.35482">
        <ele>200.10146</ele>
        <time>2020-10-25T13:03:15.413Z</time>
      </trkpt>
      <trkpt lat="46.65862" lon="5.3531">
        <ele>201.010135</ele>
        <time>2020-10-25T13:03:47.135Z</time>
      </trkpt>
      <trkpt lat="46.6582" lon="5.35225">
        <ele>201.479423</ele>
        <time>2020-10-25T13:04:05.271Z</time>
      </trkpt>
      <trkpt lat="46.65704" lon="5.34996">
        <ele>204.794954</ele>
        <time>2020-10-25T13:05:06.975Z</time>
      </trkpt>
      <trkpt lat="46.65683" lon="5.34961">
        <ele>205.003337</ele>
        <time>2020-10-25T13:05:17.072Z</time>
      </trkpt>
      <trkpt lat="46.65675" lon="5.34948">
        <ele>205.079258</ele>
        <time>2020-10-25T13:05:20.429Z</time>
      </trkpt>
      <trkpt lat="46.65642" lon="5.34893">
        <ele>205.403564</ele>
        <time>2020-10-25T13:05:33.534Z</time>
      </trkpt>
      <trkpt lat="46.65617" lon="5.3485">
        <ele>205.654462</ele>
        <time>2020-10-25T13:05:42.354Z</time>
      </trkpt>
      <trkpt lat="46.65582" lon="5.34786">
        <ele>205.851235</ele>
        <time>2020-10-25T13:05:52.876Z</time>
      </trkpt>
      <trkpt lat="46.65561" lon="5.34747">
        <ele>205.546612</ele>
        <time>2020-10-25T13:05:58.701Z</time>
      </trkpt>
      <trkpt lat="46.65494" lon="5.34624">
        <ele>204.582469</ele>
        <time>2020-10-25T13:06:16.918Z</time>
      </trkpt>
      <trkpt lat="46.6542" lon="5.34486">
        <ele>204.143314</ele>
        <time>2020-10-25T13:06:38.985Z</time>
      </trkpt>
      <trkpt lat="46.65359" lon="5.34371">
        <ele>203.935158</ele>
        <time>2020-10-25T13:07:00.744Z</time>
      </trkpt>
      <trkpt lat="46.65296" lon="5.34254">
        <ele>203.759508</ele>
        <time>2020-10-25T13:07:22.514Z</time>
      </trkpt>
      <trkpt lat="46.65275" lon="5.34215">
        <ele>203.701594</ele>
        <time>2020-10-25T13:07:28.907Z</time>
      </trkpt>
      <trkpt lat="46.65254" lon="5.34172">
        <ele>203.57936</ele>
        <time>2020-10-25T13:07:35.537Z</time>
      </trkpt>
      <trkpt lat="46.65237" lon="5.34112">
        <ele>203.004333</ele>
        <time>2020-10-25T13:07:43.317Z</time>
      </trkpt>
      <trkpt lat="46.65236" lon="5.34104">
        <ele>202.936073</ele>
        <time>2020-10-25T13:07:44.186Z</time>
      </trkpt>
      <trkpt lat="46.65233" lon="5.34088">
        <ele>202.790332</ele>
        <time>2020-10-25T13:07:46.216Z</time>
      </trkpt>
      <trkpt lat="46.65229" lon="5.3405">
        <ele>202.446065</ele>
        <time>2020-10-25T13:07:50.629Z</time>
      </trkpt>
      <trkpt lat="46.65229" lon="5.33983">
        <ele>201.853927</ele>
        <time>2020-10-25T13:07:58.161Z</time>
      </trkpt>
      <trkpt lat="46.65237" lon="5.33837">
        <ele>199.957741</ele>
        <time>2020-10-25T13:08:13.624Z</time>
      </trkpt>
      <trkpt lat="46.6524" lon="5.33762">
        <ele>198.767757</ele>
        <time>2020-10-25T13:08:21.366Z</time>
      </trkpt>
      <trkpt lat="46.65247" lon="5.3356">
        <ele>196.517014</ele>
        <time>2020-10-25T13:08:41.900Z</time>
      </trkpt>
      <trkpt lat="46.65251" lon="5.33419">
        <ele>195.59001</ele>
        <time>2020-10-25T13:08:59.473Z</time>
      </trkpt>
      <trkpt lat="46.65251" lon="5.33414">
        <ele>195.555818</ele>
        <time>2020-10-25T13:09:00.266Z</time>
      </trkpt>
      <trkpt lat="46.65263" lon="5.33045">
        <ele>198.64939</ele>
        <time>2020-10-25T13:10:22.075Z</time>
      </trkpt>
      <trkpt lat="46.65275" lon="5.32645">
        <ele>196.532294</ele>
        <time>2020-10-25T13:11:08.484Z</time>
      </trkpt>
      <trkpt lat="46.65279" lon="5.32509">
        <ele>194.76369</ele>
        <time>2020-10-25T13:11:22.566Z</time>
      </trkpt>
      <trkpt lat="46.65283" lon="5.32363">
        <ele>192.70932</ele>
        <time>2020-10-25T13:11:37.821Z</time>
      </trkpt>
      <trkpt lat="46.65281" lon="5.32295">
        <ele>192.408716</ele>
        <time>2020-10-25T13:11:45.347Z</time>
      </trkpt>
      <trkpt lat="46.65276" lon="5.32233">
        <ele>192.234107</ele>
        <time>2020-10-25T13:11:52.754Z</time>
      </trkpt>
      <trkpt lat="46.65266" lon="5.32169">
        <ele>192.047167</ele>
        <time>2020-10-25T13:12:01.518Z</time>
      </trkpt>
      <trkpt lat="46.65241" lon="5.32059">
        <ele>192.343563</ele>
        <time>2020-10-25T13:12:20.999Z</time>
      </trkpt>
      <trkpt lat="46.65165" lon="5.31722">
        <ele>197.040163</ele>
        <time>2020-10-25T13:13:42.039Z</time>
      </trkpt>
      <trkpt lat="46.65123" lon="5.31531">
        <ele>199.40949</ele>
        <time>2020-10-25T13:14:24.867Z</time>
      </trkpt>
      <trkpt lat="46.65093" lon="5.31433">
        <ele>200.269556</ele>
        <time>2020-10-25T13:14:45.256Z</time>
      </trkpt>
      <trkpt lat="46.65079" lon="5.31403">
        <ele>200.555873</ele>
        <time>2020-10-25T13:14:51.630Z</time>
      </trkpt>
      <trkpt lat="46.65063" lon="5.31375">
        <ele>200.845831</ele>
        <time>2020-10-25T13:14:57.709Z</time>
      </trkpt>
      <trkpt lat="46.65002" lon="5.31292">
        <ele>200.634888</ele>
        <time>2020-10-25T13:15:16.133Z</time>
      </trkpt>
      <trkpt lat="46.64737" lon="5.31">
        <ele>197.552146</ele>
        <time>2020-10-25T13:16:13.578Z</time>
      </trkpt>
      <trkpt lat="46.64701" lon="5.30946">
        <ele>196.539919</ele>
        <time>2020-10-25T13:16:21.502Z</time>
      </trkpt>
      <trkpt lat="46.64665" lon="5.30861">
        <ele>195.210827</ele>
        <time>2020-10-25T13:16:31.613Z</time>
      </trkpt>
      <trkpt lat="46.64659" lon="5.30843">
        <ele>194.962389</ele>
        <time>2020-10-25T13:16:33.562Z</time>
      </trkpt>
      <trkpt lat="46.64641" lon="5.30782">
        <ele>194.39057</ele>
        <time>2020-10-25T13:16:40.324Z</time>
      </trkpt>
      <trkpt lat="46.64634" lon="5.30754">
        <ele>194.132613</ele>
        <time>2020-10-25T13:16:43.411Z</time>
      </trkpt>
      <trkpt lat="46.6463" lon="5.30743">
        <ele>194.021009</ele>
        <time>2020-10-25T13:16:44.794Z</time>
      </trkpt>
      <trkpt lat="46.64594" lon="5.30619">
        <ele>192.854293</ele>
        <time>2020-10-25T13:17:00.407Z</time>
      </trkpt>
      <trkpt lat="46.64503" lon="5.30314">
        <ele>195.167912</ele>
        <time>2020-10-25T13:18:07.948Z</time>
      </trkpt>
      <trkpt lat="46.64465" lon="5.30189">
        <ele>195.576475</ele>
        <time>2020-10-25T13:18:29.621Z</time>
      </trkpt>
      <trkpt lat="46.64448" lon="5.30133">
        <ele>195.756936</ele>
        <time>2020-10-25T13:18:37.579Z</time>
      </trkpt>
      <trkpt lat="46.64424" lon="5.30063">
        <ele>195.783835</ele>
        <time>2020-10-25T13:18:47.527Z</time>
      </trkpt>
      <trkpt lat="46.64388" lon="5.29942">
        <ele>195.785749</ele>
        <time>2020-10-25T13:19:04.773Z</time>
      </trkpt>
      <trkpt lat="46.64327" lon="5.29736">
        <ele>197.02423</ele>
        <time>2020-10-25T13:19:46.496Z</time>
      </trkpt>
      <trkpt lat="46.64318" lon="5.29704">
        <ele>197.283732</ele>
        <time>2020-10-25T13:19:53.979Z</time>
      </trkpt>
      <trkpt lat="46.64254" lon="5.29485">
        <ele>198.383412</ele>
        <time>2020-10-25T13:20:36.192Z</time>
      </trkpt>
      <trkpt lat="46.64213" lon="5.29344">
        <ele>198.552596</ele>
        <time>2020-10-25T13:20:56.584Z</time>
      </trkpt>
      <trkpt lat="46.64099" lon="5.28965">
        <ele>197.660401</ele>
        <time>2020-10-25T13:21:51.201Z</time>
      </trkpt>
      <trkpt lat="46.64028" lon="5.2873">
        <ele>196.929162</ele>
        <time>2020-10-25T13:22:26.048Z</time>
      </trkpt>
      <trkpt lat="46.64006" lon="5.28657">
        <ele>196.471207</ele>
        <time>2020-10-25T13:22:35.371Z</time>
      </trkpt>
      <trkpt lat="46.63913" lon="5.2838">
        <ele>193.138174</ele>
        <time>2020-10-25T13:23:09.097Z</time>
      </trkpt>
      <trkpt lat="46.6385" lon="5.28193">
        <ele>190.479718</ele>
        <time>2020-10-25T13:23:31.187Z</time>
      </trkpt>
      <trkpt lat="46.63812" lon="5.28078">
        <ele>189.072306</ele>
        <time>2020-10-25T13:23:44.812Z</time>
      </trkpt>
      <trkpt lat="46.63778" lon="5.27975">
        <ele>187.852715</ele>
        <time>2020-10-25T13:23:57.326Z</time>
      </trkpt>
      <trkpt lat="46.63695" lon="5.27726">
        <ele>188.348389</ele>
        <time>2020-10-25T13:24:39.814Z</time>
      </trkpt>
      <trkpt lat="46.63605" lon="5.27461">
        <ele>192.384655</ele>
        <time>2020-10-25T13:25:43.308Z</time>
      </trkpt>
      <trkpt lat="46.63566" lon="5.27343">
        <ele>195.418925</ele>
        <time>2020-10-25T13:26:20.665Z</time>
      </trkpt>
      <trkpt lat="46.63536" lon="5.27247">
        <ele>197.658698</ele>
        <time>2020-10-25T13:26:52.727Z</time>
      </trkpt>
      <trkpt lat="46.63523" lon="5.27182">
        <ele>198.703497</ele>
        <time>2020-10-25T13:27:11.686Z</time>
      </trkpt>
      <trkpt lat="46.63516" lon="5.27133">
        <ele>199.460231</ele>
        <time>2020-10-25T13:27:23.868Z</time>
      </trkpt>
      <trkpt lat="46.63483" lon="5.26828">
        <ele>201.70195</ele>
        <time>2020-10-25T13:28:16.392Z</time>
      </trkpt>
      <trkpt lat="46.63463" lon="5.2665">
        <ele>201.587495</ele>
        <time>2020-10-25T13:28:39.282Z</time>
      </trkpt>
      <trkpt lat="46.63453" lon="5.2655">
        <ele>201.331377</ele>
        <time>2020-10-25T13:28:52.406Z</time>
      </trkpt>
      <trkpt lat="46.63433" lon="5.26377">
        <ele>201.174302</ele>
        <time>2020-10-25T13:29:17.100Z</time>
      </trkpt>
      <trkpt lat="46.6342" lon="5.26259">
        <ele>201.150294</ele>
        <time>2020-10-25T13:29:34.862Z</time>
      </trkpt>
      <trkpt lat="46.63417" lon="5.26226">
        <ele>201.087676</ele>
        <time>2020-10-25T13:29:39.523Z</time>
      </trkpt>
      <trkpt lat="46.63407" lon="5.26134">
        <ele>200.71521</ele>
        <time>2020-10-25T13:29:52.281Z</time>
      </trkpt>
      <trkpt lat="46.63383" lon="5.25893">
        <ele>199.763988</ele>
        <time>2020-10-25T13:30:21.090Z</time>
      </trkpt>
      <trkpt lat="46.63358" lon="5.25666">
        <ele>199.313804</ele>
        <time>2020-10-25T13:30:51.019Z</time>
      </trkpt>
      <trkpt lat="46.63356" lon="5.25646">
        <ele>199.383285</ele>
        <time>2020-10-25T13:30:54.209Z</time>
      </trkpt>
      <trkpt lat="46.63338" lon="5.25462">
        <ele>200.037171</ele>
        <time>2020-10-25T13:31:27.131Z</time>
      </trkpt>
      <trkpt lat="46.63317" lon="5.2527">
        <ele>200.513629</ele>
        <time>2020-10-25T13:32:00.481Z</time>
      </trkpt>
      <trkpt lat="46.63302" lon="5.25134">
        <ele>200.158859</ele>
        <time>2020-10-25T13:32:18.003Z</time>
      </trkpt>
      <trkpt lat="46.63299" lon="5.25102">
        <ele>199.925032</ele>
        <time>2020-10-25T13:32:21.846Z</time>
      </trkpt>
      <trkpt lat="46.63295" lon="5.25059">
        <ele>199.615415</ele>
        <time>2020-10-25T13:32:26.748Z</time>
      </trkpt>
      <trkpt lat="46.63291" lon="5.24971">
        <ele>198.973861</ele>
        <time>2020-10-25T13:32:36.684Z</time>
      </trkpt>
      <trkpt lat="46.63289" lon="5.24921">
        <ele>198.562545</ele>
        <time>2020-10-25T13:32:42.197Z</time>
      </trkpt>
      <trkpt lat="46.63286" lon="5.24859">
        <ele>197.983681</ele>
        <time>2020-10-25T13:32:48.900Z</time>
      </trkpt>
      <trkpt lat="46.63275" lon="5.24684">
        <ele>196.340041</ele>
        <time>2020-10-25T13:33:08.432Z</time>
      </trkpt>
      <trkpt lat="46.63268" lon="5.2456">
        <ele>196.420172</ele>
        <time>2020-10-25T13:33:25.962Z</time>
      </trkpt>
      <trkpt lat="46.6326" lon="5.24434">
        <ele>196.510362</ele>
        <time>2020-10-25T13:33:46.711Z</time>
      </trkpt>
      <trkpt lat="46.63258" lon="5.24397">
        <ele>196.509292</ele>
        <time>2020-10-25T13:33:53.115Z</time>
      </trkpt>
      <trkpt lat="46.63256" lon="5.24375">
        <ele>196.501295</ele>
        <time>2020-10-25T13:33:56.912Z</time>
      </trkpt>
      <trkpt lat="46.63254" lon="5.24362">
        <ele>196.496456</ele>
        <time>2020-10-25T13:33:59.452Z</time>
      </trkpt>
      <trkpt lat="46.63207" lon="5.24032">
        <ele>196.118818</ele>
        <time>2020-10-25T13:34:44.017Z</time>
      </trkpt>
      <trkpt lat="46.63198" lon="5.23966">
        <ele>195.970461</ele>
        <time>2020-10-25T13:34:52.314Z</time>
      </trkpt>
      <trkpt lat="46.63197" lon="5.23957">
        <ele>195.949634</ele>
        <time>2020-10-25T13:34:53.496Z</time>
      </trkpt>
      <trkpt lat="46.63181" lon="5.23851">
        <ele>196.022714</ele>
        <time>2020-10-25T13:35:08.748Z</time>
      </trkpt>
      <trkpt lat="46.63168" lon="5.23759">
        <ele>196.316621</ele>
        <time>2020-10-25T13:35:24.090Z</time>
      </trkpt>
      <trkpt lat="46.63158" lon="5.23688">
        <ele>196.544255</ele>
        <time>2020-10-25T13:35:37.555Z</time>
      </trkpt>
      <trkpt lat="46.63153" lon="5.23645">
        <ele>196.621896</ele>
        <time>2020-10-25T13:35:45.036Z</time>
      </trkpt>
      <trkpt lat="46.63151" lon="5.23627">
        <ele>196.537629</ele>
        <time>2020-10-25T13:35:47.941Z</time>
      </trkpt>
      <trkpt lat="46.63141" lon="5.23558">
        <ele>196.207583</ele>
        <time>2020-10-25T13:35:58.624Z</time>
      </trkpt>
      <trkpt lat="46.63138" lon="5.23534">
        <ele>196.091766</ele>
        <time>2020-10-25T13:36:01.740Z</time>
      </trkpt>
      <trkpt lat="46.63137" lon="5.23531">
        <ele>196.079404</ele>
        <time>2020-10-25T13:36:02.113Z</time>
      </trkpt>
      <trkpt lat="46.63135" lon="5.23514">
        <ele>195.997431</ele>
        <time>2020-10-25T13:36:04.371Z</time>
      </trkpt>
      <trkpt lat="46.63134" lon="5.23509">
        <ele>195.971071</ele>
        <time>2020-10-25T13:36:05.088Z</time>
      </trkpt>
      <trkpt lat="46.6313" lon="5.23484">
        <ele>195.853139</ele>
        <time>2020-10-25T13:36:07.819Z</time>
      </trkpt>
      <trkpt lat="46.63107" lon="5.23339">
        <ele>194.186979</ele>
        <time>2020-10-25T13:36:23.948Z</time>
      </trkpt>
      <trkpt lat="46.63102" lon="5.23303">
        <ele>193.410821</ele>
        <time>2020-10-25T13:36:27.743Z</time>
      </trkpt>
      <trkpt lat="46.63097" lon="5.23277">
        <ele>192.845893</ele>
        <time>2020-10-25T13:36:30.306Z</time>
      </trkpt>
      <trkpt lat="46.63064" lon="5.23079">
        <ele>188.405411</ele>
        <time>2020-10-25T13:36:49.731Z</time>
      </trkpt>
      <trkpt lat="46.63062" lon="5.23066">
        <ele>188.105799</ele>
        <time>2020-10-25T13:36:50.919Z</time>
      </trkpt>
      <trkpt lat="46.63056" lon="5.23039">
        <ele>187.448034</ele>
        <time>2020-10-25T13:36:53.728Z</time>
      </trkpt>
      <trkpt lat="46.63047" lon="5.22982">
        <ele>186.11689</ele>
        <time>2020-10-25T13:36:59.372Z</time>
      </trkpt>
      <trkpt lat="46.63044" lon="5.22966">
        <ele>185.72585</ele>
        <time>2020-10-25T13:37:00.982Z</time>
      </trkpt>
      <trkpt lat="46.63036" lon="5.2292">
        <ele>184.63888</ele>
        <time>2020-10-25T13:37:05.654Z</time>
      </trkpt>
      <trkpt lat="46.6303" lon="5.22885">
        <ele>183.841308</ele>
        <time>2020-10-25T13:37:09.222Z</time>
      </trkpt>
      <trkpt lat="46.63024" lon="5.22842">
        <ele>183.339476</ele>
        <time>2020-10-25T13:37:13.569Z</time>
      </trkpt>
      <trkpt lat="46.63022" lon="5.22827">
        <ele>183.162764</ele>
        <time>2020-10-25T13:37:15.158Z</time>
      </trkpt>
      <trkpt lat="46.6302" lon="5.22801">
        <ele>182.864959</ele>
        <time>2020-10-25T13:37:17.950Z</time>
      </trkpt>
      <trkpt lat="46.63017" lon="5.22781">
        <ele>182.626432</ele>
        <time>2020-10-25T13:37:20.190Z</time>
      </trkpt>
      <trkpt lat="46.6301" lon="5.22722">
        <ele>181.948156</ele>
        <time>2020-10-25T13:37:26.782Z</time>
      </trkpt>
      <trkpt lat="46.63004" lon="5.22665">
        <ele>181.282875</ele>
        <time>2020-10-25T13:37:33.486Z</time>
      </trkpt>
      <trkpt lat="46.63002" lon="5.22647">
        <ele>181.065537</ele>
        <time>2020-10-25T13:37:35.751Z</time>
      </trkpt>
      <trkpt lat="46.62996" lon="5.22606">
        <ele>180.850427</ele>
        <time>2020-10-25T13:37:40.926Z</time>
      </trkpt>
      <trkpt lat="46.62995" lon="5.22603">
        <ele>180.847986</ele>
        <time>2020-10-25T13:37:41.393Z</time>
      </trkpt>
      <trkpt lat="46.62987" lon="5.22578">
        <ele>180.829672</ele>
        <time>2020-10-25T13:37:45.094Z</time>
      </trkpt>
      <trkpt lat="46.62984" lon="5.2257">
        <ele>180.823809</ele>
        <time>2020-10-25T13:37:46.199Z</time>
      </trkpt>
      <trkpt lat="46.62972" lon="5.22534">
        <ele>180.797135</ele>
        <time>2020-10-25T13:37:51.760Z</time>
      </trkpt>
      <trkpt lat="46.62963" lon="5.22539">
        <ele>180.787656</ele>
        <time>2020-10-25T13:37:53.735Z</time>
      </trkpt>
      <trkpt lat="46.62934" lon="5.2255">
        <ele>180.759001</ele>
        <time>2020-10-25T13:38:00.134Z</time>
      </trkpt>
      <trkpt lat="46.62906" lon="5.22562">
        <ele>180.730479</ele>
        <time>2020-10-25T13:38:06.334Z</time>
      </trkpt>
      <trkpt lat="46.62904" lon="5.22554">
        <ele>180.725357</ele>
        <time>2020-10-25T13:38:07.824Z</time>
      </trkpt>
      <trkpt lat="46.62849" lon="5.22311">
        <ele>180.759968</ele>
        <time>2020-10-25T13:38:47.189Z</time>
      </trkpt>
      <trkpt lat="46.62847" lon="5.22305">
        <ele>180.762098</ele>
        <time>2020-10-25T13:38:48.076Z</time>
      </trkpt>
      <trkpt lat="46.62845" lon="5.22301">
        <ele>180.763594</ele>
        <time>2020-10-25T13:38:48.712Z</time>
      </trkpt>
      <trkpt lat="46.62843" lon="5.22296">
        <ele>180.765596</ele>
        <time>2020-10-25T13:38:49.451Z</time>
      </trkpt>
      <trkpt lat="46.6284" lon="5.22292">
        <ele>180.767551</ele>
        <time>2020-10-25T13:38:50.276Z</time>
      </trkpt>
      <trkpt lat="46.62841" lon="5.22288">
        <ele>180.768725</ele>
        <time>2020-10-25T13:38:50.779Z</time>
      </trkpt>
      <trkpt lat="46.62841" lon="5.22284">
        <ele>180.770005</ele>
        <time>2020-10-25T13:38:51.358Z</time>
      </trkpt>
      <trkpt lat="46.6284" lon="5.22278">
        <ele>180.772067</ele>
        <time>2020-10-25T13:38:52.169Z</time>
      </trkpt>
      <trkpt lat="46.62838" lon="5.22267">
        <ele>180.775909</ele>
        <time>2020-10-25T13:38:53.597Z</time>
      </trkpt>
      <trkpt lat="46.62811" lon="5.22153">
        <ele>180.039079</ele>
        <time>2020-10-25T13:39:07.955Z</time>
      </trkpt>
      <trkpt lat="46.6281" lon="5.22149">
        <ele>180.007825</ele>
        <time>2020-10-25T13:39:08.471Z</time>
      </trkpt>
      <trkpt lat="46.62813" lon="5.22147">
        <ele>179.980767</ele>
        <time>2020-10-25T13:39:08.967Z</time>
      </trkpt>
      <trkpt lat="46.62817" lon="5.22142">
        <ele>179.926739</ele>
        <time>2020-10-25T13:39:09.935Z</time>
      </trkpt>
      <trkpt lat="46.62818" lon="5.22138">
        <ele>179.899409</ele>
        <time>2020-10-25T13:39:10.478Z</time>
      </trkpt>
      <trkpt lat="46.62819" lon="5.22135">
        <ele>179.87944</ele>
        <time>2020-10-25T13:39:10.813Z</time>
      </trkpt>
      <trkpt lat="46.62815" lon="5.22122">
        <ele>179.783192</ele>
        <time>2020-10-25T13:39:12.407Z</time>
      </trkpt>
      <trkpt lat="46.62813" lon="5.2212">
        <ele>179.763126</ele>
        <time>2020-10-25T13:39:12.762Z</time>
      </trkpt>
      <trkpt lat="46.62811" lon="5.22119">
        <ele>179.742103</ele>
        <time>2020-10-25T13:39:13.173Z</time>
      </trkpt>
      <trkpt lat="46.62802" lon="5.22122">
        <ele>179.659182</ele>
        <time>2020-10-25T13:39:14.682Z</time>
      </trkpt>
      <trkpt lat="46.62801" lon="5.22124">
        <ele>179.637789</ele>
        <time>2020-10-25T13:39:15.064Z</time>
      </trkpt>
      <trkpt lat="46.62799" lon="5.22122">
        <ele>179.61298</ele>
        <time>2020-10-25T13:39:15.472Z</time>
      </trkpt>
      <trkpt lat="46.62796" lon="5.22116">
        <ele>179.565878</ele>
        <time>2020-10-25T13:39:16.387Z</time>
      </trkpt>
      <trkpt lat="46.62792" lon="5.22105">
        <ele>179.483888</ele>
        <time>2020-10-25T13:39:17.753Z</time>
      </trkpt>
      <trkpt lat="46.62789" lon="5.22084">
        <ele>179.34309</ele>
        <time>2020-10-25T13:39:20.379Z</time>
      </trkpt>
      <trkpt lat="46.62785" lon="5.22072">
        <ele>179.258122</ele>
        <time>2020-10-25T13:39:21.884Z</time>
      </trkpt>
      <trkpt lat="46.62781" lon="5.2206">
        <ele>179.170186</ele>
        <time>2020-10-25T13:39:23.476Z</time>
      </trkpt>
      <trkpt lat="46.62777" lon="5.22051">
        <ele>179.104669</ele>
        <time>2020-10-25T13:39:24.593Z</time>
      </trkpt>
      <trkpt lat="46.62775" lon="5.22031">
        <ele>179.011098</ele>
        <time>2020-10-25T13:39:27.121Z</time>
      </trkpt>
      <trkpt lat="46.62783" lon="5.2201">
        <ele>178.923182</ele>
        <time>2020-10-25T13:39:29.885Z</time>
      </trkpt>
      <trkpt lat="46.62789" lon="5.22005">
        <ele>178.88868</ele>
        <time>2020-10-25T13:39:30.857Z</time>
      </trkpt>
      <trkpt lat="46.62836" lon="5.21973">
        <ele>178.610144</ele>
        <time>2020-10-25T13:39:40.016Z</time>
      </trkpt>
      <trkpt lat="46.62868" lon="5.21945">
        <ele>178.409953</ele>
        <time>2020-10-25T13:39:46.885Z</time>
      </trkpt>
      <trkpt lat="46.62884" lon="5.21932">
        <ele>178.314731</ele>
        <time>2020-10-25T13:39:50.155Z</time>
      </trkpt>
      <trkpt lat="46.62899" lon="5.21918">
        <ele>178.218182</ele>
        <time>2020-10-25T13:39:54.438Z</time>
      </trkpt>
      <trkpt lat="46.62904" lon="5.21904">
        <ele>178.160823</ele>
        <time>2020-10-25T13:39:56.946Z</time>
      </trkpt>
      <trkpt lat="46.62903" lon="5.21899">
        <ele>178.141647</ele>
        <time>2020-10-25T13:39:57.552Z</time>
      </trkpt>
      <trkpt lat="46.62902" lon="5.21893">
        <ele>178.119727</ele>
        <time>2020-10-25T13:39:58.310Z</time>
      </trkpt>
      <trkpt lat="46.62868" lon="5.21802">
        <ele>178.320934</ele>
        <time>2020-10-25T13:40:14.890Z</time>
      </trkpt>
      <trkpt lat="46.62868" lon="5.218">
        <ele>178.325425</ele>
        <time>2020-10-25T13:40:15.251Z</time>
      </trkpt>
      <trkpt lat="46.62844" lon="5.21752">
        <ele>178.45114</ele>
        <time>2020-10-25T13:40:24.510Z</time>
      </trkpt>
      <trkpt lat="46.62833" lon="5.21735">
        <ele>178.501708</ele>
        <time>2020-10-25T13:40:28.219Z</time>
      </trkpt>
      <trkpt lat="46.62822" lon="5.21718">
        <ele>178.552955</ele>
        <time>2020-10-25T13:40:31.770Z</time>
      </trkpt>
      <trkpt lat="46.62807" lon="5.21702">
        <ele>178.611146</ele>
        <time>2020-10-25T13:40:36.116Z</time>
      </trkpt>
      <trkpt lat="46.62789" lon="5.21682">
        <ele>178.663587</ele>
        <time>2020-10-25T13:40:41.204Z</time>
      </trkpt>
      <trkpt lat="46.62781" lon="5.21675">
        <ele>178.649391</ele>
        <time>2020-10-25T13:40:43.211Z</time>
      </trkpt>
      <trkpt lat="46.62813" lon="5.21583">
        <ele>178.541206</ele>
        <time>2020-10-25T13:40:58.873Z</time>
      </trkpt>
      <trkpt lat="46.62827" lon="5.21545">
        <ele>178.496662</ele>
        <time>2020-10-25T13:41:04.695Z</time>
      </trkpt>
      <trkpt lat="46.62834" lon="5.21516">
        <ele>178.464973</ele>
        <time>2020-10-25T13:41:08.573Z</time>
      </trkpt>
      <trkpt lat="46.62839" lon="5.21486">
        <ele>178.433429</ele>
        <time>2020-10-25T13:41:12.551Z</time>
      </trkpt>
      <trkpt lat="46.62844" lon="5.21451">
        <ele>178.392316</ele>
        <time>2020-10-25T13:41:17.043Z</time>
      </trkpt>
      <trkpt lat="46.62853" lon="5.2139">
        <ele>178.195049</ele>
        <time>2020-10-25T13:41:24.592Z</time>
      </trkpt>
      <trkpt lat="46.62856" lon="5.21361">
        <ele>178.10234</ele>
        <time>2020-10-25T13:41:28.035Z</time>
      </trkpt>
      <trkpt lat="46.62856" lon="5.21259">
        <ele>177.775737</ele>
        <time>2020-10-25T13:41:40.976Z</time>
      </trkpt>
      <trkpt lat="46.62851" lon="5.21228">
        <ele>177.674564</ele>
        <time>2020-10-25T13:41:45.249Z</time>
      </trkpt>
      <trkpt lat="46.62847" lon="5.21211">
        <ele>177.617923</ele>
        <time>2020-10-25T13:41:47.715Z</time>
      </trkpt>
      <trkpt lat="46.62839" lon="5.21188">
        <ele>177.610792</ele>
        <time>2020-10-25T13:41:51.468Z</time>
      </trkpt>
      <trkpt lat="46.62815" lon="5.21151">
        <ele>177.901047</ele>
        <time>2020-10-25T13:41:58.815Z</time>
      </trkpt>
      <trkpt lat="46.62777" lon="5.21122">
        <ele>178.261318</ele>
        <time>2020-10-25T13:42:09.193Z</time>
      </trkpt>
      <trkpt lat="46.62769" lon="5.21121">
        <ele>178.324392</ele>
        <time>2020-10-25T13:42:11.262Z</time>
      </trkpt>
      <trkpt lat="46.62751" lon="5.21118">
        <ele>178.4749</ele>
        <time>2020-10-25T13:42:16.023Z</time>
      </trkpt>
      <trkpt lat="46.62737" lon="5.21115">
        <ele>178.597896</ele>
        <time>2020-10-25T13:42:19.957Z</time>
      </trkpt>
      <trkpt lat="46.62608" lon="5.21088">
        <ele>179.750014</ele>
        <time>2020-10-25T13:42:58.109Z</time>
      </trkpt>
      <trkpt lat="46.62612" lon="5.20987">
        <ele>180.391587</ele>
        <time>2020-10-25T13:43:16.309Z</time>
      </trkpt>
      <trkpt lat="46.62625" lon="5.20562">
        <ele>181.474395</ele>
        <time>2020-10-25T13:44:16.765Z</time>
      </trkpt>
      <trkpt lat="46.62627" lon="5.2051">
        <ele>181.792502</ele>
        <time>2020-10-25T13:44:27.040Z</time>
      </trkpt>
      <trkpt lat="46.62627" lon="5.20503">
        <ele>181.837459</ele>
        <time>2020-10-25T13:44:28.484Z</time>
      </trkpt>
      <trkpt lat="46.62628" lon="5.20446">
        <ele>182.180373</ele>
        <time>2020-10-25T13:44:39.905Z</time>
      </trkpt>
      <trkpt lat="46.62632" lon="5.2031">
        <ele>183.40518</ele>
        <time>2020-10-25T13:45:08.400Z</time>
      </trkpt>
      <trkpt lat="46.62644" lon="5.1996">
        <ele>186.893984</ele>
        <time>2020-10-25T13:46:15.928Z</time>
      </trkpt>
      <trkpt lat="46.62648" lon="5.19856">
        <ele>187.820124</ele>
        <time>2020-10-25T13:46:38.284Z</time>
      </trkpt>
      <trkpt lat="46.62651" lon="5.1977">
        <ele>188.387004</ele>
        <time>2020-10-25T13:46:56.413Z</time>
      </trkpt>
      <trkpt lat="46.62655" lon="5.19613">
        <ele>189.249404</ele>
        <time>2020-10-25T13:47:22.417Z</time>
      </trkpt>
      <trkpt lat="46.62656" lon="5.19583">
        <ele>189.044908</ele>
        <time>2020-10-25T13:47:26.122Z</time>
      </trkpt>
      <trkpt lat="46.62659" lon="5.1946">
        <ele>188.215089</ele>
        <time>2020-10-25T13:47:40.459Z</time>
      </trkpt>
      <trkpt lat="46.62659" lon="5.19429">
        <ele>188.002172</ele>
        <time>2020-10-25T13:47:43.863Z</time>
      </trkpt>
      <trkpt lat="46.62657" lon="5.19374">
        <ele>187.631531</ele>
        <time>2020-10-25T13:47:49.771Z</time>
      </trkpt>
      <trkpt lat="46.62655" lon="5.19292">
        <ele>186.918069</ele>
        <time>2020-10-25T13:47:58.917Z</time>
      </trkpt>
      <trkpt lat="46.6265" lon="5.18969">
        <ele>184.116213</ele>
        <time>2020-10-25T13:48:36.115Z</time>
      </trkpt>
      <trkpt lat="46.62645" lon="5.18735">
        <ele>182.473294</ele>
        <time>2020-10-25T13:49:03.055Z</time>
      </trkpt>
      <trkpt lat="46.62643" lon="5.1867">
        <ele>182.113595</ele>
        <time>2020-10-25T13:49:10.765Z</time>
      </trkpt>
      <trkpt lat="46.62638" lon="5.18449">
        <ele>181.338757</ele>
        <time>2020-10-25T13:49:40.193Z</time>
      </trkpt>
      <trkpt lat="46.62636" lon="5.18399">
        <ele>181.235263</ele>
        <time>2020-10-25T13:49:46.959Z</time>
      </trkpt>
      <trkpt lat="46.62634" lon="5.18301">
        <ele>181.053603</ele>
        <time>2020-10-25T13:49:59.799Z</time>
      </trkpt>
      <trkpt lat="46.62634" lon="5.18288">
        <ele>181.042937</ele>
        <time>2020-10-25T13:50:01.793Z</time>
      </trkpt>
      <trkpt lat="46.62633" lon="5.18277">
        <ele>181.033845</ele>
        <time>2020-10-25T13:50:03.075Z</time>
      </trkpt>
      <trkpt lat="46.62629" lon="5.18088">
        <ele>180.876612</ele>
        <time>2020-10-25T13:50:29.319Z</time>
      </trkpt>
      <trkpt lat="46.62628" lon="5.18023">
        <ele>180.897473</ele>
        <time>2020-10-25T13:50:38.690Z</time>
      </trkpt>
      <trkpt lat="46.62627" lon="5.17982">
        <ele>180.958283</ele>
        <time>2020-10-25T13:50:44.883Z</time>
      </trkpt>
      <trkpt lat="46.62627" lon="5.17961">
        <ele>180.990263</ele>
        <time>2020-10-25T13:50:48.213Z</time>
      </trkpt>
      <trkpt lat="46.62626" lon="5.17934">
        <ele>181.02987</ele>
        <time>2020-10-25T13:50:52.382Z</time>
      </trkpt>
      <trkpt lat="46.62625" lon="5.17906">
        <ele>181.071458</ele>
        <time>2020-10-25T13:50:56.837Z</time>
      </trkpt>
      <trkpt lat="46.62623" lon="5.17807">
        <ele>181.219957</ele>
        <time>2020-10-25T13:51:12.435Z</time>
      </trkpt>
      <trkpt lat="46.62622" lon="5.17745">
        <ele>181.158145</ele>
        <time>2020-10-25T13:51:21.519Z</time>
      </trkpt>
      <trkpt lat="46.62622" lon="5.17729">
        <ele>181.13133</ele>
        <time>2020-10-25T13:51:23.682Z</time>
      </trkpt>
      <trkpt lat="46.62621" lon="5.17704">
        <ele>181.090008</ele>
        <time>2020-10-25T13:51:27.112Z</time>
      </trkpt>
      <trkpt lat="46.62621" lon="5.17693">
        <ele>181.070615</ele>
        <time>2020-10-25T13:51:28.675Z</time>
      </trkpt>
      <trkpt lat="46.62617" lon="5.17514">
        <ele>180.842119</ele>
        <time>2020-10-25T13:51:51.632Z</time>
      </trkpt>
      <trkpt lat="46.62617" lon="5.17505">
        <ele>180.866131</ele>
        <time>2020-10-25T13:51:52.878Z</time>
      </trkpt>
      <trkpt lat="46.62613" lon="5.17357">
        <ele>181.239077</ele>
        <time>2020-10-25T13:52:12.459Z</time>
      </trkpt>
      <trkpt lat="46.62611" lon="5.17241">
        <ele>182.092771</ele>
        <time>2020-10-25T13:52:35.443Z</time>
      </trkpt>
      <trkpt lat="46.6261" lon="5.17195">
        <ele>183.097732</ele>
        <time>2020-10-25T13:52:46.298Z</time>
      </trkpt>
      <trkpt lat="46.62608" lon="5.17112">
        <ele>184.927706</ele>
        <time>2020-10-25T13:53:08.940Z</time>
      </trkpt>
      <trkpt lat="46.62603" lon="5.16883">
        <ele>190.028335</ele>
        <time>2020-10-25T13:54:18.416Z</time>
      </trkpt>
      <trkpt lat="46.62598" lon="5.16678">
        <ele>193.80942</ele>
        <time>2020-10-25T13:55:08.088Z</time>
      </trkpt>
      <trkpt lat="46.62598" lon="5.16551">
        <ele>195.074931</ele>
        <time>2020-10-25T13:55:31.832Z</time>
      </trkpt>
      <trkpt lat="46.62598" lon="5.16492">
        <ele>195.65649</ele>
        <time>2020-10-25T13:55:42.439Z</time>
      </trkpt>
      <trkpt lat="46.62598" lon="5.16412">
        <ele>195.996228</ele>
        <time>2020-10-25T13:55:55.851Z</time>
      </trkpt>
      <trkpt lat="46.626" lon="5.16288">
        <ele>196.445715</ele>
        <time>2020-10-25T13:56:15.948Z</time>
      </trkpt>
      <trkpt lat="46.626" lon="5.16284">
        <ele>196.463169</ele>
        <time>2020-10-25T13:56:16.962Z</time>
      </trkpt>
      <trkpt lat="46.62599" lon="5.16105">
        <ele>196.60749</ele>
        <time>2020-10-25T13:56:44.162Z</time>
      </trkpt>
      <trkpt lat="46.62599" lon="5.16093">
        <ele>196.599317</ele>
        <time>2020-10-25T13:56:45.921Z</time>
      </trkpt>
      <trkpt lat="46.626" lon="5.1582">
        <ele>195.993192</ele>
        <time>2020-10-25T13:57:21.039Z</time>
      </trkpt>
      <trkpt lat="46.626" lon="5.15724">
        <ele>195.636683</ele>
        <time>2020-10-25T13:57:33.050Z</time>
      </trkpt>
      <trkpt lat="46.62601" lon="5.15648">
        <ele>195.39306</ele>
        <time>2020-10-25T13:57:42.486Z</time>
      </trkpt>
      <trkpt lat="46.62602" lon="5.15293">
        <ele>194.489878</ele>
        <time>2020-10-25T13:58:29.251Z</time>
      </trkpt>
      <trkpt lat="46.62602" lon="5.15213">
        <ele>194.337281</ele>
        <time>2020-10-25T13:58:40.311Z</time>
      </trkpt>
      <trkpt lat="46.62589" lon="5.15124">
        <ele>193.887998</ele>
        <time>2020-10-25T13:58:52.656Z</time>
      </trkpt>
      <trkpt lat="46.62576" lon="5.15085">
        <ele>193.581136</ele>
        <time>2020-10-25T13:58:58.142Z</time>
      </trkpt>
      <trkpt lat="46.62519" lon="5.14948">
        <ele>192.43416</ele>
        <time>2020-10-25T13:59:16.555Z</time>
      </trkpt>
      <trkpt lat="46.62437" lon="5.14757">
        <ele>189.055229</ele>
        <time>2020-10-25T13:59:39.726Z</time>
      </trkpt>
      <trkpt lat="46.6233" lon="5.14505">
        <ele>184.691304</ele>
        <time>2020-10-25T14:00:10.171Z</time>
      </trkpt>
      <trkpt lat="46.62239" lon="5.14292">
        <ele>183.387387</ele>
        <time>2020-10-25T14:00:40.840Z</time>
      </trkpt>
      <trkpt lat="46.62183" lon="5.14163">
        <ele>183.782671</ele>
        <time>2020-10-25T14:01:06.214Z</time>
      </trkpt>
      <trkpt lat="46.62174" lon="5.14141">
        <ele>183.874896</ele>
        <time>2020-10-25T14:01:10.837Z</time>
      </trkpt>
      <trkpt lat="46.62105" lon="5.13977">
        <ele>184.239262</ele>
        <time>2020-10-25T14:01:43.184Z</time>
      </trkpt>
      <trkpt lat="46.62015" lon="5.13765">
        <ele>183.981188</ele>
        <time>2020-10-25T14:02:15.858Z</time>
      </trkpt>
      <trkpt lat="46.6195" lon="5.13613">
        <ele>183.443762</ele>
        <time>2020-10-25T14:02:38.539Z</time>
      </trkpt>
      <trkpt lat="46.61827" lon="5.13325">
        <ele>182.382777</ele>
        <time>2020-10-25T14:03:23.630Z</time>
      </trkpt>
      <trkpt lat="46.61808" lon="5.1328">
        <ele>182.068356</ele>
        <time>2020-10-25T14:03:29.793Z</time>
      </trkpt>
      <trkpt lat="46.6173" lon="5.13096">
        <ele>180.854038</ele>
        <time>2020-10-25T14:03:54.835Z</time>
      </trkpt>
      <trkpt lat="46.6164" lon="5.12888">
        <ele>179.967005</ele>
        <time>2020-10-25T14:04:26.151Z</time>
      </trkpt>
      <trkpt lat="46.61611" lon="5.12819">
        <ele>179.973101</ele>
        <time>2020-10-25T14:04:37.642Z</time>
      </trkpt>
      <trkpt lat="46.61561" lon="5.12702">
        <ele>180.170063</ele>
        <time>2020-10-25T14:04:58.491Z</time>
      </trkpt>
      <trkpt lat="46.61524" lon="5.12618">
        <ele>181.101667</ele>
        <time>2020-10-25T14:05:15.789Z</time>
      </trkpt>
      <trkpt lat="46.61407" lon="5.12344">
        <ele>184.866298</ele>
        <time>2020-10-25T14:06:26.740Z</time>
      </trkpt>
      <trkpt lat="46.61367" lon="5.1225">
        <ele>186.190119</ele>
        <time>2020-10-25T14:06:51.472Z</time>
      </trkpt>
      <trkpt lat="46.61306" lon="5.12107">
        <ele>187.514814</ele>
        <time>2020-10-25T14:07:23.522Z</time>
      </trkpt>
      <trkpt lat="46.61303" lon="5.12101">
        <ele>187.567322</ele>
        <time>2020-10-25T14:07:24.606Z</time>
      </trkpt>
      <trkpt lat="46.61147" lon="5.11739">
        <ele>189.987977</ele>
        <time>2020-10-25T14:08:32.416Z</time>
      </trkpt>
      <trkpt lat="46.61063" lon="5.1154">
        <ele>192.833613</ele>
        <time>2020-10-25T14:09:27.529Z</time>
      </trkpt>
      <trkpt lat="46.60999" lon="5.11388">
        <ele>195.456851</ele>
        <time>2020-10-25T14:10:08.536Z</time>
      </trkpt>
      <trkpt lat="46.60973" lon="5.11321">
        <ele>195.727607</ele>
        <time>2020-10-25T14:10:22.234Z</time>
      </trkpt>
      <trkpt lat="46.60937" lon="5.11221">
        <ele>196.060198</ele>
        <time>2020-10-25T14:10:39.306Z</time>
      </trkpt>
      <trkpt lat="46.60922" lon="5.11179">
        <ele>196.202671</ele>
        <time>2020-10-25T14:10:45.968Z</time>
      </trkpt>
      <trkpt lat="46.60876" lon="5.11052">
        <ele>196.208507</ele>
        <time>2020-10-25T14:11:04.560Z</time>
      </trkpt>
      <trkpt lat="46.60747" lon="5.10696">
        <ele>196.27088</ele>
        <time>2020-10-25T14:12:03.995Z</time>
      </trkpt>
      <trkpt lat="46.60719" lon="5.10619">
        <ele>196.19432</ele>
        <time>2020-10-25T14:12:16.459Z</time>
      </trkpt>
      <trkpt lat="46.6071" lon="5.10596">
        <ele>196.169107</ele>
        <time>2020-10-25T14:12:19.916Z</time>
      </trkpt>
      <trkpt lat="46.6069" lon="5.1054">
        <ele>196.107295</ele>
        <time>2020-10-25T14:12:28.255Z</time>
      </trkpt>
      <trkpt lat="46.60624" lon="5.1036">
        <ele>195.990525</ele>
        <time>2020-10-25T14:12:56.266Z</time>
      </trkpt>
      <trkpt lat="46.60554" lon="5.10169">
        <ele>195.884336</ele>
        <time>2020-10-25T14:13:27.265Z</time>
      </trkpt>
      <trkpt lat="46.60491" lon="5.0999">
        <ele>195.680087</ele>
        <time>2020-10-25T14:13:54.825Z</time>
      </trkpt>
      <trkpt lat="46.60484" lon="5.09971">
        <ele>195.673023</ele>
        <time>2020-10-25T14:13:57.729Z</time>
      </trkpt>
      <trkpt lat="46.60476" lon="5.09953">
        <ele>195.666118</ele>
        <time>2020-10-25T14:14:00.322Z</time>
      </trkpt>
      <trkpt lat="46.60472" lon="5.09943">
        <ele>195.662305</ele>
        <time>2020-10-25T14:14:01.871Z</time>
      </trkpt>
      <trkpt lat="46.60409" lon="5.09865">
        <ele>195.622397</ele>
        <time>2020-10-25T14:14:18.693Z</time>
      </trkpt>
      <trkpt lat="46.60267" lon="5.09701">
        <ele>195.689823</ele>
        <time>2020-10-25T14:14:58.548Z</time>
      </trkpt>
      <trkpt lat="46.60188" lon="5.09611">
        <ele>195.657598</ele>
        <time>2020-10-25T14:15:18.525Z</time>
      </trkpt>
      <trkpt lat="46.60126" lon="5.09539">
        <ele>195.536044</ele>
        <time>2020-10-25T14:15:34.087Z</time>
      </trkpt>
      <trkpt lat="46.60072" lon="5.09476">
        <ele>195.451784</ele>
        <time>2020-10-25T14:15:47.713Z</time>
      </trkpt>
      <trkpt lat="46.60073" lon="5.09473">
        <ele>195.451299</ele>
        <time>2020-10-25T14:15:48.309Z</time>
      </trkpt>
      <trkpt lat="46.60079" lon="5.09457">
        <ele>195.44896</ele>
        <time>2020-10-25T14:15:50.865Z</time>
      </trkpt>
      <trkpt lat="46.60091" lon="5.09213">
        <ele>195.34919</ele>
        <time>2020-10-25T14:16:26.715Z</time>
      </trkpt>
      <trkpt lat="46.60128" lon="5.08939">
        <ele>194.193684</ele>
        <time>2020-10-25T14:17:02.798Z</time>
      </trkpt>
      <trkpt lat="46.60129" lon="5.08929">
        <ele>194.065474</ele>
        <time>2020-10-25T14:17:03.971Z</time>
      </trkpt>
      <trkpt lat="46.60127" lon="5.08918">
        <ele>193.932451</ele>
        <time>2020-10-25T14:17:05.316Z</time>
      </trkpt>
      <trkpt lat="46.6011" lon="5.08892">
        <ele>193.514108</ele>
        <time>2020-10-25T14:17:09.177Z</time>
      </trkpt>
      <trkpt lat="46.60102" lon="5.08877">
        <ele>193.296318</ele>
        <time>2020-10-25T14:17:11.221Z</time>
      </trkpt>
      <trkpt lat="46.60134" lon="5.08822">
        <ele>192.450617</ele>
        <time>2020-10-25T14:17:18.771Z</time>
      </trkpt>
      <trkpt lat="46.60304" lon="5.08489">
        <ele>186.100223</ele>
        <time>2020-10-25T14:18:00.831Z</time>
      </trkpt>
      <trkpt lat="46.60328" lon="5.08427">
        <ele>185.312611</ele>
        <time>2020-10-25T14:18:08.679Z</time>
      </trkpt>
      <trkpt lat="46.60333" lon="5.08414">
        <ele>185.144189</ele>
        <time>2020-10-25T14:18:10.358Z</time>
      </trkpt>
      <trkpt lat="46.60309" lon="5.08399">
        <ele>184.728887</ele>
        <time>2020-10-25T14:18:14.754Z</time>
      </trkpt>
      <trkpt lat="46.60181" lon="5.08349">
        <ele>183.438091</ele>
        <time>2020-10-25T14:18:39.007Z</time>
      </trkpt>
      <trkpt lat="46.6015" lon="5.08329">
        <ele>183.197557</ele>
        <time>2020-10-25T14:18:45.202Z</time>
      </trkpt>
      <trkpt lat="46.60129" lon="5.08305">
        <ele>183.000501</ele>
        <time>2020-10-25T14:18:50.142Z</time>
      </trkpt>
      <trkpt lat="46.60107" lon="5.08275">
        <ele>182.713795</ele>
        <time>2020-10-25T14:18:55.465Z</time>
      </trkpt>
      <trkpt lat="46.60122" lon="5.08241">
        <ele>182.209232</ele>
        <time>2020-10-25T14:19:00.191Z</time>
      </trkpt>
      <trkpt lat="46.60255" lon="5.0794">
        <ele>177.404469</ele>
        <time>2020-10-25T14:19:37.733Z</time>
      </trkpt>
      <trkpt lat="46.60255" lon="5.07934">
        <ele>177.314948</ele>
        <time>2020-10-25T14:19:38.245Z</time>
      </trkpt>
      <trkpt lat="46.60253" lon="5.07928">
        <ele>177.21196</ele>
        <time>2020-10-25T14:19:38.956Z</time>
      </trkpt>
      <trkpt lat="46.60198" lon="5.07851">
        <ele>175.607203</ele>
        <time>2020-10-25T14:19:50.575Z</time>
      </trkpt>
      <trkpt lat="46.60186" lon="5.07823">
        <ele>175.338042</ele>
        <time>2020-10-25T14:19:54.427Z</time>
      </trkpt>
      <trkpt lat="46.6018" lon="5.07806">
        <ele>175.183817</ele>
        <time>2020-10-25T14:19:56.262Z</time>
      </trkpt>
      <trkpt lat="46.60165" lon="5.07752">
        <ele>174.70635</ele>
        <time>2020-10-25T14:20:02.712Z</time>
      </trkpt>
      <trkpt lat="46.60152" lon="5.07659">
        <ele>173.925218</ele>
        <time>2020-10-25T14:20:14.323Z</time>
      </trkpt>
      <trkpt lat="46.60124" lon="5.07435">
        <ele>173.081103</ele>
        <time>2020-10-25T14:20:43.254Z</time>
      </trkpt>
      <trkpt lat="46.60122" lon="5.07416">
        <ele>173.03515</ele>
        <time>2020-10-25T14:20:45.861Z</time>
      </trkpt>
      <trkpt lat="46.6011" lon="5.07324">
        <ele>172.971209</ele>
        <time>2020-10-25T14:20:59.487Z</time>
      </trkpt>
      <trkpt lat="46.60106" lon="5.07291">
        <ele>173.079207</ele>
        <time>2020-10-25T14:21:04.641Z</time>
      </trkpt>
      <trkpt lat="46.60094" lon="5.07197">
        <ele>173.379514</ele>
        <time>2020-10-25T14:21:19.981Z</time>
      </trkpt>
      <trkpt lat="46.60085" lon="5.07108">
        <ele>173.664698</ele>
        <time>2020-10-25T14:21:35.027Z</time>
      </trkpt>
      <trkpt lat="46.60083" lon="5.07073">
        <ele>173.838734</ele>
        <time>2020-10-25T14:21:41.002Z</time>
      </trkpt>
      <trkpt lat="46.60083" lon="5.07048">
        <ele>173.992581</ele>
        <time>2020-10-25T14:21:45.525Z</time>
      </trkpt>
      <trkpt lat="46.60083" lon="5.07023">
        <ele>174.144673</ele>
        <time>2020-10-25T14:21:49.798Z</time>
      </trkpt>
      <trkpt lat="46.60085" lon="5.07014">
        <ele>174.204021</ele>
        <time>2020-10-25T14:21:51.526Z</time>
      </trkpt>
      <trkpt lat="46.60089" lon="5.07003">
        <ele>174.276316</ele>
        <time>2020-10-25T14:21:53.530Z</time>
      </trkpt>
      <trkpt lat="46.60166" lon="5.06892">
        <ele>175.230219</ele>
        <time>2020-10-25T14:22:22.077Z</time>
      </trkpt>
      <trkpt lat="46.60179" lon="5.06855">
        <ele>175.439409</ele>
        <time>2020-10-25T14:22:29.439Z</time>
      </trkpt>
      <trkpt lat="46.60179" lon="5.06838">
        <ele>175.518623</ele>
        <time>2020-10-25T14:22:32.340Z</time>
      </trkpt>
      <trkpt lat="46.60172" lon="5.06751">
        <ele>175.927478</ele>
        <time>2020-10-25T14:22:47.140Z</time>
      </trkpt>
      <trkpt lat="46.6017" lon="5.0672">
        <ele>176.072483</ele>
        <time>2020-10-25T14:22:52.562Z</time>
      </trkpt>
      <trkpt lat="46.60125" lon="5.06739">
        <ele>176.391882</ele>
        <time>2020-10-25T14:23:03.566Z</time>
      </trkpt>
      <trkpt lat="46.60025" lon="5.06783">
        <ele>176.915613</ele>
        <time>2020-10-25T14:23:28.581Z</time>
      </trkpt>
      <trkpt lat="46.59988" lon="5.06781">
        <ele>177.088356</ele>
        <time>2020-10-25T14:23:36.597Z</time>
      </trkpt>
      <trkpt lat="46.59986" lon="5.06781">
        <ele>177.094041</ele>
        <time>2020-10-25T14:23:36.790Z</time>
      </trkpt>
      <trkpt lat="46.59962" lon="5.06773">
        <ele>177.207955</ele>
        <time>2020-10-25T14:23:42.503Z</time>
      </trkpt>
      <trkpt lat="46.59873" lon="5.06752">
        <ele>177.883786</ele>
        <time>2020-10-25T14:24:04.282Z</time>
      </trkpt>
      <trkpt lat="46.59787" lon="5.06669">
        <ele>178.803817</ele>
        <time>2020-10-25T14:24:31.617Z</time>
      </trkpt>
      <trkpt lat="46.59705" lon="5.06624">
        <ele>179.773766</ele>
        <time>2020-10-25T14:24:55.738Z</time>
      </trkpt>
      <trkpt lat="46.59655" lon="5.0658">
        <ele>180.45835</ele>
        <time>2020-10-25T14:25:11.909Z</time>
      </trkpt>
      <trkpt lat="46.59629" lon="5.06555">
        <ele>180.815276</ele>
        <time>2020-10-25T14:25:20.289Z</time>
      </trkpt>
      <trkpt lat="46.59615" lon="5.06534">
        <ele>181.05127</ele>
        <time>2020-10-25T14:25:26.159Z</time>
      </trkpt>
      <trkpt lat="46.59603" lon="5.06512">
        <ele>181.232689</ele>
        <time>2020-10-25T14:25:31.273Z</time>
      </trkpt>
      <trkpt lat="46.59515" lon="5.06329">
        <ele>182.678801</ele>
        <time>2020-10-25T14:26:11.320Z</time>
      </trkpt>
      <trkpt lat="46.59484" lon="5.06261">
        <ele>182.975994</ele>
        <time>2020-10-25T14:26:24.511Z</time>
      </trkpt>
      <trkpt lat="46.59423" lon="5.06094">
        <ele>183.604242</ele>
        <time>2020-10-25T14:26:53.708Z</time>
      </trkpt>
      <trkpt lat="46.59396" lon="5.06005">
        <ele>184.507708</ele>
        <time>2020-10-25T14:27:10.517Z</time>
      </trkpt>
      <trkpt lat="46.59383" lon="5.05984">
        <ele>184.776062</ele>
        <time>2020-10-25T14:27:15.993Z</time>
      </trkpt>
      <trkpt lat="46.59338" lon="5.05925">
        <ele>185.604049</ele>
        <time>2020-10-25T14:27:34.175Z</time>
      </trkpt>
      <trkpt lat="46.59324" lon="5.05902">
        <ele>185.891957</ele>
        <time>2020-10-25T14:27:40.715Z</time>
      </trkpt>
      <trkpt lat="46.59303" lon="5.0586">
        <ele>186.842823</ele>
        <time>2020-10-25T14:27:53.075Z</time>
      </trkpt>
      <trkpt lat="46.59284" lon="5.05815">
        <ele>188.078403</ele>
        <time>2020-10-25T14:28:05.977Z</time>
      </trkpt>
      <trkpt lat="46.59278" lon="5.058">
        <ele>188.491591</ele>
        <time>2020-10-25T14:28:10.666Z</time>
      </trkpt>
      <trkpt lat="46.59246" lon="5.05722">
        <ele>190.608717</ele>
        <time>2020-10-25T14:28:37.004Z</time>
      </trkpt>
      <trkpt lat="46.59245" lon="5.05717">
        <ele>190.734998</ele>
        <time>2020-10-25T14:28:39.044Z</time>
      </trkpt>
      <trkpt lat="46.59236" lon="5.05689">
        <ele>191.446779</ele>
        <time>2020-10-25T14:28:48.591Z</time>
      </trkpt>
      <trkpt lat="46.59219" lon="5.05606">
        <ele>193.485634</ele>
        <time>2020-10-25T14:29:14.549Z</time>
      </trkpt>
      <trkpt lat="46.59216" lon="5.05582">
        <ele>194.065089</ele>
        <time>2020-10-25T14:29:21.627Z</time>
      </trkpt>
      <trkpt lat="46.59209" lon="5.05528">
        <ele>195.356093</ele>
        <time>2020-10-25T14:29:36.615Z</time>
      </trkpt>
      <trkpt lat="46.59203" lon="5.05493">
        <ele>196.215011</ele>
        <time>2020-10-25T14:29:46.812Z</time>
      </trkpt>
      <trkpt lat="46.59202" lon="5.05482">
        <ele>196.477916</ele>
        <time>2020-10-25T14:29:50.038Z</time>
      </trkpt>
      <trkpt lat="46.592" lon="5.05473">
        <ele>196.704588</ele>
        <time>2020-10-25T14:29:52.474Z</time>
      </trkpt>
      <trkpt lat="46.59189" lon="5.05396">
        <ele>198.458223</ele>
        <time>2020-10-25T14:30:12.601Z</time>
      </trkpt>
      <trkpt lat="46.59178" lon="5.05317">
        <ele>199.350782</ele>
        <time>2020-10-25T14:30:31.667Z</time>
      </trkpt>
      <trkpt lat="46.59172" lon="5.0527">
        <ele>199.881889</ele>
        <time>2020-10-25T14:30:41.475Z</time>
      </trkpt>
      <trkpt lat="46.59168" lon="5.0524">
        <ele>200.224574</ele>
        <time>2020-10-25T14:30:47.173Z</time>
      </trkpt>
      <trkpt lat="46.59167" lon="5.05234">
        <ele>200.292012</ele>
        <time>2020-10-25T14:30:48.255Z</time>
      </trkpt>
      <trkpt lat="46.59161" lon="5.05188">
        <ele>200.813172</ele>
        <time>2020-10-25T14:30:56.504Z</time>
      </trkpt>
      <trkpt lat="46.59159" lon="5.05166">
        <ele>201.060179</ele>
        <time>2020-10-25T14:31:00.180Z</time>
      </trkpt>
      <trkpt lat="46.59158" lon="5.0515">
        <ele>201.23684</ele>
        <time>2020-10-25T14:31:02.993Z</time>
      </trkpt>
      <trkpt lat="46.59157" lon="5.05137">
        <ele>201.295845</ele>
        <time>2020-10-25T14:31:05.270Z</time>
      </trkpt>
      <trkpt lat="46.59157" lon="5.05115">
        <ele>201.36476</ele>
        <time>2020-10-25T14:31:08.816Z</time>
      </trkpt>
      <trkpt lat="46.59157" lon="5.0511">
        <ele>201.380472</ele>
        <time>2020-10-25T14:31:09.612Z</time>
      </trkpt>
      <trkpt lat="46.59158" lon="5.05071">
        <ele>201.507415</ele>
        <time>2020-10-25T14:31:16.457Z</time>
      </trkpt>
      <trkpt lat="46.59164" lon="5.04873">
        <ele>202.098242</ele>
        <time>2020-10-25T14:31:47.494Z</time>
      </trkpt>
      <trkpt lat="46.59173" lon="5.04611">
        <ele>201.988379</ele>
        <time>2020-10-25T14:32:25.267Z</time>
      </trkpt>
      <trkpt lat="46.59187" lon="5.04237">
        <ele>200.560958</ele>
        <time>2020-10-25T14:33:10.585Z</time>
      </trkpt>
      <trkpt lat="46.59192" lon="5.04112">
        <ele>200.315359</ele>
        <time>2020-10-25T14:33:28.724Z</time>
      </trkpt>
      <trkpt lat="46.59193" lon="5.04095">
        <ele>200.345868</ele>
        <time>2020-10-25T14:33:31.335Z</time>
      </trkpt>
      <trkpt lat="46.59192" lon="5.04082">
        <ele>200.448472</ele>
        <time>2020-10-25T14:33:33.361Z</time>
      </trkpt>
      <trkpt lat="46.5919" lon="5.04067">
        <ele>200.562037</ele>
        <time>2020-10-25T14:33:35.814Z</time>
      </trkpt>
      <trkpt lat="46.59187" lon="5.04054">
        <ele>200.668253</ele>
        <time>2020-10-25T14:33:38.325Z</time>
      </trkpt>
      <trkpt lat="46.59142" lon="5.03821">
        <ele>202.627127</ele>
        <time>2020-10-25T14:34:25.189Z</time>
      </trkpt>
      <trkpt lat="46.59096" lon="5.03581">
        <ele>205.470381</ele>
        <time>2020-10-25T14:35:17.570Z</time>
      </trkpt>
      <trkpt lat="46.59068" lon="5.0344">
        <ele>207.066384</ele>
        <time>2020-10-25T14:35:48.385Z</time>
      </trkpt>
      <trkpt lat="46.59058" lon="5.0339">
        <ele>207.639352</ele>
        <time>2020-10-25T14:35:58.933Z</time>
      </trkpt>
      <trkpt lat="46.59054" lon="5.03375">
        <ele>207.81047</ele>
        <time>2020-10-25T14:36:02.358Z</time>
      </trkpt>
      <trkpt lat="46.58994" lon="5.03208">
        <ele>209.139105</ele>
        <time>2020-10-25T14:36:37.411Z</time>
      </trkpt>
      <trkpt lat="46.5896" lon="5.03044">
        <ele>209.986763</ele>
        <time>2020-10-25T14:37:05.627Z</time>
      </trkpt>
      <trkpt lat="46.58956" lon="5.03034">
        <ele>210.02029</ele>
        <time>2020-10-25T14:37:07.319Z</time>
      </trkpt>
      <trkpt lat="46.58951" lon="5.03023">
        <ele>210.057991</ele>
        <time>2020-10-25T14:37:09.475Z</time>
      </trkpt>
      <trkpt lat="46.58928" lon="5.02998">
        <ele>210.175843</ele>
        <time>2020-10-25T14:37:15.789Z</time>
      </trkpt>
      <trkpt lat="46.58904" lon="5.02992">
        <ele>210.27729</ele>
        <time>2020-10-25T14:37:21.334Z</time>
      </trkpt>
      <trkpt lat="46.58899" lon="5.02993">
        <ele>210.29515</ele>
        <time>2020-10-25T14:37:22.337Z</time>
      </trkpt>
      <trkpt lat="46.5889" lon="5.02995">
        <ele>210.333952</ele>
        <time>2020-10-25T14:37:24.265Z</time>
      </trkpt>
      <trkpt lat="46.58749" lon="5.03082">
        <ele>211.476996</ele>
        <time>2020-10-25T14:38:00.160Z</time>
      </trkpt>
      <trkpt lat="46.58703" lon="5.03104">
        <ele>211.913291</ele>
        <time>2020-10-25T14:38:13.581Z</time>
      </trkpt>
      <trkpt lat="46.58661" lon="5.03108">
        <ele>212.358406</ele>
        <time>2020-10-25T14:38:26.427Z</time>
      </trkpt>
      <trkpt lat="46.58627" lon="5.03093">
        <ele>212.828251</ele>
        <time>2020-10-25T14:38:37.221Z</time>
      </trkpt>
      <trkpt lat="46.58617" lon="5.03087">
        <ele>212.966164</ele>
        <time>2020-10-25T14:38:40.865Z</time>
      </trkpt>
      <trkpt lat="46.58591" lon="5.03072">
        <ele>213.336499</ele>
        <time>2020-10-25T14:38:48.903Z</time>
      </trkpt>
      <trkpt lat="46.58536" lon="5.03038">
        <ele>214.137033</ele>
        <time>2020-10-25T14:39:06.985Z</time>
      </trkpt>
      <trkpt lat="46.58326" lon="5.02909">
        <ele>214.703809</ele>
        <time>2020-10-25T14:39:57.113Z</time>
      </trkpt>
      <trkpt lat="46.58291" lon="5.0288">
        <ele>214.176129</ele>
        <time>2020-10-25T14:40:03.881Z</time>
      </trkpt>
      <trkpt lat="46.58278" lon="5.02863">
        <ele>213.942786</ele>
        <time>2020-10-25T14:40:06.727Z</time>
      </trkpt>
      <trkpt lat="46.58266" lon="5.02846">
        <ele>213.727688</ele>
        <time>2020-10-25T14:40:09.548Z</time>
      </trkpt>
      <trkpt lat="46.58257" lon="5.02832">
        <ele>213.554118</ele>
        <time>2020-10-25T14:40:11.712Z</time>
      </trkpt>
      <trkpt lat="46.5825" lon="5.02823">
        <ele>213.43529</ele>
        <time>2020-10-25T14:40:13.132Z</time>
      </trkpt>
      <trkpt lat="46.58232" lon="5.02787">
        <ele>213.037657</ele>
        <time>2020-10-25T14:40:18.146Z</time>
      </trkpt>
      <trkpt lat="46.58225" lon="5.0277">
        <ele>212.855419</ele>
        <time>2020-10-25T14:40:20.356Z</time>
      </trkpt>
      <trkpt lat="46.58214" lon="5.02744">
        <ele>212.583043</ele>
        <time>2020-10-25T14:40:23.592Z</time>
      </trkpt>
      <trkpt lat="46.58211" lon="5.02736">
        <ele>212.396951</ele>
        <time>2020-10-25T14:40:24.479Z</time>
      </trkpt>
      <trkpt lat="46.58162" lon="5.02593">
        <ele>208.695239</ele>
        <time>2020-10-25T14:40:40.435Z</time>
      </trkpt>
      <trkpt lat="46.58116" lon="5.02464">
        <ele>204.365814</ele>
        <time>2020-10-25T14:40:53.909Z</time>
      </trkpt>
      <trkpt lat="46.58084" lon="5.02368">
        <ele>199.899084</ele>
        <time>2020-10-25T14:41:03.335Z</time>
      </trkpt>
      <trkpt lat="46.5808" lon="5.02358">
        <ele>199.449772</ele>
        <time>2020-10-25T14:41:04.275Z</time>
      </trkpt>
      <trkpt lat="46.57983" lon="5.02063">
        <ele>185.082972</ele>
        <time>2020-10-25T14:41:32.705Z</time>
      </trkpt>
      <trkpt lat="46.57928" lon="5.01894">
        <ele>179.919084</ele>
        <time>2020-10-25T14:41:49.966Z</time>
      </trkpt>
      <trkpt lat="46.57875" lon="5.01727">
        <ele>176.968587</ele>
        <time>2020-10-25T14:42:10.008Z</time>
      </trkpt>
      <trkpt lat="46.57869" lon="5.01712">
        <ele>176.875932</ele>
        <time>2020-10-25T14:42:12.183Z</time>
      </trkpt>
      <trkpt lat="46.57853" lon="5.01661">
        <ele>176.577102</ele>
        <time>2020-10-25T14:42:19.534Z</time>
      </trkpt>
      <trkpt lat="46.57847" lon="5.01641">
        <ele>176.460838</ele>
        <time>2020-10-25T14:42:22.457Z</time>
      </trkpt>
      <trkpt lat="46.57793" lon="5.01477">
        <ele>175.738565</ele>
        <time>2020-10-25T14:42:47.360Z</time>
      </trkpt>
      <trkpt lat="46.5777" lon="5.01406">
        <ele>175.516352</ele>
        <time>2020-10-25T14:42:57.461Z</time>
      </trkpt>
      <trkpt lat="46.57726" lon="5.01178">
        <ele>174.791095</ele>
        <time>2020-10-25T14:43:27.385Z</time>
      </trkpt>
      <trkpt lat="46.57709" lon="5.01085">
        <ele>174.484969</ele>
        <time>2020-10-25T14:43:39.834Z</time>
      </trkpt>
      <trkpt lat="46.57658" lon="5.00812">
        <ele>174.044526</ele>
        <time>2020-10-25T14:44:18.521Z</time>
      </trkpt>
      <trkpt lat="46.5764" lon="5.00748">
        <ele>173.912199</ele>
        <time>2020-10-25T14:44:27.689Z</time>
      </trkpt>
      <trkpt lat="46.57623" lon="5.00703">
        <ele>173.81378</ele>
        <time>2020-10-25T14:44:34.394Z</time>
      </trkpt>
      <trkpt lat="46.57581" lon="5.00589">
        <ele>173.563322</ele>
        <time>2020-10-25T14:44:51.535Z</time>
      </trkpt>
      <trkpt lat="46.57565" lon="5.00539">
        <ele>173.591364</ele>
        <time>2020-10-25T14:44:59.171Z</time>
      </trkpt>
      <trkpt lat="46.57547" lon="5.00472">
        <ele>173.645362</ele>
        <time>2020-10-25T14:45:09.255Z</time>
      </trkpt>
      <trkpt lat="46.57533" lon="5.00412">
        <ele>173.693163</ele>
        <time>2020-10-25T14:45:18.827Z</time>
      </trkpt>
      <trkpt lat="46.5751" lon="5.00325">
        <ele>173.793958</ele>
        <time>2020-10-25T14:45:33.855Z</time>
      </trkpt>
      <trkpt lat="46.57487" lon="5.00273">
        <ele>173.943434</ele>
        <time>2020-10-25T14:45:43.781Z</time>
      </trkpt>
      <trkpt lat="46.5743" lon="5.00191">
        <ele>174.229693</ele>
        <time>2020-10-25T14:46:02.242Z</time>
      </trkpt>
      <trkpt lat="46.57358" lon="5.0009">
        <ele>174.761184</ele>
        <time>2020-10-25T14:46:24.078Z</time>
      </trkpt>
      <trkpt lat="46.57311" lon="5.00023">
        <ele>175.207498</ele>
        <time>2020-10-25T14:46:39.412Z</time>
      </trkpt>
      <trkpt lat="46.57301" lon="5.00009">
        <ele>175.300847</ele>
        <time>2020-10-25T14:46:42.553Z</time>
      </trkpt>
      <trkpt lat="46.57292" lon="4.99995">
        <ele>175.38876</ele>
        <time>2020-10-25T14:46:45.779Z</time>
      </trkpt>
      <trkpt lat="46.57288" lon="4.99987">
        <ele>175.438554</ele>
        <time>2020-10-25T14:46:47.615Z</time>
      </trkpt>
      <trkpt lat="46.57282" lon="4.99975">
        <ele>175.506258</ele>
        <time>2020-10-25T14:46:49.951Z</time>
      </trkpt>
      <trkpt lat="46.5727" lon="4.9994">
        <ele>175.96603</ele>
        <time>2020-10-25T14:46:56.970Z</time>
      </trkpt>
      <trkpt lat="46.57209" lon="4.99734">
        <ele>180.657179</ele>
        <time>2020-10-25T14:47:54.903Z</time>
      </trkpt>
      <trkpt lat="46.57191" lon="4.99675">
        <ele>182.781041</ele>
        <time>2020-10-25T14:48:16.856Z</time>
      </trkpt>
      <trkpt lat="46.57172" lon="4.99606">
        <ele>185.65577</ele>
        <time>2020-10-25T14:48:45.669Z</time>
      </trkpt>
      <trkpt lat="46.57171" lon="4.996">
        <ele>185.859574</ele>
        <time>2020-10-25T14:48:47.849Z</time>
      </trkpt>
      <trkpt lat="46.57153" lon="4.9953">
        <ele>188.756381</ele>
        <time>2020-10-25T14:49:16.673Z</time>
      </trkpt>
      <trkpt lat="46.5714" lon="4.99475">
        <ele>190.958745</ele>
        <time>2020-10-25T14:49:38.321Z</time>
      </trkpt>
      <trkpt lat="46.57135" lon="4.99444">
        <ele>191.718211</ele>
        <time>2020-10-25T14:49:50.690Z</time>
      </trkpt>
      <trkpt lat="46.57116" lon="4.99295">
        <ele>194.859775</ele>
        <time>2020-10-25T14:50:32.339Z</time>
      </trkpt>
      <trkpt lat="46.57114" lon="4.99255">
        <ele>195.676316</ele>
        <time>2020-10-25T14:50:40.245Z</time>
      </trkpt>
      <trkpt lat="46.57114" lon="4.99226">
        <ele>196.287428</ele>
        <time>2020-10-25T14:50:45.706Z</time>
      </trkpt>
      <trkpt lat="46.57116" lon="4.99162">
        <ele>196.417048</ele>
        <time>2020-10-25T14:50:54.898Z</time>
      </trkpt>
      <trkpt lat="46.57122" lon="4.9902">
        <ele>196.029854</ele>
        <time>2020-10-25T14:51:12.688Z</time>
      </trkpt>
      <trkpt lat="46.57126" lon="4.98883">
        <ele>195.528584</ele>
        <time>2020-10-25T14:51:29.192Z</time>
      </trkpt>
      <trkpt lat="46.57124" lon="4.98808">
        <ele>195.18761</ele>
        <time>2020-10-25T14:51:38.229Z</time>
      </trkpt>
      <trkpt lat="46.57121" lon="4.98743">
        <ele>194.891752</ele>
        <time>2020-10-25T14:51:46.380Z</time>
      </trkpt>
      <trkpt lat="46.57119" lon="4.98714">
        <ele>194.757673</ele>
        <time>2020-10-25T14:51:50.168Z</time>
      </trkpt>
      <trkpt lat="46.571" lon="4.9866">
        <ele>194.625871</ele>
        <time>2020-10-25T14:51:58.140Z</time>
      </trkpt>
      <trkpt lat="46.57084" lon="4.98621">
        <ele>194.596651</ele>
        <time>2020-10-25T14:52:04.241Z</time>
      </trkpt>
      <trkpt lat="46.57075" lon="4.98589">
        <ele>194.574366</ele>
        <time>2020-10-25T14:52:09.183Z</time>
      </trkpt>
      <trkpt lat="46.57074" lon="4.98548">
        <ele>194.548413</ele>
        <time>2020-10-25T14:52:14.873Z</time>
      </trkpt>
      <trkpt lat="46.57079" lon="4.98492">
        <ele>194.51207</ele>
        <time>2020-10-25T14:52:23.223Z</time>
      </trkpt>
      <trkpt lat="46.57077" lon="4.9846">
        <ele>194.49161</ele>
        <time>2020-10-25T14:52:27.852Z</time>
      </trkpt>
      <trkpt lat="46.57069" lon="4.98367">
        <ele>194.584044</ele>
        <time>2020-10-25T14:52:42.163Z</time>
      </trkpt>
      <trkpt lat="46.57045" lon="4.9804">
        <ele>195.008028</ele>
        <time>2020-10-25T14:53:31.288Z</time>
      </trkpt>
      <trkpt lat="46.57026" lon="4.97818">
        <ele>195.291546</ele>
        <time>2020-10-25T14:54:04.960Z</time>
      </trkpt>
      <trkpt lat="46.56998" lon="4.97489">
        <ele>195.654467</ele>
        <time>2020-10-25T14:54:54.445Z</time>
      </trkpt>
      <trkpt lat="46.56982" lon="4.97267">
        <ele>195.666347</ele>
        <time>2020-10-25T14:55:27.046Z</time>
      </trkpt>
      <trkpt lat="46.56981" lon="4.97262">
        <ele>195.664087</ele>
        <time>2020-10-25T14:55:27.738Z</time>
      </trkpt>
      <trkpt lat="46.56941" lon="4.96778">
        <ele>195.036141</ele>
        <time>2020-10-25T14:56:33.857Z</time>
      </trkpt>
      <trkpt lat="46.56937" lon="4.96734">
        <ele>194.977769</ele>
        <time>2020-10-25T14:56:40.280Z</time>
      </trkpt>
      <trkpt lat="46.56924" lon="4.96581">
        <ele>194.575238</ele>
        <time>2020-10-25T14:57:01.313Z</time>
      </trkpt>
      <trkpt lat="46.56921" lon="4.96539">
        <ele>194.341506</ele>
        <time>2020-10-25T14:57:06.624Z</time>
      </trkpt>
      <trkpt lat="46.56918" lon="4.96499">
        <ele>194.110458</ele>
        <time>2020-10-25T14:57:11.663Z</time>
      </trkpt>
      <trkpt lat="46.56914" lon="4.9633">
        <ele>193.021216</ele>
        <time>2020-10-25T14:57:30.969Z</time>
      </trkpt>
      <trkpt lat="46.56913" lon="4.96299">
        <ele>192.718036</ele>
        <time>2020-10-25T14:57:34.466Z</time>
      </trkpt>
      <trkpt lat="46.5691" lon="4.96206">
        <ele>191.817255</ele>
        <time>2020-10-25T14:57:44.831Z</time>
      </trkpt>
      <trkpt lat="46.56909" lon="4.96149">
        <ele>191.265215</ele>
        <time>2020-10-25T14:57:51.275Z</time>
      </trkpt>
      <trkpt lat="46.56903" lon="4.95991">
        <ele>189.484344</ele>
        <time>2020-10-25T14:58:09.082Z</time>
      </trkpt>
      <trkpt lat="46.56889" lon="4.95936">
        <ele>188.788968</ele>
        <time>2020-10-25T14:58:15.459Z</time>
      </trkpt>
      <trkpt lat="46.56834" lon="4.95804">
        <ele>186.661397</ele>
        <time>2020-10-25T14:58:31.653Z</time>
      </trkpt>
      <trkpt lat="46.56808" lon="4.95747">
        <ele>185.533063</ele>
        <time>2020-10-25T14:58:38.554Z</time>
      </trkpt>
      <trkpt lat="46.56781" lon="4.95658">
        <ele>183.926848</ele>
        <time>2020-10-25T14:58:48.376Z</time>
      </trkpt>
      <trkpt lat="46.56771" lon="4.95624">
        <ele>183.350247</ele>
        <time>2020-10-25T14:58:52.197Z</time>
      </trkpt>
      <trkpt lat="46.5675" lon="4.95546">
        <ele>182.502717</ele>
        <time>2020-10-25T14:59:01.065Z</time>
      </trkpt>
      <trkpt lat="46.56741" lon="4.95514">
        <ele>182.152295</ele>
        <time>2020-10-25T14:59:04.869Z</time>
      </trkpt>
      <trkpt lat="46.56737" lon="4.95488">
        <ele>181.884748</ele>
        <time>2020-10-25T14:59:07.837Z</time>
      </trkpt>
      <trkpt lat="46.5674" lon="4.95453">
        <ele>181.518992</ele>
        <time>2020-10-25T14:59:11.927Z</time>
      </trkpt>
      <trkpt lat="46.56753" lon="4.95379">
        <ele>180.752895</ele>
        <time>2020-10-25T14:59:20.953Z</time>
      </trkpt>
      <trkpt lat="46.56775" lon="4.95254">
        <ele>180.388929</ele>
        <time>2020-10-25T14:59:38.142Z</time>
      </trkpt>
      <trkpt lat="46.56795" lon="4.9513">
        <ele>180.029325</ele>
        <time>2020-10-25T14:59:55.239Z</time>
      </trkpt>
      <trkpt lat="46.5682" lon="4.94758">
        <ele>178.779894</ele>
        <time>2020-10-25T15:00:42.601Z</time>
      </trkpt>
      <trkpt lat="46.56823" lon="4.94713">
        <ele>178.643968</ele>
        <time>2020-10-25T15:00:48.454Z</time>
      </trkpt>
      <trkpt lat="46.56832" lon="4.94594">
        <ele>178.303216</ele>
        <time>2020-10-25T15:01:04.461Z</time>
      </trkpt>
      <trkpt lat="46.56837" lon="4.94484">
        <ele>178.163401</ele>
        <time>2020-10-25T15:01:19.457Z</time>
      </trkpt>
      <trkpt lat="46.56838" lon="4.94469">
        <ele>178.144846</ele>
        <time>2020-10-25T15:01:21.582Z</time>
      </trkpt>
      <trkpt lat="46.56839" lon="4.94455">
        <ele>178.126433</ele>
        <time>2020-10-25T15:01:23.644Z</time>
      </trkpt>
      <trkpt lat="46.56841" lon="4.94448">
        <ele>178.116905</ele>
        <time>2020-10-25T15:01:24.699Z</time>
      </trkpt>
      <trkpt lat="46.56838" lon="4.94444">
        <ele>178.109373</ele>
        <time>2020-10-25T15:01:25.515Z</time>
      </trkpt>
      <trkpt lat="46.56811" lon="4.94394">
        <ele>178.028438</ele>
        <time>2020-10-25T15:01:34.388Z</time>
      </trkpt>
      <trkpt lat="46.56715" lon="4.9411">
        <ele>177.59086</ele>
        <time>2020-10-25T15:02:16.441Z</time>
      </trkpt>
      <trkpt lat="46.56632" lon="4.93869">
        <ele>178.287634</ele>
        <time>2020-10-25T15:02:58.108Z</time>
      </trkpt>
      <trkpt lat="46.56601" lon="4.93776">
        <ele>179.082432</ele>
        <time>2020-10-25T15:03:18.374Z</time>
      </trkpt>
      <trkpt lat="46.56564" lon="4.93667">
        <ele>180.012122</ele>
        <time>2020-10-25T15:03:42.407Z</time>
      </trkpt>
      <trkpt lat="46.56551" lon="4.93626">
        <ele>180.109382</ele>
        <time>2020-10-25T15:03:51.020Z</time>
      </trkpt>
      <trkpt lat="46.56527" lon="4.93556">
        <ele>180.18981</ele>
        <time>2020-10-25T15:04:04.345Z</time>
      </trkpt>
      <trkpt lat="46.56462" lon="4.93382">
        <ele>180.054608</ele>
        <time>2020-10-25T15:04:29.665Z</time>
      </trkpt>
      <trkpt lat="46.56417" lon="4.93293">
        <ele>179.445231</ele>
        <time>2020-10-25T15:04:42.635Z</time>
      </trkpt>
      <trkpt lat="46.5638" lon="4.9323">
        <ele>178.988728</ele>
        <time>2020-10-25T15:04:52.629Z</time>
      </trkpt>
      <trkpt lat="46.56367" lon="4.93209">
        <ele>178.881555</ele>
        <time>2020-10-25T15:04:56.007Z</time>
      </trkpt>
      <trkpt lat="46.56354" lon="4.93188">
        <ele>178.830349</ele>
        <time>2020-10-25T15:04:59.562Z</time>
      </trkpt>
      <trkpt lat="46.56348" lon="4.93181">
        <ele>178.810407</ele>
        <time>2020-10-25T15:05:00.942Z</time>
      </trkpt>
      <trkpt lat="46.56339" lon="4.93169">
        <ele>178.777527</ele>
        <time>2020-10-25T15:05:03.268Z</time>
      </trkpt>
      <trkpt lat="46.56167" lon="4.92991">
        <ele>177.961322</ele>
        <time>2020-10-25T15:05:46.239Z</time>
      </trkpt>
      <trkpt lat="46.5606" lon="4.92905">
        <ele>177.070475</ele>
        <time>2020-10-25T15:06:07.197Z</time>
      </trkpt>
      <trkpt lat="46.56043" lon="4.92885">
        <ele>176.775418</ele>
        <time>2020-10-25T15:06:10.925Z</time>
      </trkpt>
      <trkpt lat="46.5604" lon="4.92882">
        <ele>176.720677</ele>
        <time>2020-10-25T15:06:11.614Z</time>
      </trkpt>
      <trkpt lat="46.56046" lon="4.92876">
        <ele>176.618236</ele>
        <time>2020-10-25T15:06:12.656Z</time>
      </trkpt>
      <trkpt lat="46.56061" lon="4.92845">
        <ele>176.267061</ele>
        <time>2020-10-25T15:06:17.060Z</time>
      </trkpt>
      <trkpt lat="46.56064" lon="4.92834">
        <ele>176.160977</ele>
        <time>2020-10-25T15:06:18.166Z</time>
      </trkpt>
      <trkpt lat="46.56074" lon="4.92799">
        <ele>175.801164</ele>
        <time>2020-10-25T15:06:22.497Z</time>
      </trkpt>
      <trkpt lat="46.56082" lon="4.92772">
        <ele>175.524032</ele>
        <time>2020-10-25T15:06:25.569Z</time>
      </trkpt>
      <trkpt lat="46.56084" lon="4.92765">
        <ele>175.457003</ele>
        <time>2020-10-25T15:06:26.376Z</time>
      </trkpt>
      <trkpt lat="46.56087" lon="4.92755">
        <ele>175.355662</ele>
        <time>2020-10-25T15:06:27.591Z</time>
      </trkpt>
      <trkpt lat="46.56235" lon="4.92245">
        <ele>171.342316</ele>
        <time>2020-10-25T15:07:32.396Z</time>
      </trkpt>
      <trkpt lat="46.56238" lon="4.92236">
        <ele>171.282488</ele>
        <time>2020-10-25T15:07:33.567Z</time>
      </trkpt>
      <trkpt lat="46.56243" lon="4.92218">
        <ele>171.231985</ele>
        <time>2020-10-25T15:07:36.087Z</time>
      </trkpt>
      <trkpt lat="46.56244" lon="4.92216">
        <ele>171.231596</ele>
        <time>2020-10-25T15:07:36.317Z</time>
      </trkpt>
      <trkpt lat="46.56246" lon="4.92207">
        <ele>171.229437</ele>
        <time>2020-10-25T15:07:37.543Z</time>
      </trkpt>
      <trkpt lat="46.56303" lon="4.92014">
        <ele>171.182903</ele>
        <time>2020-10-25T15:08:07.713Z</time>
      </trkpt>
      <trkpt lat="46.5631" lon="4.91989">
        <ele>171.177548</ele>
        <time>2020-10-25T15:08:11.971Z</time>
      </trkpt>
      <trkpt lat="46.56353" lon="4.91835">
        <ele>172.006427</ele>
        <time>2020-10-25T15:08:40.578Z</time>
      </trkpt>
      <trkpt lat="46.56367" lon="4.9179">
        <ele>172.252112</ele>
        <time>2020-10-25T15:08:49.948Z</time>
      </trkpt>
      <trkpt lat="46.56429" lon="4.91579">
        <ele>173.315602</ele>
        <time>2020-10-25T15:09:28.634Z</time>
      </trkpt>
      <trkpt lat="46.56441" lon="4.91538">
        <ele>173.518333</ele>
        <time>2020-10-25T15:09:35.714Z</time>
      </trkpt>
      <trkpt lat="46.56446" lon="4.91521">
        <ele>173.602237</ele>
        <time>2020-10-25T15:09:38.729Z</time>
      </trkpt>
      <trkpt lat="46.56457" lon="4.9148">
        <ele>174.036863</ele>
        <time>2020-10-25T15:09:45.596Z</time>
      </trkpt>
      <trkpt lat="46.5646" lon="4.91462">
        <ele>174.273941</ele>
        <time>2020-10-25T15:09:49.329Z</time>
      </trkpt>
      <trkpt lat="46.56462" lon="4.91451">
        <ele>174.421709</ele>
        <time>2020-10-25T15:09:50.881Z</time>
      </trkpt>
      <trkpt lat="46.56463" lon="4.91444">
        <ele>174.512839</ele>
        <time>2020-10-25T15:09:52.405Z</time>
      </trkpt>
      <trkpt lat="46.56463" lon="4.91435">
        <ele>174.618722</ele>
        <time>2020-10-25T15:09:53.803Z</time>
      </trkpt>
      <trkpt lat="46.56463" lon="4.91429">
        <ele>174.692611</ele>
        <time>2020-10-25T15:09:54.515Z</time>
      </trkpt>
      <trkpt lat="46.56462" lon="4.91413">
        <ele>174.89765</ele>
        <time>2020-10-25T15:09:58.099Z</time>
      </trkpt>
      <trkpt lat="46.5646" lon="4.91405">
        <ele>175.013306</ele>
        <time>2020-10-25T15:09:59.337Z</time>
      </trkpt>
      <trkpt lat="46.56402" lon="4.91218">
        <ele>178.004862</ele>
        <time>2020-10-25T15:10:48.904Z</time>
      </trkpt>
      <trkpt lat="46.56401" lon="4.91215">
        <ele>178.072711</ele>
        <time>2020-10-25T15:10:49.847Z</time>
      </trkpt>
      <trkpt lat="46.564" lon="4.91211">
        <ele>178.171336</ele>
        <time>2020-10-25T15:10:51.456Z</time>
      </trkpt>
      <trkpt lat="46.56398" lon="4.91204">
        <ele>178.325247</ele>
        <time>2020-10-25T15:10:54.417Z</time>
      </trkpt>
      <trkpt lat="46.56387" lon="4.91171">
        <ele>179.073984</ele>
        <time>2020-10-25T15:11:02.875Z</time>
      </trkpt>
      <trkpt lat="46.56383" lon="4.91157">
        <ele>179.38634</ele>
        <time>2020-10-25T15:11:08.332Z</time>
      </trkpt>
      <trkpt lat="46.56373" lon="4.91124">
        <ele>180.148279</ele>
        <time>2020-10-25T15:11:16.348Z</time>
      </trkpt>
      <trkpt lat="46.56366" lon="4.91103">
        <ele>180.615635</ele>
        <time>2020-10-25T15:11:23.547Z</time>
      </trkpt>
      <trkpt lat="46.56349" lon="4.91059">
        <ele>181.66877</ele>
        <time>2020-10-25T15:11:37.047Z</time>
      </trkpt>
      <trkpt lat="46.56339" lon="4.91022">
        <ele>182.491625</ele>
        <time>2020-10-25T15:11:47.423Z</time>
      </trkpt>
      <trkpt lat="46.56336" lon="4.91015">
        <ele>182.615249</ele>
        <time>2020-10-25T15:11:50.311Z</time>
      </trkpt>
      <trkpt lat="46.56336" lon="4.91011">
        <ele>182.668321</ele>
        <time>2020-10-25T15:11:51.232Z</time>
      </trkpt>
      <trkpt lat="46.56322" lon="4.90964">
        <ele>183.474237</ele>
        <time>2020-10-25T15:12:02.960Z</time>
      </trkpt>
      <trkpt lat="46.56316" lon="4.90919">
        <ele>184.195857</ele>
        <time>2020-10-25T15:12:12.293Z</time>
      </trkpt>
      <trkpt lat="46.56323" lon="4.90914">
        <ele>184.367926</ele>
        <time>2020-10-25T15:12:15.313Z</time>
      </trkpt>
      <trkpt lat="46.56327" lon="4.9091">
        <ele>184.487537</ele>
        <time>2020-10-25T15:12:17.529Z</time>
      </trkpt>
      <trkpt lat="46.56341" lon="4.90901">
        <ele>184.827598</ele>
        <time>2020-10-25T15:12:22.522Z</time>
      </trkpt>
      <trkpt lat="46.56356" lon="4.90892">
        <ele>185.204303</ele>
        <time>2020-10-25T15:12:28.760Z</time>
      </trkpt>
      <trkpt lat="46.56393" lon="4.90868">
        <ele>186.128154</ele>
        <time>2020-10-25T15:12:45.506Z</time>
      </trkpt>
      <trkpt lat="46.56385" lon="4.90847">
        <ele>186.516219</ele>
        <time>2020-10-25T15:12:52.136Z</time>
      </trkpt>
      <trkpt lat="46.5638" lon="4.90835">
        <ele>186.735459</ele>
        <time>2020-10-25T15:12:56.032Z</time>
      </trkpt>
      <trkpt lat="46.56378" lon="4.90828">
        <ele>186.856589</ele>
        <time>2020-10-25T15:12:58.455Z</time>
      </trkpt>
      <trkpt lat="46.56412" lon="4.90805">
        <ele>187.743992</ele>
        <time>2020-10-25T15:13:12.100Z</time>
      </trkpt>
      <trkpt lat="46.56435" lon="4.90787">
        <ele>188.373799</ele>
        <time>2020-10-25T15:13:21.405Z</time>
      </trkpt>
      <trkpt lat="46.56448" lon="4.90779">
        <ele>188.716543</ele>
        <time>2020-10-25T15:13:27.043Z</time>
      </trkpt>
      <trkpt lat="46.56459" lon="4.90774">
        <ele>188.992599</ele>
        <time>2020-10-25T15:13:30.745Z</time>
      </trkpt>
      <trkpt lat="46.56464" lon="4.9074">
        <ele>189.568235</ele>
        <time>2020-10-25T15:13:39.026Z</time>
      </trkpt>
      <trkpt lat="46.56465" lon="4.90733">
        <ele>189.688296</ele>
        <time>2020-10-25T15:13:40.535Z</time>
      </trkpt>
      <trkpt lat="46.56476" lon="4.9069">
        <ele>190.435074</ele>
        <time>2020-10-25T15:13:50.500Z</time>
      </trkpt>
      <trkpt lat="46.56477" lon="4.90687">
        <ele>190.497299</ele>
        <time>2020-10-25T15:13:51.350Z</time>
      </trkpt>
      <trkpt lat="46.56481" lon="4.90666">
        <ele>190.85262</ele>
        <time>2020-10-25T15:13:56.141Z</time>
      </trkpt>
      <trkpt lat="46.56495" lon="4.90599">
        <ele>191.749235</ele>
        <time>2020-10-25T15:14:12.246Z</time>
      </trkpt>
      <trkpt lat="46.56514" lon="4.90513">
        <ele>192.898094</ele>
        <time>2020-10-25T15:14:31.308Z</time>
      </trkpt>
      <trkpt lat="46.56514" lon="4.90511">
        <ele>192.930171</ele>
        <time>2020-10-25T15:14:31.829Z</time>
      </trkpt>
      <trkpt lat="46.56517" lon="4.90498">
        <ele>193.106866</ele>
        <time>2020-10-25T15:14:34.665Z</time>
      </trkpt>
      <trkpt lat="46.5652" lon="4.90487">
        <ele>193.250263</ele>
        <time>2020-10-25T15:14:36.981Z</time>
      </trkpt>
      <trkpt lat="46.56521" lon="4.90481">
        <ele>193.332521</ele>
        <time>2020-10-25T15:14:38.281Z</time>
      </trkpt>
      <trkpt lat="46.56529" lon="4.90445">
        <ele>193.815237</ele>
        <time>2020-10-25T15:14:45.985Z</time>
      </trkpt>
      <trkpt lat="46.56545" lon="4.90378">
        <ele>194.748672</ele>
        <time>2020-10-25T15:15:00.827Z</time>
      </trkpt>
      <trkpt lat="46.56574" lon="4.90276">
        <ele>196.199466</ele>
        <time>2020-10-25T15:15:24.342Z</time>
      </trkpt>
      <trkpt lat="46.56589" lon="4.90216">
        <ele>197.041864</ele>
        <time>2020-10-25T15:15:38.367Z</time>
      </trkpt>
      <trkpt lat="46.56601" lon="4.90165">
        <ele>197.797713</ele>
        <time>2020-10-25T15:15:50.479Z</time>
      </trkpt>
      <trkpt lat="46.56608" lon="4.9014">
        <ele>198.307305</ele>
        <time>2020-10-25T15:15:56.589Z</time>
      </trkpt>
      <trkpt lat="46.56616" lon="4.90105">
        <ele>199.001568</ele>
        <time>2020-10-25T15:16:05.115Z</time>
      </trkpt>
      <trkpt lat="46.56671" lon="4.89898">
        <ele>203.297851</ele>
        <time>2020-10-25T15:17:02.129Z</time>
      </trkpt>
      <trkpt lat="46.56704" lon="4.89768">
        <ele>206.307413</ele>
        <time>2020-10-25T15:17:39.699Z</time>
      </trkpt>
      <trkpt lat="46.56715" lon="4.89722">
        <ele>207.364478</ele>
        <time>2020-10-25T15:17:52.217Z</time>
      </trkpt>
      <trkpt lat="46.56719" lon="4.89707">
        <ele>207.72267</ele>
        <time>2020-10-25T15:17:56.397Z</time>
      </trkpt>
      <trkpt lat="46.56746" lon="4.896">
        <ele>210.589873</ele>
        <time>2020-10-25T15:18:26.135Z</time>
      </trkpt>
      <trkpt lat="46.56768" lon="4.8951">
        <ele>213.125764</ele>
        <time>2020-10-25T15:18:53.877Z</time>
      </trkpt>
      <trkpt lat="46.56781" lon="4.89467">
        <ele>214.344773</ele>
        <time>2020-10-25T15:19:08.131Z</time>
      </trkpt>
      <trkpt lat="46.56787" lon="4.89442">
        <ele>215.043767</ele>
        <time>2020-10-25T15:19:16.695Z</time>
      </trkpt>
      <trkpt lat="46.56798" lon="4.89398">
        <ele>216.92519</ele>
        <time>2020-10-25T15:19:32.018Z</time>
      </trkpt>
      <trkpt lat="46.56801" lon="4.89386">
        <ele>217.465069</ele>
        <time>2020-10-25T15:19:36.656Z</time>
      </trkpt>
      <trkpt lat="46.56832" lon="4.89264">
        <ele>222.956179</ele>
        <time>2020-10-25T15:20:25.567Z</time>
      </trkpt>
      <trkpt lat="46.5685" lon="4.8919">
        <ele>226.300167</ele>
        <time>2020-10-25T15:20:57.800Z</time>
      </trkpt>
      <trkpt lat="46.5687" lon="4.89114">
        <ele>231.413693</ele>
        <time>2020-10-25T15:21:34.639Z</time>
      </trkpt>
      <trkpt lat="46.56878" lon="4.89075">
        <ele>233.942355</ele>
        <time>2020-10-25T15:21:53.720Z</time>
      </trkpt>
      <trkpt lat="46.5688" lon="4.8907">
        <ele>234.270025</ele>
        <time>2020-10-25T15:21:55.733Z</time>
      </trkpt>
      <trkpt lat="46.56911" lon="4.88947">
        <ele>242.478552</ele>
        <time>2020-10-25T15:23:04.919Z</time>
      </trkpt>
      <trkpt lat="46.56913" lon="4.88938">
        <ele>243.080704</ele>
        <time>2020-10-25T15:23:12.588Z</time>
      </trkpt>
      <trkpt lat="46.56934" lon="4.88852">
        <ele>249.487247</ele>
        <time>2020-10-25T15:24:02.649Z</time>
      </trkpt>
      <trkpt lat="46.56941" lon="4.88825">
        <ele>251.513078</ele>
        <time>2020-10-25T15:24:21.453Z</time>
      </trkpt>
      <trkpt lat="46.56944" lon="4.88813">
        <ele>252.459588</ele>
        <time>2020-10-25T15:24:27.882Z</time>
      </trkpt>
      <trkpt lat="46.56957" lon="4.88765">
        <ele>256.034521</ele>
        <time>2020-10-25T15:24:57.613Z</time>
      </trkpt>
      <trkpt lat="46.56961" lon="4.8875">
        <ele>257.227983</ele>
        <time>2020-10-25T15:25:07.901Z</time>
      </trkpt>
      <trkpt lat="46.57038" lon="4.88549">
        <ele>268.062721</ele>
        <time>2020-10-25T15:26:45.855Z</time>
      </trkpt>
      <trkpt lat="46.57047" lon="4.88525">
        <ele>269.186302</ele>
        <time>2020-10-25T15:26:52.638Z</time>
      </trkpt>
      <trkpt lat="46.5706" lon="4.88489">
        <ele>270.835812</ele>
        <time>2020-10-25T15:27:02.024Z</time>
      </trkpt>
      <trkpt lat="46.57121" lon="4.88324">
        <ele>275.016971</ele>
        <time>2020-10-25T15:27:46.259Z</time>
      </trkpt>
      <trkpt lat="46.57148" lon="4.88243">
        <ele>276.846817</ele>
        <time>2020-10-25T15:28:11.847Z</time>
      </trkpt>
      <trkpt lat="46.57149" lon="4.88228">
        <ele>277.145357</ele>
        <time>2020-10-25T15:28:17.206Z</time>
      </trkpt>
      <trkpt lat="46.57147" lon="4.88214">
        <ele>277.404415</ele>
        <time>2020-10-25T15:28:20.982Z</time>
      </trkpt>
      <trkpt lat="46.57142" lon="4.88195">
        <ele>277.796213</ele>
        <time>2020-10-25T15:28:26.293Z</time>
      </trkpt>
      <trkpt lat="46.57113" lon="4.88094">
        <ele>279.881083</ele>
        <time>2020-10-25T15:28:56.938Z</time>
      </trkpt>
      <trkpt lat="46.57105" lon="4.88071">
        <ele>280.373321</ele>
        <time>2020-10-25T15:29:04.322Z</time>
      </trkpt>
      <trkpt lat="46.57092" lon="4.88035">
        <ele>281.150479</ele>
        <time>2020-10-25T15:29:14.971Z</time>
      </trkpt>
      <trkpt lat="46.57079" lon="4.88005">
        <ele>281.827089</ele>
        <time>2020-10-25T15:29:22.575Z</time>
      </trkpt>
      <trkpt lat="46.57014" lon="4.87872">
        <ele>279.180243</ele>
        <time>2020-10-25T15:29:41.249Z</time>
      </trkpt>
      <trkpt lat="46.57013" lon="4.87863">
        <ele>279.039838</ele>
        <time>2020-10-25T15:29:42.024Z</time>
      </trkpt>
      <trkpt lat="46.57011" lon="4.87856">
        <ele>278.904903</ele>
        <time>2020-10-25T15:29:42.780Z</time>
      </trkpt>
      <trkpt lat="46.5701" lon="4.87839">
        <ele>278.630925</ele>
        <time>2020-10-25T15:29:44.315Z</time>
      </trkpt>
      <trkpt lat="46.5701" lon="4.87823">
        <ele>278.364324</ele>
        <time>2020-10-25T15:29:45.837Z</time>
      </trkpt>
      <trkpt lat="46.57011" lon="4.87789">
        <ele>277.792377</ele>
        <time>2020-10-25T15:29:49.008Z</time>
      </trkpt>
      <trkpt lat="46.57012" lon="4.87742">
        <ele>275.992149</ele>
        <time>2020-10-25T15:29:53.083Z</time>
      </trkpt>
      <trkpt lat="46.57014" lon="4.87725">
        <ele>275.136316</ele>
        <time>2020-10-25T15:29:54.681Z</time>
      </trkpt>
      <trkpt lat="46.57017" lon="4.87708">
        <ele>274.227924</ele>
        <time>2020-10-25T15:29:56.166Z</time>
      </trkpt>
      <trkpt lat="46.5702" lon="4.877">
        <ele>273.783364</ele>
        <time>2020-10-25T15:29:56.900Z</time>
      </trkpt>
      <trkpt lat="46.57038" lon="4.87647">
        <ele>270.76269</ele>
        <time>2020-10-25T15:30:02.019Z</time>
      </trkpt>
      <trkpt lat="46.57063" lon="4.87582">
        <ele>266.978666</ele>
        <time>2020-10-25T15:30:08.472Z</time>
      </trkpt>
      <trkpt lat="46.57067" lon="4.87574">
        <ele>266.485013</ele>
        <time>2020-10-25T15:30:09.267Z</time>
      </trkpt>
      <trkpt lat="46.57071" lon="4.87567">
        <ele>266.02073</ele>
        <time>2020-10-25T15:30:10.019Z</time>
      </trkpt>
      <trkpt lat="46.57126" lon="4.87465">
        <ele>258.602968</ele>
        <time>2020-10-25T15:30:21.026Z</time>
      </trkpt>
      <trkpt lat="46.57172" lon="4.87337">
        <ele>249.995118</ele>
        <time>2020-10-25T15:30:33.166Z</time>
      </trkpt>
      <trkpt lat="46.57183" lon="4.87321">
        <ele>248.700056</ele>
        <time>2020-10-25T15:30:35.001Z</time>
      </trkpt>
      <trkpt lat="46.57226" lon="4.8727">
        <ele>244.030534</ele>
        <time>2020-10-25T15:30:41.935Z</time>
      </trkpt>
      <trkpt lat="46.57245" lon="4.87249">
        <ele>242.043366</ele>
        <time>2020-10-25T15:30:44.907Z</time>
      </trkpt>
      <trkpt lat="46.57252" lon="4.87239">
        <ele>241.262933</ele>
        <time>2020-10-25T15:30:46.079Z</time>
      </trkpt>
      <trkpt lat="46.57266" lon="4.87203">
        <ele>238.851127</ele>
        <time>2020-10-25T15:30:49.634Z</time>
      </trkpt>
      <trkpt lat="46.57269" lon="4.87192">
        <ele>238.179225</ele>
        <time>2020-10-25T15:30:50.635Z</time>
      </trkpt>
      <trkpt lat="46.5727" lon="4.87187">
        <ele>237.847537</ele>
        <time>2020-10-25T15:30:51.096Z</time>
      </trkpt>
      <trkpt lat="46.57275" lon="4.87132">
        <ele>234.662005</ele>
        <time>2020-10-25T15:30:55.740Z</time>
      </trkpt>
      <trkpt lat="46.57273" lon="4.87101">
        <ele>232.902338</ele>
        <time>2020-10-25T15:30:58.468Z</time>
      </trkpt>
      <trkpt lat="46.57266" lon="4.87074">
        <ele>231.359028</ele>
        <time>2020-10-25T15:31:00.805Z</time>
      </trkpt>
      <trkpt lat="46.57251" lon="4.87048">
        <ele>229.477107</ele>
        <time>2020-10-25T15:31:03.881Z</time>
      </trkpt>
      <trkpt lat="46.57242" lon="4.87039">
        <ele>228.664531</ele>
        <time>2020-10-25T15:31:05.083Z</time>
      </trkpt>
      <trkpt lat="46.57208" lon="4.87009">
        <ele>225.523775</ele>
        <time>2020-10-25T15:31:09.932Z</time>
      </trkpt>
      <trkpt lat="46.57199" lon="4.86996">
        <ele>224.472363</ele>
        <time>2020-10-25T15:31:11.667Z</time>
      </trkpt>
      <trkpt lat="46.57192" lon="4.86985">
        <ele>223.65321</ele>
        <time>2020-10-25T15:31:12.980Z</time>
      </trkpt>
      <trkpt lat="46.57185" lon="4.86972">
        <ele>222.761414</ele>
        <time>2020-10-25T15:31:14.324Z</time>
      </trkpt>
      <trkpt lat="46.57173" lon="4.86926">
        <ele>220.125749</ele>
        <time>2020-10-25T15:31:18.520Z</time>
      </trkpt>
      <trkpt lat="46.57172" lon="4.86897">
        <ele>219.154508</ele>
        <time>2020-10-25T15:31:21.216Z</time>
      </trkpt>
      <trkpt lat="46.57178" lon="4.86842">
        <ele>218.354466</ele>
        <time>2020-10-25T15:31:26.167Z</time>
      </trkpt>
      <trkpt lat="46.5718" lon="4.86823">
        <ele>218.076994</ele>
        <time>2020-10-25T15:31:27.865Z</time>
      </trkpt>
      <trkpt lat="46.57188" lon="4.86748">
        <ele>216.98219</ele>
        <time>2020-10-25T15:31:35.621Z</time>
      </trkpt>
      <trkpt lat="46.57195" lon="4.86676">
        <ele>215.928185</ele>
        <time>2020-10-25T15:31:46.523Z</time>
      </trkpt>
      <trkpt lat="46.57199" lon="4.86629">
        <ele>216.478427</ele>
        <time>2020-10-25T15:31:58.630Z</time>
      </trkpt>
      <trkpt lat="46.57217" lon="4.86441">
        <ele>223.076824</ele>
        <time>2020-10-25T15:33:07.467Z</time>
      </trkpt>
      <trkpt lat="46.57219" lon="4.86425">
        <ele>223.625287</ele>
        <time>2020-10-25T15:33:15.208Z</time>
      </trkpt>
      <trkpt lat="46.5726" lon="4.85984">
        <ele>240.078447</ele>
        <time>2020-10-25T15:35:56.138Z</time>
      </trkpt>
      <trkpt lat="46.57281" lon="4.85759">
        <ele>245.585992</ele>
        <time>2020-10-25T15:36:59.808Z</time>
      </trkpt>
      <trkpt lat="46.57296" lon="4.85567">
        <ele>247.91289</ele>
        <time>2020-10-25T15:37:38.822Z</time>
      </trkpt>
      <trkpt lat="46.57303" lon="4.85498">
        <ele>247.904764</ele>
        <time>2020-10-25T15:37:48.033Z</time>
      </trkpt>
      <trkpt lat="46.57313" lon="4.85416">
        <ele>247.895152</ele>
        <time>2020-10-25T15:37:58.056Z</time>
      </trkpt>
      <trkpt lat="46.57318" lon="4.85379">
        <ele>247.890803</ele>
        <time>2020-10-25T15:38:02.574Z</time>
      </trkpt>
      <trkpt lat="46.57338" lon="4.85231">
        <ele>248.796482</ele>
        <time>2020-10-25T15:38:25.532Z</time>
      </trkpt>
      <trkpt lat="46.57353" lon="4.85105">
        <ele>249.690517</ele>
        <time>2020-10-25T15:38:52.917Z</time>
      </trkpt>
      <trkpt lat="46.5737" lon="4.84983">
        <ele>250.524474</ele>
        <time>2020-10-25T15:39:21.579Z</time>
      </trkpt>
      <trkpt lat="46.57375" lon="4.8495">
        <ele>250.745766</ele>
        <time>2020-10-25T15:39:27.982Z</time>
      </trkpt>
      <trkpt lat="46.57393" lon="4.84847">
        <ele>251.4517</ele>
        <time>2020-10-25T15:39:42.760Z</time>
      </trkpt>
      <trkpt lat="46.57431" lon="4.84651">
        <ele>251.385366</ele>
        <time>2020-10-25T15:40:06.425Z</time>
      </trkpt>
      <trkpt lat="46.57432" lon="4.84642">
        <ele>251.382306</ele>
        <time>2020-10-25T15:40:07.784Z</time>
      </trkpt>
      <trkpt lat="46.57434" lon="4.84632">
        <ele>251.378553</ele>
        <time>2020-10-25T15:40:09.530Z</time>
      </trkpt>
      <trkpt lat="46.57437" lon="4.84617">
        <ele>251.372734</ele>
        <time>2020-10-25T15:40:12.359Z</time>
      </trkpt>
      <trkpt lat="46.57446" lon="4.84562">
        <ele>252.450398</ele>
        <time>2020-10-25T15:40:25.917Z</time>
      </trkpt>
      <trkpt lat="46.57451" lon="4.84537">
        <ele>253.338422</ele>
        <time>2020-10-25T15:40:34.202Z</time>
      </trkpt>
      <trkpt lat="46.57454" lon="4.84519">
        <ele>253.95647</ele>
        <time>2020-10-25T15:40:39.269Z</time>
      </trkpt>
      <trkpt lat="46.5747" lon="4.84417">
        <ele>257.471413</ele>
        <time>2020-10-25T15:41:17.106Z</time>
      </trkpt>
      <trkpt lat="46.57473" lon="4.84399">
        <ele>258.10255</ele>
        <time>2020-10-25T15:41:24.151Z</time>
      </trkpt>
      <trkpt lat="46.57474" lon="4.84388">
        <ele>258.460708</ele>
        <time>2020-10-25T15:41:30.033Z</time>
      </trkpt>
      <trkpt lat="46.57515" lon="4.84123">
        <ele>267.897282</ele>
        <time>2020-10-25T15:43:12.562Z</time>
      </trkpt>
      <trkpt lat="46.57559" lon="4.83831">
        <ele>271.998805</ele>
        <time>2020-10-25T15:44:09.405Z</time>
      </trkpt>
      <trkpt lat="46.57565" lon="4.8379">
        <ele>272.826801</ele>
        <time>2020-10-25T15:44:17.115Z</time>
      </trkpt>
      <trkpt lat="46.57563" lon="4.83755">
        <ele>273.534707</ele>
        <time>2020-10-25T15:44:23.961Z</time>
      </trkpt>
      <trkpt lat="46.57557" lon="4.83729">
        <ele>274.092683</ele>
        <time>2020-10-25T15:44:29.492Z</time>
      </trkpt>
      <trkpt lat="46.57538" lon="4.83685">
        <ele>275.15414</ele>
        <time>2020-10-25T15:44:41.803Z</time>
      </trkpt>
      <trkpt lat="46.57514" lon="4.83638">
        <ele>276.340078</ele>
        <time>2020-10-25T15:44:57.933Z</time>
      </trkpt>
      <trkpt lat="46.57471" lon="4.83547">
        <ele>280.599326</ele>
        <time>2020-10-25T15:45:36.535Z</time>
      </trkpt>
      <trkpt lat="46.57419" lon="4.8344">
        <ele>287.631196</ele>
        <time>2020-10-25T15:46:36.469Z</time>
      </trkpt>
      <trkpt lat="46.57349" lon="4.83296">
        <ele>297.530348</ele>
        <time>2020-10-25T15:48:07.980Z</time>
      </trkpt>
      <trkpt lat="46.57341" lon="4.8328">
        <ele>298.716014</ele>
        <time>2020-10-25T15:48:18.524Z</time>
      </trkpt>
      <trkpt lat="46.57311" lon="4.83219">
        <ele>303.05569</ele>
        <time>2020-10-25T15:48:56.436Z</time>
      </trkpt>
      <trkpt lat="46.57231" lon="4.83057">
        <ele>310.297544</ele>
        <time>2020-10-25T15:50:06.030Z</time>
      </trkpt>
      <trkpt lat="46.57151" lon="4.82892">
        <ele>316.019527</ele>
        <time>2020-10-25T15:50:49.029Z</time>
      </trkpt>
      <trkpt lat="46.57116" lon="4.82823">
        <ele>318.622818</ele>
        <time>2020-10-25T15:51:12.465Z</time>
      </trkpt>
      <trkpt lat="46.57112" lon="4.82812">
        <ele>319.023007</ele>
        <time>2020-10-25T15:51:15.385Z</time>
      </trkpt>
      <trkpt lat="46.57103" lon="4.82793">
        <ele>319.71187</ele>
        <time>2020-10-25T15:51:25.046Z</time>
      </trkpt>
      <trkpt lat="46.57092" lon="4.82762">
        <ele>320.793066</ele>
        <time>2020-10-25T15:51:36.741Z</time>
      </trkpt>
      <trkpt lat="46.57044" lon="4.82582">
        <ele>333.353948</ele>
        <time>2020-10-25T15:53:20.436Z</time>
      </trkpt>
      <trkpt lat="46.57011" lon="4.82463">
        <ele>342.542126</ele>
        <time>2020-10-25T15:54:35.287Z</time>
      </trkpt>
      <trkpt lat="46.57007" lon="4.82445">
        <ele>343.937158</ele>
        <time>2020-10-25T15:54:46.727Z</time>
      </trkpt>
      <trkpt lat="46.57005" lon="4.82421">
        <ele>345.712145</ele>
        <time>2020-10-25T15:54:59.448Z</time>
      </trkpt>
      <trkpt lat="46.57013" lon="4.82405">
        <ele>347.1314</ele>
        <time>2020-10-25T15:55:09.903Z</time>
      </trkpt>
      <trkpt lat="46.57021" lon="4.82399">
        <ele>348.176888</ele>
        <time>2020-10-25T15:55:20.536Z</time>
      </trkpt>
      <trkpt lat="46.57031" lon="4.82397">
        <ele>349.197303</ele>
        <time>2020-10-25T15:55:28.662Z</time>
      </trkpt>
      <trkpt lat="46.57146" lon="4.82394">
        <ele>361.321384</ele>
        <time>2020-10-25T15:56:58.541Z</time>
      </trkpt>
      <trkpt lat="46.57157" lon="4.82384">
        <ele>362.490457</ele>
        <time>2020-10-25T15:57:07.512Z</time>
      </trkpt>
      <trkpt lat="46.57162" lon="4.82371">
        <ele>363.454156</ele>
        <time>2020-10-25T15:57:17.060Z</time>
      </trkpt>
      <trkpt lat="46.57162" lon="4.82351">
        <ele>364.698054</ele>
        <time>2020-10-25T15:57:24.985Z</time>
      </trkpt>
      <trkpt lat="46.57153" lon="4.82307">
        <ele>367.666662</ele>
        <time>2020-10-25T15:57:46.283Z</time>
      </trkpt>
      <trkpt lat="46.57111" lon="4.82171">
        <ele>377.211099</ele>
        <time>2020-10-25T15:59:02.437Z</time>
      </trkpt>
      <trkpt lat="46.57101" lon="4.82132">
        <ele>379.843912</ele>
        <time>2020-10-25T15:59:22.344Z</time>
      </trkpt>
      <trkpt lat="46.571" lon="4.82102">
        <ele>381.696736</ele>
        <time>2020-10-25T15:59:36.729Z</time>
      </trkpt>
      <trkpt lat="46.57108" lon="4.82073">
        <ele>383.6237</ele>
        <time>2020-10-25T15:59:51.890Z</time>
      </trkpt>
      <trkpt lat="46.57151" lon="4.82006">
        <ele>389.411932</ele>
        <time>2020-10-25T16:00:38.268Z</time>
      </trkpt>
      <trkpt lat="46.57225" lon="4.81959">
        <ele>395.972413</ele>
        <time>2020-10-25T16:01:35.411Z</time>
      </trkpt>
      <trkpt lat="46.57246" lon="4.81934">
        <ele>398.043622</ele>
        <time>2020-10-25T16:01:54.411Z</time>
      </trkpt>
      <trkpt lat="46.57248" lon="4.81904">
        <ele>399.632598</ele>
        <time>2020-10-25T16:02:08.567Z</time>
      </trkpt>
      <trkpt lat="46.57234" lon="4.81881">
        <ele>401.255922</ele>
        <time>2020-10-25T16:02:22.771Z</time>
      </trkpt>
      <trkpt lat="46.56998" lon="4.81687">
        <ele>414.992668</ele>
        <time>2020-10-25T16:04:42.155Z</time>
      </trkpt>
      <trkpt lat="46.56817" lon="4.8154">
        <ele>411.972669</ele>
        <time>2020-10-25T16:05:14.326Z</time>
      </trkpt>
      <trkpt lat="46.56787" lon="4.81518">
        <ele>410.500458</ele>
        <time>2020-10-25T16:05:18.681Z</time>
      </trkpt>
      <trkpt lat="46.56771" lon="4.81502">
        <ele>409.625939</ele>
        <time>2020-10-25T16:05:21.278Z</time>
      </trkpt>
      <trkpt lat="46.56759" lon="4.81486">
        <ele>408.868174</ele>
        <time>2020-10-25T16:05:23.398Z</time>
      </trkpt>
      <trkpt lat="46.56742" lon="4.81457">
        <ele>407.706713</ele>
        <time>2020-10-25T16:05:26.752Z</time>
      </trkpt>
      <trkpt lat="46.56726" lon="4.81421">
        <ele>406.400399</ele>
        <time>2020-10-25T16:05:30.536Z</time>
      </trkpt>
      <trkpt lat="46.56698" lon="4.81328">
        <ele>402.053947</ele>
        <time>2020-10-25T16:05:39.553Z</time>
      </trkpt>
      <trkpt lat="46.56691" lon="4.81306">
        <ele>401.051024</ele>
        <time>2020-10-25T16:05:41.566Z</time>
      </trkpt>
      <trkpt lat="46.56672" lon="4.81278">
        <ele>399.370027</ele>
        <time>2020-10-25T16:05:45.057Z</time>
      </trkpt>
      <trkpt lat="46.5662" lon="4.81227">
        <ele>395.488836</ele>
        <time>2020-10-25T16:05:53.150Z</time>
      </trkpt>
      <trkpt lat="46.56602" lon="4.8118">
        <ele>393.259885</ele>
        <time>2020-10-25T16:05:57.934Z</time>
      </trkpt>
      <trkpt lat="46.56576" lon="4.81084">
        <ele>389.065461</ele>
        <time>2020-10-25T16:06:07.060Z</time>
      </trkpt>
      <trkpt lat="46.56557" lon="4.80998">
        <ele>385.37253</ele>
        <time>2020-10-25T16:06:15.119Z</time>
      </trkpt>
      <trkpt lat="46.56492" lon="4.80774">
        <ele>373.634469</ele>
        <time>2020-10-25T16:06:36.390Z</time>
      </trkpt>
      <trkpt lat="46.56485" lon="4.80708">
        <ele>369.499527</ele>
        <time>2020-10-25T16:06:41.987Z</time>
      </trkpt>
      <trkpt lat="46.56484" lon="4.80636">
        <ele>363.633291</ele>
        <time>2020-10-25T16:06:48.025Z</time>
      </trkpt>
      <trkpt lat="46.56476" lon="4.80586">
        <ele>359.506805</ele>
        <time>2020-10-25T16:06:52.213Z</time>
      </trkpt>
      <trkpt lat="46.56382" lon="4.80351">
        <ele>333.980177</ele>
        <time>2020-10-25T16:07:14.071Z</time>
      </trkpt>
      <trkpt lat="46.56373" lon="4.80287">
        <ele>327.312183</ele>
        <time>2020-10-25T16:07:19.247Z</time>
      </trkpt>
      <trkpt lat="46.56372" lon="4.8023">
        <ele>321.600607</ele>
        <time>2020-10-25T16:07:23.800Z</time>
      </trkpt>
      <trkpt lat="46.56379" lon="4.79977">
        <ele>297.649943</ele>
        <time>2020-10-25T16:07:44.231Z</time>
      </trkpt>
      <trkpt lat="46.5638" lon="4.79969">
        <ele>297.13827</ele>
        <time>2020-10-25T16:07:44.868Z</time>
      </trkpt>
      <trkpt lat="46.5638" lon="4.79961">
        <ele>296.599089</ele>
        <time>2020-10-25T16:07:45.550Z</time>
      </trkpt>
      <trkpt lat="46.56391" lon="4.79614">
        <ele>275.258734</ele>
        <time>2020-10-25T16:08:14.922Z</time>
      </trkpt>
      <trkpt lat="46.56391" lon="4.79601">
        <ele>274.585703</ele>
        <time>2020-10-25T16:08:15.989Z</time>
      </trkpt>
      <trkpt lat="46.56393" lon="4.79557">
        <ele>272.213344</ele>
        <time>2020-10-25T16:08:19.835Z</time>
      </trkpt>
      <trkpt lat="46.56405" lon="4.79209">
        <ele>255.339031</ele>
        <time>2020-10-25T16:08:50.120Z</time>
      </trkpt>
      <trkpt lat="46.56418" lon="4.78863">
        <ele>240.829831</ele>
        <time>2020-10-25T16:09:20.894Z</time>
      </trkpt>
      <trkpt lat="46.56418" lon="4.78845">
        <ele>240.036171</ele>
        <time>2020-10-25T16:09:22.537Z</time>
      </trkpt>
      <trkpt lat="46.56418" lon="4.78834">
        <ele>239.543145</ele>
        <time>2020-10-25T16:09:23.490Z</time>
      </trkpt>
      <trkpt lat="46.56424" lon="4.78683">
        <ele>232.9816</ele>
        <time>2020-10-25T16:09:36.672Z</time>
      </trkpt>
      <trkpt lat="46.5643" lon="4.78516">
        <ele>226.312677</ele>
        <time>2020-10-25T16:09:51.403Z</time>
      </trkpt>
      <trkpt lat="46.56434" lon="4.78396">
        <ele>222.122007</ele>
        <time>2020-10-25T16:10:02.277Z</time>
      </trkpt>
      <trkpt lat="46.56459" lon="4.77711">
        <ele>209.866492</ele>
        <time>2020-10-25T16:11:12.499Z</time>
      </trkpt>
      <trkpt lat="46.56468" lon="4.77495">
        <ele>207.123442</ele>
        <time>2020-10-25T16:11:35.417Z</time>
      </trkpt>
      <trkpt lat="46.56472" lon="4.77382">
        <ele>205.866337</ele>
        <time>2020-10-25T16:11:48.097Z</time>
      </trkpt>
      <trkpt lat="46.56472" lon="4.77367">
        <ele>205.993041</ele>
        <time>2020-10-25T16:11:49.937Z</time>
      </trkpt>
      <trkpt lat="46.56476" lon="4.77256">
        <ele>207.482005</ele>
        <time>2020-10-25T16:12:06.764Z</time>
      </trkpt>
      <trkpt lat="46.56477" lon="4.77236">
        <ele>207.752605</ele>
        <time>2020-10-25T16:12:10.783Z</time>
      </trkpt>
      <trkpt lat="46.56482" lon="4.7709">
        <ele>210.646882</ele>
        <time>2020-10-25T16:12:52.398Z</time>
      </trkpt>
      <trkpt lat="46.56497" lon="4.76698">
        <ele>229.229177</ele>
        <time>2020-10-25T16:15:43.138Z</time>
      </trkpt>
      <trkpt lat="46.56497" lon="4.76683">
        <ele>229.946044</ele>
        <time>2020-10-25T16:15:51.106Z</time>
      </trkpt>
      <trkpt lat="46.56513" lon="4.76262">
        <ele>243.038837</ele>
        <time>2020-10-25T16:18:18.537Z</time>
      </trkpt>
      <trkpt lat="46.56514" lon="4.76233">
        <ele>242.81837</ele>
        <time>2020-10-25T16:18:22.251Z</time>
      </trkpt>
      <trkpt lat="46.56519" lon="4.76083">
        <ele>241.71383</ele>
        <time>2020-10-25T16:18:36.793Z</time>
      </trkpt>
      <trkpt lat="46.56525" lon="4.75934">
        <ele>235.364399</ele>
        <time>2020-10-25T16:18:49.665Z</time>
      </trkpt>
      <trkpt lat="46.56537" lon="4.75628">
        <ele>222.714749</ele>
        <time>2020-10-25T16:19:16.402Z</time>
      </trkpt>
      <trkpt lat="46.56542" lon="4.75539">
        <ele>219.455794</ele>
        <time>2020-10-25T16:19:24.807Z</time>
      </trkpt>
      <trkpt lat="46.56552" lon="4.75323">
        <ele>215.1995</ele>
        <time>2020-10-25T16:19:46.767Z</time>
      </trkpt>
      <trkpt lat="46.56559" lon="4.75288">
        <ele>214.477675</ele>
        <time>2020-10-25T16:19:50.548Z</time>
      </trkpt>
      <trkpt lat="46.56574" lon="4.75241">
        <ele>213.539955</ele>
        <time>2020-10-25T16:19:55.757Z</time>
      </trkpt>
      <trkpt lat="46.56692" lon="4.7494">
        <ele>208.28398</ele>
        <time>2020-10-25T16:20:30.693Z</time>
      </trkpt>
      <trkpt lat="46.56694" lon="4.74933">
        <ele>208.20103</ele>
        <time>2020-10-25T16:20:31.746Z</time>
      </trkpt>
      <trkpt lat="46.56732" lon="4.74838">
        <ele>207.030842</ele>
        <time>2020-10-25T16:20:45.877Z</time>
      </trkpt>
      <trkpt lat="46.56735" lon="4.74829">
        <ele>207.005866</ele>
        <time>2020-10-25T16:20:47.026Z</time>
      </trkpt>
      <trkpt lat="46.56769" lon="4.74743">
        <ele>207.572402</ele>
        <time>2020-10-25T16:21:03.134Z</time>
      </trkpt>
      <trkpt lat="46.56765" lon="4.74742">
        <ele>207.603133</ele>
        <time>2020-10-25T16:21:03.682Z</time>
      </trkpt>
      <trkpt lat="46.56654" lon="4.74719">
        <ele>208.573542</ele>
        <time>2020-10-25T16:21:35.851Z</time>
      </trkpt>
      <trkpt lat="46.56648" lon="4.74716">
        <ele>208.664057</ele>
        <time>2020-10-25T16:21:37.155Z</time>
      </trkpt>
      <trkpt lat="46.56644" lon="4.74714">
        <ele>208.717155</ele>
        <time>2020-10-25T16:21:38.982Z</time>
      </trkpt>
      <trkpt lat="46.56628" lon="4.74699">
        <ele>208.977657</ele>
        <time>2020-10-25T16:21:44.478Z</time>
      </trkpt>
      <trkpt lat="46.56463" lon="4.74531">
        <ele>211.824053</ele>
        <time>2020-10-25T16:22:41.538Z</time>
      </trkpt>
      <trkpt lat="46.56402" lon="4.74469">
        <ele>212.961747</ele>
        <time>2020-10-25T16:23:04.191Z</time>
      </trkpt>
      <trkpt lat="46.56236" lon="4.74299">
        <ele>215.513331</ele>
        <time>2020-10-25T16:24:03.363Z</time>
      </trkpt>
      <trkpt lat="46.56165" lon="4.74227">
        <ele>215.14424</ele>
        <time>2020-10-25T16:24:20.972Z</time>
      </trkpt>
      <trkpt lat="46.5601" lon="4.74067">
        <ele>213.104511</ele>
        <time>2020-10-25T16:24:50.925Z</time>
      </trkpt>
      <trkpt lat="46.55992" lon="4.74039">
        <ele>212.792421</ele>
        <time>2020-10-25T16:24:55.134Z</time>
      </trkpt>
      <trkpt lat="46.5598" lon="4.74002">
        <ele>212.457365</ele>
        <time>2020-10-25T16:24:59.742Z</time>
      </trkpt>
      <trkpt lat="46.55947" lon="4.73803">
        <ele>212.044405</ele>
        <time>2020-10-25T16:25:27.412Z</time>
      </trkpt>
      <trkpt lat="46.5593" lon="4.73753">
        <ele>212.13352</ele>
        <time>2020-10-25T16:25:37.012Z</time>
      </trkpt>
      <trkpt lat="46.559" lon="4.73709">
        <ele>212.232429</ele>
        <time>2020-10-25T16:25:47.669Z</time>
      </trkpt>
      <trkpt lat="46.55889" lon="4.737">
        <ele>212.274925</ele>
        <time>2020-10-25T16:25:51.075Z</time>
      </trkpt>
      <trkpt lat="46.55887" lon="4.73698">
        <ele>212.284684</ele>
        <time>2020-10-25T16:25:51.757Z</time>
      </trkpt>
      <trkpt lat="46.55865" lon="4.73682">
        <ele>212.441435</ele>
        <time>2020-10-25T16:25:57.500Z</time>
      </trkpt>
      <trkpt lat="46.55846" lon="4.73668">
        <ele>212.571323</ele>
        <time>2020-10-25T16:26:02.621Z</time>
      </trkpt>
      <trkpt lat="46.55835" lon="4.73659">
        <ele>212.648855</ele>
        <time>2020-10-25T16:26:05.511Z</time>
      </trkpt>
      <trkpt lat="46.55825" lon="4.73651">
        <ele>212.714508</ele>
        <time>2020-10-25T16:26:08.070Z</time>
      </trkpt>
      <trkpt lat="46.55793" lon="4.73612">
        <ele>212.973752</ele>
        <time>2020-10-25T16:26:18.299Z</time>
      </trkpt>
      <trkpt lat="46.55767" lon="4.73568">
        <ele>213.220327</ele>
        <time>2020-10-25T16:26:28.136Z</time>
      </trkpt>
      <trkpt lat="46.55764" lon="4.73563">
        <ele>213.244304</ele>
        <time>2020-10-25T16:26:28.878Z</time>
      </trkpt>
      <trkpt lat="46.55762" lon="4.73553">
        <ele>213.287989</ele>
        <time>2020-10-25T16:26:30.613Z</time>
      </trkpt>
      <trkpt lat="46.55758" lon="4.73541">
        <ele>213.343893</ele>
        <time>2020-10-25T16:26:32.580Z</time>
      </trkpt>
      <trkpt lat="46.55746" lon="4.73503">
        <ele>213.657975</ele>
        <time>2020-10-25T16:26:39.682Z</time>
      </trkpt>
      <trkpt lat="46.55728" lon="4.73457">
        <ele>214.070895</ele>
        <time>2020-10-25T16:26:48.796Z</time>
      </trkpt>
      <trkpt lat="46.55723" lon="4.73446">
        <ele>214.174133</ele>
        <time>2020-10-25T16:26:51.392Z</time>
      </trkpt>
      <trkpt lat="46.55713" lon="4.73428">
        <ele>214.35271</ele>
        <time>2020-10-25T16:26:55.621Z</time>
      </trkpt>
      <trkpt lat="46.55702" lon="4.73408">
        <ele>214.547914</ele>
        <time>2020-10-25T16:27:00.073Z</time>
      </trkpt>
      <trkpt lat="46.55658" lon="4.73335">
        <ele>215.308505</ele>
        <time>2020-10-25T16:27:19.582Z</time>
      </trkpt>
      <trkpt lat="46.55651" lon="4.73323">
        <ele>215.437724</ele>
        <time>2020-10-25T16:27:23.137Z</time>
      </trkpt>
      <trkpt lat="46.55624" lon="4.73274">
        <ele>216.004489</ele>
        <time>2020-10-25T16:27:36.452Z</time>
      </trkpt>
      <trkpt lat="46.55588" lon="4.73185">
        <ele>216.927176</ele>
        <time>2020-10-25T16:27:57.602Z</time>
      </trkpt>
      <trkpt lat="46.5558" lon="4.73165">
        <ele>217.135384</ele>
        <time>2020-10-25T16:28:02.022Z</time>
      </trkpt>
      <trkpt lat="46.55577" lon="4.73154">
        <ele>217.245748</ele>
        <time>2020-10-25T16:28:04.275Z</time>
      </trkpt>
      <trkpt lat="46.55555" lon="4.73058">
        <ele>217.858147</ele>
        <time>2020-10-25T16:28:20.867Z</time>
      </trkpt>
      <trkpt lat="46.55541" lon="4.72985">
        <ele>218.04643</ele>
        <time>2020-10-25T16:28:32.644Z</time>
      </trkpt>
      <trkpt lat="46.55528" lon="4.72924">
        <ele>218.204078</ele>
        <time>2020-10-25T16:28:42.306Z</time>
      </trkpt>
      <trkpt lat="46.5549" lon="4.72718">
        <ele>218.934805</ele>
        <time>2020-10-25T16:29:15.047Z</time>
      </trkpt>
      <trkpt lat="46.55477" lon="4.72557">
        <ele>219.784752</ele>
        <time>2020-10-25T16:29:43.276Z</time>
      </trkpt>
      <trkpt lat="46.55466" lon="4.72516">
        <ele>220.204701</ele>
        <time>2020-10-25T16:29:51.555Z</time>
      </trkpt>
      <trkpt lat="46.55434" lon="4.72454">
        <ele>220.947181</ele>
        <time>2020-10-25T16:30:06.926Z</time>
      </trkpt>
      <trkpt lat="46.55426" lon="4.72435">
        <ele>221.156538</ele>
        <time>2020-10-25T16:30:11.377Z</time>
      </trkpt>
      <trkpt lat="46.55421" lon="4.72421">
        <ele>221.309161</ele>
        <time>2020-10-25T16:30:14.853Z</time>
      </trkpt>
      <trkpt lat="46.55323" lon="4.71939">
        <ele>227.288499</ele>
        <time>2020-10-25T16:32:02.051Z</time>
      </trkpt>
      <trkpt lat="46.5532" lon="4.71893">
        <ele>227.83381</ele>
        <time>2020-10-25T16:32:11.393Z</time>
      </trkpt>
      <trkpt lat="46.55332" lon="4.71844">
        <ele>228.478442</ele>
        <time>2020-10-25T16:32:21.794Z</time>
      </trkpt>
      <trkpt lat="46.55344" lon="4.71813">
        <ele>228.987581</ele>
        <time>2020-10-25T16:32:28.735Z</time>
      </trkpt>
      <trkpt lat="46.55355" lon="4.71782">
        <ele>229.489554</ele>
        <time>2020-10-25T16:32:36.230Z</time>
      </trkpt>
      <trkpt lat="46.5537" lon="4.71697">
        <ele>230.73055</ele>
        <time>2020-10-25T16:32:54.855Z</time>
      </trkpt>
      <trkpt lat="46.55378" lon="4.7161">
        <ele>231.990497</ele>
        <time>2020-10-25T16:33:15.943Z</time>
      </trkpt>
      <trkpt lat="46.55382" lon="4.71571">
        <ele>232.970011</ele>
        <time>2020-10-25T16:33:26.202Z</time>
      </trkpt>
      <trkpt lat="46.55386" lon="4.7153">
        <ele>234.061687</ele>
        <time>2020-10-25T16:33:37.158Z</time>
      </trkpt>
      <trkpt lat="46.55398" lon="4.71407">
        <ele>237.333569</ele>
        <time>2020-10-25T16:34:13.046Z</time>
      </trkpt>
      <trkpt lat="46.55392" lon="4.71157">
        <ele>245.157069</ele>
        <time>2020-10-25T16:35:36.527Z</time>
      </trkpt>
      <trkpt lat="46.554" lon="4.71081">
        <ele>247.606936</ele>
        <time>2020-10-25T16:36:01.329Z</time>
      </trkpt>
      <trkpt lat="46.55403" lon="4.71055">
        <ele>248.161982</ele>
        <time>2020-10-25T16:36:10.228Z</time>
      </trkpt>
      <trkpt lat="46.55406" lon="4.71036">
        <ele>248.566628</ele>
        <time>2020-10-25T16:36:16.280Z</time>
      </trkpt>
      <trkpt lat="46.55406" lon="4.70953">
        <ele>250.286248</ele>
        <time>2020-10-25T16:36:41.089Z</time>
      </trkpt>
      <trkpt lat="46.55394" lon="4.70764">
        <ele>252.818046</ele>
        <time>2020-10-25T16:37:21.379Z</time>
      </trkpt>
      <trkpt lat="46.55386" lon="4.70628">
        <ele>252.540125</ele>
        <time>2020-10-25T16:37:37.961Z</time>
      </trkpt>
      <trkpt lat="46.55382" lon="4.70584">
        <ele>252.448515</ele>
        <time>2020-10-25T16:37:42.994Z</time>
      </trkpt>
      <trkpt lat="46.55369" lon="4.70526">
        <ele>252.065344</ele>
        <time>2020-10-25T16:37:49.623Z</time>
      </trkpt>
      <trkpt lat="46.55366" lon="4.70509">
        <ele>251.92814</ele>
        <time>2020-10-25T16:37:51.371Z</time>
      </trkpt>
      <trkpt lat="46.55367" lon="4.70485">
        <ele>251.730637</ele>
        <time>2020-10-25T16:37:54.168Z</time>
      </trkpt>
      <trkpt lat="46.55411" lon="4.70211">
        <ele>250.071436</ele>
        <time>2020-10-25T16:38:27.598Z</time>
      </trkpt>
      <trkpt lat="46.5542" lon="4.70123">
        <ele>249.864052</ele>
        <time>2020-10-25T16:38:39.757Z</time>
      </trkpt>
      <trkpt lat="46.55412" lon="4.70058">
        <ele>249.712276</ele>
        <time>2020-10-25T16:38:48.975Z</time>
      </trkpt>
      <trkpt lat="46.55341" lon="4.69734">
        <ele>251.605148</ele>
        <time>2020-10-25T16:39:49.348Z</time>
      </trkpt>
      <trkpt lat="46.55335" lon="4.69714">
        <ele>251.753129</ele>
        <time>2020-10-25T16:39:53.419Z</time>
      </trkpt>
      <trkpt lat="46.55331" lon="4.69704">
        <ele>251.83482</ele>
        <time>2020-10-25T16:39:55.442Z</time>
      </trkpt>
      <trkpt lat="46.55325" lon="4.69692">
        <ele>251.941588</ele>
        <time>2020-10-25T16:39:58.916Z</time>
      </trkpt>
      <trkpt lat="46.55239" lon="4.69559">
        <ele>252.694048</ele>
        <time>2020-10-25T16:40:32.720Z</time>
      </trkpt>
      <trkpt lat="46.55165" lon="4.69471">
        <ele>252.091564</ele>
        <time>2020-10-25T16:40:50.308Z</time>
      </trkpt>
      <trkpt lat="46.55133" lon="4.69415">
        <ele>251.775504</ele>
        <time>2020-10-25T16:40:58.263Z</time>
      </trkpt>
      <trkpt lat="46.55113" lon="4.69363">
        <ele>250.513088</ele>
        <time>2020-10-25T16:41:04.450Z</time>
      </trkpt>
      <trkpt lat="46.55101" lon="4.69304">
        <ele>249.151001</ele>
        <time>2020-10-25T16:41:10.529Z</time>
      </trkpt>
      <trkpt lat="46.55089" lon="4.69262">
        <ele>248.150355</ele>
        <time>2020-10-25T16:41:14.895Z</time>
      </trkpt>
      <trkpt lat="46.55063" lon="4.69219">
        <ele>246.851245</ele>
        <time>2020-10-25T16:41:20.415Z</time>
      </trkpt>
      <trkpt lat="46.55022" lon="4.69185">
        <ele>245.01057</ele>
        <time>2020-10-25T16:41:26.826Z</time>
      </trkpt>
      <trkpt lat="46.54859" lon="4.68974">
        <ele>234.231416</ele>
        <time>2020-10-25T16:41:55.623Z</time>
      </trkpt>
      <trkpt lat="46.54839" lon="4.68943">
        <ele>232.753097</ele>
        <time>2020-10-25T16:41:59.408Z</time>
      </trkpt>
      <trkpt lat="46.54826" lon="4.68916">
        <ele>231.578657</ele>
        <time>2020-10-25T16:42:02.404Z</time>
      </trkpt>
      <trkpt lat="46.54783" lon="4.68813">
        <ele>227.322234</ele>
        <time>2020-10-25T16:42:13.283Z</time>
      </trkpt>
      <trkpt lat="46.54765" lon="4.6879">
        <ele>226.161603</ele>
        <time>2020-10-25T16:42:16.385Z</time>
      </trkpt>
      <trkpt lat="46.54735" lon="4.68765">
        <ele>224.449427</ele>
        <time>2020-10-25T16:42:20.947Z</time>
      </trkpt>
      <trkpt lat="46.54705" lon="4.68742">
        <ele>222.779778</ele>
        <time>2020-10-25T16:42:25.447Z</time>
      </trkpt>
      <trkpt lat="46.54696" lon="4.6873">
        <ele>222.163716</ele>
        <time>2020-10-25T16:42:27.080Z</time>
      </trkpt>
      <trkpt lat="46.54659" lon="4.68661">
        <ele>219.182688</ele>
        <time>2020-10-25T16:42:35.181Z</time>
      </trkpt>
      <trkpt lat="46.54654" lon="4.68653">
        <ele>218.846988</ele>
        <time>2020-10-25T16:42:36.086Z</time>
      </trkpt>
      <trkpt lat="46.54646" lon="4.68638">
        <ele>218.231466</ele>
        <time>2020-10-25T16:42:37.917Z</time>
      </trkpt>
      <trkpt lat="46.54625" lon="4.68591">
        <ele>216.489057</ele>
        <time>2020-10-25T16:42:43.009Z</time>
      </trkpt>
      <trkpt lat="46.54623" lon="4.68585">
        <ele>216.296648</ele>
        <time>2020-10-25T16:42:43.550Z</time>
      </trkpt>
      <trkpt lat="46.54594" lon="4.68594">
        <ele>214.926525</ele>
        <time>2020-10-25T16:42:47.578Z</time>
      </trkpt>
      <trkpt lat="46.54588" lon="4.68595">
        <ele>214.648574</ele>
        <time>2020-10-25T16:42:48.398Z</time>
      </trkpt>
      <trkpt lat="46.54585" lon="4.68567">
        <ele>213.751665</ele>
        <time>2020-10-25T16:42:51.040Z</time>
      </trkpt>
      <trkpt lat="46.54586" lon="4.68482">
        <ele>211.086208</ele>
        <time>2020-10-25T16:42:58.936Z</time>
      </trkpt>
      <trkpt lat="46.54586" lon="4.68458">
        <ele>210.483449</ele>
        <time>2020-10-25T16:43:01.202Z</time>
      </trkpt>
      <trkpt lat="46.54582" lon="4.68294">
        <ele>206.890406</ele>
        <time>2020-10-25T16:43:17.049Z</time>
      </trkpt>
      <trkpt lat="46.54582" lon="4.68289">
        <ele>206.76463</ele>
        <time>2020-10-25T16:43:17.904Z</time>
      </trkpt>
      <trkpt lat="46.54582" lon="4.68255">
        <ele>206.016407</ele>
        <time>2020-10-25T16:43:22.743Z</time>
      </trkpt>
      <trkpt lat="46.5458" lon="4.68207">
        <ele>205.038259</ele>
        <time>2020-10-25T16:43:29.795Z</time>
      </trkpt>
      <trkpt lat="46.5458" lon="4.68174">
        <ele>204.7393</ele>
        <time>2020-10-25T16:43:33.297Z</time>
      </trkpt>
      <trkpt lat="46.54577" lon="4.68086">
        <ele>203.953489</ele>
        <time>2020-10-25T16:43:43.008Z</time>
      </trkpt>
      <trkpt lat="46.54572" lon="4.68053">
        <ele>203.644428</ele>
        <time>2020-10-25T16:43:47.130Z</time>
      </trkpt>
      <trkpt lat="46.54571" lon="4.6805">
        <ele>203.6213</ele>
        <time>2020-10-25T16:43:47.359Z</time>
      </trkpt>
      <trkpt lat="46.5457" lon="4.68048">
        <ele>203.592453</ele>
        <time>2020-10-25T16:43:47.928Z</time>
      </trkpt>
      <trkpt lat="46.54568" lon="4.68044">
        <ele>203.553266</ele>
        <time>2020-10-25T16:43:48.730Z</time>
      </trkpt>
      <trkpt lat="46.54563" lon="4.68037">
        <ele>203.462878</ele>
        <time>2020-10-25T16:43:50.515Z</time>
      </trkpt>
      <trkpt lat="46.54558" lon="4.68032">
        <ele>203.382114</ele>
        <time>2020-10-25T16:43:52.067Z</time>
      </trkpt>
      <trkpt lat="46.54535" lon="4.68017">
        <ele>203.052921</ele>
        <time>2020-10-25T16:43:58.374Z</time>
      </trkpt>
      <trkpt lat="46.54517" lon="4.67992">
        <ele>202.738576</ele>
        <time>2020-10-25T16:44:05.026Z</time>
      </trkpt>
      <trkpt lat="46.54499" lon="4.67945">
        <ele>202.654243</ele>
        <time>2020-10-25T16:44:14.739Z</time>
      </trkpt>
      <trkpt lat="46.54492" lon="4.67899">
        <ele>202.578873</ele>
        <time>2020-10-25T16:44:23.606Z</time>
      </trkpt>
      <trkpt lat="46.54489" lon="4.67892">
        <ele>202.565971</ele>
        <time>2020-10-25T16:44:24.862Z</time>
      </trkpt>
      <trkpt lat="46.54485" lon="4.67888">
        <ele>202.555804</ele>
        <time>2020-10-25T16:44:26.149Z</time>
      </trkpt>
      <trkpt lat="46.54428" lon="4.67882">
        <ele>202.424485</ele>
        <time>2020-10-25T16:44:42.313Z</time>
      </trkpt>
      <trkpt lat="46.54394" lon="4.6786">
        <ele>202.338686</ele>
        <time>2020-10-25T16:44:52.898Z</time>
      </trkpt>
      <trkpt lat="46.5434" lon="4.67854">
        <ele>202.327786</ele>
        <time>2020-10-25T16:45:08.286Z</time>
      </trkpt>
      <trkpt lat="46.54324" lon="4.67843">
        <ele>202.327517</ele>
        <time>2020-10-25T16:45:13.275Z</time>
      </trkpt>
      <trkpt lat="46.54318" lon="4.67825">
        <ele>202.327298</ele>
        <time>2020-10-25T16:45:17.325Z</time>
      </trkpt>
      <trkpt lat="46.5432" lon="4.66991">
        <ele>202.808835</ele>
        <time>2020-10-25T16:47:59.676Z</time>
      </trkpt>
      <trkpt lat="46.54319" lon="4.66968">
        <ele>202.874515</ele>
        <time>2020-10-25T16:48:04.689Z</time>
      </trkpt>
      <trkpt lat="46.54313" lon="4.66959">
        <ele>202.914304</ele>
        <time>2020-10-25T16:48:07.685Z</time>
      </trkpt>
      <trkpt lat="46.53981" lon="4.67154">
        <ele>207.208887</ele>
        <time>2020-10-25T16:50:16.311Z</time>
      </trkpt>
      <trkpt lat="46.53958" lon="4.67161">
        <ele>207.507983</ele>
        <time>2020-10-25T16:50:24.343Z</time>
      </trkpt>
      <trkpt lat="46.5394" lon="4.67159">
        <ele>207.734226</ele>
        <time>2020-10-25T16:50:30.373Z</time>
      </trkpt>
      <trkpt lat="46.53783" lon="4.67124">
        <ele>209.56494</ele>
        <time>2020-10-25T16:51:25.616Z</time>
      </trkpt>
      <trkpt lat="46.53772" lon="4.67122">
        <ele>209.696091</ele>
        <time>2020-10-25T16:51:29.640Z</time>
      </trkpt>
      <trkpt lat="46.53766" lon="4.67074">
        <ele>210.010601</ele>
        <time>2020-10-25T16:51:38.943Z</time>
      </trkpt>
      <trkpt lat="46.53732" lon="4.66862">
        <ele>211.288264</ele>
        <time>2020-10-25T16:52:18.423Z</time>
      </trkpt>
      <trkpt lat="46.53698" lon="4.66691">
        <ele>210.773213</ele>
        <time>2020-10-25T16:52:42.302Z</time>
      </trkpt>
      <trkpt lat="46.5359" lon="4.66208">
        <ele>207.642386</ele>
        <time>2020-10-25T16:53:40.090Z</time>
      </trkpt>
      <trkpt lat="46.53531" lon="4.65944">
        <ele>208.077852</ele>
        <time>2020-10-25T16:54:26.955Z</time>
      </trkpt>
      <trkpt lat="46.53461" lon="4.65634">
        <ele>209.50879</ele>
        <time>2020-10-25T16:55:23.464Z</time>
      </trkpt>
      <trkpt lat="46.5343" lon="4.65494">
        <ele>209.378219</ele>
        <time>2020-10-25T16:55:43.726Z</time>
      </trkpt>
      <trkpt lat="46.5342" lon="4.65435">
        <ele>209.256175</ele>
        <time>2020-10-25T16:55:51.544Z</time>
      </trkpt>
      <trkpt lat="46.53424" lon="4.654">
        <ele>209.18575</ele>
        <time>2020-10-25T16:55:55.897Z</time>
      </trkpt>
      <trkpt lat="46.5345" lon="4.65189">
        <ele>208.677838</ele>
        <time>2020-10-25T16:56:22.801Z</time>
      </trkpt>
      <trkpt lat="46.5351" lon="4.64744">
        <ele>208.562379</ele>
        <time>2020-10-25T16:57:28.825Z</time>
      </trkpt>
      <trkpt lat="46.53516" lon="4.64727">
        <ele>208.562294</ele>
        <time>2020-10-25T16:57:32.126Z</time>
      </trkpt>
      <trkpt lat="46.5352" lon="4.64717">
        <ele>208.562245</ele>
        <time>2020-10-25T16:57:33.861Z</time>
      </trkpt>
      <trkpt lat="46.53523" lon="4.64709">
        <ele>208.562201</ele>
        <time>2020-10-25T16:57:35.404Z</time>
      </trkpt>
      <trkpt lat="46.53532" lon="4.64689">
        <ele>208.562093</ele>
        <time>2020-10-25T16:57:39.054Z</time>
      </trkpt>
      <trkpt lat="46.53533" lon="4.64688">
        <ele>208.562085</ele>
        <time>2020-10-25T16:57:39.346Z</time>
      </trkpt>
      <trkpt lat="46.53549" lon="4.64651">
        <ele>208.561891</ele>
        <time>2020-10-25T16:57:45.496Z</time>
      </trkpt>
      <trkpt lat="46.5356" lon="4.64624">
        <ele>208.561752</ele>
        <time>2020-10-25T16:57:49.790Z</time>
      </trkpt>
      <trkpt lat="46.53578" lon="4.6457">
        <ele>208.329599</ele>
        <time>2020-10-25T16:57:57.565Z</time>
      </trkpt>
      <trkpt lat="46.53593" lon="4.64526">
        <ele>208.040475</ele>
        <time>2020-10-25T16:58:03.781Z</time>
      </trkpt>
      <trkpt lat="46.53596" lon="4.64518">
        <ele>207.989193</ele>
        <time>2020-10-25T16:58:04.796Z</time>
      </trkpt>
      <trkpt lat="46.53606" lon="4.64497">
        <ele>207.838747</ele>
        <time>2020-10-25T16:58:08.051Z</time>
      </trkpt>
      <trkpt lat="46.53616" lon="4.64479">
        <ele>207.705399</ele>
        <time>2020-10-25T16:58:10.666Z</time>
      </trkpt>
      <trkpt lat="46.53627" lon="4.64465">
        <ele>207.582923</ele>
        <time>2020-10-25T16:58:13.274Z</time>
      </trkpt>
      <trkpt lat="46.5364" lon="4.64452">
        <ele>207.448709</ele>
        <time>2020-10-25T16:58:15.903Z</time>
      </trkpt>
      <trkpt lat="46.5366" lon="4.64436">
        <ele>207.250661</ele>
        <time>2020-10-25T16:58:19.897Z</time>
      </trkpt>
      <trkpt lat="46.53682" lon="4.64423">
        <ele>207.054998</ele>
        <time>2020-10-25T16:58:23.663Z</time>
      </trkpt>
      <trkpt lat="46.53708" lon="4.64407">
        <ele>206.806015</ele>
        <time>2020-10-25T16:58:28.358Z</time>
      </trkpt>
      <trkpt lat="46.53751" lon="4.64369">
        <ele>206.374144</ele>
        <time>2020-10-25T16:58:36.484Z</time>
      </trkpt>
      <trkpt lat="46.53776" lon="4.64332">
        <ele>206.067944</ele>
        <time>2020-10-25T16:58:42.359Z</time>
      </trkpt>
      <trkpt lat="46.53794" lon="4.64299">
        <ele>205.815026</ele>
        <time>2020-10-25T16:58:47.502Z</time>
      </trkpt>
      <trkpt lat="46.5383" lon="4.64227">
        <ele>205.986934</ele>
        <time>2020-10-25T16:58:59.632Z</time>
      </trkpt>
      <trkpt lat="46.53868" lon="4.64151">
        <ele>207.512671</ele>
        <time>2020-10-25T16:59:17.626Z</time>
      </trkpt>
      <trkpt lat="46.5384" lon="4.64114">
        <ele>208.402158</ele>
        <time>2020-10-25T16:59:34.050Z</time>
      </trkpt>
      <trkpt lat="46.53832" lon="4.64097">
        <ele>208.721142</ele>
        <time>2020-10-25T16:59:40.632Z</time>
      </trkpt>
      <trkpt lat="46.53829" lon="4.64077">
        <ele>209.058868</ele>
        <time>2020-10-25T16:59:47.663Z</time>
      </trkpt>
      <trkpt lat="46.53815" lon="4.63967">
        <ele>212.618009</ele>
        <time>2020-10-25T17:00:32.303Z</time>
      </trkpt>
      <trkpt lat="46.53811" lon="4.63938">
        <ele>213.800015</ele>
        <time>2020-10-25T17:00:45.555Z</time>
      </trkpt>
      <trkpt lat="46.53811" lon="4.63928">
        <ele>214.213072</ele>
        <time>2020-10-25T17:00:49.221Z</time>
      </trkpt>
      <trkpt lat="46.53811" lon="4.63919">
        <ele>214.550204</ele>
        <time>2020-10-25T17:00:53.369Z</time>
      </trkpt>
      <trkpt lat="46.53805" lon="4.63915">
        <ele>214.983219</ele>
        <time>2020-10-25T17:00:57.838Z</time>
      </trkpt>
      <trkpt lat="46.53793" lon="4.63905">
        <ele>215.780477</ele>
        <time>2020-10-25T17:01:06.024Z</time>
      </trkpt>
      <trkpt lat="46.53781" lon="4.63898">
        <ele>216.510011</ele>
        <time>2020-10-25T17:01:12.352Z</time>
      </trkpt>
      <trkpt lat="46.53758" lon="4.63886">
        <ele>217.931018</ele>
        <time>2020-10-25T17:01:27.171Z</time>
      </trkpt>
      <trkpt lat="46.53749" lon="4.63879">
        <ele>218.547378</ele>
        <time>2020-10-25T17:01:32.465Z</time>
      </trkpt>
      <trkpt lat="46.53738" lon="4.63867">
        <ele>219.345436</ele>
        <time>2020-10-25T17:01:40.801Z</time>
      </trkpt>
      <trkpt lat="46.53737" lon="4.63867">
        <ele>219.383174</ele>
        <time>2020-10-25T17:01:41.788Z</time>
      </trkpt>
      <trkpt lat="46.53701" lon="4.63827">
        <ele>221.183008</ele>
        <time>2020-10-25T17:02:05.131Z</time>
      </trkpt>
      <trkpt lat="46.53676" lon="4.63799">
        <ele>222.215248</ele>
        <time>2020-10-25T17:02:20.611Z</time>
      </trkpt>
      <trkpt lat="46.53674" lon="4.63797">
        <ele>222.290746</ele>
        <time>2020-10-25T17:02:21.594Z</time>
      </trkpt>
      <trkpt lat="46.53641" lon="4.63769">
        <ele>223.560176</ele>
        <time>2020-10-25T17:02:37.350Z</time>
      </trkpt>
      <trkpt lat="46.53622" lon="4.63761">
        <ele>224.186046</ele>
        <time>2020-10-25T17:02:43.568Z</time>
      </trkpt>
      <trkpt lat="46.53615" lon="4.63759">
        <ele>224.422613</ele>
        <time>2020-10-25T17:02:47.177Z</time>
      </trkpt>
      <trkpt lat="46.53605" lon="4.63723">
        <ele>225.285507</ele>
        <time>2020-10-25T17:02:54.180Z</time>
      </trkpt>
      <trkpt lat="46.53598" lon="4.63675">
        <ele>226.020861</ele>
        <time>2020-10-25T17:03:01.997Z</time>
      </trkpt>
      <trkpt lat="46.53598" lon="4.63629">
        <ele>226.066534</ele>
        <time>2020-10-25T17:03:08.381Z</time>
      </trkpt>
      <trkpt lat="46.53593" lon="4.636">
        <ele>226.096957</ele>
        <time>2020-10-25T17:03:12.455Z</time>
      </trkpt>
      <trkpt lat="46.53585" lon="4.63562">
        <ele>226.136979</ele>
        <time>2020-10-25T17:03:18.119Z</time>
      </trkpt>
      <trkpt lat="46.53576" lon="4.63501">
        <ele>226.199555</ele>
        <time>2020-10-25T17:03:26.429Z</time>
      </trkpt>
      <trkpt lat="46.53569" lon="4.63441">
        <ele>226.260584</ele>
        <time>2020-10-25T17:03:34.927Z</time>
      </trkpt>
      <trkpt lat="46.5356" lon="4.63364">
        <ele>226.912775</ele>
        <time>2020-10-25T17:03:47.140Z</time>
      </trkpt>
      <trkpt lat="46.5356" lon="4.63118">
        <ele>228.901173</ele>
        <time>2020-10-25T17:04:39.742Z</time>
      </trkpt>
      <trkpt lat="46.53551" lon="4.63063">
        <ele>229.201332</ele>
        <time>2020-10-25T17:04:51.530Z</time>
      </trkpt>
      <trkpt lat="46.53523" lon="4.62961">
        <ele>229.783569</ele>
        <time>2020-10-25T17:05:09.398Z</time>
      </trkpt>
      <trkpt lat="46.53516" lon="4.62939">
        <ele>229.908361</ele>
        <time>2020-10-25T17:05:12.643Z</time>
      </trkpt>
      <trkpt lat="46.53499" lon="4.62901">
        <ele>229.475761</ele>
        <time>2020-10-25T17:05:18.068Z</time>
      </trkpt>
      <trkpt lat="46.53491" lon="4.6289">
        <ele>229.210679</ele>
        <time>2020-10-25T17:05:20.038Z</time>
      </trkpt>
      <trkpt lat="46.53459" lon="4.62864">
        <ele>228.377442</ele>
        <time>2020-10-25T17:05:25.684Z</time>
      </trkpt>
      <trkpt lat="46.53422" lon="4.62828">
        <ele>227.345537</ele>
        <time>2020-10-25T17:05:32.154Z</time>
      </trkpt>
      <trkpt lat="46.53367" lon="4.62758">
        <ele>225.657652</ele>
        <time>2020-10-25T17:05:42.426Z</time>
      </trkpt>
      <trkpt lat="46.5332" lon="4.62677">
        <ele>223.889565</ele>
        <time>2020-10-25T17:05:52.720Z</time>
      </trkpt>
      <trkpt lat="46.5331" lon="4.62666">
        <ele>223.582427</ele>
        <time>2020-10-25T17:05:54.588Z</time>
      </trkpt>
      <trkpt lat="46.531" lon="4.62276">
        <ele>218.247007</ele>
        <time>2020-10-25T17:06:49.389Z</time>
      </trkpt>
      <trkpt lat="46.53064" lon="4.62221">
        <ele>217.898975</ele>
        <time>2020-10-25T17:06:59.212Z</time>
      </trkpt>
      <trkpt lat="46.52997" lon="4.6214">
        <ele>217.51473</ele>
        <time>2020-10-25T17:07:18.389Z</time>
      </trkpt>
      <trkpt lat="46.52931" lon="4.62062">
        <ele>217.43353</ele>
        <time>2020-10-25T17:07:37.389Z</time>
      </trkpt>
      <trkpt lat="46.5293" lon="4.6206">
        <ele>217.432391</ele>
        <time>2020-10-25T17:07:38.610Z</time>
      </trkpt>
      <trkpt lat="46.52843" lon="4.6192">
        <ele>215.926272</ele>
        <time>2020-10-25T17:08:01.369Z</time>
      </trkpt>
      <trkpt lat="46.52823" lon="4.61878">
        <ele>215.207277</ele>
        <time>2020-10-25T17:08:06.661Z</time>
      </trkpt>
      <trkpt lat="46.52751" lon="4.61635">
        <ele>210.801023</ele>
        <time>2020-10-25T17:08:32.514Z</time>
      </trkpt>
      <trkpt lat="46.52685" lon="4.61471">
        <ele>208.290937</ele>
        <time>2020-10-25T17:08:52.874Z</time>
      </trkpt>
      <trkpt lat="46.5267" lon="4.61424">
        <ele>207.94835</ele>
        <time>2020-10-25T17:08:59.146Z</time>
      </trkpt>
      <trkpt lat="46.52659" lon="4.61382">
        <ele>207.648445</ele>
        <time>2020-10-25T17:09:04.867Z</time>
      </trkpt>
      <trkpt lat="46.52655" lon="4.61227">
        <ele>207.23905</ele>
        <time>2020-10-25T17:09:25.719Z</time>
      </trkpt>
      <trkpt lat="46.52652" lon="4.61177">
        <ele>207.318041</ele>
        <time>2020-10-25T17:09:32.994Z</time>
      </trkpt>
      <trkpt lat="46.52643" lon="4.6113">
        <ele>207.395305</ele>
        <time>2020-10-25T17:09:40.180Z</time>
      </trkpt>
      <trkpt lat="46.52566" lon="4.60919">
        <ele>209.140835</ele>
        <time>2020-10-25T17:10:21.800Z</time>
      </trkpt>
      <trkpt lat="46.52471" lon="4.60569">
        <ele>214.802844</ele>
        <time>2020-10-25T17:11:52.165Z</time>
      </trkpt>
      <trkpt lat="46.52458" lon="4.6054">
        <ele>215.020613</ele>
        <time>2020-10-25T17:12:00.900Z</time>
      </trkpt>
      <trkpt lat="46.5241" lon="4.60465">
        <ele>215.662796</ele>
        <time>2020-10-25T17:12:23.455Z</time>
      </trkpt>
      <trkpt lat="46.52324" lon="4.6031">
        <ele>215.423517</ele>
        <time>2020-10-25T17:12:48.501Z</time>
      </trkpt>
      <trkpt lat="46.52312" lon="4.60287">
        <ele>215.069274</ele>
        <time>2020-10-25T17:12:51.492Z</time>
      </trkpt>
      <trkpt lat="46.52286" lon="4.60202">
        <ele>213.929082</ele>
        <time>2020-10-25T17:13:00.973Z</time>
      </trkpt>
      <trkpt lat="46.52226" lon="4.6">
        <ele>211.558172</ele>
        <time>2020-10-25T17:13:23.887Z</time>
      </trkpt>
      <trkpt lat="46.52196" lon="4.59897">
        <ele>210.620809</ele>
        <time>2020-10-25T17:13:38.058Z</time>
      </trkpt>
      <trkpt lat="46.52189" lon="4.59874">
        <ele>210.831823</ele>
        <time>2020-10-25T17:13:41.695Z</time>
      </trkpt>
      <trkpt lat="46.52186" lon="4.59856">
        <ele>210.990313</ele>
        <time>2020-10-25T17:13:44.486Z</time>
      </trkpt>
      <trkpt lat="46.52179" lon="4.59837">
        <ele>211.172867</ele>
        <time>2020-10-25T17:13:48.170Z</time>
      </trkpt>
      <trkpt lat="46.52164" lon="4.59806">
        <ele>211.494253</ele>
        <time>2020-10-25T17:13:54.978Z</time>
      </trkpt>
      <trkpt lat="46.52136" lon="4.59787">
        <ele>211.87692</ele>
        <time>2020-10-25T17:14:04.070Z</time>
      </trkpt>
      <trkpt lat="46.52101" lon="4.5978">
        <ele>212.310361</ele>
        <time>2020-10-25T17:14:14.658Z</time>
      </trkpt>
      <trkpt lat="46.52109" lon="4.59692">
        <ele>213.358854</ele>
        <time>2020-10-25T17:14:40.392Z</time>
      </trkpt>
      <trkpt lat="46.5211" lon="4.59648">
        <ele>214.096641</ele>
        <time>2020-10-25T17:14:54.055Z</time>
      </trkpt>
      <trkpt lat="46.521" lon="4.59631">
        <ele>214.476318</ele>
        <time>2020-10-25T17:15:00.664Z</time>
      </trkpt>
      <trkpt lat="46.52085" lon="4.59626">
        <ele>214.862394</ele>
        <time>2020-10-25T17:15:08.035Z</time>
      </trkpt>
      <trkpt lat="46.52078" lon="4.59624">
        <ele>215.029215</ele>
        <time>2020-10-25T17:15:10.885Z</time>
      </trkpt>
      <trkpt lat="46.52065" lon="4.59621">
        <ele>215.344263</ele>
        <time>2020-10-25T17:15:16.307Z</time>
      </trkpt>
      <trkpt lat="46.52071" lon="4.59599">
        <ele>215.749533</ele>
        <time>2020-10-25T17:15:23.887Z</time>
      </trkpt>
      <trkpt lat="46.5208" lon="4.59564">
        <ele>216.367959</ele>
        <time>2020-10-25T17:15:34.282Z</time>
      </trkpt>
      <trkpt lat="46.52081" lon="4.59557">
        <ele>216.48755</ele>
        <time>2020-10-25T17:15:36.451Z</time>
      </trkpt>
      <trkpt lat="46.5208" lon="4.59497">
        <ele>217.269629</ele>
        <time>2020-10-25T17:15:52.977Z</time>
      </trkpt>
      <trkpt lat="46.52028" lon="4.59464">
        <ele>217.813498</ele>
        <time>2020-10-25T17:16:12.616Z</time>
      </trkpt>
      <trkpt lat="46.51998" lon="4.59447">
        <ele>218.122436</ele>
        <time>2020-10-25T17:16:23.355Z</time>
      </trkpt>
      <trkpt lat="46.51994" lon="4.59444">
        <ele>218.164724</ele>
        <time>2020-10-25T17:16:24.587Z</time>
      </trkpt>
      <trkpt lat="46.51943" lon="4.59424">
        <ele>218.672777</ele>
        <time>2020-10-25T17:16:40.774Z</time>
      </trkpt>
      <trkpt lat="46.51882" lon="4.5938">
        <ele>219.436604</ele>
        <time>2020-10-25T17:17:01.363Z</time>
      </trkpt>
      <trkpt lat="46.51877" lon="4.59372">
        <ele>219.521914</ele>
        <time>2020-10-25T17:17:03.422Z</time>
      </trkpt>
      <trkpt lat="46.5187" lon="4.59363">
        <ele>219.633111</ele>
        <time>2020-10-25T17:17:06.223Z</time>
      </trkpt>
      <trkpt lat="46.51862" lon="4.5934">
        <ele>219.838559</ele>
        <time>2020-10-25T17:17:12.431Z</time>
      </trkpt>
      <trkpt lat="46.51857" lon="4.59306">
        <ele>220.122726</ele>
        <time>2020-10-25T17:17:20.049Z</time>
      </trkpt>
      <trkpt lat="46.51857" lon="4.5929">
        <ele>220.24827</ele>
        <time>2020-10-25T17:17:24.455Z</time>
      </trkpt>
      <trkpt lat="46.51863" lon="4.5921">
        <ele>220.899618</ele>
        <time>2020-10-25T17:17:45.668Z</time>
      </trkpt>
      <trkpt lat="46.51862" lon="4.59169">
        <ele>221.56745</ele>
        <time>2020-10-25T17:17:58.196Z</time>
      </trkpt>
      <trkpt lat="46.51836" lon="4.59044">
        <ele>223.959077</ele>
        <time>2020-10-25T17:18:37.592Z</time>
      </trkpt>
      <trkpt lat="46.51832" lon="4.59037">
        <ele>224.108121</ele>
        <time>2020-10-25T17:18:40.918Z</time>
      </trkpt>
      <trkpt lat="46.51829" lon="4.5903">
        <ele>224.266901</ele>
        <time>2020-10-25T17:18:43.654Z</time>
      </trkpt>
      <trkpt lat="46.51793" lon="4.58902">
        <ele>226.201967</ele>
        <time>2020-10-25T17:19:16.554Z</time>
      </trkpt>
      <trkpt lat="46.51777" lon="4.58867">
        <ele>226.542923</ele>
        <time>2020-10-25T17:19:25.825Z</time>
      </trkpt>
      <trkpt lat="46.51766" lon="4.58844">
        <ele>226.775714</ele>
        <time>2020-10-25T17:19:32.198Z</time>
      </trkpt>
      <trkpt lat="46.5171" lon="4.58763">
        <ele>227.709662</ele>
        <time>2020-10-25T17:19:49.401Z</time>
      </trkpt>
      <trkpt lat="46.51701" lon="4.58754">
        <ele>227.836297</ele>
        <time>2020-10-25T17:19:51.907Z</time>
      </trkpt>
      <trkpt lat="46.51672" lon="4.5874">
        <ele>227.944009</ele>
        <time>2020-10-25T17:20:00.162Z</time>
      </trkpt>
      <trkpt lat="46.51594" lon="4.58695">
        <ele>228.176735</ele>
        <time>2020-10-25T17:20:22.911Z</time>
      </trkpt>
      <trkpt lat="46.51535" lon="4.58647">
        <ele>228.362086</ele>
        <time>2020-10-25T17:20:42.397Z</time>
      </trkpt>
      <trkpt lat="46.51419" lon="4.58511">
        <ele>232.51758</ele>
        <time>2020-10-25T17:21:46.585Z</time>
      </trkpt>
      <trkpt lat="46.51328" lon="4.58418">
        <ele>236.688866</ele>
        <time>2020-10-25T17:22:47.957Z</time>
      </trkpt>
      <trkpt lat="46.51268" lon="4.58361">
        <ele>239.665346</ele>
        <time>2020-10-25T17:23:25.602Z</time>
      </trkpt>
      <trkpt lat="46.5126" lon="4.58349">
        <ele>240.106398</ele>
        <time>2020-10-25T17:23:31.195Z</time>
      </trkpt>
      <trkpt lat="46.51245" lon="4.58327">
        <ele>240.899555</ele>
        <time>2020-10-25T17:23:41.028Z</time>
      </trkpt>
      <trkpt lat="46.51239" lon="4.58303">
        <ele>241.304104</ele>
        <time>2020-10-25T17:23:49.617Z</time>
      </trkpt>
      <trkpt lat="46.51237" lon="4.58299">
        <ele>241.380091</ele>
        <time>2020-10-25T17:23:50.977Z</time>
      </trkpt>
      <trkpt lat="46.51196" lon="4.58118">
        <ele>244.416624</ele>
        <time>2020-10-25T17:24:44.040Z</time>
      </trkpt>
      <trkpt lat="46.51154" lon="4.57978">
        <ele>246.284075</ele>
        <time>2020-10-25T17:25:22.131Z</time>
      </trkpt>
      <trkpt lat="46.51118" lon="4.5774">
        <ele>248.7725</ele>
        <time>2020-10-25T17:26:25.526Z</time>
      </trkpt>
      <trkpt lat="46.51092" lon="4.57674">
        <ele>249.444083</ele>
        <time>2020-10-25T17:26:44.205Z</time>
      </trkpt>
      <trkpt lat="46.51067" lon="4.57588">
        <ele>250.225503</ele>
        <time>2020-10-25T17:27:05.747Z</time>
      </trkpt>
      <trkpt lat="46.51028" lon="4.57392">
        <ele>251.288877</ele>
        <time>2020-10-25T17:27:50.639Z</time>
      </trkpt>
      <trkpt lat="46.50967" lon="4.57279">
        <ele>252.6925</ele>
        <time>2020-10-25T17:28:23.551Z</time>
      </trkpt>
      <trkpt lat="46.50918" lon="4.57203">
        <ele>253.941787</ele>
        <time>2020-10-25T17:28:51.021Z</time>
      </trkpt>
      <trkpt lat="46.50864" lon="4.57133">
        <ele>255.832781</ele>
        <time>2020-10-25T17:29:23.031Z</time>
      </trkpt>
      <trkpt lat="46.50829" lon="4.57097">
        <ele>257.42679</ele>
        <time>2020-10-25T17:29:42.769Z</time>
      </trkpt>
      <trkpt lat="46.50813" lon="4.57082">
        <ele>258.179295</ele>
        <time>2020-10-25T17:29:52.956Z</time>
      </trkpt>
      <trkpt lat="46.50745" lon="4.57014">
        <ele>261.264163</ele>
        <time>2020-10-25T17:30:35.961Z</time>
      </trkpt>
      <trkpt lat="46.50666" lon="4.56958">
        <ele>264.671888</ele>
        <time>2020-10-25T17:31:23.507Z</time>
      </trkpt>
      <trkpt lat="46.50642" lon="4.56936">
        <ele>265.762511</ele>
        <time>2020-10-25T17:31:36.783Z</time>
      </trkpt>
      <trkpt lat="46.50629" lon="4.56917">
        <ele>266.468344</ele>
        <time>2020-10-25T17:31:46.538Z</time>
      </trkpt>
      <trkpt lat="46.50576" lon="4.56767">
        <ele>270.393787</ele>
        <time>2020-10-25T17:32:39.626Z</time>
      </trkpt>
      <trkpt lat="46.50467" lon="4.5646">
        <ele>278.222023</ele>
        <time>2020-10-25T17:34:25.540Z</time>
      </trkpt>
      <trkpt lat="46.50421" lon="4.56333">
        <ele>282.64193</ele>
        <time>2020-10-25T17:35:20.154Z</time>
      </trkpt>
      <trkpt lat="46.50358" lon="4.56158">
        <ele>290.399258</ele>
        <time>2020-10-25T17:36:45.681Z</time>
      </trkpt>
      <trkpt lat="46.50336" lon="4.56074">
        <ele>293.457638</ele>
        <time>2020-10-25T17:37:23.501Z</time>
      </trkpt>
      <trkpt lat="46.50333" lon="4.56045">
        <ele>294.478802</ele>
        <time>2020-10-25T17:37:33.999Z</time>
      </trkpt>
      <trkpt lat="46.50332" lon="4.56029">
        <ele>295.021137</ele>
        <time>2020-10-25T17:37:41.595Z</time>
      </trkpt>
      <trkpt lat="46.50319" lon="4.55986">
        <ele>296.602071</ele>
        <time>2020-10-25T17:37:58.210Z</time>
      </trkpt>
      <trkpt lat="46.50265" lon="4.55847">
        <ele>301.99634</ele>
        <time>2020-10-25T17:38:53.765Z</time>
      </trkpt>
      <trkpt lat="46.50178" lon="4.55733">
        <ele>307.705136</ele>
        <time>2020-10-25T17:39:58.778Z</time>
      </trkpt>
      <trkpt lat="46.50172" lon="4.55723">
        <ele>308.174138</ele>
        <time>2020-10-25T17:40:05.039Z</time>
      </trkpt>
      <trkpt lat="46.50162" lon="4.55706">
        <ele>309.175329</ele>
        <time>2020-10-25T17:40:14.698Z</time>
      </trkpt>
      <trkpt lat="46.50144" lon="4.55664">
        <ele>311.442712</ele>
        <time>2020-10-25T17:40:37.974Z</time>
      </trkpt>
      <trkpt lat="46.50138" lon="4.55647">
        <ele>312.354123</ele>
        <time>2020-10-25T17:40:47.095Z</time>
      </trkpt>
      <trkpt lat="46.50131" lon="4.5563">
        <ele>313.256889</ele>
        <time>2020-10-25T17:40:57.845Z</time>
      </trkpt>
      <trkpt lat="46.50105" lon="4.55523">
        <ele>318.451656</ele>
        <time>2020-10-25T17:41:53.673Z</time>
      </trkpt>
      <trkpt lat="46.50098" lon="4.55471">
        <ele>320.15083</ele>
        <time>2020-10-25T17:42:16.132Z</time>
      </trkpt>
      <trkpt lat="46.50082" lon="4.55438">
        <ele>320.1877</ele>
        <time>2020-10-25T17:42:32.204Z</time>
      </trkpt>
      <trkpt lat="46.5008" lon="4.55433">
        <ele>320.192623</ele>
        <time>2020-10-25T17:42:34.244Z</time>
      </trkpt>
      <trkpt lat="46.5007" lon="4.55415">
        <ele>320.214269</ele>
        <time>2020-10-25T17:42:38.170Z</time>
      </trkpt>
      <trkpt lat="46.50067" lon="4.55409">
        <ele>320.220932</ele>
        <time>2020-10-25T17:42:39.886Z</time>
      </trkpt>
      <trkpt lat="46.5004" lon="4.55367">
        <ele>320.273572</ele>
        <time>2020-10-25T17:42:50.561Z</time>
      </trkpt>
      <trkpt lat="46.50021" lon="4.55341">
        <ele>320.30836</ele>
        <time>2020-10-25T17:42:56.466Z</time>
      </trkpt>
      <trkpt lat="46.50018" lon="4.55337">
        <ele>320.313592</ele>
        <time>2020-10-25T17:42:57.337Z</time>
      </trkpt>
      <trkpt lat="46.49987" lon="4.55323">
        <ele>320.357368</ele>
        <time>2020-10-25T17:43:04.204Z</time>
      </trkpt>
      <trkpt lat="46.49968" lon="4.55318">
        <ele>320.039356</ele>
        <time>2020-10-25T17:43:08.283Z</time>
      </trkpt>
      <trkpt lat="46.49958" lon="4.55316">
        <ele>319.460029</ele>
        <time>2020-10-25T17:43:10.034Z</time>
      </trkpt>
      <trkpt lat="46.49917" lon="4.55302">
        <ele>317.069863</ele>
        <time>2020-10-25T17:43:17.826Z</time>
      </trkpt>
      <trkpt lat="46.49875" lon="4.55251">
        <ele>313.919271</ele>
        <time>2020-10-25T17:43:27.920Z</time>
      </trkpt>
      <trkpt lat="46.49852" lon="4.55176">
        <ele>310.680589</ele>
        <time>2020-10-25T17:43:38.057Z</time>
      </trkpt>
      <trkpt lat="46.49821" lon="4.54998">
        <ele>303.456704</ele>
        <time>2020-10-25T17:44:01.641Z</time>
      </trkpt>
      <trkpt lat="46.4981" lon="4.5496">
        <ele>301.814652</ele>
        <time>2020-10-25T17:44:07.101Z</time>
      </trkpt>
      <trkpt lat="46.49778" lon="4.54902">
        <ele>298.763035</ele>
        <time>2020-10-25T17:44:16.564Z</time>
      </trkpt>
      <trkpt lat="46.49762" lon="4.54884">
        <ele>297.43845</ele>
        <time>2020-10-25T17:44:20.377Z</time>
      </trkpt>
      <trkpt lat="46.49757" lon="4.54877">
        <ele>296.990925</ele>
        <time>2020-10-25T17:44:21.547Z</time>
      </trkpt>
      <trkpt lat="46.49746" lon="4.54856">
        <ele>295.784774</ele>
        <time>2020-10-25T17:44:24.980Z</time>
      </trkpt>
      <trkpt lat="46.49726" lon="4.54777">
        <ele>291.977555</ele>
        <time>2020-10-25T17:44:35.295Z</time>
      </trkpt>
      <trkpt lat="46.49707" lon="4.54665">
        <ele>286.712995</ele>
        <time>2020-10-25T17:44:49.601Z</time>
      </trkpt>
      <trkpt lat="46.497" lon="4.5465">
        <ele>285.894169</ele>
        <time>2020-10-25T17:44:51.843Z</time>
      </trkpt>
      <trkpt lat="46.49701" lon="4.54634">
        <ele>285.206377</ele>
        <time>2020-10-25T17:44:53.897Z</time>
      </trkpt>
      <trkpt lat="46.49698" lon="4.54622">
        <ele>284.594008</ele>
        <time>2020-10-25T17:44:55.545Z</time>
      </trkpt>
      <trkpt lat="46.49612" lon="4.54451">
        <ele>275.176948</ele>
        <time>2020-10-25T17:45:21.924Z</time>
      </trkpt>
      <trkpt lat="46.496" lon="4.54424">
        <ele>273.975062</ele>
        <time>2020-10-25T17:45:26.112Z</time>
      </trkpt>
      <trkpt lat="46.49592" lon="4.54403">
        <ele>273.067441</ele>
        <time>2020-10-25T17:45:29.285Z</time>
      </trkpt>
      <trkpt lat="46.49575" lon="4.54354">
        <ele>271.024791</ele>
        <time>2020-10-25T17:45:36.380Z</time>
      </trkpt>
      <trkpt lat="46.49557" lon="4.54244">
        <ele>266.785755</ele>
        <time>2020-10-25T17:45:50.992Z</time>
      </trkpt>
      <trkpt lat="46.49537" lon="4.54171">
        <ele>264.143365</ele>
        <time>2020-10-25T17:46:01.212Z</time>
      </trkpt>
      <trkpt lat="46.49512" lon="4.54115">
        <ele>261.954573</ele>
        <time>2020-10-25T17:46:09.976Z</time>
      </trkpt>
      <trkpt lat="46.4951" lon="4.5408">
        <ele>260.806116</ele>
        <time>2020-10-25T17:46:14.580Z</time>
      </trkpt>
      <trkpt lat="46.49515" lon="4.53976">
        <ele>257.424799</ele>
        <time>2020-10-25T17:46:28.530Z</time>
      </trkpt>
      <trkpt lat="46.4951" lon="4.53918">
        <ele>255.877261</ele>
        <time>2020-10-25T17:46:36.415Z</time>
      </trkpt>
      <trkpt lat="46.49494" lon="4.53838">
        <ele>253.689932</ele>
        <time>2020-10-25T17:46:47.573Z</time>
      </trkpt>
      <trkpt lat="46.49458" lon="4.53704">
        <ele>250.182082</ele>
        <time>2020-10-25T17:47:07.629Z</time>
      </trkpt>
      <trkpt lat="46.4944" lon="4.53661">
        <ele>249.300878</ele>
        <time>2020-10-25T17:47:14.848Z</time>
      </trkpt>
      <trkpt lat="46.49441" lon="4.53653">
        <ele>249.17006</ele>
        <time>2020-10-25T17:47:15.614Z</time>
      </trkpt>
      <trkpt lat="46.49445" lon="4.53623">
        <ele>248.633737</ele>
        <time>2020-10-25T17:47:18.688Z</time>
      </trkpt>
      <trkpt lat="46.49446" lon="4.53512">
        <ele>246.700877</ele>
        <time>2020-10-25T17:47:29.831Z</time>
      </trkpt>
      <trkpt lat="46.4944" lon="4.53298">
        <ele>245.98773</ele>
        <time>2020-10-25T17:47:56.238Z</time>
      </trkpt>
      <trkpt lat="46.49436" lon="4.53147">
        <ele>246.858859</ele>
        <time>2020-10-25T17:48:26.554Z</time>
      </trkpt>
      <trkpt lat="46.49436" lon="4.53143">
        <ele>246.901344</ele>
        <time>2020-10-25T17:48:28.079Z</time>
      </trkpt>
      <trkpt lat="46.49434" lon="4.5309">
        <ele>247.561506</ele>
        <time>2020-10-25T17:48:40.402Z</time>
      </trkpt>
      <trkpt lat="46.49429" lon="4.53058">
        <ele>247.97206</ele>
        <time>2020-10-25T17:48:47.989Z</time>
      </trkpt>
      <trkpt lat="46.49419" lon="4.53002">
        <ele>248.699602</ele>
        <time>2020-10-25T17:49:00.920Z</time>
      </trkpt>
      <trkpt lat="46.49419" lon="4.52961">
        <ele>249.15394</ele>
        <time>2020-10-25T17:49:09.973Z</time>
      </trkpt>
      <trkpt lat="46.49431" lon="4.52877">
        <ele>249.114856</ele>
        <time>2020-10-25T17:49:25.312Z</time>
      </trkpt>
      <trkpt lat="46.49431" lon="4.52868">
        <ele>249.110733</ele>
        <time>2020-10-25T17:49:26.999Z</time>
      </trkpt>
      <trkpt lat="46.4943" lon="4.52848">
        <ele>249.101999</ele>
        <time>2020-10-25T17:49:29.350Z</time>
      </trkpt>
      <trkpt lat="46.49353" lon="4.52643">
        <ele>248.566113</ele>
        <time>2020-10-25T17:49:57.266Z</time>
      </trkpt>
      <trkpt lat="46.49334" lon="4.52611">
        <ele>248.349286</ele>
        <time>2020-10-25T17:50:02.171Z</time>
      </trkpt>
      <trkpt lat="46.49296" lon="4.52571">
        <ele>247.996636</ele>
        <time>2020-10-25T17:50:10.375Z</time>
      </trkpt>
      <trkpt lat="46.49247" lon="4.52515">
        <ele>247.959994</ele>
        <time>2020-10-25T17:50:21.825Z</time>
      </trkpt>
      <trkpt lat="46.49231" lon="4.52497">
        <ele>248.208891</ele>
        <time>2020-10-25T17:50:26.626Z</time>
      </trkpt>
      <trkpt lat="46.49172" lon="4.52406">
        <ele>249.275733</ele>
        <time>2020-10-25T17:50:49.493Z</time>
      </trkpt>
      <trkpt lat="46.49154" lon="4.5237">
        <ele>249.655171</ele>
        <time>2020-10-25T17:50:59.220Z</time>
      </trkpt>
      <trkpt lat="46.49151" lon="4.52361">
        <ele>249.745546</ele>
        <time>2020-10-25T17:51:01.666Z</time>
      </trkpt>
      <trkpt lat="46.49148" lon="4.52355">
        <ele>249.805512</ele>
        <time>2020-10-25T17:51:03.993Z</time>
      </trkpt>
      <trkpt lat="46.49135" lon="4.52256">
        <ele>252.519088</ele>
        <time>2020-10-25T17:51:31.113Z</time>
      </trkpt>
      <trkpt lat="46.49137" lon="4.52168">
        <ele>255.143068</ele>
        <time>2020-10-25T17:51:59.680Z</time>
      </trkpt>
      <trkpt lat="46.49143" lon="4.52138">
        <ele>256.051875</ele>
        <time>2020-10-25T17:52:11.133Z</time>
      </trkpt>
      <trkpt lat="46.49177" lon="4.52027">
        <ele>260.228665</ele>
        <time>2020-10-25T17:52:53.057Z</time>
      </trkpt>
      <trkpt lat="46.49186" lon="4.51995">
        <ele>261.521422</ele>
        <time>2020-10-25T17:53:05.405Z</time>
      </trkpt>
      <trkpt lat="46.49213" lon="4.51846">
        <ele>267.351244</ele>
        <time>2020-10-25T17:54:01.195Z</time>
      </trkpt>
      <trkpt lat="46.49224" lon="4.51692">
        <ele>273.571845</ele>
        <time>2020-10-25T17:54:55.913Z</time>
      </trkpt>
      <trkpt lat="46.49245" lon="4.51538">
        <ele>280.005177</ele>
        <time>2020-10-25T17:55:56.190Z</time>
      </trkpt>
      <trkpt lat="46.49247" lon="4.51517">
        <ele>280.939223</ele>
        <time>2020-10-25T17:56:04.686Z</time>
      </trkpt>
      <trkpt lat="46.49247" lon="4.51497">
        <ele>281.778373</ele>
        <time>2020-10-25T17:56:12.347Z</time>
      </trkpt>
      <trkpt lat="46.49237" lon="4.51363">
        <ele>287.601566</ele>
        <time>2020-10-25T17:57:04.034Z</time>
      </trkpt>
      <trkpt lat="46.49256" lon="4.51228">
        <ele>293.694918</ele>
        <time>2020-10-25T17:57:57.676Z</time>
      </trkpt>
      <trkpt lat="46.49258" lon="4.51181">
        <ele>295.780698</ele>
        <time>2020-10-25T17:58:14.293Z</time>
      </trkpt>
      <trkpt lat="46.49257" lon="4.51172">
        <ele>296.200363</ele>
        <time>2020-10-25T17:58:19.229Z</time>
      </trkpt>
      <trkpt lat="46.49256" lon="4.51159">
        <ele>296.763591</ele>
        <time>2020-10-25T17:58:23.649Z</time>
      </trkpt>
      <trkpt lat="46.49252" lon="4.5114">
        <ele>297.650798</ele>
        <time>2020-10-25T17:58:30.447Z</time>
      </trkpt>
      <trkpt lat="46.49206" lon="4.50858">
        <ele>312.157148</ele>
        <time>2020-10-25T18:00:32.391Z</time>
      </trkpt>
      <trkpt lat="46.49184" lon="4.50745">
        <ele>318.670558</ele>
        <time>2020-10-25T18:01:29.257Z</time>
      </trkpt>
      <trkpt lat="46.4916" lon="4.50674">
        <ele>323.227214</ele>
        <time>2020-10-25T18:02:07.987Z</time>
      </trkpt>
      <trkpt lat="46.4912" lon="4.50619">
        <ele>327.860858</ele>
        <time>2020-10-25T18:02:46.840Z</time>
      </trkpt>
      <trkpt lat="46.49095" lon="4.50605">
        <ele>329.996076</ele>
        <time>2020-10-25T18:03:02.104Z</time>
      </trkpt>
      <trkpt lat="46.49087" lon="4.50604">
        <ele>330.506585</ele>
        <time>2020-10-25T18:03:09.803Z</time>
      </trkpt>
      <trkpt lat="46.49071" lon="4.50608">
        <ele>331.479839</ele>
        <time>2020-10-25T18:03:18.333Z</time>
      </trkpt>
      <trkpt lat="46.48993" lon="4.50643">
        <ele>336.31562</ele>
        <time>2020-10-25T18:04:01.720Z</time>
      </trkpt>
      <trkpt lat="46.48971" lon="4.5065">
        <ele>337.63512</ele>
        <time>2020-10-25T18:04:14.483Z</time>
      </trkpt>
      <trkpt lat="46.48956" lon="4.50647">
        <ele>338.577296</ele>
        <time>2020-10-25T18:04:21.598Z</time>
      </trkpt>
      <trkpt lat="46.48934" lon="4.50639">
        <ele>339.881576</ele>
        <time>2020-10-25T18:04:33.995Z</time>
      </trkpt>
      <trkpt lat="46.48891" lon="4.50601">
        <ele>342.349817</ele>
        <time>2020-10-25T18:04:55.142Z</time>
      </trkpt>
      <trkpt lat="46.48868" lon="4.5055">
        <ele>344.29221</ele>
        <time>2020-10-25T18:05:13.734Z</time>
      </trkpt>
      <trkpt lat="46.48864" lon="4.50531">
        <ele>344.908417</ele>
        <time>2020-10-25T18:05:20.093Z</time>
      </trkpt>
      <trkpt lat="46.48859" lon="4.50495">
        <ele>346.083879</ele>
        <time>2020-10-25T18:05:32.122Z</time>
      </trkpt>
      <trkpt lat="46.48864" lon="4.5043">
        <ele>348.150728</ele>
        <time>2020-10-25T18:05:53.168Z</time>
      </trkpt>
      <trkpt lat="46.48929" lon="4.50239">
        <ele>355.747712</ele>
        <time>2020-10-25T18:07:06.478Z</time>
      </trkpt>
      <trkpt lat="46.49006" lon="4.50103">
        <ele>362.16961</ele>
        <time>2020-10-25T18:08:08.968Z</time>
      </trkpt>
      <trkpt lat="46.49048" lon="4.50015">
        <ele>366.075395</ele>
        <time>2020-10-25T18:08:46.365Z</time>
      </trkpt>
      <trkpt lat="46.49063" lon="4.49996">
        <ele>367.098766</ele>
        <time>2020-10-25T18:08:56.056Z</time>
      </trkpt>
      <trkpt lat="46.49194" lon="4.49887">
        <ele>374.243792</ele>
        <time>2020-10-25T18:10:07.704Z</time>
      </trkpt>
      <trkpt lat="46.49198" lon="4.49842">
        <ele>375.732227</ele>
        <time>2020-10-25T18:10:21.917Z</time>
      </trkpt>
      <trkpt lat="46.49188" lon="4.49738">
        <ele>379.047865</ele>
        <time>2020-10-25T18:10:54.571Z</time>
      </trkpt>
      <trkpt lat="46.49229" lon="4.49454">
        <ele>388.560543</ele>
        <time>2020-10-25T18:12:28.327Z</time>
      </trkpt>
      <trkpt lat="46.4925" lon="4.4937">
        <ele>391.623099</ele>
        <time>2020-10-25T18:12:58.273Z</time>
      </trkpt>
      <trkpt lat="46.49306" lon="4.49233">
        <ele>397.878842</ele>
        <time>2020-10-25T18:13:56.388Z</time>
      </trkpt>
      <trkpt lat="46.49332" lon="4.49168">
        <ele>400.974487</ele>
        <time>2020-10-25T18:14:24.421Z</time>
      </trkpt>
      <trkpt lat="46.49338" lon="4.4915">
        <ele>401.831665</ele>
        <time>2020-10-25T18:14:31.704Z</time>
      </trkpt>
      <trkpt lat="46.49344" lon="4.49134">
        <ele>402.569282</ele>
        <time>2020-10-25T18:14:37.907Z</time>
      </trkpt>
      <trkpt lat="46.49348" lon="4.49116">
        <ele>403.346243</ele>
        <time>2020-10-25T18:14:45.575Z</time>
      </trkpt>
      <trkpt lat="46.49367" lon="4.48937">
        <ele>412.151418</ele>
        <time>2020-10-25T18:16:01.035Z</time>
      </trkpt>
      <trkpt lat="46.49381" lon="4.48875">
        <ele>415.427985</ele>
        <time>2020-10-25T18:16:30.041Z</time>
      </trkpt>
      <trkpt lat="46.49395" lon="4.48826">
        <ele>417.956627</ele>
        <time>2020-10-25T18:16:52.211Z</time>
      </trkpt>
      <trkpt lat="46.49416" lon="4.48752">
        <ele>421.695252</ele>
        <time>2020-10-25T18:17:27.803Z</time>
      </trkpt>
      <trkpt lat="46.49418" lon="4.48709">
        <ele>423.719956</ele>
        <time>2020-10-25T18:17:47.187Z</time>
      </trkpt>
      <trkpt lat="46.49371" lon="4.48587">
        <ele>429.641831</ele>
        <time>2020-10-25T18:18:40.830Z</time>
      </trkpt>
      <trkpt lat="46.49358" lon="4.48542">
        <ele>430.53609</ele>
        <time>2020-10-25T18:18:55.124Z</time>
      </trkpt>
      <trkpt lat="46.49343" lon="4.48477">
        <ele>431.773078</ele>
        <time>2020-10-25T18:19:11.666Z</time>
      </trkpt>
      <trkpt lat="46.4934" lon="4.48456">
        <ele>432.162953</ele>
        <time>2020-10-25T18:19:16.672Z</time>
      </trkpt>
      <trkpt lat="46.4934" lon="4.48437">
        <ele>432.508351</ele>
        <time>2020-10-25T18:19:20.706Z</time>
      </trkpt>
      <trkpt lat="46.49341" lon="4.48421">
        <ele>432.803854</ele>
        <time>2020-10-25T18:19:24.004Z</time>
      </trkpt>
      <trkpt lat="46.49344" lon="4.48387">
        <ele>433.428715</ele>
        <time>2020-10-25T18:19:30.864Z</time>
      </trkpt>
      <trkpt lat="46.49343" lon="4.48319">
        <ele>433.77507</ele>
        <time>2020-10-25T18:19:41.985Z</time>
      </trkpt>
      <trkpt lat="46.49289" lon="4.47639">
        <ele>427.367774</ele>
        <time>2020-10-25T18:21:01.029Z</time>
      </trkpt>
      <trkpt lat="46.49285" lon="4.47619">
        <ele>427.036685</ele>
        <time>2020-10-25T18:21:02.979Z</time>
      </trkpt>
      <trkpt lat="46.49277" lon="4.47599">
        <ele>426.674411</ele>
        <time>2020-10-25T18:21:04.999Z</time>
      </trkpt>
      <trkpt lat="46.49238" lon="4.47513">
        <ele>423.771419</ele>
        <time>2020-10-25T18:21:14.289Z</time>
      </trkpt>
      <trkpt lat="46.49208" lon="4.47471">
        <ele>421.862726</ele>
        <time>2020-10-25T18:21:19.759Z</time>
      </trkpt>
      <trkpt lat="46.49183" lon="4.47459">
        <ele>420.700251</ele>
        <time>2020-10-25T18:21:23.017Z</time>
      </trkpt>
      <trkpt lat="46.49046" lon="4.47423">
        <ele>417.188821</ele>
        <time>2020-10-25T18:21:43.509Z</time>
      </trkpt>
      <trkpt lat="46.49038" lon="4.47426">
        <ele>417.08352</ele>
        <time>2020-10-25T18:21:44.874Z</time>
      </trkpt>
      <trkpt lat="46.49031" lon="4.47419">
        <ele>416.981865</ele>
        <time>2020-10-25T18:21:46.569Z</time>
      </trkpt>
      <trkpt lat="46.49021" lon="4.47414">
        <ele>416.86269</ele>
        <time>2020-10-25T18:21:48.415Z</time>
      </trkpt>
      <trkpt lat="46.49002" lon="4.4741">
        <ele>416.616219</ele>
        <time>2020-10-25T18:21:52.391Z</time>
      </trkpt>
      <trkpt lat="46.48892" lon="4.47388">
        <ele>416.476384</ele>
        <time>2020-10-25T18:22:19.643Z</time>
      </trkpt>
      <trkpt lat="46.48858" lon="4.47374">
        <ele>416.734581</ele>
        <time>2020-10-25T18:22:30.127Z</time>
      </trkpt>
      <trkpt lat="46.48805" lon="4.4733">
        <ele>417.17861</ele>
        <time>2020-10-25T18:22:44.907Z</time>
      </trkpt>
      <trkpt lat="46.48694" lon="4.47194">
        <ele>418.043426</ele>
        <time>2020-10-25T18:23:15.611Z</time>
      </trkpt>
      <trkpt lat="46.48645" lon="4.47154">
        <ele>418.362487</ele>
        <time>2020-10-25T18:23:29.438Z</time>
      </trkpt>
      <trkpt lat="46.48511" lon="4.47051">
        <ele>422.819609</ele>
        <time>2020-10-25T18:24:25.781Z</time>
      </trkpt>
      <trkpt lat="46.48467" lon="4.47016">
        <ele>424.545591</ele>
        <time>2020-10-25T18:24:48.177Z</time>
      </trkpt>
      <trkpt lat="46.48448" lon="4.47">
        <ele>425.492551</ele>
        <time>2020-10-25T18:24:58.435Z</time>
      </trkpt>
      <trkpt lat="46.4839" lon="4.46947">
        <ele>428.329986</ele>
        <time>2020-10-25T18:25:29.507Z</time>
      </trkpt>
      <trkpt lat="46.48314" lon="4.46846">
        <ele>432.064595</ele>
        <time>2020-10-25T18:26:15.419Z</time>
      </trkpt>
      <trkpt lat="46.48257" lon="4.46769">
        <ele>434.070279</ele>
        <time>2020-10-25T18:26:43.338Z</time>
      </trkpt>
      <trkpt lat="46.48245" lon="4.46752">
        <ele>434.495138</ele>
        <time>2020-10-25T18:26:48.505Z</time>
      </trkpt>
      <trkpt lat="46.48224" lon="4.46706">
        <ele>435.473776</ele>
        <time>2020-10-25T18:27:00.213Z</time>
      </trkpt>
      <trkpt lat="46.48223" lon="4.46687">
        <ele>435.754264</ele>
        <time>2020-10-25T18:27:04.296Z</time>
      </trkpt>
      <trkpt lat="46.48226" lon="4.46671">
        <ele>435.69991</ele>
        <time>2020-10-25T18:27:07.355Z</time>
      </trkpt>
      <trkpt lat="46.48229" lon="4.46661">
        <ele>435.664146</ele>
        <time>2020-10-25T18:27:09.238Z</time>
      </trkpt>
      <trkpt lat="46.48272" lon="4.46564">
        <ele>435.288468</ele>
        <time>2020-10-25T18:27:25.605Z</time>
      </trkpt>
      <trkpt lat="46.48279" lon="4.46521">
        <ele>435.141537</ele>
        <time>2020-10-25T18:27:30.598Z</time>
      </trkpt>
      <trkpt lat="46.4828" lon="4.46445">
        <ele>434.839056</ele>
        <time>2020-10-25T18:27:38.845Z</time>
      </trkpt>
      <trkpt lat="46.48279" lon="4.46409">
        <ele>434.19849</ele>
        <time>2020-10-25T18:27:42.825Z</time>
      </trkpt>
      <trkpt lat="46.48278" lon="4.4638">
        <ele>433.693026</ele>
        <time>2020-10-25T18:27:45.848Z</time>
      </trkpt>
      <trkpt lat="46.48268" lon="4.46257">
        <ele>431.531996</ele>
        <time>2020-10-25T18:27:58.685Z</time>
      </trkpt>
      <trkpt lat="46.4827" lon="4.46216">
        <ele>430.813535</ele>
        <time>2020-10-25T18:28:02.800Z</time>
      </trkpt>
      <trkpt lat="46.48351" lon="4.45898">
        <ele>421.108027</ele>
        <time>2020-10-25T18:28:34.674Z</time>
      </trkpt>
      <trkpt lat="46.48351" lon="4.45884">
        <ele>420.566402</ele>
        <time>2020-10-25T18:28:35.928Z</time>
      </trkpt>
      <trkpt lat="46.4835" lon="4.45868">
        <ele>419.957918</ele>
        <time>2020-10-25T18:28:37.304Z</time>
      </trkpt>
      <trkpt lat="46.48299" lon="4.45543">
        <ele>406.829849</ele>
        <time>2020-10-25T18:29:06.893Z</time>
      </trkpt>
      <trkpt lat="46.48296" lon="4.45534">
        <ele>406.430535</ele>
        <time>2020-10-25T18:29:07.724Z</time>
      </trkpt>
      <trkpt lat="46.48293" lon="4.45522">
        <ele>405.875355</ele>
        <time>2020-10-25T18:29:08.961Z</time>
      </trkpt>
      <trkpt lat="46.48236" lon="4.45331">
        <ele>398.520169</ele>
        <time>2020-10-25T18:29:27.605Z</time>
      </trkpt>
      <trkpt lat="46.48231" lon="4.45309">
        <ele>397.778602</ele>
        <time>2020-10-25T18:29:29.851Z</time>
      </trkpt>
      <trkpt lat="46.48228" lon="4.45289">
        <ele>397.124818</ele>
        <time>2020-10-25T18:29:31.759Z</time>
      </trkpt>
      <trkpt lat="46.48223" lon="4.45215">
        <ele>394.732131</ele>
        <time>2020-10-25T18:29:38.943Z</time>
      </trkpt>
      <trkpt lat="46.48225" lon="4.45097">
        <ele>391.837225</ele>
        <time>2020-10-25T18:29:49.992Z</time>
      </trkpt>
      <trkpt lat="46.48235" lon="4.45007">
        <ele>389.719744</ele>
        <time>2020-10-25T18:29:58.925Z</time>
      </trkpt>
      <trkpt lat="46.4826" lon="4.44896">
        <ele>387.343454</ele>
        <time>2020-10-25T18:30:10.669Z</time>
      </trkpt>
      <trkpt lat="46.48283" lon="4.44794">
        <ele>385.619306</ele>
        <time>2020-10-25T18:30:21.793Z</time>
      </trkpt>
      <trkpt lat="46.48288" lon="4.4477">
        <ele>385.219798</ele>
        <time>2020-10-25T18:30:24.427Z</time>
      </trkpt>
      <trkpt lat="46.48312" lon="4.44664">
        <ele>383.546749</ele>
        <time>2020-10-25T18:30:36.228Z</time>
      </trkpt>
      <trkpt lat="46.48351" lon="4.44488">
        <ele>381.296438</ele>
        <time>2020-10-25T18:30:55.989Z</time>
      </trkpt>
      <trkpt lat="46.48354" lon="4.44475">
        <ele>381.130105</ele>
        <time>2020-10-25T18:30:57.598Z</time>
      </trkpt>
      <trkpt lat="46.48356" lon="4.44459">
        <ele>380.936116</ele>
        <time>2020-10-25T18:30:59.295Z</time>
      </trkpt>
      <trkpt lat="46.48356" lon="4.44443">
        <ele>380.744843</ele>
        <time>2020-10-25T18:31:01.063Z</time>
      </trkpt>
      <trkpt lat="46.48337" lon="4.44327">
        <ele>380.282797</ele>
        <time>2020-10-25T18:31:15.400Z</time>
      </trkpt>
      <trkpt lat="46.4833" lon="4.44286">
        <ele>380.13005</ele>
        <time>2020-10-25T18:31:20.705Z</time>
      </trkpt>
      <trkpt lat="46.48277" lon="4.44022">
        <ele>379.669945</ele>
        <time>2020-10-25T18:32:02.152Z</time>
      </trkpt>
      <trkpt lat="46.48276" lon="4.44001">
        <ele>379.659008</ele>
        <time>2020-10-25T18:32:05.195Z</time>
      </trkpt>
      <trkpt lat="46.48278" lon="4.43996">
        <ele>379.656202</ele>
        <time>2020-10-25T18:32:06.283Z</time>
      </trkpt>
      <trkpt lat="46.48268" lon="4.43987">
        <ele>379.647521</ele>
        <time>2020-10-25T18:32:08.254Z</time>
      </trkpt>
      <trkpt lat="46.48258" lon="4.43976">
        <ele>379.637619</ele>
        <time>2020-10-25T18:32:10.611Z</time>
      </trkpt>
      <trkpt lat="46.48252" lon="4.4397">
        <ele>379.632269</ele>
        <time>2020-10-25T18:32:11.965Z</time>
      </trkpt>
      <trkpt lat="46.48247" lon="4.43964">
        <ele>379.627624</ele>
        <time>2020-10-25T18:32:13.421Z</time>
      </trkpt>
      <trkpt lat="46.4822" lon="4.43935">
        <ele>379.151928</ele>
        <time>2020-10-25T18:32:19.255Z</time>
      </trkpt>
      <trkpt lat="46.48203" lon="4.43915">
        <ele>378.771569</ele>
        <time>2020-10-25T18:32:22.864Z</time>
      </trkpt>
      <trkpt lat="46.48195" lon="4.43905">
        <ele>378.600642</ele>
        <time>2020-10-25T18:32:24.610Z</time>
      </trkpt>
      <trkpt lat="46.48191" lon="4.43898">
        <ele>378.485706</ele>
        <time>2020-10-25T18:32:25.941Z</time>
      </trkpt>
      <trkpt lat="46.48188" lon="4.4389">
        <ele>378.387097</ele>
        <time>2020-10-25T18:32:26.787Z</time>
      </trkpt>
      <trkpt lat="46.48186" lon="4.43884">
        <ele>378.299897</ele>
        <time>2020-10-25T18:32:27.449Z</time>
      </trkpt>
      <trkpt lat="46.48148" lon="4.43698">
        <ele>376.345205</ele>
        <time>2020-10-25T18:32:47.872Z</time>
      </trkpt>
      <trkpt lat="46.48145" lon="4.43684">
        <ele>376.27348</ele>
        <time>2020-10-25T18:32:49.232Z</time>
      </trkpt>
      <trkpt lat="46.48141" lon="4.43655">
        <ele>376.131317</ele>
        <time>2020-10-25T18:32:53.114Z</time>
      </trkpt>
      <trkpt lat="46.48138" lon="4.43642">
        <ele>376.065098</ele>
        <time>2020-10-25T18:32:54.568Z</time>
      </trkpt>
      <trkpt lat="46.48124" lon="4.43584">
        <ele>375.765625</ele>
        <time>2020-10-25T18:33:01.945Z</time>
      </trkpt>
      <trkpt lat="46.48119" lon="4.43558">
        <ele>375.634533</ele>
        <time>2020-10-25T18:33:06.441Z</time>
      </trkpt>
      <trkpt lat="46.48115" lon="4.43535">
        <ele>375.517962</ele>
        <time>2020-10-25T18:33:09.232Z</time>
      </trkpt>
      <trkpt lat="46.48111" lon="4.43513">
        <ele>375.406448</ele>
        <time>2020-10-25T18:33:13.501Z</time>
      </trkpt>
      <trkpt lat="46.48104" lon="4.43478">
        <ele>375.47518</ele>
        <time>2020-10-25T18:33:18.590Z</time>
      </trkpt>
      <trkpt lat="46.48069" lon="4.43296">
        <ele>378.063353</ele>
        <time>2020-10-25T18:34:02.849Z</time>
      </trkpt>
      <trkpt lat="46.48063" lon="4.43264">
        <ele>378.514693</ele>
        <time>2020-10-25T18:34:10.884Z</time>
      </trkpt>
      <trkpt lat="46.48057" lon="4.43233">
        <ele>378.935003</ele>
        <time>2020-10-25T18:34:18.587Z</time>
      </trkpt>
      <trkpt lat="46.48041" lon="4.4315">
        <ele>379.810572</ele>
        <time>2020-10-25T18:34:38.134Z</time>
      </trkpt>
      <trkpt lat="46.48024" lon="4.43065">
        <ele>380.709635</ele>
        <time>2020-10-25T18:34:56.864Z</time>
      </trkpt>
      <trkpt lat="46.47926" lon="4.42562">
        <ele>382.421867</ele>
        <time>2020-10-25T18:36:17.753Z</time>
      </trkpt>
      <trkpt lat="46.47919" lon="4.4253">
        <ele>382.477622</ele>
        <time>2020-10-25T18:36:22.628Z</time>
      </trkpt>
      <trkpt lat="46.47892" lon="4.42391">
        <ele>383.417492</ele>
        <time>2020-10-25T18:36:43.722Z</time>
      </trkpt>
      <trkpt lat="46.47853" lon="4.4219">
        <ele>386.130963</ele>
        <time>2020-10-25T18:37:28.586Z</time>
      </trkpt>
      <trkpt lat="46.47842" lon="4.42133">
        <ele>387.752481</ele>
        <time>2020-10-25T18:37:46.059Z</time>
      </trkpt>
      <trkpt lat="46.47823" lon="4.42038">
        <ele>390.488126</ele>
        <time>2020-10-25T18:38:18.637Z</time>
      </trkpt>
      <trkpt lat="46.47808" lon="4.41964">
        <ele>392.600265</ele>
        <time>2020-10-25T18:38:45.178Z</time>
      </trkpt>
      <trkpt lat="46.47779" lon="4.41822">
        <ele>396.606214</ele>
        <time>2020-10-25T18:39:31.095Z</time>
      </trkpt>
      <trkpt lat="46.47765" lon="4.41751">
        <ele>398.602144</ele>
        <time>2020-10-25T18:39:50.616Z</time>
      </trkpt>
      <trkpt lat="46.47744" lon="4.41697">
        <ele>399.903494</ele>
        <time>2020-10-25T18:40:05.563Z</time>
      </trkpt>
      <trkpt lat="46.47624" lon="4.41468">
        <ele>404.692315</ele>
        <time>2020-10-25T18:41:15.242Z</time>
      </trkpt>
      <trkpt lat="46.4757" lon="4.41365">
        <ele>406.246837</ele>
        <time>2020-10-25T18:41:45.409Z</time>
      </trkpt>
      <trkpt lat="46.47418" lon="4.41068">
        <ele>405.880576</ele>
        <time>2020-10-25T18:42:37.288Z</time>
      </trkpt>
      <trkpt lat="46.47281" lon="4.40808">
        <ele>398.756955</ele>
        <time>2020-10-25T18:43:09.468Z</time>
      </trkpt>
      <trkpt lat="46.47251" lon="4.4075">
        <ele>396.469949</ele>
        <time>2020-10-25T18:43:16.021Z</time>
      </trkpt>
      <trkpt lat="46.47192" lon="4.4064">
        <ele>391.832482</ele>
        <time>2020-10-25T18:43:28.333Z</time>
      </trkpt>
      <trkpt lat="46.47026" lon="4.40323">
        <ele>380.430816</ele>
        <time>2020-10-25T18:44:04.782Z</time>
      </trkpt>
      <trkpt lat="46.46787" lon="4.39945">
        <ele>383.320594</ele>
        <time>2020-10-25T18:45:46.630Z</time>
      </trkpt>
      <trkpt lat="46.46711" lon="4.39822">
        <ele>384.157775</ele>
        <time>2020-10-25T18:46:22.288Z</time>
      </trkpt>
      <trkpt lat="46.46486" lon="4.39457">
        <ele>382.030853</ele>
        <time>2020-10-25T18:47:21.262Z</time>
      </trkpt>
      <trkpt lat="46.46372" lon="4.39274">
        <ele>378.554563</ele>
        <time>2020-10-25T18:47:48.234Z</time>
      </trkpt>
      <trkpt lat="46.46257" lon="4.3909">
        <ele>371.459173</ele>
        <time>2020-10-25T18:48:11.320Z</time>
      </trkpt>
      <trkpt lat="46.46243" lon="4.39068">
        <ele>370.206486</ele>
        <time>2020-10-25T18:48:13.921Z</time>
      </trkpt>
      <trkpt lat="46.45991" lon="4.38659">
        <ele>346.618082</ele>
        <time>2020-10-25T18:49:01.974Z</time>
      </trkpt>
      <trkpt lat="46.45989" lon="4.38656">
        <ele>346.441217</ele>
        <time>2020-10-25T18:49:02.394Z</time>
      </trkpt>
      <trkpt lat="46.4582" lon="4.38382">
        <ele>333.987345</ele>
        <time>2020-10-25T18:49:35.824Z</time>
      </trkpt>
      <trkpt lat="46.45729" lon="4.38235">
        <ele>331.011712</ele>
        <time>2020-10-25T18:49:56.307Z</time>
      </trkpt>
      <trkpt lat="46.45718" lon="4.38218">
        <ele>330.811304</ele>
        <time>2020-10-25T18:49:59.170Z</time>
      </trkpt>
      <trkpt lat="46.45485" lon="4.37839">
        <ele>329.723276</ele>
        <time>2020-10-25T18:51:16.342Z</time>
      </trkpt>
      <trkpt lat="46.45481" lon="4.37833">
        <ele>329.690427</ele>
        <time>2020-10-25T18:51:17.372Z</time>
      </trkpt>
      <trkpt lat="46.45313" lon="4.3756">
        <ele>326.395743</ele>
        <time>2020-10-25T18:51:57.440Z</time>
      </trkpt>
      <trkpt lat="46.45287" lon="4.37517">
        <ele>325.669011</ele>
        <time>2020-10-25T18:52:03.951Z</time>
      </trkpt>
      <trkpt lat="46.45267" lon="4.37485">
        <ele>325.125953</ele>
        <time>2020-10-25T18:52:09.032Z</time>
      </trkpt>
      <trkpt lat="46.45233" lon="4.37428">
        <ele>324.168641</ele>
        <time>2020-10-25T18:52:17.143Z</time>
      </trkpt>
      <trkpt lat="46.45201" lon="4.37375">
        <ele>323.284201</ele>
        <time>2020-10-25T18:52:24.617Z</time>
      </trkpt>
      <trkpt lat="46.45196" lon="4.37366">
        <ele>323.128975</ele>
        <time>2020-10-25T18:52:25.897Z</time>
      </trkpt>
      <trkpt lat="46.45193" lon="4.37357">
        <ele>322.932041</ele>
        <time>2020-10-25T18:52:26.795Z</time>
      </trkpt>
      <trkpt lat="46.45187" lon="4.37327">
        <ele>322.258438</ele>
        <time>2020-10-25T18:52:30.120Z</time>
      </trkpt>
      <trkpt lat="46.45174" lon="4.37235">
        <ele>320.254386</ele>
        <time>2020-10-25T18:52:39.201Z</time>
      </trkpt>
      <trkpt lat="46.45171" lon="4.37214">
        <ele>319.797735</ele>
        <time>2020-10-25T18:52:41.268Z</time>
      </trkpt>
      <trkpt lat="46.45159" lon="4.37129">
        <ele>317.944083</ele>
        <time>2020-10-25T18:52:49.570Z</time>
      </trkpt>
      <trkpt lat="46.45151" lon="4.37068">
        <ele>316.966616</ele>
        <time>2020-10-25T18:52:55.839Z</time>
      </trkpt>
      <trkpt lat="46.45149" lon="4.37057">
        <ele>316.824935</ele>
        <time>2020-10-25T18:52:56.853Z</time>
      </trkpt>
      <trkpt lat="46.45148" lon="4.37044">
        <ele>316.653007</ele>
        <time>2020-10-25T18:52:58.295Z</time>
      </trkpt>
      <trkpt lat="46.45147" lon="4.3703">
        <ele>316.467441</ele>
        <time>2020-10-25T18:52:59.812Z</time>
      </trkpt>
      <trkpt lat="46.45146" lon="4.37016">
        <ele>316.287461</ele>
        <time>2020-10-25T18:53:01.323Z</time>
      </trkpt>
      <trkpt lat="46.45146" lon="4.37001">
        <ele>316.09361</ele>
        <time>2020-10-25T18:53:02.777Z</time>
      </trkpt>
      <trkpt lat="46.45158" lon="4.36863">
        <ele>314.298321</ele>
        <time>2020-10-25T18:53:19.195Z</time>
      </trkpt>
      <trkpt lat="46.45157" lon="4.36799">
        <ele>313.432131</ele>
        <time>2020-10-25T18:53:26.472Z</time>
      </trkpt>
      <trkpt lat="46.45155" lon="4.36777">
        <ele>313.112596</ele>
        <time>2020-10-25T18:53:28.987Z</time>
      </trkpt>
      <trkpt lat="46.45154" lon="4.3676">
        <ele>312.884453</ele>
        <time>2020-10-25T18:53:30.841Z</time>
      </trkpt>
      <trkpt lat="46.45155" lon="4.36745">
        <ele>312.676991</ele>
        <time>2020-10-25T18:53:32.444Z</time>
      </trkpt>
      <trkpt lat="46.45157" lon="4.36733">
        <ele>312.508226</ele>
        <time>2020-10-25T18:53:33.730Z</time>
      </trkpt>
      <trkpt lat="46.4516" lon="4.36729">
        <ele>312.425645</ele>
        <time>2020-10-25T18:53:34.355Z</time>
      </trkpt>
      <trkpt lat="46.45163" lon="4.36712">
        <ele>312.183645</ele>
        <time>2020-10-25T18:53:36.187Z</time>
      </trkpt>
      <trkpt lat="46.45162" lon="4.36706">
        <ele>312.100028</ele>
        <time>2020-10-25T18:53:36.872Z</time>
      </trkpt>
      <trkpt lat="46.4516" lon="4.36703">
        <ele>312.041742</ele>
        <time>2020-10-25T18:53:37.304Z</time>
      </trkpt>
      <trkpt lat="46.45158" lon="4.36699">
        <ele>311.983102</ele>
        <time>2020-10-25T18:53:37.731Z</time>
      </trkpt>
      <trkpt lat="46.45155" lon="4.36696">
        <ele>311.897922</ele>
        <time>2020-10-25T18:53:38.355Z</time>
      </trkpt>
      <trkpt lat="46.45151" lon="4.36694">
        <ele>311.815477</ele>
        <time>2020-10-25T18:53:38.992Z</time>
      </trkpt>
      <trkpt lat="46.45147" lon="4.36694">
        <ele>311.73126</ele>
        <time>2020-10-25T18:53:39.606Z</time>
      </trkpt>
      <trkpt lat="46.45137" lon="4.36691">
        <ele>311.529382</ele>
        <time>2020-10-25T18:53:41.079Z</time>
      </trkpt>
      <trkpt lat="46.45128" lon="4.36685">
        <ele>311.345962</ele>
        <time>2020-10-25T18:53:42.480Z</time>
      </trkpt>
      <trkpt lat="46.45118" lon="4.36676">
        <ele>311.097733</ele>
        <time>2020-10-25T18:53:44.227Z</time>
      </trkpt>
      <trkpt lat="46.4505" lon="4.36586">
        <ele>309.770122</ele>
        <time>2020-10-25T18:53:57.848Z</time>
      </trkpt>
      <trkpt lat="46.45046" lon="4.36578">
        <ele>309.6894</ele>
        <time>2020-10-25T18:53:58.899Z</time>
      </trkpt>
      <trkpt lat="46.45043" lon="4.3657">
        <ele>309.614377</ele>
        <time>2020-10-25T18:53:59.876Z</time>
      </trkpt>
      <trkpt lat="46.45041" lon="4.36561">
        <ele>309.539556</ele>
        <time>2020-10-25T18:54:00.808Z</time>
      </trkpt>
      <trkpt lat="46.45041" lon="4.36554">
        <ele>309.484317</ele>
        <time>2020-10-25T18:54:01.512Z</time>
      </trkpt>
      <trkpt lat="46.45038" lon="4.36542">
        <ele>309.37678</ele>
        <time>2020-10-25T18:54:02.912Z</time>
      </trkpt>
      <trkpt lat="46.45034" lon="4.36538">
        <ele>309.321561</ele>
        <time>2020-10-25T18:54:03.675Z</time>
      </trkpt>
      <trkpt lat="46.4503" lon="4.36536">
        <ele>309.267598</ele>
        <time>2020-10-25T18:54:04.444Z</time>
      </trkpt>
      <trkpt lat="46.45027" lon="4.36535">
        <ele>309.232685</ele>
        <time>2020-10-25T18:54:04.936Z</time>
      </trkpt>
      <trkpt lat="46.45024" lon="4.36536">
        <ele>309.197927</ele>
        <time>2020-10-25T18:54:05.429Z</time>
      </trkpt>
      <trkpt lat="46.45018" lon="4.36532">
        <ele>309.116983</ele>
        <time>2020-10-25T18:54:06.514Z</time>
      </trkpt>
      <trkpt lat="46.45013" lon="4.36526">
        <ele>309.03745</ele>
        <time>2020-10-25T18:54:07.711Z</time>
      </trkpt>
      <trkpt lat="46.45006" lon="4.36516">
        <ele>308.928247</ele>
        <time>2020-10-25T18:54:09.260Z</time>
      </trkpt>
      <trkpt lat="46.44993" lon="4.36486">
        <ele>308.634404</ele>
        <time>2020-10-25T18:54:14.323Z</time>
      </trkpt>
      <trkpt lat="46.44975" lon="4.36427">
        <ele>309.156044</ele>
        <time>2020-10-25T18:54:26.055Z</time>
      </trkpt>
      <trkpt lat="46.4497" lon="4.36372">
        <ele>310.40089</ele>
        <time>2020-10-25T18:54:39.153Z</time>
      </trkpt>
      <trkpt lat="46.44993" lon="4.36155">
        <ele>314.8103</ele>
        <time>2020-10-25T18:55:47.730Z</time>
      </trkpt>
      <trkpt lat="46.44996" lon="4.3613">
        <ele>315.122453</ele>
        <time>2020-10-25T18:55:55.462Z</time>
      </trkpt>
      <trkpt lat="46.44998" lon="4.36115">
        <ele>315.318174</ele>
        <time>2020-10-25T18:55:58.853Z</time>
      </trkpt>
      <trkpt lat="46.44999" lon="4.36084">
        <ele>315.706202</ele>
        <time>2020-10-25T18:56:06.661Z</time>
      </trkpt>
      <trkpt lat="46.44998" lon="4.36047">
        <ele>316.162738</ele>
        <time>2020-10-25T18:56:13.762Z</time>
      </trkpt>
      <trkpt lat="46.44985" lon="4.35953">
        <ele>317.355867</ele>
        <time>2020-10-25T18:56:29.893Z</time>
      </trkpt>
      <trkpt lat="46.44956" lon="4.35763">
        <ele>315.345738</ele>
        <time>2020-10-25T18:56:50.799Z</time>
      </trkpt>
      <trkpt lat="46.44952" lon="4.35735">
        <ele>315.030862</ele>
        <time>2020-10-25T18:56:53.649Z</time>
      </trkpt>
      <trkpt lat="46.44887" lon="4.35314">
        <ele>310.115769</ele>
        <time>2020-10-25T18:57:40.762Z</time>
      </trkpt>
      <trkpt lat="46.44854" lon="4.35096">
        <ele>308.119198</ele>
        <time>2020-10-25T18:58:06.336Z</time>
      </trkpt>
      <trkpt lat="46.44738" lon="4.34353">
        <ele>303.527946</ele>
        <time>2020-10-25T18:59:36.402Z</time>
      </trkpt>
      <trkpt lat="46.4472" lon="4.34236">
        <ele>303.996338</ele>
        <time>2020-10-25T18:59:58.558Z</time>
      </trkpt>
      <trkpt lat="46.44688" lon="4.34042">
        <ele>304.505378</ele>
        <time>2020-10-25T19:00:37.390Z</time>
      </trkpt>
      <trkpt lat="46.44686" lon="4.34027">
        <ele>304.532109</ele>
        <time>2020-10-25T19:00:39.865Z</time>
      </trkpt>
      <trkpt lat="46.44668" lon="4.33918">
        <ele>304.727436</ele>
        <time>2020-10-25T19:00:54.152Z</time>
      </trkpt>
      <trkpt lat="46.44644" lon="4.33774">
        <ele>303.426812</ele>
        <time>2020-10-25T19:01:10.177Z</time>
      </trkpt>
      <trkpt lat="46.44635" lon="4.33722">
        <ele>302.918775</ele>
        <time>2020-10-25T19:01:15.746Z</time>
      </trkpt>
      <trkpt lat="46.44591" lon="4.33465">
        <ele>302.908161</ele>
        <time>2020-10-25T19:01:49.636Z</time>
      </trkpt>
      <trkpt lat="46.44581" lon="4.33406">
        <ele>303.106638</ele>
        <time>2020-10-25T19:02:04.184Z</time>
      </trkpt>
      <trkpt lat="46.44568" lon="4.3333">
        <ele>305.160977</ele>
        <time>2020-10-25T19:02:26.528Z</time>
      </trkpt>
      <trkpt lat="46.44525" lon="4.33074">
        <ele>311.063922</ele>
        <time>2020-10-25T19:03:50.967Z</time>
      </trkpt>
      <trkpt lat="46.44514" lon="4.33004">
        <ele>311.734738</ele>
        <time>2020-10-25T19:04:06.280Z</time>
      </trkpt>
      <trkpt lat="46.44457" lon="4.32664">
        <ele>312.340655</ele>
        <time>2020-10-25T19:04:46.718Z</time>
      </trkpt>
      <trkpt lat="46.44422" lon="4.32464">
        <ele>317.50356</ele>
        <time>2020-10-25T19:05:46.799Z</time>
      </trkpt>
      <trkpt lat="46.44384" lon="4.32232">
        <ele>323.757488</ele>
        <time>2020-10-25T19:07:16.552Z</time>
      </trkpt>
      <trkpt lat="46.44322" lon="4.31862">
        <ele>325.65261</ele>
        <time>2020-10-25T19:08:13.069Z</time>
      </trkpt>
      <trkpt lat="46.44308" lon="4.31781">
        <ele>323.973741</ele>
        <time>2020-10-25T19:08:21.267Z</time>
      </trkpt>
      <trkpt lat="46.44305" lon="4.31764">
        <ele>323.632623</ele>
        <time>2020-10-25T19:08:22.930Z</time>
      </trkpt>
      <trkpt lat="46.44271" lon="4.31566">
        <ele>319.768952</ele>
        <time>2020-10-25T19:08:42.468Z</time>
      </trkpt>
      <trkpt lat="46.44227" lon="4.31307">
        <ele>316.494997</ele>
        <time>2020-10-25T19:09:10.921Z</time>
      </trkpt>
      <trkpt lat="46.44224" lon="4.3129">
        <ele>316.492506</ele>
        <time>2020-10-25T19:09:13.055Z</time>
      </trkpt>
      <trkpt lat="46.44229" lon="4.31287">
        <ele>316.491504</ele>
        <time>2020-10-25T19:09:14.116Z</time>
      </trkpt>
      <trkpt lat="46.44232" lon="4.31282">
        <ele>316.490478</ele>
        <time>2020-10-25T19:09:15.188Z</time>
      </trkpt>
      <trkpt lat="46.44234" lon="4.31276">
        <ele>316.489459</ele>
        <time>2020-10-25T19:09:16.323Z</time>
      </trkpt>
      <trkpt lat="46.44235" lon="4.31269">
        <ele>316.488436</ele>
        <time>2020-10-25T19:09:17.453Z</time>
      </trkpt>
      <trkpt lat="46.44234" lon="4.31262">
        <ele>316.487421</ele>
        <time>2020-10-25T19:09:18.437Z</time>
      </trkpt>
      <trkpt lat="46.44223" lon="4.31249">
        <ele>316.484334</ele>
        <time>2020-10-25T19:09:21.443Z</time>
      </trkpt>
      <trkpt lat="46.44218" lon="4.31249">
        <ele>316.483263</ele>
        <time>2020-10-25T19:09:22.656Z</time>
      </trkpt>
      <trkpt lat="46.44207" lon="4.31182">
        <ele>316.47334</ele>
        <time>2020-10-25T19:09:34.493Z</time>
      </trkpt>
      <trkpt lat="46.44164" lon="4.3093">
        <ele>319.129346</ele>
        <time>2020-10-25T19:10:30.600Z</time>
      </trkpt>
      <trkpt lat="46.4416" lon="4.30912">
        <ele>319.357659</ele>
        <time>2020-10-25T19:10:34.954Z</time>
      </trkpt>
      <trkpt lat="46.44155" lon="4.30893">
        <ele>319.611436</ele>
        <time>2020-10-25T19:10:39.238Z</time>
      </trkpt>
      <trkpt lat="46.44149" lon="4.30872">
        <ele>319.710075</ele>
        <time>2020-10-25T19:10:44.169Z</time>
      </trkpt>
      <trkpt lat="46.44128" lon="4.30802">
        <ele>319.918559</ele>
        <time>2020-10-25T19:10:58.911Z</time>
      </trkpt>
      <trkpt lat="46.44112" lon="4.30712">
        <ele>320.172397</ele>
        <time>2020-10-25T19:11:14.798Z</time>
      </trkpt>
      <trkpt lat="46.44111" lon="4.30689">
        <ele>320.235348</ele>
        <time>2020-10-25T19:11:18.202Z</time>
      </trkpt>
      <trkpt lat="46.44108" lon="4.30645">
        <ele>320.356246</ele>
        <time>2020-10-25T19:11:23.705Z</time>
      </trkpt>
      <trkpt lat="46.44108" lon="4.3062">
        <ele>319.945048</ele>
        <time>2020-10-25T19:11:26.444Z</time>
      </trkpt>
      <trkpt lat="46.44107" lon="4.30609">
        <ele>319.675776</ele>
        <time>2020-10-25T19:11:27.617Z</time>
      </trkpt>
      <trkpt lat="46.44103" lon="4.30582">
        <ele>319.042359</ele>
        <time>2020-10-25T19:11:30.449Z</time>
      </trkpt>
      <trkpt lat="46.44086" lon="4.30468">
        <ele>316.366746</ele>
        <time>2020-10-25T19:11:41.704Z</time>
      </trkpt>
      <trkpt lat="46.44078" lon="4.30424">
        <ele>315.300024</ele>
        <time>2020-10-25T19:11:45.977Z</time>
      </trkpt>
      <trkpt lat="46.44072" lon="4.30387">
        <ele>314.424523</ele>
        <time>2020-10-25T19:11:49.436Z</time>
      </trkpt>
      <trkpt lat="46.44042" lon="4.30208">
        <ele>308.779069</ele>
        <time>2020-10-25T19:12:06.310Z</time>
      </trkpt>
      <trkpt lat="46.44035" lon="4.30152">
        <ele>307.0296</ele>
        <time>2020-10-25T19:12:11.597Z</time>
      </trkpt>
      <trkpt lat="46.44033" lon="4.30132">
        <ele>306.410838</ele>
        <time>2020-10-25T19:12:13.507Z</time>
      </trkpt>
      <trkpt lat="46.44035" lon="4.301">
        <ele>306.000636</ele>
        <time>2020-10-25T19:12:16.706Z</time>
      </trkpt>
      <trkpt lat="46.44036" lon="4.3009">
        <ele>305.890101</ele>
        <time>2020-10-25T19:12:17.699Z</time>
      </trkpt>
      <trkpt lat="46.4404" lon="4.30085">
        <ele>305.815985</ele>
        <time>2020-10-25T19:12:18.388Z</time>
      </trkpt>
      <trkpt lat="46.44043" lon="4.30078">
        <ele>305.729768</ele>
        <time>2020-10-25T19:12:19.172Z</time>
      </trkpt>
      <trkpt lat="46.44044" lon="4.3007">
        <ele>305.643364</ele>
        <time>2020-10-25T19:12:19.970Z</time>
      </trkpt>
      <trkpt lat="46.44044" lon="4.30062">
        <ele>305.55717</ele>
        <time>2020-10-25T19:12:20.824Z</time>
      </trkpt>
      <trkpt lat="46.44041" lon="4.30052">
        <ele>305.438366</ele>
        <time>2020-10-25T19:12:22.039Z</time>
      </trkpt>
      <trkpt lat="46.44036" lon="4.30045">
        <ele>305.336077</ele>
        <time>2020-10-25T19:12:23.019Z</time>
      </trkpt>
      <trkpt lat="46.4403" lon="4.30041">
        <ele>305.232918</ele>
        <time>2020-10-25T19:12:24.032Z</time>
      </trkpt>
      <trkpt lat="46.44025" lon="4.30039">
        <ele>305.153734</ele>
        <time>2020-10-25T19:12:24.804Z</time>
      </trkpt>
      <trkpt lat="46.44022" lon="4.30032">
        <ele>305.062389</ele>
        <time>2020-10-25T19:12:25.701Z</time>
      </trkpt>
      <trkpt lat="46.44013" lon="4.30004">
        <ele>304.719571</ele>
        <time>2020-10-25T19:12:29.471Z</time>
      </trkpt>
      <trkpt lat="46.44008" lon="4.2999">
        <ele>304.556963</ele>
        <time>2020-10-25T19:12:31.170Z</time>
      </trkpt>
      <trkpt lat="46.44004" lon="4.29973">
        <ele>304.357438</ele>
        <time>2020-10-25T19:12:33.675Z</time>
      </trkpt>
      <trkpt lat="46.43999" lon="4.29952">
        <ele>304.119928</ele>
        <time>2020-10-25T19:12:36.409Z</time>
      </trkpt>
      <trkpt lat="46.43988" lon="4.29889">
        <ele>303.528113</ele>
        <time>2020-10-25T19:12:45.274Z</time>
      </trkpt>
      <trkpt lat="46.43984" lon="4.29861">
        <ele>303.601444</ele>
        <time>2020-10-25T19:12:50.076Z</time>
      </trkpt>
      <trkpt lat="46.43981" lon="4.29846">
        <ele>303.6415</ele>
        <time>2020-10-25T19:12:52.461Z</time>
      </trkpt>
      <trkpt lat="46.43978" lon="4.29831">
        <ele>303.681239</ele>
        <time>2020-10-25T19:12:54.671Z</time>
      </trkpt>
      <trkpt lat="46.43948" lon="4.29649">
        <ele>304.163875</ele>
        <time>2020-10-25T19:13:28.193Z</time>
      </trkpt>
      <trkpt lat="46.43741" lon="4.28415">
        <ele>295.451256</ele>
        <time>2020-10-25T19:15:58.420Z</time>
      </trkpt>
      <trkpt lat="46.43738" lon="4.28397">
        <ele>295.284882</ele>
        <time>2020-10-25T19:16:00.436Z</time>
      </trkpt>
      <trkpt lat="46.43729" lon="4.28345">
        <ele>294.417809</ele>
        <time>2020-10-25T19:16:05.984Z</time>
      </trkpt>
      <trkpt lat="46.43723" lon="4.28308">
        <ele>293.59852</ele>
        <time>2020-10-25T19:16:09.867Z</time>
      </trkpt>
      <trkpt lat="46.43722" lon="4.28296">
        <ele>293.333109</ele>
        <time>2020-10-25T19:16:11.139Z</time>
      </trkpt>
      <trkpt lat="46.43719" lon="4.28263">
        <ele>292.612542</ele>
        <time>2020-10-25T19:16:14.486Z</time>
      </trkpt>
      <trkpt lat="46.43717" lon="4.28155">
        <ele>290.280292</ele>
        <time>2020-10-25T19:16:24.870Z</time>
      </trkpt>
      <trkpt lat="46.43732" lon="4.28057">
        <ele>288.352272</ele>
        <time>2020-10-25T19:16:34.274Z</time>
      </trkpt>
      <trkpt lat="46.43729" lon="4.28024">
        <ele>287.746931</ele>
        <time>2020-10-25T19:16:37.614Z</time>
      </trkpt>
      <trkpt lat="46.43721" lon="4.27999">
        <ele>287.26165</ele>
        <time>2020-10-25T19:16:40.216Z</time>
      </trkpt>
      <trkpt lat="46.43714" lon="4.27989">
        <ele>287.008648</ele>
        <time>2020-10-25T19:16:41.675Z</time>
      </trkpt>
      <trkpt lat="46.43692" lon="4.27971">
        <ele>286.350213</ele>
        <time>2020-10-25T19:16:45.403Z</time>
      </trkpt>
      <trkpt lat="46.43679" lon="4.27962">
        <ele>285.974086</ele>
        <time>2020-10-25T19:16:47.938Z</time>
      </trkpt>
      <trkpt lat="46.43669" lon="4.27952">
        <ele>285.654566</ele>
        <time>2020-10-25T19:16:49.789Z</time>
      </trkpt>
      <trkpt lat="46.4366" lon="4.2794">
        <ele>285.342248</ele>
        <time>2020-10-25T19:16:51.631Z</time>
      </trkpt>
      <trkpt lat="46.43649" lon="4.27895">
        <ele>284.763087</ele>
        <time>2020-10-25T19:16:57.053Z</time>
      </trkpt>
      <trkpt lat="46.43648" lon="4.27889">
        <ele>284.75669</ele>
        <time>2020-10-25T19:16:57.840Z</time>
      </trkpt>
      <trkpt lat="46.43648" lon="4.27884">
        <ele>284.751227</ele>
        <time>2020-10-25T19:16:58.847Z</time>
      </trkpt>
      <trkpt lat="46.43643" lon="4.27867">
        <ele>284.733284</ele>
        <time>2020-10-25T19:17:01.146Z</time>
      </trkpt>
      <trkpt lat="46.43639" lon="4.27866">
        <ele>284.727722</ele>
        <time>2020-10-25T19:17:01.743Z</time>
      </trkpt>
      <trkpt lat="46.43638" lon="4.27858">
        <ele>284.720069</ele>
        <time>2020-10-25T19:17:02.621Z</time>
      </trkpt>
      <trkpt lat="46.43637" lon="4.27848">
        <ele>284.70999</ele>
        <time>2020-10-25T19:17:03.769Z</time>
      </trkpt>
      <trkpt lat="46.43631" lon="4.27814">
        <ele>284.675175</ele>
        <time>2020-10-25T19:17:09.167Z</time>
      </trkpt>
      <trkpt lat="46.43631" lon="4.27801">
        <ele>284.663013</ele>
        <time>2020-10-25T19:17:10.934Z</time>
      </trkpt>
      <trkpt lat="46.43633" lon="4.27796">
        <ele>284.656506</ele>
        <time>2020-10-25T19:17:11.805Z</time>
      </trkpt>
      <trkpt lat="46.43633" lon="4.27784">
        <ele>284.644991</ele>
        <time>2020-10-25T19:17:14.619Z</time>
      </trkpt>
      <trkpt lat="46.43608" lon="4.27645">
        <ele>284.410061</ele>
        <time>2020-10-25T19:17:36.586Z</time>
      </trkpt>
      <trkpt lat="46.43603" lon="4.27632">
        <ele>284.311609</ele>
        <time>2020-10-25T19:17:39.766Z</time>
      </trkpt>
      <trkpt lat="46.43598" lon="4.27618">
        <ele>284.214013</ele>
        <time>2020-10-25T19:17:41.622Z</time>
      </trkpt>
      <trkpt lat="46.43593" lon="4.27609">
        <ele>284.142048</ele>
        <time>2020-10-25T19:17:42.968Z</time>
      </trkpt>
      <trkpt lat="46.43591" lon="4.27604">
        <ele>284.104155</ele>
        <time>2020-10-25T19:17:43.721Z</time>
      </trkpt>
      <trkpt lat="46.43587" lon="4.276">
        <ele>284.062061</ele>
        <time>2020-10-25T19:17:44.702Z</time>
      </trkpt>
      <trkpt lat="46.43557" lon="4.27575">
        <ele>283.744397</ele>
        <time>2020-10-25T19:17:50.906Z</time>
      </trkpt>
      <trkpt lat="46.43553" lon="4.27572">
        <ele>283.705729</ele>
        <time>2020-10-25T19:17:51.727Z</time>
      </trkpt>
      <trkpt lat="46.43538" lon="4.27558">
        <ele>283.544465</ele>
        <time>2020-10-25T19:17:54.643Z</time>
      </trkpt>
      <trkpt lat="46.43534" lon="4.27551">
        <ele>283.488599</ele>
        <time>2020-10-25T19:17:55.593Z</time>
      </trkpt>
      <trkpt lat="46.43525" lon="4.27533">
        <ele>283.343499</ele>
        <time>2020-10-25T19:17:58.359Z</time>
      </trkpt>
      <trkpt lat="46.43522" lon="4.27528">
        <ele>283.308274</ele>
        <time>2020-10-25T19:17:58.916Z</time>
      </trkpt>
      <trkpt lat="46.4348" lon="4.27482">
        <ele>282.877497</ele>
        <time>2020-10-25T19:18:07.132Z</time>
      </trkpt>
      <trkpt lat="46.43454" lon="4.27448">
        <ele>282.86318</ele>
        <time>2020-10-25T19:18:12.701Z</time>
      </trkpt>
      <trkpt lat="46.43436" lon="4.27424">
        <ele>282.853308</ele>
        <time>2020-10-25T19:18:16.725Z</time>
      </trkpt>
      <trkpt lat="46.43449" lon="4.27404">
        <ele>282.845596</ele>
        <time>2020-10-25T19:18:20.541Z</time>
      </trkpt>
      <trkpt lat="46.43454" lon="4.27395">
        <ele>282.842393</ele>
        <time>2020-10-25T19:18:22.138Z</time>
      </trkpt>
      <trkpt lat="46.43463" lon="4.27382">
        <ele>282.837321</ele>
        <time>2020-10-25T19:18:24.583Z</time>
      </trkpt>
      <trkpt lat="46.43464" lon="4.2738">
        <ele>282.836386</ele>
        <time>2020-10-25T19:18:25.245Z</time>
      </trkpt>
      <trkpt lat="46.43466" lon="4.27377">
        <ele>282.83549</ele>
        <time>2020-10-25T19:18:25.879Z</time>
      </trkpt>
      <trkpt lat="46.43471" lon="4.2737">
        <ele>282.832551</ele>
        <time>2020-10-25T19:18:27.881Z</time>
      </trkpt>
      <trkpt lat="46.43477" lon="4.27364">
        <ele>282.82947</ele>
        <time>2020-10-25T19:18:29.835Z</time>
      </trkpt>
      <trkpt lat="46.43484" lon="4.2736">
        <ele>282.826482</ele>
        <time>2020-10-25T19:18:31.528Z</time>
      </trkpt>
      <trkpt lat="46.4349" lon="4.27356">
        <ele>282.823865</ele>
        <time>2020-10-25T19:18:33.053Z</time>
      </trkpt>
      <trkpt lat="46.43507" lon="4.27348">
        <ele>282.816455</ele>
        <time>2020-10-25T19:18:38.367Z</time>
      </trkpt>
      <trkpt lat="46.4352" lon="4.2734">
        <ele>282.811007</ele>
        <time>2020-10-25T19:18:41.758Z</time>
      </trkpt>
      <trkpt lat="46.43526" lon="4.27335">
        <ele>282.808188</ele>
        <time>2020-10-25T19:18:43.683Z</time>
      </trkpt>
      <trkpt lat="46.43537" lon="4.27324">
        <ele>283.175879</ele>
        <time>2020-10-25T19:18:48.144Z</time>
      </trkpt>
      <trkpt lat="46.43541" lon="4.2732">
        <ele>283.3424</ele>
        <time>2020-10-25T19:18:49.500Z</time>
      </trkpt>
      <trkpt lat="46.43554" lon="4.27307">
        <ele>283.903497</ele>
        <time>2020-10-25T19:18:53.861Z</time>
      </trkpt>
      <trkpt lat="46.43577" lon="4.27285">
        <ele>284.897489</ele>
        <time>2020-10-25T19:19:03.535Z</time>
      </trkpt>
      <trkpt lat="46.43584" lon="4.27278">
        <ele>285.217385</ele>
        <time>2020-10-25T19:19:06.877Z</time>
      </trkpt>
      <trkpt lat="46.43591" lon="4.27271">
        <ele>285.535876</ele>
        <time>2020-10-25T19:19:10.175Z</time>
      </trkpt>
      <trkpt lat="46.436" lon="4.27262">
        <ele>285.930167</ele>
        <time>2020-10-25T19:19:14.085Z</time>
      </trkpt>
      <trkpt lat="46.43598" lon="4.27257">
        <ele>286.074332</ele>
        <time>2020-10-25T19:19:15.631Z</time>
      </trkpt>
      <trkpt lat="46.43595" lon="4.27245">
        <ele>286.396705</ele>
        <time>2020-10-25T19:19:20.181Z</time>
      </trkpt>
      <trkpt lat="46.4358" lon="4.27199">
        <ele>287.63723</ele>
        <time>2020-10-25T19:19:35.797Z</time>
      </trkpt>
      <trkpt lat="46.43564" lon="4.2715">
        <ele>288.993757</ele>
        <time>2020-10-25T19:19:55.623Z</time>
      </trkpt>
      <trkpt lat="46.43556" lon="4.27122">
        <ele>290.012064</ele>
        <time>2020-10-25T19:20:06.018Z</time>
      </trkpt>
      <trkpt lat="46.43552" lon="4.27109">
        <ele>290.582526</ele>
        <time>2020-10-25T19:20:10.739Z</time>
      </trkpt>
      <trkpt lat="46.43546" lon="4.27099">
        <ele>291.070511</ele>
        <time>2020-10-25T19:20:16.688Z</time>
      </trkpt>
      <trkpt lat="46.43529" lon="4.27083">
        <ele>292.245719</ele>
        <time>2020-10-25T19:20:25.442Z</time>
      </trkpt>
      <trkpt lat="46.43519" lon="4.27079">
        <ele>292.795507</ele>
        <time>2020-10-25T19:20:29.996Z</time>
      </trkpt>
      <trkpt lat="46.43516" lon="4.27079">
        <ele>292.973568</ele>
        <time>2020-10-25T19:20:33.095Z</time>
      </trkpt>
      <trkpt lat="46.43389" lon="4.27044">
        <ele>299.939493</ele>
        <time>2020-10-25T19:21:43.136Z</time>
      </trkpt>
      <trkpt lat="46.43345" lon="4.27016">
        <ele>301.549295</ele>
        <time>2020-10-25T19:22:06.112Z</time>
      </trkpt>
      <trkpt lat="46.43335" lon="4.27007">
        <ele>301.934722</ele>
        <time>2020-10-25T19:22:12.559Z</time>
      </trkpt>
      <trkpt lat="46.4333" lon="4.26999">
        <ele>302.189154</ele>
        <time>2020-10-25T19:22:15.357Z</time>
      </trkpt>
      <trkpt lat="46.43326" lon="4.2699">
        <ele>302.429825</ele>
        <time>2020-10-25T19:22:17.506Z</time>
      </trkpt>
      <trkpt lat="46.43319" lon="4.26973">
        <ele>302.875864</ele>
        <time>2020-10-25T19:22:22.943Z</time>
      </trkpt>
      <trkpt lat="46.43316" lon="4.26966">
        <ele>303.074196</ele>
        <time>2020-10-25T19:22:26.089Z</time>
      </trkpt>
      <trkpt lat="46.43312" lon="4.26956">
        <ele>303.334537</ele>
        <time>2020-10-25T19:22:28.852Z</time>
      </trkpt>
      <trkpt lat="46.43275" lon="4.26832">
        <ele>305.08598</ele>
        <time>2020-10-25T19:22:55.184Z</time>
      </trkpt>
      <trkpt lat="46.43239" lon="4.26746">
        <ele>304.285274</ele>
        <time>2020-10-25T19:23:06.893Z</time>
      </trkpt>
      <trkpt lat="46.43227" lon="4.26713">
        <ele>303.988326</ele>
        <time>2020-10-25T19:23:10.831Z</time>
      </trkpt>
      <trkpt lat="46.4322" lon="4.2669">
        <ele>303.791763</ele>
        <time>2020-10-25T19:23:13.278Z</time>
      </trkpt>
      <trkpt lat="46.43203" lon="4.26612">
        <ele>302.833147</ele>
        <time>2020-10-25T19:23:21.819Z</time>
      </trkpt>
      <trkpt lat="46.43199" lon="4.26584">
        <ele>302.27403</ele>
        <time>2020-10-25T19:23:24.679Z</time>
      </trkpt>
      <trkpt lat="46.43189" lon="4.26518">
        <ele>300.988759</ele>
        <time>2020-10-25T19:23:31.430Z</time>
      </trkpt>
      <trkpt lat="46.43186" lon="4.26503">
        <ele>300.685137</ele>
        <time>2020-10-25T19:23:32.916Z</time>
      </trkpt>
      <trkpt lat="46.43167" lon="4.26435">
        <ele>299.276141</ele>
        <time>2020-10-25T19:23:40.250Z</time>
      </trkpt>
      <trkpt lat="46.43141" lon="4.26357">
        <ele>297.64237</ele>
        <time>2020-10-25T19:23:48.849Z</time>
      </trkpt>
      <trkpt lat="46.43133" lon="4.26334">
        <ele>297.156264</ele>
        <time>2020-10-25T19:23:51.707Z</time>
      </trkpt>
      <trkpt lat="46.43129" lon="4.26323">
        <ele>296.940657</ele>
        <time>2020-10-25T19:23:52.834Z</time>
      </trkpt>
      <trkpt lat="46.43122" lon="4.26309">
        <ele>296.618512</ele>
        <time>2020-10-25T19:23:54.527Z</time>
      </trkpt>
      <trkpt lat="46.43115" lon="4.26295">
        <ele>296.286018</ele>
        <time>2020-10-25T19:23:56.483Z</time>
      </trkpt>
      <trkpt lat="46.4311" lon="4.26289">
        <ele>296.118576</ele>
        <time>2020-10-25T19:23:57.385Z</time>
      </trkpt>
      <trkpt lat="46.431" lon="4.26275">
        <ele>295.743684</ele>
        <time>2020-10-25T19:23:59.332Z</time>
      </trkpt>
      <trkpt lat="46.43" lon="4.26154">
        <ele>292.832759</ele>
        <time>2020-10-25T19:24:18.519Z</time>
      </trkpt>
      <trkpt lat="46.4298" lon="4.26127">
        <ele>292.430705</ele>
        <time>2020-10-25T19:24:22.775Z</time>
      </trkpt>
      <trkpt lat="46.42945" lon="4.26072">
        <ele>291.681896</ele>
        <time>2020-10-25T19:24:31.318Z</time>
      </trkpt>
      <trkpt lat="46.42822" lon="4.25871">
        <ele>290.798578</ele>
        <time>2020-10-25T19:25:06.260Z</time>
      </trkpt>
      <trkpt lat="46.42757" lon="4.25751">
        <ele>291.780039</ele>
        <time>2020-10-25T19:25:32.860Z</time>
      </trkpt>
      <trkpt lat="46.42735" lon="4.25703">
        <ele>292.485913</ele>
        <time>2020-10-25T19:25:45.089Z</time>
      </trkpt>
      <trkpt lat="46.42722" lon="4.25649">
        <ele>293.191911</ele>
        <time>2020-10-25T19:25:58.138Z</time>
      </trkpt>
      <trkpt lat="46.42721" lon="4.25638">
        <ele>293.333831</ele>
        <time>2020-10-25T19:26:00.735Z</time>
      </trkpt>
      <trkpt lat="46.42719" lon="4.25622">
        <ele>293.53316</ele>
        <time>2020-10-25T19:26:05.634Z</time>
      </trkpt>
      <trkpt lat="46.42716" lon="4.25606">
        <ele>293.732707</ele>
        <time>2020-10-25T19:26:08.890Z</time>
      </trkpt>
      <trkpt lat="46.4271" lon="4.25588">
        <ele>293.981493</ele>
        <time>2020-10-25T19:26:13.559Z</time>
      </trkpt>
      <trkpt lat="46.42706" lon="4.25579">
        <ele>294.129684</ele>
        <time>2020-10-25T19:26:17.717Z</time>
      </trkpt>
      <trkpt lat="46.4262" lon="4.25429">
        <ele>296.783382</ele>
        <time>2020-10-25T19:27:04.221Z</time>
      </trkpt>
      <trkpt lat="46.42603" lon="4.25396">
        <ele>297.349983</ele>
        <time>2020-10-25T19:27:12.907Z</time>
      </trkpt>
      <trkpt lat="46.42566" lon="4.25315">
        <ele>296.261788</ele>
        <time>2020-10-25T19:27:25.438Z</time>
      </trkpt>
      <trkpt lat="46.42503" lon="4.25181">
        <ele>293.805138</ele>
        <time>2020-10-25T19:27:41.480Z</time>
      </trkpt>
      <trkpt lat="46.42407" lon="4.25009">
        <ele>286.904128</ele>
        <time>2020-10-25T19:28:01.750Z</time>
      </trkpt>
      <trkpt lat="46.42378" lon="4.2493">
        <ele>284.223603</ele>
        <time>2020-10-25T19:28:09.821Z</time>
      </trkpt>
      <trkpt lat="46.42367" lon="4.24863">
        <ele>282.39898</ele>
        <time>2020-10-25T19:28:16.178Z</time>
      </trkpt>
      <trkpt lat="46.42365" lon="4.2482">
        <ele>281.259533</ele>
        <time>2020-10-25T19:28:20.227Z</time>
      </trkpt>
      <trkpt lat="46.42361" lon="4.24718">
        <ele>278.527496</ele>
        <time>2020-10-25T19:28:30.304Z</time>
      </trkpt>
      <trkpt lat="46.4236" lon="4.2466">
        <ele>277.671229</ele>
        <time>2020-10-25T19:28:36.245Z</time>
      </trkpt>
      <trkpt lat="46.42364" lon="4.24567">
        <ele>276.573042</ele>
        <time>2020-10-25T19:28:46.360Z</time>
      </trkpt>
      <trkpt lat="46.42362" lon="4.24419">
        <ele>274.975075</ele>
        <time>2020-10-25T19:29:03.518Z</time>
      </trkpt>
      <trkpt lat="46.42361" lon="4.24399">
        <ele>274.836698</ele>
        <time>2020-10-25T19:29:05.925Z</time>
      </trkpt>
      <trkpt lat="46.4235" lon="4.24348">
        <ele>274.482182</ele>
        <time>2020-10-25T19:29:12.219Z</time>
      </trkpt>
      <trkpt lat="46.42342" lon="4.24327">
        <ele>274.315084</ele>
        <time>2020-10-25T19:29:15.189Z</time>
      </trkpt>
      <trkpt lat="46.42309" lon="4.24245">
        <ele>273.67476</ele>
        <time>2020-10-25T19:29:26.392Z</time>
      </trkpt>
      <trkpt lat="46.42242" lon="4.24074">
        <ele>272.755672</ele>
        <time>2020-10-25T19:29:50.316Z</time>
      </trkpt>
      <trkpt lat="46.42227" lon="4.24013">
        <ele>272.492488</ele>
        <time>2020-10-25T19:29:58.877Z</time>
      </trkpt>
      <trkpt lat="46.42199" lon="4.23931">
        <ele>272.255924</ele>
        <time>2020-10-25T19:30:11.338Z</time>
      </trkpt>
      <trkpt lat="46.42114" lon="4.23773">
        <ele>272.004878</ele>
        <time>2020-10-25T19:30:38.930Z</time>
      </trkpt>
      <trkpt lat="46.42056" lon="4.23721">
        <ele>271.965833</ele>
        <time>2020-10-25T19:30:52.352Z</time>
      </trkpt>
      <trkpt lat="46.41679" lon="4.2328">
        <ele>271.873682</ele>
        <time>2020-10-25T19:32:32.822Z</time>
      </trkpt>
      <trkpt lat="46.41666" lon="4.23261">
        <ele>271.897665</ele>
        <time>2020-10-25T19:32:36.968Z</time>
      </trkpt>
      <trkpt lat="46.4166" lon="4.23252">
        <ele>271.907957</ele>
        <time>2020-10-25T19:32:38.704Z</time>
      </trkpt>
      <trkpt lat="46.41652" lon="4.23238">
        <ele>271.924781</ele>
        <time>2020-10-25T19:32:41.696Z</time>
      </trkpt>
      <trkpt lat="46.41629" lon="4.23162">
        <ele>271.998125</ele>
        <time>2020-10-25T19:32:54.375Z</time>
      </trkpt>
      <trkpt lat="46.41598" lon="4.22921">
        <ele>271.871589</ele>
        <time>2020-10-25T19:33:29.719Z</time>
      </trkpt>
      <trkpt lat="46.41589" lon="4.22879">
        <ele>271.794858</ele>
        <time>2020-10-25T19:33:35.550Z</time>
      </trkpt>
      <trkpt lat="46.4143" lon="4.22623">
        <ele>270.649391</ele>
        <time>2020-10-25T19:34:18.951Z</time>
      </trkpt>
      <trkpt lat="46.41404" lon="4.22574">
        <ele>270.604281</ele>
        <time>2020-10-25T19:34:27.032Z</time>
      </trkpt>
      <trkpt lat="46.41357" lon="4.22468">
        <ele>270.516695</ele>
        <time>2020-10-25T19:34:44.558Z</time>
      </trkpt>
      <trkpt lat="46.41273" lon="4.22249">
        <ele>270.899902</ele>
        <time>2020-10-25T19:35:23.275Z</time>
      </trkpt>
      <trkpt lat="46.41261" lon="4.22197">
        <ele>271.03567</ele>
        <time>2020-10-25T19:35:32.123Z</time>
      </trkpt>
      <trkpt lat="46.41258" lon="4.22148">
        <ele>271.191215</ele>
        <time>2020-10-25T19:35:40.001Z</time>
      </trkpt>
      <trkpt lat="46.41257" lon="4.22112">
        <ele>271.342711</ele>
        <time>2020-10-25T19:35:45.902Z</time>
      </trkpt>
      <trkpt lat="46.41257" lon="4.22105">
        <ele>271.372334</ele>
        <time>2020-10-25T19:35:46.963Z</time>
      </trkpt>
      <trkpt lat="46.41257" lon="4.22103">
        <ele>271.380791</ele>
        <time>2020-10-25T19:35:47.290Z</time>
      </trkpt>
      <trkpt lat="46.41252" lon="4.22003">
        <ele>271.805321</ele>
        <time>2020-10-25T19:36:03.755Z</time>
      </trkpt>
      <trkpt lat="46.41249" lon="4.21994">
        <ele>271.845697</ele>
        <time>2020-10-25T19:36:05.300Z</time>
      </trkpt>
      <trkpt lat="46.41246" lon="4.21987">
        <ele>271.88299</ele>
        <time>2020-10-25T19:36:06.883Z</time>
      </trkpt>
      <trkpt lat="46.41221" lon="4.21958">
        <ele>272.079707</ele>
        <time>2020-10-25T19:36:14.571Z</time>
      </trkpt>
      <trkpt lat="46.41107" lon="4.21896">
        <ele>273.494738</ele>
        <time>2020-10-25T19:36:46.687Z</time>
      </trkpt>
      <trkpt lat="46.41077" lon="4.2186">
        <ele>273.984044</ele>
        <time>2020-10-25T19:36:57.752Z</time>
      </trkpt>
      <trkpt lat="46.41044" lon="4.21775">
        <ele>275.009104</ele>
        <time>2020-10-25T19:37:18.629Z</time>
      </trkpt>
      <trkpt lat="46.4103" lon="4.2172">
        <ele>275.766656</ele>
        <time>2020-10-25T19:37:31.944Z</time>
      </trkpt>
      <trkpt lat="46.41033" lon="4.21556">
        <ele>277.891283</ele>
        <time>2020-10-25T19:38:08.199Z</time>
      </trkpt>
      <trkpt lat="46.41037" lon="4.21469">
        <ele>278.070425</ele>
        <time>2020-10-25T19:38:24.649Z</time>
      </trkpt>
      <trkpt lat="46.41038" lon="4.21427">
        <ele>278.156646</ele>
        <time>2020-10-25T19:38:31.814Z</time>
      </trkpt>
      <trkpt lat="46.41039" lon="4.21385">
        <ele>278.240207</ele>
        <time>2020-10-25T19:38:38.231Z</time>
      </trkpt>
      <trkpt lat="46.41046" lon="4.21202">
        <ele>277.38842</ele>
        <time>2020-10-25T19:39:00.083Z</time>
      </trkpt>
      <trkpt lat="46.41031" lon="4.2111">
        <ele>276.341004</ele>
        <time>2020-10-25T19:39:10.389Z</time>
      </trkpt>
      <trkpt lat="46.41028" lon="4.21099">
        <ele>276.217911</ele>
        <time>2020-10-25T19:39:11.544Z</time>
      </trkpt>
      <trkpt lat="46.41027" lon="4.21095">
        <ele>276.171421</ele>
        <time>2020-10-25T19:39:12.026Z</time>
      </trkpt>
      <trkpt lat="46.41024" lon="4.21086">
        <ele>276.052583</ele>
        <time>2020-10-25T19:39:13.087Z</time>
      </trkpt>
      <trkpt lat="46.40926" lon="4.20892">
        <ele>273.405838</ele>
        <time>2020-10-25T19:39:38.317Z</time>
      </trkpt>
      <trkpt lat="46.40904" lon="4.20849">
        <ele>272.815496</ele>
        <time>2020-10-25T19:39:45.029Z</time>
      </trkpt>
      <trkpt lat="46.40893" lon="4.20829">
        <ele>272.695867</ele>
        <time>2020-10-25T19:39:48.197Z</time>
      </trkpt>
      <trkpt lat="46.4088" lon="4.20804">
        <ele>272.765319</ele>
        <time>2020-10-25T19:39:54.208Z</time>
      </trkpt>
      <trkpt lat="46.40874" lon="4.20791">
        <ele>272.802185</ele>
        <time>2020-10-25T19:39:55.989Z</time>
      </trkpt>
      <trkpt lat="46.40809" lon="4.20664">
        <ele>273.156089</ele>
        <time>2020-10-25T19:40:19.933Z</time>
      </trkpt>
      <trkpt lat="46.40801" lon="4.20648">
        <ele>273.20125</ele>
        <time>2020-10-25T19:40:24.533Z</time>
      </trkpt>
      <trkpt lat="46.40796" lon="4.20639">
        <ele>273.226246</ele>
        <time>2020-10-25T19:40:26.437Z</time>
      </trkpt>
      <trkpt lat="46.40791" lon="4.2063">
        <ele>273.252193</ele>
        <time>2020-10-25T19:40:28.085Z</time>
      </trkpt>
      <trkpt lat="46.40779" lon="4.20605">
        <ele>273.54252</ele>
        <time>2020-10-25T19:40:34.288Z</time>
      </trkpt>
      <trkpt lat="46.40729" lon="4.20505">
        <ele>274.715821</ele>
        <time>2020-10-25T19:40:59.529Z</time>
      </trkpt>
      <trkpt lat="46.40681" lon="4.2042">
        <ele>275.770896</ele>
        <time>2020-10-25T19:41:19.736Z</time>
      </trkpt>
      <trkpt lat="46.40675" lon="4.20411">
        <ele>275.97167</ele>
        <time>2020-10-25T19:41:22.705Z</time>
      </trkpt>
      <trkpt lat="46.40666" lon="4.204">
        <ele>276.230823</ele>
        <time>2020-10-25T19:41:26.324Z</time>
      </trkpt>
      <trkpt lat="46.40492" lon="4.20255">
        <ele>280.870872</ele>
        <time>2020-10-25T19:42:35.248Z</time>
      </trkpt>
      <trkpt lat="46.40409" lon="4.20145">
        <ele>283.749829</ele>
        <time>2020-10-25T19:43:15.627Z</time>
      </trkpt>
      <trkpt lat="46.40389" lon="4.20122">
        <ele>284.39701</ele>
        <time>2020-10-25T19:43:24.796Z</time>
      </trkpt>
      <trkpt lat="46.40354" lon="4.20085">
        <ele>285.327809</ele>
        <time>2020-10-25T19:43:39.406Z</time>
      </trkpt>
      <trkpt lat="46.40287" lon="4.20028">
        <ele>286.993779</ele>
        <time>2020-10-25T19:44:04.972Z</time>
      </trkpt>
      <trkpt lat="46.40246" lon="4.19978">
        <ele>288.152757</ele>
        <time>2020-10-25T19:44:21.383Z</time>
      </trkpt>
      <trkpt lat="46.40155" lon="4.1978">
        <ele>291.974576</ele>
        <time>2020-10-25T19:45:13.547Z</time>
      </trkpt>
      <trkpt lat="46.40094" lon="4.19697">
        <ele>295.534724</ele>
        <time>2020-10-25T19:45:49.192Z</time>
      </trkpt>
      <trkpt lat="46.4006" lon="4.19621">
        <ele>298.561975</ele>
        <time>2020-10-25T19:46:21.658Z</time>
      </trkpt>
      <trkpt lat="46.40053" lon="4.19594">
        <ele>299.534994</ele>
        <time>2020-10-25T19:46:32.121Z</time>
      </trkpt>
      <trkpt lat="46.4005" lon="4.19556">
        <ele>300.792653</ele>
        <time>2020-10-25T19:46:45.656Z</time>
      </trkpt>
      <trkpt lat="46.40051" lon="4.19531">
        <ele>301.637125</ele>
        <time>2020-10-25T19:46:55.555Z</time>
      </trkpt>
      <trkpt lat="46.40054" lon="4.19505">
        <ele>302.558262</ele>
        <time>2020-10-25T19:47:04.466Z</time>
      </trkpt>
      <trkpt lat="46.40054" lon="4.19499">
        <ele>302.742124</ele>
        <time>2020-10-25T19:47:06.614Z</time>
      </trkpt>
      <trkpt lat="46.40056" lon="4.19482">
        <ele>303.347111</ele>
        <time>2020-10-25T19:47:13.665Z</time>
      </trkpt>
      <trkpt lat="46.40062" lon="4.19413">
        <ele>305.714123</ele>
        <time>2020-10-25T19:47:38.590Z</time>
      </trkpt>
      <trkpt lat="46.40059" lon="4.19366">
        <ele>307.338866</ele>
        <time>2020-10-25T19:47:56.330Z</time>
      </trkpt>
      <trkpt lat="46.40045" lon="4.19296">
        <ele>309.845145</ele>
        <time>2020-10-25T19:48:19.048Z</time>
      </trkpt>
      <trkpt lat="46.40017" lon="4.19229">
        <ele>310.379579</ele>
        <time>2020-10-25T19:48:36.366Z</time>
      </trkpt>
      <trkpt lat="46.40004" lon="4.19207">
        <ele>310.500641</ele>
        <time>2020-10-25T19:48:42.349Z</time>
      </trkpt>
      <trkpt lat="46.39978" lon="4.19177">
        <ele>310.700161</ele>
        <time>2020-10-25T19:48:49.893Z</time>
      </trkpt>
      <trkpt lat="46.39956" lon="4.19156">
        <ele>310.85643</ele>
        <time>2020-10-25T19:48:54.710Z</time>
      </trkpt>
      <trkpt lat="46.39942" lon="4.19143">
        <ele>310.959325</ele>
        <time>2020-10-25T19:48:57.888Z</time>
      </trkpt>
      <trkpt lat="46.39939" lon="4.1914">
        <ele>310.979363</ele>
        <time>2020-10-25T19:48:58.398Z</time>
      </trkpt>
      <trkpt lat="46.39774" lon="4.19">
        <ele>309.275382</ele>
        <time>2020-10-25T19:49:28.624Z</time>
      </trkpt>
      <trkpt lat="46.39749" lon="4.18978">
        <ele>309.260895</ele>
        <time>2020-10-25T19:49:34.196Z</time>
      </trkpt>
      <trkpt lat="46.39734" lon="4.18965">
        <ele>309.632874</ele>
        <time>2020-10-25T19:49:38.931Z</time>
      </trkpt>
      <trkpt lat="46.39622" lon="4.18866">
        <ele>312.536349</ele>
        <time>2020-10-25T19:50:24.688Z</time>
      </trkpt>
      <trkpt lat="46.39583" lon="4.18831">
        <ele>313.92944</ele>
        <time>2020-10-25T19:50:44.631Z</time>
      </trkpt>
      <trkpt lat="46.39562" lon="4.18813">
        <ele>314.871149</ele>
        <time>2020-10-25T19:50:55.080Z</time>
      </trkpt>
      <trkpt lat="46.39504" lon="4.18762">
        <ele>317.506461</ele>
        <time>2020-10-25T19:51:25.122Z</time>
      </trkpt>
      <trkpt lat="46.39444" lon="4.18718">
        <ele>320.064807</ele>
        <time>2020-10-25T19:51:54.997Z</time>
      </trkpt>
      <trkpt lat="46.39322" lon="4.18634">
        <ele>323.421976</ele>
        <time>2020-10-25T19:52:44.349Z</time>
      </trkpt>
      <trkpt lat="46.39083" lon="4.18471">
        <ele>326.235725</ele>
        <time>2020-10-25T19:53:52.567Z</time>
      </trkpt>
      <trkpt lat="46.39051" lon="4.1844">
        <ele>326.296974</ele>
        <time>2020-10-25T19:54:00.912Z</time>
      </trkpt>
      <trkpt lat="46.39041" lon="4.18401">
        <ele>326.342243</ele>
        <time>2020-10-25T19:54:07.025Z</time>
      </trkpt>
      <trkpt lat="46.3901" lon="4.182">
        <ele>326.270723</ele>
        <time>2020-10-25T19:54:34.374Z</time>
      </trkpt>
      <trkpt lat="46.38965" lon="4.17892">
        <ele>326.725882</ele>
        <time>2020-10-25T19:55:17.491Z</time>
      </trkpt>
      <trkpt lat="46.38963" lon="4.17878">
        <ele>326.792088</ele>
        <time>2020-10-25T19:55:20.277Z</time>
      </trkpt>
      <trkpt lat="46.38942" lon="4.17733">
        <ele>328.254235</ele>
        <time>2020-10-25T19:55:52.491Z</time>
      </trkpt>
      <trkpt lat="46.38932" lon="4.17696">
        <ele>328.947655</ele>
        <time>2020-10-25T19:56:02.330Z</time>
      </trkpt>
      <trkpt lat="46.38912" lon="4.17651">
        <ele>329.868276</ele>
        <time>2020-10-25T19:56:16.191Z</time>
      </trkpt>
      <trkpt lat="46.38753" lon="4.17321">
        <ele>336.957304</ele>
        <time>2020-10-25T19:57:55.006Z</time>
      </trkpt>
      <trkpt lat="46.3843" lon="4.16652">
        <ele>349.407201</ele>
        <time>2020-10-25T20:01:01.529Z</time>
      </trkpt>
      <trkpt lat="46.38404" lon="4.166">
        <ele>350.327408</ele>
        <time>2020-10-25T20:01:15.195Z</time>
      </trkpt>
      <trkpt lat="46.38399" lon="4.16589">
        <ele>350.517441</ele>
        <time>2020-10-25T20:01:17.984Z</time>
      </trkpt>
      <trkpt lat="46.38363" lon="4.16487">
        <ele>352.129374</ele>
        <time>2020-10-25T20:01:43.663Z</time>
      </trkpt>
      <trkpt lat="46.38326" lon="4.16386">
        <ele>353.960503</ele>
        <time>2020-10-25T20:02:10.589Z</time>
      </trkpt>
      <trkpt lat="46.383" lon="4.16314">
        <ele>355.251912</ele>
        <time>2020-10-25T20:02:30.243Z</time>
      </trkpt>
      <trkpt lat="46.38282" lon="4.16246">
        <ele>356.350784</ele>
        <time>2020-10-25T20:02:47.916Z</time>
      </trkpt>
      <trkpt lat="46.38245" lon="4.16022">
        <ele>358.17242</ele>
        <time>2020-10-25T20:03:32.381Z</time>
      </trkpt>
      <trkpt lat="46.38241" lon="4.16003">
        <ele>358.333194</ele>
        <time>2020-10-25T20:03:35.415Z</time>
      </trkpt>
      <trkpt lat="46.38237" lon="4.15985">
        <ele>358.189627</ele>
        <time>2020-10-25T20:03:37.879Z</time>
      </trkpt>
      <trkpt lat="46.38223" lon="4.15936">
        <ele>357.730652</ele>
        <time>2020-10-25T20:03:44.576Z</time>
      </trkpt>
      <trkpt lat="46.38132" lon="4.15612">
        <ele>353.403852</ele>
        <time>2020-10-25T20:04:22.297Z</time>
      </trkpt>
      <trkpt lat="46.38127" lon="4.15593">
        <ele>353.057636</ele>
        <time>2020-10-25T20:04:24.385Z</time>
      </trkpt>
      <trkpt lat="46.38038" lon="4.15284">
        <ele>346.150589</ele>
        <time>2020-10-25T20:04:57.079Z</time>
      </trkpt>
      <trkpt lat="46.38022" lon="4.15242">
        <ele>345.736793</ele>
        <time>2020-10-25T20:05:01.842Z</time>
      </trkpt>
      <trkpt lat="46.37996" lon="4.15204">
        <ele>345.376069</ele>
        <time>2020-10-25T20:05:07.615Z</time>
      </trkpt>
      <trkpt lat="46.37915" lon="4.15129">
        <ele>344.44415</ele>
        <time>2020-10-25T20:05:25.569Z</time>
      </trkpt>
      <trkpt lat="46.37848" lon="4.15068">
        <ele>345.190617</ele>
        <time>2020-10-25T20:05:46.433Z</time>
      </trkpt>
      <trkpt lat="46.37672" lon="4.14901">
        <ele>348.094673</ele>
        <time>2020-10-25T20:06:53.728Z</time>
      </trkpt>
      <trkpt lat="46.37596" lon="4.1483">
        <ele>349.107911</ele>
        <time>2020-10-25T20:07:15.525Z</time>
      </trkpt>
      <trkpt lat="46.37551" lon="4.14788">
        <ele>348.467808</ele>
        <time>2020-10-25T20:07:25.730Z</time>
      </trkpt>
      <trkpt lat="46.37483" lon="4.14724">
        <ele>347.503572</ele>
        <time>2020-10-25T20:07:38.951Z</time>
      </trkpt>
      <trkpt lat="46.37464" lon="4.14703">
        <ele>347.216513</ele>
        <time>2020-10-25T20:07:42.641Z</time>
      </trkpt>
      <trkpt lat="46.37379" lon="4.14572">
        <ele>344.269614</ele>
        <time>2020-10-25T20:08:00.900Z</time>
      </trkpt>
      <trkpt lat="46.37214" lon="4.14315">
        <ele>337.879827</ele>
        <time>2020-10-25T20:08:36.152Z</time>
      </trkpt>
      <trkpt lat="46.37047" lon="4.14115">
        <ele>333.306675</ele>
        <time>2020-10-25T20:09:09.266Z</time>
      </trkpt>
      <trkpt lat="46.36995" lon="4.14067">
        <ele>332.394756</ele>
        <time>2020-10-25T20:09:19.019Z</time>
      </trkpt>
      <trkpt lat="46.36979" lon="4.14055">
        <ele>332.121847</ele>
        <time>2020-10-25T20:09:21.898Z</time>
      </trkpt>
      <trkpt lat="46.36925" lon="4.1402">
        <ele>331.241388</ele>
        <time>2020-10-25T20:09:31.729Z</time>
      </trkpt>
      <trkpt lat="46.36851" lon="4.13964">
        <ele>330.581469</ele>
        <time>2020-10-25T20:09:46.176Z</time>
      </trkpt>
      <trkpt lat="46.36673" lon="4.13833">
        <ele>329.547405</ele>
        <time>2020-10-25T20:10:24.239Z</time>
      </trkpt>
      <trkpt lat="46.36655" lon="4.1382">
        <ele>329.465741</ele>
        <time>2020-10-25T20:10:27.993Z</time>
      </trkpt>
      <trkpt lat="46.36651" lon="4.13817">
        <ele>329.445575</ele>
        <time>2020-10-25T20:10:28.872Z</time>
      </trkpt>
      <trkpt lat="46.3663" lon="4.13802">
        <ele>329.349556</ele>
        <time>2020-10-25T20:10:33.442Z</time>
      </trkpt>
      <trkpt lat="46.36614" lon="4.13793">
        <ele>329.278811</ele>
        <time>2020-10-25T20:10:36.585Z</time>
      </trkpt>
      <trkpt lat="46.36598" lon="4.13785">
        <ele>329.209408</ele>
        <time>2020-10-25T20:10:39.923Z</time>
      </trkpt>
      <trkpt lat="46.36574" lon="4.13775">
        <ele>329.106534</ele>
        <time>2020-10-25T20:10:44.513Z</time>
      </trkpt>
      <trkpt lat="46.36535" lon="4.13761">
        <ele>328.945515</ele>
        <time>2020-10-25T20:10:51.916Z</time>
      </trkpt>
      <trkpt lat="46.36512" lon="4.13757">
        <ele>328.853352</ele>
        <time>2020-10-25T20:10:56.085Z</time>
      </trkpt>
      <trkpt lat="46.36442" lon="4.13753">
        <ele>328.575711</ele>
        <time>2020-10-25T20:11:09.595Z</time>
      </trkpt>
      <trkpt lat="46.36429" lon="4.13752">
        <ele>328.522208</ele>
        <time>2020-10-25T20:11:12.243Z</time>
      </trkpt>
      <trkpt lat="46.36417" lon="4.13749">
        <ele>328.475781</ele>
        <time>2020-10-25T20:11:14.496Z</time>
      </trkpt>
      <trkpt lat="46.36388" lon="4.13734">
        <ele>328.421829</ele>
        <time>2020-10-25T20:11:20.510Z</time>
      </trkpt>
      <trkpt lat="46.36374" lon="4.13723">
        <ele>328.40684</ele>
        <time>2020-10-25T20:11:23.568Z</time>
      </trkpt>
      <trkpt lat="46.36359" lon="4.13708">
        <ele>328.390379</ele>
        <time>2020-10-25T20:11:27.171Z</time>
      </trkpt>
      <trkpt lat="46.36297" lon="4.13643">
        <ele>328.320195</ele>
        <time>2020-10-25T20:11:42.715Z</time>
      </trkpt>
      <trkpt lat="46.36251" lon="4.13605">
        <ele>328.280376</ele>
        <time>2020-10-25T20:11:54.259Z</time>
      </trkpt>
      <trkpt lat="46.36064" lon="4.13491">
        <ele>328.288651</ele>
        <time>2020-10-25T20:12:36.528Z</time>
      </trkpt>
      <trkpt lat="46.36033" lon="4.13471">
        <ele>328.209551</ele>
        <time>2020-10-25T20:12:43.401Z</time>
      </trkpt>
      <trkpt lat="46.35999" lon="4.13449">
        <ele>328.123877</ele>
        <time>2020-10-25T20:12:50.783Z</time>
      </trkpt>
      <trkpt lat="46.35951" lon="4.13409">
        <ele>327.995966</ele>
        <time>2020-10-25T20:13:01.437Z</time>
      </trkpt>
      <trkpt lat="46.35913" lon="4.13364">
        <ele>327.845306</ele>
        <time>2020-10-25T20:13:10.541Z</time>
      </trkpt>
      <trkpt lat="46.35881" lon="4.13314">
        <ele>327.668443</ele>
        <time>2020-10-25T20:13:19.009Z</time>
      </trkpt>
      <trkpt lat="46.3587" lon="4.13279">
        <ele>327.566032</ele>
        <time>2020-10-25T20:13:23.969Z</time>
      </trkpt>
      <trkpt lat="46.35867" lon="4.13254">
        <ele>327.498182</ele>
        <time>2020-10-25T20:13:27.073Z</time>
      </trkpt>
      <trkpt lat="46.35866" lon="4.13216">
        <ele>327.39943</ele>
        <time>2020-10-25T20:13:32.336Z</time>
      </trkpt>
      <trkpt lat="46.35855" lon="4.13154">
        <ele>327.285739</ele>
        <time>2020-10-25T20:13:41.060Z</time>
      </trkpt>
      <trkpt lat="46.35828" lon="4.1308">
        <ele>327.54159</ele>
        <time>2020-10-25T20:13:54.538Z</time>
      </trkpt>
      <trkpt lat="46.35821" lon="4.1306">
        <ele>327.608665</ele>
        <time>2020-10-25T20:13:57.693Z</time>
      </trkpt>
      <trkpt lat="46.35818" lon="4.1305">
        <ele>327.642904</ele>
        <time>2020-10-25T20:14:00.175Z</time>
      </trkpt>
      <trkpt lat="46.35814" lon="4.13019">
        <ele>327.739809</ele>
        <time>2020-10-25T20:14:05.468Z</time>
      </trkpt>
      <trkpt lat="46.35819" lon="4.12978">
        <ele>327.864427</ele>
        <time>2020-10-25T20:14:12.907Z</time>
      </trkpt>
      <trkpt lat="46.35864" lon="4.12814">
        <ele>327.717135</ele>
        <time>2020-10-25T20:14:40.239Z</time>
      </trkpt>
      <trkpt lat="46.35868" lon="4.12799">
        <ele>327.672339</ele>
        <time>2020-10-25T20:14:42.094Z</time>
      </trkpt>
      <trkpt lat="46.35871" lon="4.12783">
        <ele>327.623417</ele>
        <time>2020-10-25T20:14:44.610Z</time>
      </trkpt>
      <trkpt lat="46.35872" lon="4.12766">
        <ele>327.576724</ele>
        <time>2020-10-25T20:14:46.861Z</time>
      </trkpt>
      <trkpt lat="46.35873" lon="4.12752">
        <ele>327.536635</ele>
        <time>2020-10-25T20:14:48.422Z</time>
      </trkpt>
      <trkpt lat="46.35866" lon="4.12595">
        <ele>326.48601</ele>
        <time>2020-10-25T20:15:06.556Z</time>
      </trkpt>
      <trkpt lat="46.35846" lon="4.12399">
        <ele>324.419259</ele>
        <time>2020-10-25T20:15:28.038Z</time>
      </trkpt>
      <trkpt lat="46.35845" lon="4.12286">
        <ele>323.514561</ele>
        <time>2020-10-25T20:15:40.809Z</time>
      </trkpt>
      <trkpt lat="46.35845" lon="4.12226">
        <ele>323.028965</ele>
        <time>2020-10-25T20:15:47.885Z</time>
      </trkpt>
      <trkpt lat="46.35842" lon="4.1197">
        <ele>321.680062</ele>
        <time>2020-10-25T20:16:20.255Z</time>
      </trkpt>
      <trkpt lat="46.3584" lon="4.1172">
        <ele>320.351275</ele>
        <time>2020-10-25T20:16:51.472Z</time>
      </trkpt>
      <trkpt lat="46.35841" lon="4.11713">
        <ele>320.315146</ele>
        <time>2020-10-25T20:16:52.225Z</time>
      </trkpt>
      <trkpt lat="46.35841" lon="4.11701">
        <ele>320.244633</ele>
        <time>2020-10-25T20:16:53.657Z</time>
      </trkpt>
      <trkpt lat="46.35847" lon="4.11648">
        <ele>319.92908</ele>
        <time>2020-10-25T20:16:59.921Z</time>
      </trkpt>
      <trkpt lat="46.35869" lon="4.11427">
        <ele>318.53183</ele>
        <time>2020-10-25T20:17:25.604Z</time>
      </trkpt>
      <trkpt lat="46.35865" lon="4.11405">
        <ele>318.385037</ele>
        <time>2020-10-25T20:17:28.475Z</time>
      </trkpt>
      <trkpt lat="46.35796" lon="4.11185">
        <ele>318.522542</ele>
        <time>2020-10-25T20:18:04.479Z</time>
      </trkpt>
      <trkpt lat="46.35791" lon="4.11176">
        <ele>318.540854</ele>
        <time>2020-10-25T20:18:06.667Z</time>
      </trkpt>
      <trkpt lat="46.35781" lon="4.11164">
        <ele>318.571194</ele>
        <time>2020-10-25T20:18:09.977Z</time>
      </trkpt>
      <trkpt lat="46.35726" lon="4.11135">
        <ele>318.934549</ele>
        <time>2020-10-25T20:18:24.453Z</time>
      </trkpt>
      <trkpt lat="46.35693" lon="4.1112">
        <ele>319.192222</ele>
        <time>2020-10-25T20:18:33.198Z</time>
      </trkpt>
      <trkpt lat="46.35676" lon="4.111">
        <ele>319.359996</ele>
        <time>2020-10-25T20:18:38.934Z</time>
      </trkpt>
      <trkpt lat="46.35638" lon="4.11037">
        <ele>319.786787</ele>
        <time>2020-10-25T20:18:53.441Z</time>
      </trkpt>
      <trkpt lat="46.35476" lon="4.10859">
        <ele>321.240907</ele>
        <time>2020-10-25T20:19:43.289Z</time>
      </trkpt>
      <trkpt lat="46.35399" lon="4.10792">
        <ele>321.803425</ele>
        <time>2020-10-25T20:20:06.447Z</time>
      </trkpt>
      <trkpt lat="46.35329" lon="4.10705">
        <ele>322.365733</ele>
        <time>2020-10-25T20:20:27.908Z</time>
      </trkpt>
      <trkpt lat="46.35315" lon="4.10688">
        <ele>322.419167</ele>
        <time>2020-10-25T20:20:32.495Z</time>
      </trkpt>
      <trkpt lat="46.35301" lon="4.10672">
        <ele>322.473331</ele>
        <time>2020-10-25T20:20:35.912Z</time>
      </trkpt>
      <trkpt lat="46.35163" lon="4.10548">
        <ele>323.082558</ele>
        <time>2020-10-25T20:21:12.211Z</time>
      </trkpt>
      <trkpt lat="46.35147" lon="4.10537">
        <ele>323.232486</ele>
        <time>2020-10-25T20:21:16.408Z</time>
      </trkpt>
      <trkpt lat="46.35148" lon="4.10534">
        <ele>323.256087</ele>
        <time>2020-10-25T20:21:17.285Z</time>
      </trkpt>
      <trkpt lat="46.35212" lon="4.10411">
        <ele>324.119794</ele>
        <time>2020-10-25T20:21:44.264Z</time>
      </trkpt>
      <trkpt lat="46.35261" lon="4.10324">
        <ele>324.898151</ele>
        <time>2020-10-25T20:22:06.134Z</time>
      </trkpt>
      <trkpt lat="46.35284" lon="4.10284">
        <ele>325.297653</ele>
        <time>2020-10-25T20:22:16.279Z</time>
      </trkpt>
      <trkpt lat="46.35424" lon="4.10024">
        <ele>327.128972</ele>
        <time>2020-10-25T20:23:16.470Z</time>
      </trkpt>
      <trkpt lat="46.35426" lon="4.10016">
        <ele>327.159794</ele>
        <time>2020-10-25T20:23:17.595Z</time>
      </trkpt>
      <trkpt lat="46.35443" lon="4.09921">
        <ele>327.083071</ele>
        <time>2020-10-25T20:23:30.777Z</time>
      </trkpt>
      <trkpt lat="46.35453" lon="4.09764">
        <ele>325.735356</ele>
        <time>2020-10-25T20:23:48.862Z</time>
      </trkpt>
      <trkpt lat="46.3546" lon="4.09522">
        <ele>322.30829</ele>
        <time>2020-10-25T20:24:14.391Z</time>
      </trkpt>
      <trkpt lat="46.3545" lon="4.09378">
        <ele>319.74746</ele>
        <time>2020-10-25T20:24:28.951Z</time>
      </trkpt>
      <trkpt lat="46.35417" lon="4.09063">
        <ele>313.463655</ele>
        <time>2020-10-25T20:25:00.801Z</time>
      </trkpt>
      <trkpt lat="46.35428" lon="4.08914">
        <ele>310.512171</ele>
        <time>2020-10-25T20:25:16.031Z</time>
      </trkpt>
      <trkpt lat="46.3547" lon="4.08639">
        <ele>303.548656</ele>
        <time>2020-10-25T20:25:43.129Z</time>
      </trkpt>
      <trkpt lat="46.35471" lon="4.08629">
        <ele>303.291013</ele>
        <time>2020-10-25T20:25:44.117Z</time>
      </trkpt>
      <trkpt lat="46.35472" lon="4.08618">
        <ele>303.026097</ele>
        <time>2020-10-25T20:25:45.029Z</time>
      </trkpt>
      <trkpt lat="46.35506" lon="4.08112">
        <ele>291.620169</ele>
        <time>2020-10-25T20:26:34.692Z</time>
      </trkpt>
      <trkpt lat="46.35508" lon="4.08096">
        <ele>291.399809</ele>
        <time>2020-10-25T20:26:36.405Z</time>
      </trkpt>
      <trkpt lat="46.3551" lon="4.08076">
        <ele>291.125002</ele>
        <time>2020-10-25T20:26:38.663Z</time>
      </trkpt>
      <trkpt lat="46.35527" lon="4.08029">
        <ele>290.413449</ele>
        <time>2020-10-25T20:26:44.484Z</time>
      </trkpt>
      <trkpt lat="46.35532" lon="4.08022">
        <ele>290.271192</ele>
        <time>2020-10-25T20:26:45.732Z</time>
      </trkpt>
      <trkpt lat="46.35535" lon="4.08018">
        <ele>290.194625</ele>
        <time>2020-10-25T20:26:46.387Z</time>
      </trkpt>
      <trkpt lat="46.3554" lon="4.08011">
        <ele>290.05937</ele>
        <time>2020-10-25T20:26:47.426Z</time>
      </trkpt>
      <trkpt lat="46.35609" lon="4.07907">
        <ele>288.014297</ele>
        <time>2020-10-25T20:27:03.592Z</time>
      </trkpt>
      <trkpt lat="46.3562" lon="4.07872">
        <ele>287.394468</ele>
        <time>2020-10-25T20:27:07.629Z</time>
      </trkpt>
      <trkpt lat="46.35621" lon="4.07829">
        <ele>286.697778</ele>
        <time>2020-10-25T20:27:12.151Z</time>
      </trkpt>
      <trkpt lat="46.3561" lon="4.07624">
        <ele>283.26411</ele>
        <time>2020-10-25T20:27:32.935Z</time>
      </trkpt>
      <trkpt lat="46.35597" lon="4.07577">
        <ele>282.344893</ele>
        <time>2020-10-25T20:27:38.014Z</time>
      </trkpt>
      <trkpt lat="46.35528" lon="4.07404">
        <ele>278.831263</ele>
        <time>2020-10-25T20:27:58.332Z</time>
      </trkpt>
      <trkpt lat="46.35504" lon="4.07273">
        <ele>276.646285</ele>
        <time>2020-10-25T20:28:12.525Z</time>
      </trkpt>
      <trkpt lat="46.35502" lon="4.07207">
        <ele>275.591874</ele>
        <time>2020-10-25T20:28:19.278Z</time>
      </trkpt>
      <trkpt lat="46.35516" lon="4.07065">
        <ele>273.548165</ele>
        <time>2020-10-25T20:28:34.556Z</time>
      </trkpt>
      <trkpt lat="46.35517" lon="4.07045">
        <ele>273.271957</ele>
        <time>2020-10-25T20:28:36.661Z</time>
      </trkpt>
      <trkpt lat="46.35517" lon="4.07033">
        <ele>273.099998</ele>
        <time>2020-10-25T20:28:37.875Z</time>
      </trkpt>
      <trkpt lat="46.35496" lon="4.0686">
        <ele>270.857068</ele>
        <time>2020-10-25T20:28:56.827Z</time>
      </trkpt>
      <trkpt lat="46.35489" lon="4.06836">
        <ele>270.566587</ele>
        <time>2020-10-25T20:28:59.671Z</time>
      </trkpt>
      <trkpt lat="46.35485" lon="4.06829">
        <ele>270.456245</ele>
        <time>2020-10-25T20:29:00.622Z</time>
      </trkpt>
      <trkpt lat="46.3548" lon="4.06825">
        <ele>270.364461</ele>
        <time>2020-10-25T20:29:01.499Z</time>
      </trkpt>
      <trkpt lat="46.35387" lon="4.06813">
        <ele>268.840637</ele>
        <time>2020-10-25T20:29:16.851Z</time>
      </trkpt>
      <trkpt lat="46.35376" lon="4.06811">
        <ele>268.625718</ele>
        <time>2020-10-25T20:29:18.584Z</time>
      </trkpt>
      <trkpt lat="46.3537" lon="4.06808">
        <ele>268.501588</ele>
        <time>2020-10-25T20:29:19.642Z</time>
      </trkpt>
      <trkpt lat="46.35347" lon="4.06784">
        <ele>267.981781</ele>
        <time>2020-10-25T20:29:24.087Z</time>
      </trkpt>
      <trkpt lat="46.35325" lon="4.06734">
        <ele>267.211135</ele>
        <time>2020-10-25T20:29:30.722Z</time>
      </trkpt>
      <trkpt lat="46.3531" lon="4.0652">
        <ele>264.073481</ele>
        <time>2020-10-25T20:29:53.271Z</time>
      </trkpt>
      <trkpt lat="46.35318" lon="4.0648">
        <ele>263.342345</ele>
        <time>2020-10-25T20:29:57.518Z</time>
      </trkpt>
      <trkpt lat="46.35354" lon="4.06361">
        <ele>261.084412</ele>
        <time>2020-10-25T20:30:10.502Z</time>
      </trkpt>
      <trkpt lat="46.35423" lon="4.06241">
        <ele>258.614391</ele>
        <time>2020-10-25T20:30:26.587Z</time>
      </trkpt>
      <trkpt lat="46.35429" lon="4.06235">
        <ele>258.459433</ele>
        <time>2020-10-25T20:30:27.543Z</time>
      </trkpt>
      <trkpt lat="46.35435" lon="4.0623">
        <ele>258.300593</ele>
        <time>2020-10-25T20:30:28.639Z</time>
      </trkpt>
      <trkpt lat="46.35546" lon="4.06173">
        <ele>255.497606</ele>
        <time>2020-10-25T20:30:47.062Z</time>
      </trkpt>
      <trkpt lat="46.35642" lon="4.06162">
        <ele>253.088998</ele>
        <time>2020-10-25T20:31:01.142Z</time>
      </trkpt>
      <trkpt lat="46.35662" lon="4.06143">
        <ele>252.495216</ele>
        <time>2020-10-25T20:31:04.541Z</time>
      </trkpt>
      <trkpt lat="46.35683" lon="4.06095">
        <ele>251.557402</ele>
        <time>2020-10-25T20:31:10.201Z</time>
      </trkpt>
      <trkpt lat="46.35693" lon="4.06068">
        <ele>251.038467</ele>
        <time>2020-10-25T20:31:13.320Z</time>
      </trkpt>
      <trkpt lat="46.35697" lon="4.06057">
        <ele>250.839808</ele>
        <time>2020-10-25T20:31:14.474Z</time>
      </trkpt>
      <trkpt lat="46.35708" lon="4.05992">
        <ele>249.744784</ele>
        <time>2020-10-25T20:31:21.204Z</time>
      </trkpt>
      <trkpt lat="46.35769" lon="4.05566">
        <ele>245.141391</ele>
        <time>2020-10-25T20:32:09.859Z</time>
      </trkpt>
      <trkpt lat="46.3578" lon="4.05488">
        <ele>244.766979</ele>
        <time>2020-10-25T20:32:20.102Z</time>
      </trkpt>
      <trkpt lat="46.35784" lon="4.05451">
        <ele>244.592416</ele>
        <time>2020-10-25T20:32:25.040Z</time>
      </trkpt>
      <trkpt lat="46.35786" lon="4.05434">
        <ele>244.510796</ele>
        <time>2020-10-25T20:32:27.306Z</time>
      </trkpt>
      <trkpt lat="46.35787" lon="4.05423">
        <ele>244.45786</ele>
        <time>2020-10-25T20:32:28.862Z</time>
      </trkpt>
      <trkpt lat="46.35783" lon="4.05153">
        <ele>243.995982</ele>
        <time>2020-10-25T20:33:06.081Z</time>
      </trkpt>
      <trkpt lat="46.35783" lon="4.05119">
        <ele>243.953715</ele>
        <time>2020-10-25T20:33:10.836Z</time>
      </trkpt>
      <trkpt lat="46.35782" lon="4.05081">
        <ele>243.88613</ele>
        <time>2020-10-25T20:33:15.901Z</time>
      </trkpt>
      <trkpt lat="46.35782" lon="4.05053">
        <ele>243.834585</ele>
        <time>2020-10-25T20:33:19.765Z</time>
      </trkpt>
      <trkpt lat="46.35784" lon="4.05026">
        <ele>243.786162</ele>
        <time>2020-10-25T20:33:23.403Z</time>
      </trkpt>
      <trkpt lat="46.35785" lon="4.05018">
        <ele>243.771465</ele>
        <time>2020-10-25T20:33:24.520Z</time>
      </trkpt>
      <trkpt lat="46.358" lon="4.04959">
        <ele>243.657507</ele>
        <time>2020-10-25T20:33:33.021Z</time>
      </trkpt>
      <trkpt lat="46.35801" lon="4.04951">
        <ele>243.642635</ele>
        <time>2020-10-25T20:33:34.040Z</time>
      </trkpt>
      <trkpt lat="46.35801" lon="4.04932">
        <ele>243.609094</ele>
        <time>2020-10-25T20:33:36.556Z</time>
      </trkpt>
      <trkpt lat="46.35791" lon="4.04911">
        <ele>243.563266</ele>
        <time>2020-10-25T20:33:39.978Z</time>
      </trkpt>
      <trkpt lat="46.35647" lon="4.04758">
        <ele>243.152343</ele>
        <time>2020-10-25T20:34:14.377Z</time>
      </trkpt>
      <trkpt lat="46.35615" lon="4.04751">
        <ele>243.114094</ele>
        <time>2020-10-25T20:34:20.947Z</time>
      </trkpt>
      <trkpt lat="46.3557" lon="4.04779">
        <ele>243.63119</ele>
        <time>2020-10-25T20:34:31.718Z</time>
      </trkpt>
      <trkpt lat="46.35563" lon="4.04785">
        <ele>243.715189</ele>
        <time>2020-10-25T20:34:33.377Z</time>
      </trkpt>
      <trkpt lat="46.35556" lon="4.04788">
        <ele>243.790144</ele>
        <time>2020-10-25T20:34:35.185Z</time>
      </trkpt>
      <trkpt lat="46.35472" lon="4.04824">
        <ele>244.717884</ele>
        <time>2020-10-25T20:34:58.934Z</time>
      </trkpt>
      <trkpt lat="46.35451" lon="4.04818">
        <ele>244.936933</ele>
        <time>2020-10-25T20:35:05.109Z</time>
      </trkpt>
      <trkpt lat="46.35369" lon="4.04572">
        <ele>251.092061</ele>
        <time>2020-10-25T20:36:19.705Z</time>
      </trkpt>
      <trkpt lat="46.35366" lon="4.04544">
        <ele>252.000443</ele>
        <time>2020-10-25T20:36:27.852Z</time>
      </trkpt>
      <trkpt lat="46.35438" lon="4.04508">
        <ele>255.593795</ele>
        <time>2020-10-25T20:37:05.178Z</time>
      </trkpt>
      <trkpt lat="46.35447" lon="4.04492">
        <ele>256.283253</ele>
        <time>2020-10-25T20:37:13.672Z</time>
      </trkpt>
      <trkpt lat="46.35454" lon="4.04464">
        <ele>257.249226</ele>
        <time>2020-10-25T20:37:22.026Z</time>
      </trkpt>
      <trkpt lat="46.35456" lon="4.0445">
        <ele>257.710614</ele>
        <time>2020-10-25T20:37:28.458Z</time>
      </trkpt>
      <trkpt lat="46.35453" lon="4.0445">
        <ele>257.873782</ele>
        <time>2020-10-25T20:37:30.249Z</time>
      </trkpt>
      <trkpt lat="46.35379" lon="4.0444">
        <ele>260.964711</ele>
        <time>2020-10-25T20:38:05.466Z</time>
      </trkpt>
      <trkpt lat="46.35179" lon="4.04441">
        <ele>267.115811</ele>
        <time>2020-10-25T20:39:23.683Z</time>
      </trkpt>
      <trkpt lat="46.35152" lon="4.04444">
        <ele>267.577774</ele>
        <time>2020-10-25T20:39:32.699Z</time>
      </trkpt>
      <trkpt lat="46.35139" lon="4.04446">
        <ele>267.791403</ele>
        <time>2020-10-25T20:39:36.072Z</time>
      </trkpt>
      <trkpt lat="46.35005" lon="4.04472">
        <ele>268.385947</ele>
        <time>2020-10-25T20:40:07.189Z</time>
      </trkpt>
      <trkpt lat="46.35" lon="4.04469">
        <ele>268.322193</ele>
        <time>2020-10-25T20:40:08.049Z</time>
      </trkpt>
      <trkpt lat="46.34996" lon="4.04464">
        <ele>268.24922</ele>
        <time>2020-10-25T20:40:08.855Z</time>
      </trkpt>
      <trkpt lat="46.34943" lon="4.04366">
        <ele>267.141529</ele>
        <time>2020-10-25T20:40:22.266Z</time>
      </trkpt>
      <trkpt lat="46.34886" lon="4.0426">
        <ele>265.304071</ele>
        <time>2020-10-25T20:40:35.849Z</time>
      </trkpt>
      <trkpt lat="46.34865" lon="4.04219">
        <ele>264.503089</ele>
        <time>2020-10-25T20:40:41.167Z</time>
      </trkpt>
      <trkpt lat="46.34856" lon="4.04202">
        <ele>264.17863</ele>
        <time>2020-10-25T20:40:43.445Z</time>
      </trkpt>
      <trkpt lat="46.34852" lon="4.04195">
        <ele>264.03794</ele>
        <time>2020-10-25T20:40:44.383Z</time>
      </trkpt>
      <trkpt lat="46.3485" lon="4.04189">
        <ele>263.943007</ele>
        <time>2020-10-25T20:40:44.935Z</time>
      </trkpt>
      <trkpt lat="46.3484" lon="4.04141">
        <ele>263.163069</ele>
        <time>2020-10-25T20:40:50.242Z</time>
      </trkpt>
      <trkpt lat="46.3483" lon="4.03671">
        <ele>258.224194</ele>
        <time>2020-10-25T20:41:43.296Z</time>
      </trkpt>
      <trkpt lat="46.34809" lon="4.03563">
        <ele>257.040875</ele>
        <time>2020-10-25T20:41:55.707Z</time>
      </trkpt>
      <trkpt lat="46.34808" lon="4.03557">
        <ele>256.96448</ele>
        <time>2020-10-25T20:41:56.433Z</time>
      </trkpt>
      <trkpt lat="46.34798" lon="4.03557">
        <ele>256.813626</ele>
        <time>2020-10-25T20:41:57.952Z</time>
      </trkpt>
      <trkpt lat="46.34798" lon="4.0355">
        <ele>256.73008</ele>
        <time>2020-10-25T20:41:58.684Z</time>
      </trkpt>
      <trkpt lat="46.3478" lon="4.03473">
        <ele>255.809999</ele>
        <time>2020-10-25T20:42:07.638Z</time>
      </trkpt>
      <trkpt lat="46.34781" lon="4.03425">
        <ele>255.265905</ele>
        <time>2020-10-25T20:42:12.891Z</time>
      </trkpt>
      <trkpt lat="46.34849" lon="4.02951">
        <ele>250.205486</ele>
        <time>2020-10-25T20:43:06.720Z</time>
      </trkpt>
      <trkpt lat="46.3486" lon="4.02875">
        <ele>249.447296</ele>
        <time>2020-10-25T20:43:15.432Z</time>
      </trkpt>
      <trkpt lat="46.34866" lon="4.02832">
        <ele>249.056125</ele>
        <time>2020-10-25T20:43:20.479Z</time>
      </trkpt>
      <trkpt lat="46.34879" lon="4.02739">
        <ele>248.406091</ele>
        <time>2020-10-25T20:43:31.455Z</time>
      </trkpt>
      <trkpt lat="46.34881" lon="4.02725">
        <ele>248.302965</ele>
        <time>2020-10-25T20:43:33.392Z</time>
      </trkpt>
      <trkpt lat="46.34882" lon="4.02708">
        <ele>248.190921</ele>
        <time>2020-10-25T20:43:35.193Z</time>
      </trkpt>
      <trkpt lat="46.34881" lon="4.02688">
        <ele>248.049421</ele>
        <time>2020-10-25T20:43:37.721Z</time>
      </trkpt>
      <trkpt lat="46.34866" lon="4.02523">
        <ele>247.032579</ele>
        <time>2020-10-25T20:43:57.851Z</time>
      </trkpt>
      <trkpt lat="46.34875" lon="4.02464">
        <ele>246.725519</ele>
        <time>2020-10-25T20:44:05.566Z</time>
      </trkpt>
      <trkpt lat="46.34889" lon="4.02397">
        <ele>246.375577</ele>
        <time>2020-10-25T20:44:14.475Z</time>
      </trkpt>
      <trkpt lat="46.34892" lon="4.0238">
        <ele>246.287148</ele>
        <time>2020-10-25T20:44:16.558Z</time>
      </trkpt>
      <trkpt lat="46.34897" lon="4.02352">
        <ele>246.145011</ele>
        <time>2020-10-25T20:44:20.161Z</time>
      </trkpt>
      <trkpt lat="46.34897" lon="4.02346">
        <ele>246.115123</ele>
        <time>2020-10-25T20:44:20.913Z</time>
      </trkpt>
      <trkpt lat="46.34899" lon="4.02329">
        <ele>246.016745</ele>
        <time>2020-10-25T20:44:22.987Z</time>
      </trkpt>
      <trkpt lat="46.34901" lon="4.02296">
        <ele>245.81858</ele>
        <time>2020-10-25T20:44:27.028Z</time>
      </trkpt>
      <trkpt lat="46.3492" lon="4.0191">
        <ele>243.645505</ele>
        <time>2020-10-25T20:45:13.440Z</time>
      </trkpt>
      <trkpt lat="46.34921" lon="4.01882">
        <ele>243.506435</ele>
        <time>2020-10-25T20:45:16.975Z</time>
      </trkpt>
      <trkpt lat="46.34924" lon="4.01843">
        <ele>243.311016</ele>
        <time>2020-10-25T20:45:22.138Z</time>
      </trkpt>
      <trkpt lat="46.34926" lon="4.01827">
        <ele>243.229523</ele>
        <time>2020-10-25T20:45:24.263Z</time>
      </trkpt>
      <trkpt lat="46.34927" lon="4.0181">
        <ele>243.147259</ele>
        <time>2020-10-25T20:45:26.738Z</time>
      </trkpt>
      <trkpt lat="46.34964" lon="4.01727">
        <ele>242.72443</ele>
        <time>2020-10-25T20:45:39.847Z</time>
      </trkpt>
      <trkpt lat="46.35043" lon="4.0162">
        <ele>242.046544</ele>
        <time>2020-10-25T20:45:59.400Z</time>
      </trkpt>
      <trkpt lat="46.35098" lon="4.01515">
        <ele>240.986469</ele>
        <time>2020-10-25T20:46:14.389Z</time>
      </trkpt>
      <trkpt lat="46.35142" lon="4.01415">
        <ele>240.027554</ele>
        <time>2020-10-25T20:46:27.897Z</time>
      </trkpt>
      <trkpt lat="46.35204" lon="4.01278">
        <ele>239.457823</ele>
        <time>2020-10-25T20:46:47.736Z</time>
      </trkpt>
      <trkpt lat="46.35257" lon="4.01159">
        <ele>239.112901</ele>
        <time>2020-10-25T20:47:08.899Z</time>
      </trkpt>
      <trkpt lat="46.35281" lon="4.01107">
        <ele>239.103821</ele>
        <time>2020-10-25T20:47:18.685Z</time>
      </trkpt>
      <trkpt lat="46.35295" lon="4.01081">
        <ele>239.099187</ele>
        <time>2020-10-25T20:47:23.388Z</time>
      </trkpt>
      <trkpt lat="46.35328" lon="4.01037">
        <ele>239.089842</ele>
        <time>2020-10-25T20:47:32.546Z</time>
      </trkpt>
      <trkpt lat="46.35333" lon="4.01027">
        <ele>239.08807</ele>
        <time>2020-10-25T20:47:34.205Z</time>
      </trkpt>
      <trkpt lat="46.35336" lon="4.01017">
        <ele>239.086436</ele>
        <time>2020-10-25T20:47:35.685Z</time>
      </trkpt>
      <trkpt lat="46.35337" lon="4.00947">
        <ele>238.931533</ele>
        <time>2020-10-25T20:47:45.377Z</time>
      </trkpt>
      <trkpt lat="46.35338" lon="4.00934">
        <ele>238.866561</ele>
        <time>2020-10-25T20:47:47.076Z</time>
      </trkpt>
      <trkpt lat="46.35341" lon="4.00921">
        <ele>238.801769</ele>
        <time>2020-10-25T20:47:48.603Z</time>
      </trkpt>
      <trkpt lat="46.35414" lon="4.00796">
        <ele>237.988182</ele>
        <time>2020-10-25T20:48:08.335Z</time>
      </trkpt>
      <trkpt lat="46.35446" lon="4.00725">
        <ele>237.615987</ele>
        <time>2020-10-25T20:48:18.596Z</time>
      </trkpt>
      <trkpt lat="46.35455" lon="4.00697">
        <ele>237.498257</ele>
        <time>2020-10-25T20:48:22.459Z</time>
      </trkpt>
      <trkpt lat="46.35459" lon="4.00676">
        <ele>237.414721</ele>
        <time>2020-10-25T20:48:25.236Z</time>
      </trkpt>
      <trkpt lat="46.35475" lon="4.00564">
        <ele>236.97741</ele>
        <time>2020-10-25T20:48:39.951Z</time>
      </trkpt>
      <trkpt lat="46.35498" lon="4.00507">
        <ele>236.756002</ele>
        <time>2020-10-25T20:48:48.575Z</time>
      </trkpt>
      <trkpt lat="46.35638" lon="4.00158">
        <ele>236.076582</ele>
        <time>2020-10-25T20:49:43.031Z</time>
      </trkpt>
      <trkpt lat="46.35833" lon="3.99649">
        <ele>235.75434</ele>
        <time>2020-10-25T20:51:05.232Z</time>
      </trkpt>
      <trkpt lat="46.35883" lon="3.99522">
        <ele>235.713078</ele>
        <time>2020-10-25T20:51:26.301Z</time>
      </trkpt>
      <trkpt lat="46.35894" lon="3.99465">
        <ele>235.696091</ele>
        <time>2020-10-25T20:51:34.739Z</time>
      </trkpt>
      <trkpt lat="46.35919" lon="3.98912">
        <ele>235.897381</ele>
        <time>2020-10-25T20:52:52.855Z</time>
      </trkpt>
      <trkpt lat="46.35931" lon="3.98626">
        <ele>237.518677</ele>
        <time>2020-10-25T20:53:45.244Z</time>
      </trkpt>
      <trkpt lat="46.35938" lon="3.98459">
        <ele>238.309533</ele>
        <time>2020-10-25T20:54:15.996Z</time>
      </trkpt>
      <trkpt lat="46.35932" lon="3.98459">
        <ele>238.344088</ele>
        <time>2020-10-25T20:54:17.210Z</time>
      </trkpt>
      <trkpt lat="46.3582" lon="3.9851">
        <ele>238.806292</ele>
        <time>2020-10-25T20:54:43.411Z</time>
      </trkpt>
      <trkpt lat="46.35758" lon="3.9855">
        <ele>238.709609</ele>
        <time>2020-10-25T20:54:56.188Z</time>
      </trkpt>
      <trkpt lat="46.35737" lon="3.98553">
        <ele>238.679288</ele>
        <time>2020-10-25T20:55:00.250Z</time>
      </trkpt>
      <trkpt lat="46.35718" lon="3.98548">
        <ele>238.651248</ele>
        <time>2020-10-25T20:55:04.050Z</time>
      </trkpt>
      <trkpt lat="46.35563" lon="3.98463">
        <ele>238.516356</ele>
        <time>2020-10-25T20:55:38.036Z</time>
      </trkpt>
      <trkpt lat="46.35539" lon="3.98461">
        <ele>238.501445</ele>
        <time>2020-10-25T20:55:43.001Z</time>
      </trkpt>
      <trkpt lat="46.35134" lon="3.98523">
        <ele>238.341164</ele>
        <time>2020-10-25T20:57:06.398Z</time>
      </trkpt>
      <trkpt lat="46.34531" lon="3.98554">
        <ele>239.386182</ele>
        <time>2020-10-25T20:59:14.201Z</time>
      </trkpt>
      <trkpt lat="46.34457" lon="3.98545">
        <ele>239.968906</ele>
        <time>2020-10-25T20:59:34.264Z</time>
      </trkpt>
      <trkpt lat="46.3441" lon="3.98548">
        <ele>240.800586</ele>
        <time>2020-10-25T20:59:48.645Z</time>
      </trkpt>
      <trkpt lat="46.34403" lon="3.98545">
        <ele>241.011334</ele>
        <time>2020-10-25T20:59:51.352Z</time>
      </trkpt>
      <trkpt lat="46.344" lon="3.98538">
        <ele>241.153342</ele>
        <time>2020-10-25T20:59:53.248Z</time>
      </trkpt>
      <trkpt lat="46.344" lon="3.98512">
        <ele>241.626008</ele>
        <time>2020-10-25T20:59:58.981Z</time>
      </trkpt>
      <trkpt lat="46.34401" lon="3.98499">
        <ele>241.866168</ele>
        <time>2020-10-25T21:00:01.943Z</time>
      </trkpt>
      <trkpt lat="46.34402" lon="3.98468">
        <ele>242.440782</ele>
        <time>2020-10-25T21:00:09.486Z</time>
      </trkpt>
      <trkpt lat="46.34395" lon="3.98406">
        <ele>243.60295</ele>
        <time>2020-10-25T21:00:25.805Z</time>
      </trkpt>
      <trkpt lat="46.34389" lon="3.98378">
        <ele>244.134423</ele>
        <time>2020-10-25T21:00:34.502Z</time>
      </trkpt>
      <trkpt lat="46.34375" lon="3.98338">
        <ele>244.957683</ele>
        <time>2020-10-25T21:00:46.804Z</time>
      </trkpt>
      <trkpt lat="46.34361" lon="3.98312">
        <ele>245.707641</ele>
        <time>2020-10-25T21:00:55.528Z</time>
      </trkpt>
      <trkpt lat="46.34329" lon="3.983">
        <ele>246.744991</ele>
        <time>2020-10-25T21:01:08.052Z</time>
      </trkpt>
      <trkpt lat="46.34321" lon="3.98302">
        <ele>247.005518</ele>
        <time>2020-10-25T21:01:11.849Z</time>
      </trkpt>
      <trkpt lat="46.34313" lon="3.98307">
        <ele>247.276463</ele>
        <time>2020-10-25T21:01:15.380Z</time>
      </trkpt>
      <trkpt lat="46.34293" lon="3.98326">
        <ele>248.041398</ele>
        <time>2020-10-25T21:01:23.866Z</time>
      </trkpt>
      <trkpt lat="46.34282" lon="3.98329">
        <ele>248.38157</ele>
        <time>2020-10-25T21:01:28.703Z</time>
      </trkpt>
      <trkpt lat="46.34248" lon="3.98323">
        <ele>249.479927</ele>
        <time>2020-10-25T21:01:41.941Z</time>
      </trkpt>
      <trkpt lat="46.34229" lon="3.98327">
        <ele>250.07151</ele>
        <time>2020-10-25T21:01:48.079Z</time>
      </trkpt>
      <trkpt lat="46.34172" lon="3.9838">
        <ele>252.273944</ele>
        <time>2020-10-25T21:02:14.719Z</time>
      </trkpt>
      <trkpt lat="46.34083" lon="3.98392">
        <ele>255.149618</ele>
        <time>2020-10-25T21:02:48.607Z</time>
      </trkpt>
      <trkpt lat="46.34053" lon="3.98385">
        <ele>256.104175</ele>
        <time>2020-10-25T21:03:00.561Z</time>
      </trkpt>
      <trkpt lat="46.33963" lon="3.98349">
        <ele>259.036978</ele>
        <time>2020-10-25T21:03:38.901Z</time>
      </trkpt>
      <trkpt lat="46.3393" lon="3.98343">
        <ele>260.09028</ele>
        <time>2020-10-25T21:03:52.211Z</time>
      </trkpt>
      <trkpt lat="46.33841" lon="3.98343">
        <ele>262.55422</ele>
        <time>2020-10-25T21:04:23.689Z</time>
      </trkpt>
      <trkpt lat="46.33787" lon="3.98334">
        <ele>263.604551</ele>
        <time>2020-10-25T21:04:40.932Z</time>
      </trkpt>
      <trkpt lat="46.33739" lon="3.98337">
        <ele>264.549587</ele>
        <time>2020-10-25T21:04:55.626Z</time>
      </trkpt>
      <trkpt lat="46.33662" lon="3.98353">
        <ele>266.264203</ele>
        <time>2020-10-25T21:05:17.715Z</time>
      </trkpt>
      <trkpt lat="46.33618" lon="3.9835">
        <ele>267.435989</ele>
        <time>2020-10-25T21:05:33.061Z</time>
      </trkpt>
      <trkpt lat="46.33585" lon="3.98334">
        <ele>268.402439</ele>
        <time>2020-10-25T21:05:46.422Z</time>
      </trkpt>
      <trkpt lat="46.33542" lon="3.98251">
        <ele>270.342333</ele>
        <time>2020-10-25T21:06:14.269Z</time>
      </trkpt>
      <trkpt lat="46.33534" lon="3.9824">
        <ele>270.616146</ele>
        <time>2020-10-25T21:06:19.640Z</time>
      </trkpt>
      <trkpt lat="46.33525" lon="3.9823">
        <ele>270.913773</ele>
        <time>2020-10-25T21:06:24.235Z</time>
      </trkpt>
      <trkpt lat="46.3334" lon="3.98102">
        <ele>275.573401</ele>
        <time>2020-10-25T21:07:34.156Z</time>
      </trkpt>
      <trkpt lat="46.33329" lon="3.98096">
        <ele>275.716865</ele>
        <time>2020-10-25T21:07:37.217Z</time>
      </trkpt>
      <trkpt lat="46.33324" lon="3.98088">
        <ele>275.809214</ele>
        <time>2020-10-25T21:07:38.907Z</time>
      </trkpt>
      <trkpt lat="46.33321" lon="3.98079">
        <ele>275.899427</ele>
        <time>2020-10-25T21:07:40.466Z</time>
      </trkpt>
      <trkpt lat="46.33318" lon="3.98053">
        <ele>276.118465</ele>
        <time>2020-10-25T21:07:44.304Z</time>
      </trkpt>
      <trkpt lat="46.33318" lon="3.97986">
        <ele>276.68662</ele>
        <time>2020-10-25T21:07:55.833Z</time>
      </trkpt>
      <trkpt lat="46.33318" lon="3.97957">
        <ele>276.939612</ele>
        <time>2020-10-25T21:08:00.758Z</time>
      </trkpt>
      <trkpt lat="46.33317" lon="3.97847">
        <ele>278.327195</ele>
        <time>2020-10-25T21:08:22.027Z</time>
      </trkpt>
      <trkpt lat="46.33313" lon="3.97697">
        <ele>280.522893</ele>
        <time>2020-10-25T21:08:56.941Z</time>
      </trkpt>
      <trkpt lat="46.33308" lon="3.97626">
        <ele>281.606958</ele>
        <time>2020-10-25T21:09:16.134Z</time>
      </trkpt>
      <trkpt lat="46.33315" lon="3.97518">
        <ele>283.301052</ele>
        <time>2020-10-25T21:09:44.112Z</time>
      </trkpt>
      <trkpt lat="46.33313" lon="3.97446">
        <ele>284.430711</ele>
        <time>2020-10-25T21:09:59.686Z</time>
      </trkpt>
      <trkpt lat="46.33296" lon="3.9736">
        <ele>285.363826</ele>
        <time>2020-10-25T21:10:16.478Z</time>
      </trkpt>
      <trkpt lat="46.33273" lon="3.97289">
        <ele>285.738165</ele>
        <time>2020-10-25T21:10:29.957Z</time>
      </trkpt>
      <trkpt lat="46.33267" lon="3.97271">
        <ele>285.831682</ele>
        <time>2020-10-25T21:10:32.897Z</time>
      </trkpt>
      <trkpt lat="46.33249" lon="3.97201">
        <ele>286.186721</ele>
        <time>2020-10-25T21:10:44.758Z</time>
      </trkpt>
      <trkpt lat="46.33245" lon="3.97165">
        <ele>286.363124</ele>
        <time>2020-10-25T21:10:50.354Z</time>
      </trkpt>
      <trkpt lat="46.33247" lon="3.96855">
        <ele>287.796237</ele>
        <time>2020-10-25T21:11:43.351Z</time>
      </trkpt>
      <trkpt lat="46.33245" lon="3.96802">
        <ele>288.033352</ele>
        <time>2020-10-25T21:11:52.824Z</time>
      </trkpt>
      <trkpt lat="46.33237" lon="3.96763">
        <ele>288.215092</ele>
        <time>2020-10-25T21:12:00.033Z</time>
      </trkpt>
      <trkpt lat="46.33205" lon="3.9669">
        <ele>288.605301</ele>
        <time>2020-10-25T21:12:14.833Z</time>
      </trkpt>
      <trkpt lat="46.3313" lon="3.96628">
        <ele>288.560787</ele>
        <time>2020-10-25T21:12:33.931Z</time>
      </trkpt>
      <trkpt lat="46.33113" lon="3.96607">
        <ele>288.478967</ele>
        <time>2020-10-25T21:12:38.501Z</time>
      </trkpt>
      <trkpt lat="46.3303" lon="3.96381">
        <ele>287.704285</ele>
        <time>2020-10-25T21:13:09.772Z</time>
      </trkpt>
      <trkpt lat="46.32998" lon="3.9632">
        <ele>287.42011</ele>
        <time>2020-10-25T21:13:19.211Z</time>
      </trkpt>
      <trkpt lat="46.32898" lon="3.96127">
        <ele>287.486264</ele>
        <time>2020-10-25T21:13:53.167Z</time>
      </trkpt>
      <trkpt lat="46.32886" lon="3.96081">
        <ele>287.57867</ele>
        <time>2020-10-25T21:14:01.598Z</time>
      </trkpt>
      <trkpt lat="46.32874" lon="3.95902">
        <ele>289.133363</ele>
        <time>2020-10-25T21:14:35.292Z</time>
      </trkpt>
      <trkpt lat="46.32862" lon="3.95846">
        <ele>289.747642</ele>
        <time>2020-10-25T21:14:47.687Z</time>
      </trkpt>
      <trkpt lat="46.32841" lon="3.9579">
        <ele>290.421338</ele>
        <time>2020-10-25T21:15:01.787Z</time>
      </trkpt>
      <trkpt lat="46.32822" lon="3.95759">
        <ele>291.164927</ele>
        <time>2020-10-25T21:15:11.731Z</time>
      </trkpt>
      <trkpt lat="46.32752" lon="3.95692">
        <ele>293.295501</ele>
        <time>2020-10-25T21:15:41.515Z</time>
      </trkpt>
      <trkpt lat="46.32712" lon="3.95643">
        <ele>294.617442</ele>
        <time>2020-10-25T21:16:00.121Z</time>
      </trkpt>
      <trkpt lat="46.32657" lon="3.95548">
        <ele>296.839613</ele>
        <time>2020-10-25T21:16:31.154Z</time>
      </trkpt>
      <trkpt lat="46.32619" lon="3.95479">
        <ele>298.411577</ele>
        <time>2020-10-25T21:16:52.461Z</time>
      </trkpt>
      <trkpt lat="46.32603" lon="3.95446">
        <ele>299.148252</ele>
        <time>2020-10-25T21:17:02.388Z</time>
      </trkpt>
      <trkpt lat="46.32592" lon="3.95412">
        <ele>299.79586</ele>
        <time>2020-10-25T21:17:11.323Z</time>
      </trkpt>
      <trkpt lat="46.32562" lon="3.9523">
        <ele>302.744811</ele>
        <time>2020-10-25T21:17:55.813Z</time>
      </trkpt>
      <trkpt lat="46.32523" lon="3.9508">
        <ele>304.581356</ele>
        <time>2020-10-25T21:18:30.112Z</time>
      </trkpt>
      <trkpt lat="46.32431" lon="3.94863">
        <ele>306.256235</ele>
        <time>2020-10-25T21:19:15.814Z</time>
      </trkpt>
      <trkpt lat="46.32373" lon="3.94699">
        <ele>306.590812</ele>
        <time>2020-10-25T21:19:43.711Z</time>
      </trkpt>
      <trkpt lat="46.32314" lon="3.94586">
        <ele>305.565783</ele>
        <time>2020-10-25T21:20:01.330Z</time>
      </trkpt>
      <trkpt lat="46.32312" lon="3.94578">
        <ele>305.503499</ele>
        <time>2020-10-25T21:20:02.449Z</time>
      </trkpt>
      <trkpt lat="46.32302" lon="3.94579">
        <ele>305.400676</ele>
        <time>2020-10-25T21:20:04.089Z</time>
      </trkpt>
      <trkpt lat="46.32296" lon="3.9458">
        <ele>305.334545</ele>
        <time>2020-10-25T21:20:04.910Z</time>
      </trkpt>
      <trkpt lat="46.32294" lon="3.9456">
        <ele>305.186738</ele>
        <time>2020-10-25T21:20:07.389Z</time>
      </trkpt>
      <trkpt lat="46.3229" lon="3.9454">
        <ele>305.037629</ele>
        <time>2020-10-25T21:20:09.872Z</time>
      </trkpt>
      <trkpt lat="46.32265" lon="3.94441">
        <ele>303.72841</ele>
        <time>2020-10-25T21:20:20.813Z</time>
      </trkpt>
      <trkpt lat="46.32261" lon="3.94443">
        <ele>303.631546</ele>
        <time>2020-10-25T21:20:21.380Z</time>
      </trkpt>
      <trkpt lat="46.32142" lon="3.94398">
        <ele>301.053179</ele>
        <time>2020-10-25T21:20:39.901Z</time>
      </trkpt>
      <trkpt lat="46.32127" lon="3.94402">
        <ele>300.94889</ele>
        <time>2020-10-25T21:20:42.454Z</time>
      </trkpt>
      <trkpt lat="46.31774" lon="3.94738">
        <ele>299.303466</ele>
        <time>2020-10-25T21:22:03.168Z</time>
      </trkpt>
      <trkpt lat="46.31616" lon="3.94855">
        <ele>298.624161</ele>
        <time>2020-10-25T21:22:43.184Z</time>
      </trkpt>
      <trkpt lat="46.31582" lon="3.94874">
        <ele>298.287307</ele>
        <time>2020-10-25T21:22:49.114Z</time>
      </trkpt>
      <trkpt lat="46.31519" lon="3.94897">
        <ele>297.677745</ele>
        <time>2020-10-25T21:22:59.150Z</time>
      </trkpt>
      <trkpt lat="46.31485" lon="3.94908">
        <ele>296.9142</ele>
        <time>2020-10-25T21:23:04.338Z</time>
      </trkpt>
      <trkpt lat="46.31479" lon="3.94906">
        <ele>296.751037</ele>
        <time>2020-10-25T21:23:05.290Z</time>
      </trkpt>
      <trkpt lat="46.3147" lon="3.94896">
        <ele>296.483583</ele>
        <time>2020-10-25T21:23:07.031Z</time>
      </trkpt>
      <trkpt lat="46.31467" lon="3.94885">
        <ele>296.305723</ele>
        <time>2020-10-25T21:23:08.187Z</time>
      </trkpt>
      <trkpt lat="46.31466" lon="3.94849">
        <ele>295.722418</ele>
        <time>2020-10-25T21:23:11.746Z</time>
      </trkpt>
      <trkpt lat="46.31457" lon="3.94749">
        <ele>294.083682</ele>
        <time>2020-10-25T21:23:22.035Z</time>
      </trkpt>
      <trkpt lat="46.31436" lon="3.94657">
        <ele>293.758299</ele>
        <time>2020-10-25T21:23:32.480Z</time>
      </trkpt>
      <trkpt lat="46.31438" lon="3.94604">
        <ele>294.056615</ele>
        <time>2020-10-25T21:23:40.294Z</time>
      </trkpt>
      <trkpt lat="46.31434" lon="3.94571">
        <ele>294.249599</ele>
        <time>2020-10-25T21:23:46.427Z</time>
      </trkpt>
      <trkpt lat="46.31296" lon="3.94258">
        <ele>299.392624</ele>
        <time>2020-10-25T21:25:17.606Z</time>
      </trkpt>
      <trkpt lat="46.31289" lon="3.94244">
        <ele>299.612673</ele>
        <time>2020-10-25T21:25:22.128Z</time>
      </trkpt>
      <trkpt lat="46.31284" lon="3.94233">
        <ele>299.763161</ele>
        <time>2020-10-25T21:25:25.321Z</time>
      </trkpt>
      <trkpt lat="46.31228" lon="3.93999">
        <ele>302.48453</ele>
        <time>2020-10-25T21:26:16.461Z</time>
      </trkpt>
      <trkpt lat="46.31166" lon="3.93786">
        <ele>302.845283</ele>
        <time>2020-10-25T21:26:49.498Z</time>
      </trkpt>
      <trkpt lat="46.3113" lon="3.93642">
        <ele>303.089647</ele>
        <time>2020-10-25T21:27:11.329Z</time>
      </trkpt>
      <trkpt lat="46.31106" lon="3.93543">
        <ele>303.258378</ele>
        <time>2020-10-25T21:27:27.746Z</time>
      </trkpt>
      <trkpt lat="46.31098" lon="3.93499">
        <ele>303.452711</ele>
        <time>2020-10-25T21:27:35.694Z</time>
      </trkpt>
      <trkpt lat="46.31068" lon="3.93332">
        <ele>304.557762</ele>
        <time>2020-10-25T21:28:07.834Z</time>
      </trkpt>
      <trkpt lat="46.31062" lon="3.93307">
        <ele>304.721137</ele>
        <time>2020-10-25T21:28:12.738Z</time>
      </trkpt>
      <trkpt lat="46.31053" lon="3.93287">
        <ele>304.876053</ele>
        <time>2020-10-25T21:28:17.113Z</time>
      </trkpt>
      <trkpt lat="46.30844" lon="3.92838">
        <ele>307.137456</ele>
        <time>2020-10-25T21:29:47.812Z</time>
      </trkpt>
      <trkpt lat="46.3072" lon="3.92571">
        <ele>307.401886</ele>
        <time>2020-10-25T21:30:33.635Z</time>
      </trkpt>
      <trkpt lat="46.30702" lon="3.92529">
        <ele>307.519961</ele>
        <time>2020-10-25T21:30:41.277Z</time>
      </trkpt>
      <trkpt lat="46.30684" lon="3.9248">
        <ele>307.651498</ele>
        <time>2020-10-25T21:30:50.122Z</time>
      </trkpt>
      <trkpt lat="46.30592" lon="3.92247">
        <ele>308.467513</ele>
        <time>2020-10-25T21:31:35.111Z</time>
      </trkpt>
      <trkpt lat="46.30583" lon="3.92206">
        <ele>308.614931</ele>
        <time>2020-10-25T21:31:42.070Z</time>
      </trkpt>
      <trkpt lat="46.30583" lon="3.92106">
        <ele>308.511808</ele>
        <time>2020-10-25T21:31:57.084Z</time>
      </trkpt>
      <trkpt lat="46.30582" lon="3.91517">
        <ele>306.173363</ele>
        <time>2020-10-25T21:33:11.402Z</time>
      </trkpt>
      <trkpt lat="46.3058" lon="3.91488">
        <ele>306.003438</ele>
        <time>2020-10-25T21:33:14.651Z</time>
      </trkpt>
      <trkpt lat="46.30538" lon="3.91382">
        <ele>305.404552</ele>
        <time>2020-10-25T21:33:28.747Z</time>
      </trkpt>
      <trkpt lat="46.30534" lon="3.91361">
        <ele>305.390947</ele>
        <time>2020-10-25T21:33:31.315Z</time>
      </trkpt>
      <trkpt lat="46.30544" lon="3.91229">
        <ele>305.307296</ele>
        <time>2020-10-25T21:33:48.255Z</time>
      </trkpt>
      <trkpt lat="46.30529" lon="3.90996">
        <ele>306.912409</ele>
        <time>2020-10-25T21:34:33.095Z</time>
      </trkpt>
      <trkpt lat="46.30522" lon="3.90964">
        <ele>307.278321</ele>
        <time>2020-10-25T21:34:40.848Z</time>
      </trkpt>
      <trkpt lat="46.30467" lon="3.90823">
        <ele>308.881414</ele>
        <time>2020-10-25T21:35:17.492Z</time>
      </trkpt>
      <trkpt lat="46.30433" lon="3.90686">
        <ele>310.198955</ele>
        <time>2020-10-25T21:35:45.764Z</time>
      </trkpt>
      <trkpt lat="46.30432" lon="3.90667">
        <ele>310.374773</ele>
        <time>2020-10-25T21:35:49.068Z</time>
      </trkpt>
      <trkpt lat="46.30589" lon="3.90074">
        <ele>309.398743</ele>
        <time>2020-10-25T21:37:10.675Z</time>
      </trkpt>
      <trkpt lat="46.30593" lon="3.90047">
        <ele>309.505536</ele>
        <time>2020-10-25T21:37:15.950Z</time>
      </trkpt>
      <trkpt lat="46.30593" lon="3.90006">
        <ele>309.666743</ele>
        <time>2020-10-25T21:37:23.494Z</time>
      </trkpt>
      <trkpt lat="46.30593" lon="3.89967">
        <ele>309.820865</ele>
        <time>2020-10-25T21:37:30.774Z</time>
      </trkpt>
      <trkpt lat="46.30593" lon="3.89918">
        <ele>310.03499</ele>
        <time>2020-10-25T21:37:40.715Z</time>
      </trkpt>
      <trkpt lat="46.30591" lon="3.899">
        <ele>310.262608</ele>
        <time>2020-10-25T21:37:44.984Z</time>
      </trkpt>
      <trkpt lat="46.30592" lon="3.89882">
        <ele>310.495233</ele>
        <time>2020-10-25T21:37:48.637Z</time>
      </trkpt>
      <trkpt lat="46.30598" lon="3.89866">
        <ele>310.725356</ele>
        <time>2020-10-25T21:37:52.215Z</time>
      </trkpt>
      <trkpt lat="46.306" lon="3.89861">
        <ele>310.797202</ele>
        <time>2020-10-25T21:37:53.864Z</time>
      </trkpt>
      <trkpt lat="46.30591" lon="3.89853">
        <ele>310.999968</ele>
        <time>2020-10-25T21:37:57.351Z</time>
      </trkpt>
      <trkpt lat="46.30581" lon="3.89839">
        <ele>311.247196</ele>
        <time>2020-10-25T21:38:01.069Z</time>
      </trkpt>
      <trkpt lat="46.30579" lon="3.89835">
        <ele>311.315847</ele>
        <time>2020-10-25T21:38:02.359Z</time>
      </trkpt>
      <trkpt lat="46.30566" lon="3.89786">
        <ele>311.980529</ele>
        <time>2020-10-25T21:38:14.561Z</time>
      </trkpt>
      <trkpt lat="46.30563" lon="3.89765">
        <ele>312.24603</ele>
        <time>2020-10-25T21:38:20.111Z</time>
      </trkpt>
      <trkpt lat="46.30559" lon="3.89739">
        <ele>312.589053</ele>
        <time>2020-10-25T21:38:25.461Z</time>
      </trkpt>
      <trkpt lat="46.30541" lon="3.89568">
        <ele>314.402982</ele>
        <time>2020-10-25T21:39:00.521Z</time>
      </trkpt>
      <trkpt lat="46.30533" lon="3.89393">
        <ele>316.039678</ele>
        <time>2020-10-25T21:39:33.589Z</time>
      </trkpt>
      <trkpt lat="46.30533" lon="3.89273">
        <ele>317.061192</ele>
        <time>2020-10-25T21:39:57.265Z</time>
      </trkpt>
      <trkpt lat="46.30546" lon="3.8917">
        <ele>317.957308</ele>
        <time>2020-10-25T21:40:17.456Z</time>
      </trkpt>
      <trkpt lat="46.30544" lon="3.89153">
        <ele>318.065855</ele>
        <time>2020-10-25T21:40:20.904Z</time>
      </trkpt>
      <trkpt lat="46.30524" lon="3.89073">
        <ele>318.549193</ele>
        <time>2020-10-25T21:40:36.134Z</time>
      </trkpt>
      <trkpt lat="46.30508" lon="3.89035">
        <ele>318.805377</ele>
        <time>2020-10-25T21:40:44.001Z</time>
      </trkpt>
      <trkpt lat="46.30475" lon="3.88987">
        <ele>319.191916</ele>
        <time>2020-10-25T21:40:55.712Z</time>
      </trkpt>
      <trkpt lat="46.3045" lon="3.88965">
        <ele>319.436326</ele>
        <time>2020-10-25T21:41:02.675Z</time>
      </trkpt>
      <trkpt lat="46.30443" lon="3.88962">
        <ele>319.483823</ele>
        <time>2020-10-25T21:41:04.528Z</time>
      </trkpt>
      <trkpt lat="46.30432" lon="3.88962">
        <ele>319.511969</ele>
        <time>2020-10-25T21:41:06.917Z</time>
      </trkpt>
      <trkpt lat="46.30386" lon="3.88963">
        <ele>319.628119</ele>
        <time>2020-10-25T21:41:17.102Z</time>
      </trkpt>
      <trkpt lat="46.30361" lon="3.88943">
        <ele>319.701886</ele>
        <time>2020-10-25T21:41:23.494Z</time>
      </trkpt>
      <trkpt lat="46.30171" lon="3.88494">
        <ele>320.470914</ele>
        <time>2020-10-25T21:42:43.586Z</time>
      </trkpt>
      <trkpt lat="46.30158" lon="3.88453">
        <ele>320.495591</ele>
        <time>2020-10-25T21:42:50.288Z</time>
      </trkpt>
      <trkpt lat="46.3015" lon="3.8842">
        <ele>320.514436</ele>
        <time>2020-10-25T21:42:55.406Z</time>
      </trkpt>
      <trkpt lat="46.30102" lon="3.88205">
        <ele>320.055189</ele>
        <time>2020-10-25T21:43:25.873Z</time>
      </trkpt>
      <trkpt lat="46.30097" lon="3.88179">
        <ele>319.982858</ele>
        <time>2020-10-25T21:43:29.472Z</time>
      </trkpt>
      <trkpt lat="46.30096" lon="3.88161">
        <ele>319.934761</ele>
        <time>2020-10-25T21:43:31.539Z</time>
      </trkpt>
      <trkpt lat="46.30124" lon="3.87874">
        <ele>318.764415</ele>
        <time>2020-10-25T21:44:07.892Z</time>
      </trkpt>
      <trkpt lat="46.30138" lon="3.87764">
        <ele>318.44564</ele>
        <time>2020-10-25T21:44:22.458Z</time>
      </trkpt>
      <trkpt lat="46.30144" lon="3.87714">
        <ele>318.30563</ele>
        <time>2020-10-25T21:44:29.167Z</time>
      </trkpt>
      <trkpt lat="46.30143" lon="3.87671">
        <ele>318.187115</ele>
        <time>2020-10-25T21:44:34.886Z</time>
      </trkpt>
      <trkpt lat="46.30124" lon="3.8764">
        <ele>318.074474</ele>
        <time>2020-10-25T21:44:40.384Z</time>
      </trkpt>
      <trkpt lat="46.29928" lon="3.87496">
        <ele>317.03892</ele>
        <time>2020-10-25T21:45:21.593Z</time>
      </trkpt>
      <trkpt lat="46.29909" lon="3.87484">
        <ele>316.909281</ele>
        <time>2020-10-25T21:45:25.427Z</time>
      </trkpt>
      <trkpt lat="46.29886" lon="3.87471">
        <ele>316.758134</ele>
        <time>2020-10-25T21:45:29.826Z</time>
      </trkpt>
      <trkpt lat="46.29767" lon="3.87394">
        <ele>316.020664</ele>
        <time>2020-10-25T21:45:53.335Z</time>
      </trkpt>
      <trkpt lat="46.29681" lon="3.87326">
        <ele>315.724498</ele>
        <time>2020-10-25T21:46:11.626Z</time>
      </trkpt>
      <trkpt lat="46.29594" lon="3.8729">
        <ele>315.672167</ele>
        <time>2020-10-25T21:46:30.253Z</time>
      </trkpt>
      <trkpt lat="46.29507" lon="3.87224">
        <ele>316.10347</ele>
        <time>2020-10-25T21:46:52.569Z</time>
      </trkpt>
      <trkpt lat="46.29495" lon="3.87216">
        <ele>316.161626</ele>
        <time>2020-10-25T21:46:55.672Z</time>
      </trkpt>
      <trkpt lat="46.29374" lon="3.87123">
        <ele>317.928661</ele>
        <time>2020-10-25T21:47:32.257Z</time>
      </trkpt>
      <trkpt lat="46.29212" lon="3.86974">
        <ele>322.025764</ele>
        <time>2020-10-25T21:48:37.772Z</time>
      </trkpt>
      <trkpt lat="46.29199" lon="3.86957">
        <ele>322.458949</ele>
        <time>2020-10-25T21:48:44.669Z</time>
      </trkpt>
      <trkpt lat="46.29176" lon="3.86917">
        <ele>323.36171</ele>
        <time>2020-10-25T21:48:57.862Z</time>
      </trkpt>
      <trkpt lat="46.28985" lon="3.86559">
        <ele>329.818232</ele>
        <time>2020-10-25T21:50:42.086Z</time>
      </trkpt>
      <trkpt lat="46.28965" lon="3.86517">
        <ele>330.403851</ele>
        <time>2020-10-25T21:50:51.647Z</time>
      </trkpt>
      <trkpt lat="46.28914" lon="3.8637">
        <ele>330.428531</ele>
        <time>2020-10-25T21:51:16.644Z</time>
      </trkpt>
      <trkpt lat="46.28908" lon="3.8635">
        <ele>330.354311</ele>
        <time>2020-10-25T21:51:19.588Z</time>
      </trkpt>
      <trkpt lat="46.28906" lon="3.86339">
        <ele>330.314927</ele>
        <time>2020-10-25T21:51:20.828Z</time>
      </trkpt>
      <trkpt lat="46.28903" lon="3.86311">
        <ele>330.219397</ele>
        <time>2020-10-25T21:51:24.353Z</time>
      </trkpt>
      <trkpt lat="46.28905" lon="3.86283">
        <ele>330.12264</ele>
        <time>2020-10-25T21:51:27.553Z</time>
      </trkpt>
      <trkpt lat="46.28941" lon="3.86137">
        <ele>328.48292</ele>
        <time>2020-10-25T21:51:44.385Z</time>
      </trkpt>
      <trkpt lat="46.28946" lon="3.86091">
        <ele>327.843041</ele>
        <time>2020-10-25T21:51:49.356Z</time>
      </trkpt>
      <trkpt lat="46.28938" lon="3.86026">
        <ele>326.947166</ele>
        <time>2020-10-25T21:51:56.235Z</time>
      </trkpt>
      <trkpt lat="46.2892" lon="3.85974">
        <ele>326.171833</ele>
        <time>2020-10-25T21:52:02.398Z</time>
      </trkpt>
      <trkpt lat="46.28916" lon="3.85944">
        <ele>325.784868</ele>
        <time>2020-10-25T21:52:05.653Z</time>
      </trkpt>
      <trkpt lat="46.2891" lon="3.85863">
        <ele>324.740455</ele>
        <time>2020-10-25T21:52:14.379Z</time>
      </trkpt>
      <trkpt lat="46.28906" lon="3.85818">
        <ele>324.15453</ele>
        <time>2020-10-25T21:52:19.288Z</time>
      </trkpt>
      <trkpt lat="46.28912" lon="3.85763">
        <ele>323.437014</ele>
        <time>2020-10-25T21:52:25.377Z</time>
      </trkpt>
      <trkpt lat="46.28928" lon="3.85712">
        <ele>322.835828</ele>
        <time>2020-10-25T21:52:31.513Z</time>
      </trkpt>
      <trkpt lat="46.28937" lon="3.85679">
        <ele>322.530519</ele>
        <time>2020-10-25T21:52:35.328Z</time>
      </trkpt>
      <trkpt lat="46.29059" lon="3.85196">
        <ele>319.455206</ele>
        <time>2020-10-25T21:53:35.639Z</time>
      </trkpt>
      <trkpt lat="46.29063" lon="3.85143">
        <ele>319.893604</ele>
        <time>2020-10-25T21:53:44.761Z</time>
      </trkpt>
      <trkpt lat="46.2906" lon="3.85091">
        <ele>320.334167</ele>
        <time>2020-10-25T21:53:55.041Z</time>
      </trkpt>
      <trkpt lat="46.29003" lon="3.84799">
        <ele>325.377557</ele>
        <time>2020-10-25T21:55:12.264Z</time>
      </trkpt>
      <trkpt lat="46.28965" lon="3.84654">
        <ele>328.343454</ele>
        <time>2020-10-25T21:55:54.573Z</time>
      </trkpt>
      <trkpt lat="46.28939" lon="3.84505">
        <ele>331.193534</ele>
        <time>2020-10-25T21:56:32.510Z</time>
      </trkpt>
      <trkpt lat="46.28879" lon="3.84062">
        <ele>334.026139</ele>
        <time>2020-10-25T21:57:54.540Z</time>
      </trkpt>
      <trkpt lat="46.28873" lon="3.83988">
        <ele>334.292945</ele>
        <time>2020-10-25T21:58:04.520Z</time>
      </trkpt>
      <trkpt lat="46.28874" lon="3.83918">
        <ele>333.487409</ele>
        <time>2020-10-25T21:58:13.062Z</time>
      </trkpt>
      <trkpt lat="46.28868" lon="3.83868">
        <ele>332.886155</ele>
        <time>2020-10-25T21:58:19.079Z</time>
      </trkpt>
      <trkpt lat="46.28848" lon="3.83803">
        <ele>332.065595</ele>
        <time>2020-10-25T21:58:26.606Z</time>
      </trkpt>
      <trkpt lat="46.28783" lon="3.83658">
        <ele>329.264229</ele>
        <time>2020-10-25T21:58:43.846Z</time>
      </trkpt>
      <trkpt lat="46.28774" lon="3.83634">
        <ele>328.733748</ele>
        <time>2020-10-25T21:58:46.593Z</time>
      </trkpt>
      <trkpt lat="46.28769" lon="3.83607">
        <ele>328.203173</ele>
        <time>2020-10-25T21:58:49.321Z</time>
      </trkpt>
      <trkpt lat="46.28737" lon="3.83439">
        <ele>325.423204</ele>
        <time>2020-10-25T21:59:06.948Z</time>
      </trkpt>
      <trkpt lat="46.28682" lon="3.83252">
        <ele>323.32661</ele>
        <time>2020-10-25T21:59:30.254Z</time>
      </trkpt>
      <trkpt lat="46.28671" lon="3.83216">
        <ele>323.361261</ele>
        <time>2020-10-25T21:59:35.448Z</time>
      </trkpt>
      <trkpt lat="46.2865" lon="3.83149">
        <ele>323.426098</ele>
        <time>2020-10-25T21:59:45.610Z</time>
      </trkpt>
      <trkpt lat="46.28593" lon="3.82931">
        <ele>324.518919</ele>
        <time>2020-10-25T22:00:26.306Z</time>
      </trkpt>
      <trkpt lat="46.28565" lon="3.82862">
        <ele>325.289796</ele>
        <time>2020-10-25T22:00:42.904Z</time>
      </trkpt>
      <trkpt lat="46.28552" lon="3.82829">
        <ele>325.657802</ele>
        <time>2020-10-25T22:00:51.271Z</time>
      </trkpt>
      <trkpt lat="46.28526" lon="3.82755">
        <ele>326.648835</ele>
        <time>2020-10-25T22:01:08.802Z</time>
      </trkpt>
      <trkpt lat="46.28517" lon="3.8274">
        <ele>326.939046</ele>
        <time>2020-10-25T22:01:13.519Z</time>
      </trkpt>
      <trkpt lat="46.28451" lon="3.82655">
        <ele>328.757296</ele>
        <time>2020-10-25T22:01:41.981Z</time>
      </trkpt>
      <trkpt lat="46.28418" lon="3.82595">
        <ele>329.892559</ele>
        <time>2020-10-25T22:01:59.170Z</time>
      </trkpt>
      <trkpt lat="46.28399" lon="3.82511">
        <ele>331.762555</ele>
        <time>2020-10-25T22:02:19.731Z</time>
      </trkpt>
      <trkpt lat="46.28391" lon="3.82454">
        <ele>332.980629</ele>
        <time>2020-10-25T22:02:33.785Z</time>
      </trkpt>
      <trkpt lat="46.28392" lon="3.82377">
        <ele>334.623634</ele>
        <time>2020-10-25T22:02:53.703Z</time>
      </trkpt>
      <trkpt lat="46.28352" lon="3.82125">
        <ele>344.204035</ele>
        <time>2020-10-25T22:04:25.546Z</time>
      </trkpt>
      <trkpt lat="46.2835" lon="3.82099">
        <ele>345.23537</ele>
        <time>2020-10-25T22:04:35.968Z</time>
      </trkpt>
      <trkpt lat="46.2835" lon="3.82076">
        <ele>346.323475</ele>
        <time>2020-10-25T22:04:46.562Z</time>
      </trkpt>
      <trkpt lat="46.2837" lon="3.81933">
        <ele>353.721897</ele>
        <time>2020-10-25T22:05:52.238Z</time>
      </trkpt>
      <trkpt lat="46.28369" lon="3.81846">
        <ele>358.096078</ele>
        <time>2020-10-25T22:06:30.555Z</time>
      </trkpt>
      <trkpt lat="46.28388" lon="3.81772">
        <ele>360.84232</ele>
        <time>2020-10-25T22:06:59.843Z</time>
      </trkpt>
      <trkpt lat="46.28388" lon="3.81715">
        <ele>362.647081</ele>
        <time>2020-10-25T22:07:18.991Z</time>
      </trkpt>
      <trkpt lat="46.28376" lon="3.8162">
        <ele>365.735585</ele>
        <time>2020-10-25T22:07:47.803Z</time>
      </trkpt>
      <trkpt lat="46.28356" lon="3.81567">
        <ele>367.309205</ele>
        <time>2020-10-25T22:08:03.324Z</time>
      </trkpt>
      <trkpt lat="46.28318" lon="3.81494">
        <ele>368.678999</ele>
        <time>2020-10-25T22:08:24.195Z</time>
      </trkpt>
      <trkpt lat="46.2831" lon="3.81453">
        <ele>369.32602</ele>
        <time>2020-10-25T22:08:33.813Z</time>
      </trkpt>
      <trkpt lat="46.28304" lon="3.81304">
        <ele>371.382439</ele>
        <time>2020-10-25T22:09:05.396Z</time>
      </trkpt>
      <trkpt lat="46.28302" lon="3.81255">
        <ele>371.920782</ele>
        <time>2020-10-25T22:09:15.624Z</time>
      </trkpt>
      <trkpt lat="46.28296" lon="3.81193">
        <ele>372.597687</ele>
        <time>2020-10-25T22:09:28.590Z</time>
      </trkpt>
      <trkpt lat="46.2827" lon="3.81057">
        <ele>374.02281</ele>
        <time>2020-10-25T22:09:56.999Z</time>
      </trkpt>
      <trkpt lat="46.28255" lon="3.8098">
        <ele>374.646585</ele>
        <time>2020-10-25T22:10:11.357Z</time>
      </trkpt>
      <trkpt lat="46.28239" lon="3.80896">
        <ele>375.323195</ele>
        <time>2020-10-25T22:10:27.201Z</time>
      </trkpt>
      <trkpt lat="46.28222" lon="3.80799">
        <ele>376.142514</ele>
        <time>2020-10-25T22:10:46.183Z</time>
      </trkpt>
      <trkpt lat="46.28216" lon="3.8074">
        <ele>376.66571</ele>
        <time>2020-10-25T22:10:57.496Z</time>
      </trkpt>
      <trkpt lat="46.28219" lon="3.80721">
        <ele>376.828783</ele>
        <time>2020-10-25T22:11:00.977Z</time>
      </trkpt>
      <trkpt lat="46.2822" lon="3.80709">
        <ele>376.933106</ele>
        <time>2020-10-25T22:11:04.284Z</time>
      </trkpt>
      <trkpt lat="46.28235" lon="3.80507">
        <ele>378.862954</ele>
        <time>2020-10-25T22:11:54.489Z</time>
      </trkpt>
      <trkpt lat="46.28242" lon="3.80249">
        <ele>382.750229</ele>
        <time>2020-10-25T22:13:01.224Z</time>
      </trkpt>
      <trkpt lat="46.28245" lon="3.80195">
        <ele>384.12468</ele>
        <time>2020-10-25T22:13:19.792Z</time>
      </trkpt>
      <trkpt lat="46.28247" lon="3.80164">
        <ele>384.893286</ele>
        <time>2020-10-25T22:13:30.759Z</time>
      </trkpt>
      <trkpt lat="46.28261" lon="3.80053">
        <ele>387.975117</ele>
        <time>2020-10-25T22:14:14.299Z</time>
      </trkpt>
      <trkpt lat="46.28265" lon="3.80018">
        <ele>389.378495</ele>
        <time>2020-10-25T22:14:28.692Z</time>
      </trkpt>
      <trkpt lat="46.28267" lon="3.79991">
        <ele>390.505546</ele>
        <time>2020-10-25T22:14:40.897Z</time>
      </trkpt>
      <trkpt lat="46.28274" lon="3.79862">
        <ele>395.713992</ele>
        <time>2020-10-25T22:15:36.660Z</time>
      </trkpt>
      <trkpt lat="46.28285" lon="3.79801">
        <ele>398.239482</ele>
        <time>2020-10-25T22:16:05.676Z</time>
      </trkpt>
      <trkpt lat="46.28351" lon="3.79576">
        <ele>406.852345</ele>
        <time>2020-10-25T22:17:40.854Z</time>
      </trkpt>
      <trkpt lat="46.28374" lon="3.79449">
        <ele>410.527093</ele>
        <time>2020-10-25T22:18:27.659Z</time>
      </trkpt>
      <trkpt lat="46.28422" lon="3.79271">
        <ele>415.598948</ele>
        <time>2020-10-25T22:19:32.615Z</time>
      </trkpt>
      <trkpt lat="46.28483" lon="3.79137">
        <ele>419.4708</ele>
        <time>2020-10-25T22:20:25.682Z</time>
      </trkpt>
      <trkpt lat="46.28499" lon="3.79092">
        <ele>420.666799</ele>
        <time>2020-10-25T22:20:42.053Z</time>
      </trkpt>
      <trkpt lat="46.28518" lon="3.79008">
        <ele>422.321903</ele>
        <time>2020-10-25T22:21:10.224Z</time>
      </trkpt>
      <trkpt lat="46.28524" lon="3.78894">
        <ele>424.472599</ele>
        <time>2020-10-25T22:21:44.005Z</time>
      </trkpt>
      <trkpt lat="46.28522" lon="3.78882">
        <ele>424.704937</ele>
        <time>2020-10-25T22:21:48.269Z</time>
      </trkpt>
      <trkpt lat="46.28517" lon="3.78865">
        <ele>425.065562</ele>
        <time>2020-10-25T22:21:53.899Z</time>
      </trkpt>
      <trkpt lat="46.28483" lon="3.78768">
        <ele>426.07961</ele>
        <time>2020-10-25T22:22:22.578Z</time>
      </trkpt>
      <trkpt lat="46.28481" lon="3.78699">
        <ele>426.578408</ele>
        <time>2020-10-25T22:22:38.796Z</time>
      </trkpt>
      <trkpt lat="46.28481" lon="3.78681">
        <ele>426.70701</ele>
        <time>2020-10-25T22:22:43.655Z</time>
      </trkpt>
      <trkpt lat="46.28478" lon="3.78665">
        <ele>426.826619</ele>
        <time>2020-10-25T22:22:47.038Z</time>
      </trkpt>
      <trkpt lat="46.28471" lon="3.78648">
        <ele>426.964778</ele>
        <time>2020-10-25T22:22:50.487Z</time>
      </trkpt>
      <trkpt lat="46.2846" lon="3.78623">
        <ele>427.180532</ele>
        <time>2020-10-25T22:22:56.699Z</time>
      </trkpt>
      <trkpt lat="46.28445" lon="3.78561">
        <ele>427.367595</ele>
        <time>2020-10-25T22:23:09.072Z</time>
      </trkpt>
      <trkpt lat="46.28419" lon="3.7852">
        <ele>427.428692</ele>
        <time>2020-10-25T22:23:19.905Z</time>
      </trkpt>
      <trkpt lat="46.28385" lon="3.78481">
        <ele>427.496578</ele>
        <time>2020-10-25T22:23:31.958Z</time>
      </trkpt>
      <trkpt lat="46.28365" lon="3.78461">
        <ele>427.535268</ele>
        <time>2020-10-25T22:23:39.006Z</time>
      </trkpt>
      <trkpt lat="46.28325" lon="3.78412">
        <ele>427.771761</ele>
        <time>2020-10-25T22:23:54.810Z</time>
      </trkpt>
      <trkpt lat="46.28273" lon="3.78368">
        <ele>428.745151</ele>
        <time>2020-10-25T22:24:15.233Z</time>
      </trkpt>
      <trkpt lat="46.28199" lon="3.78293">
        <ele>430.190024</ele>
        <time>2020-10-25T22:24:50.707Z</time>
      </trkpt>
      <trkpt lat="46.28072" lon="3.78123">
        <ele>434.689842</ele>
        <time>2020-10-25T22:26:05.925Z</time>
      </trkpt>
      <trkpt lat="46.28013" lon="3.78055">
        <ele>437.072387</ele>
        <time>2020-10-25T22:26:40.779Z</time>
      </trkpt>
      <trkpt lat="46.27854" lon="3.77926">
        <ele>443.215422</ele>
        <time>2020-10-25T22:28:08.208Z</time>
      </trkpt>
      <trkpt lat="46.27812" lon="3.77876">
        <ele>445.035874</ele>
        <time>2020-10-25T22:28:33.921Z</time>
      </trkpt>
      <trkpt lat="46.27797" lon="3.77851">
        <ele>445.803926</ele>
        <time>2020-10-25T22:28:45.094Z</time>
      </trkpt>
      <trkpt lat="46.27738" lon="3.77755">
        <ele>448.850171</ele>
        <time>2020-10-25T22:29:24.247Z</time>
      </trkpt>
      <trkpt lat="46.27732" lon="3.77742">
        <ele>449.220546</ele>
        <time>2020-10-25T22:29:31.173Z</time>
      </trkpt>
      <trkpt lat="46.27723" lon="3.77737">
        <ele>449.576985</ele>
        <time>2020-10-25T22:29:35.505Z</time>
      </trkpt>
      <trkpt lat="46.27702" lon="3.77706">
        <ele>450.631006</ele>
        <time>2020-10-25T22:29:50.266Z</time>
      </trkpt>
      <trkpt lat="46.27661" lon="3.77674">
        <ele>452.288558</ele>
        <time>2020-10-25T22:30:11.767Z</time>
      </trkpt>
      <trkpt lat="46.27653" lon="3.77663">
        <ele>452.676811</ele>
        <time>2020-10-25T22:30:16.136Z</time>
      </trkpt>
      <trkpt lat="46.27648" lon="3.77654">
        <ele>452.933959</ele>
        <time>2020-10-25T22:30:21.357Z</time>
      </trkpt>
      <trkpt lat="46.27627" lon="3.77489">
        <ele>458.241226</ele>
        <time>2020-10-25T22:31:20.069Z</time>
      </trkpt>
      <trkpt lat="46.27604" lon="3.77412">
        <ele>461.069915</ele>
        <time>2020-10-25T22:31:52.549Z</time>
      </trkpt>
      <trkpt lat="46.27474" lon="3.77244">
        <ele>472.290542</ele>
        <time>2020-10-25T22:33:48.436Z</time>
      </trkpt>
      <trkpt lat="46.2745" lon="3.77187">
        <ele>475.261249</ele>
        <time>2020-10-25T22:34:19.733Z</time>
      </trkpt>
      <trkpt lat="46.27444" lon="3.77168">
        <ele>475.973536</ele>
        <time>2020-10-25T22:34:29.746Z</time>
      </trkpt>
      <trkpt lat="46.27438" lon="3.77154">
        <ele>476.544201</ele>
        <time>2020-10-25T22:34:39.800Z</time>
      </trkpt>
      <trkpt lat="46.27385" lon="3.77059">
        <ele>480.764124</ele>
        <time>2020-10-25T22:35:31.068Z</time>
      </trkpt>
      <trkpt lat="46.27326" lon="3.76991">
        <ele>483.55772</ele>
        <time>2020-10-25T22:36:07.210Z</time>
      </trkpt>
      <trkpt lat="46.27266" lon="3.76902">
        <ele>482.306031</ele>
        <time>2020-10-25T22:36:26.581Z</time>
      </trkpt>
      <trkpt lat="46.27224" lon="3.76841">
        <ele>481.434942</ele>
        <time>2020-10-25T22:36:38.911Z</time>
      </trkpt>
      <trkpt lat="46.2719" lon="3.76799">
        <ele>480.251353</ele>
        <time>2020-10-25T22:36:47.893Z</time>
      </trkpt>
      <trkpt lat="46.27133" lon="3.76715">
        <ele>477.36658</ele>
        <time>2020-10-25T22:37:04.116Z</time>
      </trkpt>
      <trkpt lat="46.27058" lon="3.7658">
        <ele>473.483028</ele>
        <time>2020-10-25T22:37:28.216Z</time>
      </trkpt>
      <trkpt lat="46.27052" lon="3.76573">
        <ele>473.272989</ele>
        <time>2020-10-25T22:37:29.676Z</time>
      </trkpt>
      <trkpt lat="46.27066" lon="3.76507">
        <ele>471.975174</ele>
        <time>2020-10-25T22:37:36.471Z</time>
      </trkpt>
      <trkpt lat="46.2715" lon="3.76005">
        <ele>466.53871</ele>
        <time>2020-10-25T22:38:33.518Z</time>
      </trkpt>
      <trkpt lat="46.27153" lon="3.75942">
        <ele>466.343548</ele>
        <time>2020-10-25T22:38:44.078Z</time>
      </trkpt>
      <trkpt lat="46.27148" lon="3.7588">
        <ele>466.255415</ele>
        <time>2020-10-25T22:38:55.692Z</time>
      </trkpt>
      <trkpt lat="46.27136" lon="3.75817">
        <ele>466.812739</ele>
        <time>2020-10-25T22:39:08.733Z</time>
      </trkpt>
      <trkpt lat="46.27007" lon="3.75432">
        <ele>469.642439</ele>
        <time>2020-10-25T22:40:30.965Z</time>
      </trkpt>
      <trkpt lat="46.26989" lon="3.75353">
        <ele>468.674449</ele>
        <time>2020-10-25T22:40:40.012Z</time>
      </trkpt>
      <trkpt lat="46.26978" lon="3.75276">
        <ele>467.384866</ele>
        <time>2020-10-25T22:40:48.054Z</time>
      </trkpt>
      <trkpt lat="46.26959" lon="3.75152">
        <ele>465.308128</ele>
        <time>2020-10-25T22:41:00.496Z</time>
      </trkpt>
      <trkpt lat="46.2694" lon="3.75069">
        <ele>463.873551</ele>
        <time>2020-10-25T22:41:09.116Z</time>
      </trkpt>
      <trkpt lat="46.26912" lon="3.7497">
        <ele>462.123851</ele>
        <time>2020-10-25T22:41:20.238Z</time>
      </trkpt>
      <trkpt lat="46.26894" lon="3.74907">
        <ele>461.102498</ele>
        <time>2020-10-25T22:41:28.104Z</time>
      </trkpt>
      <trkpt lat="46.26842" lon="3.7473">
        <ele>459.409763</ele>
        <time>2020-10-25T22:41:50.501Z</time>
      </trkpt>
      <trkpt lat="46.26831" lon="3.74701">
        <ele>459.117818</ele>
        <time>2020-10-25T22:41:54.233Z</time>
      </trkpt>
      <trkpt lat="46.26707" lon="3.74453">
        <ele>456.012721</ele>
        <time>2020-10-25T22:42:28.341Z</time>
      </trkpt>
      <trkpt lat="46.26654" lon="3.74323">
        <ele>454.346509</ele>
        <time>2020-10-25T22:42:45.628Z</time>
      </trkpt>
      <trkpt lat="46.26584" lon="3.74147">
        <ele>451.285238</ele>
        <time>2020-10-25T22:43:07.301Z</time>
      </trkpt>
      <trkpt lat="46.26533" lon="3.74021">
        <ele>448.660241</ele>
        <time>2020-10-25T22:43:21.687Z</time>
      </trkpt>
      <trkpt lat="46.26463" lon="3.73898">
        <ele>445.148182</ele>
        <time>2020-10-25T22:43:37.313Z</time>
      </trkpt>
      <trkpt lat="46.26445" lon="3.73856">
        <ele>444.048326</ele>
        <time>2020-10-25T22:43:42.254Z</time>
      </trkpt>
      <trkpt lat="46.2644" lon="3.73833">
        <ele>443.526281</ele>
        <time>2020-10-25T22:43:44.625Z</time>
      </trkpt>
      <trkpt lat="46.26412" lon="3.73578">
        <ele>438.010164</ele>
        <time>2020-10-25T22:44:10.208Z</time>
      </trkpt>
      <trkpt lat="46.26404" lon="3.73504">
        <ele>436.520731</ele>
        <time>2020-10-25T22:44:17.564Z</time>
      </trkpt>
      <trkpt lat="46.26389" lon="3.73369">
        <ele>433.872847</ele>
        <time>2020-10-25T22:44:31.236Z</time>
      </trkpt>
      <trkpt lat="46.26374" lon="3.73304">
        <ele>432.55183</ele>
        <time>2020-10-25T22:44:38.137Z</time>
      </trkpt>
      <trkpt lat="46.26219" lon="3.72874">
        <ele>425.204267</ele>
        <time>2020-10-25T22:45:29.129Z</time>
      </trkpt>
      <trkpt lat="46.26154" lon="3.72694">
        <ele>422.813796</ele>
        <time>2020-10-25T22:45:50.997Z</time>
      </trkpt>
      <trkpt lat="46.26146" lon="3.72667">
        <ele>422.483203</ele>
        <time>2020-10-25T22:45:54.392Z</time>
      </trkpt>
      <trkpt lat="46.26142" lon="3.72618">
        <ele>421.937118</ele>
        <time>2020-10-25T22:46:00.050Z</time>
      </trkpt>
      <trkpt lat="46.26144" lon="3.72589">
        <ele>421.648151</ele>
        <time>2020-10-25T22:46:03.481Z</time>
      </trkpt>
      <trkpt lat="46.26147" lon="3.72561">
        <ele>421.449748</ele>
        <time>2020-10-25T22:46:06.873Z</time>
      </trkpt>
      <trkpt lat="46.26145" lon="3.72525">
        <ele>421.193128</ele>
        <time>2020-10-25T22:46:11.262Z</time>
      </trkpt>
      <trkpt lat="46.26142" lon="3.72494">
        <ele>420.968414</ele>
        <time>2020-10-25T22:46:15.112Z</time>
      </trkpt>
      <trkpt lat="46.26124" lon="3.72436">
        <ele>420.520216</ele>
        <time>2020-10-25T22:46:22.921Z</time>
      </trkpt>
      <trkpt lat="46.26123" lon="3.72398">
        <ele>420.242928</ele>
        <time>2020-10-25T22:46:27.571Z</time>
      </trkpt>
      <trkpt lat="46.26128" lon="3.72376">
        <ele>420.078331</ele>
        <time>2020-10-25T22:46:30.244Z</time>
      </trkpt>
      <trkpt lat="46.26138" lon="3.72358">
        <ele>419.916198</ele>
        <time>2020-10-25T22:46:32.856Z</time>
      </trkpt>
      <trkpt lat="46.26152" lon="3.7234">
        <ele>419.598155</ele>
        <time>2020-10-25T22:46:35.915Z</time>
      </trkpt>
      <trkpt lat="46.26156" lon="3.72336">
        <ele>419.497311</ele>
        <time>2020-10-25T22:46:36.736Z</time>
      </trkpt>
      <trkpt lat="46.26129" lon="3.72269">
        <ele>418.461495</ele>
        <time>2020-10-25T22:46:45.111Z</time>
      </trkpt>
      <trkpt lat="46.2612" lon="3.72248">
        <ele>418.127415</ele>
        <time>2020-10-25T22:46:47.764Z</time>
      </trkpt>
      <trkpt lat="46.26073" lon="3.72143">
        <ele>416.446868</ele>
        <time>2020-10-25T22:47:00.648Z</time>
      </trkpt>
      <trkpt lat="46.25992" lon="3.71934">
        <ele>414.207869</ele>
        <time>2020-10-25T22:47:26.744Z</time>
      </trkpt>
      <trkpt lat="46.25859" lon="3.71663">
        <ele>415.33024</ele>
        <time>2020-10-25T22:48:26.644Z</time>
      </trkpt>
      <trkpt lat="46.25834" lon="3.71606">
        <ele>415.395316</ele>
        <time>2020-10-25T22:48:38.723Z</time>
      </trkpt>
      <trkpt lat="46.25806" lon="3.71524">
        <ele>415.482644</ele>
        <time>2020-10-25T22:48:53.139Z</time>
      </trkpt>
      <trkpt lat="46.25739" lon="3.71296">
        <ele>413.440197</ele>
        <time>2020-10-25T22:49:21.033Z</time>
      </trkpt>
      <trkpt lat="46.2572" lon="3.71236">
        <ele>412.716929</ele>
        <time>2020-10-25T22:49:27.826Z</time>
      </trkpt>
      <trkpt lat="46.25647" lon="3.71009">
        <ele>410.035537</ele>
        <time>2020-10-25T22:49:54.970Z</time>
      </trkpt>
      <trkpt lat="46.25618" lon="3.70873">
        <ele>410.484252</ele>
        <time>2020-10-25T22:50:17.325Z</time>
      </trkpt>
      <trkpt lat="46.25581" lon="3.70665">
        <ele>411.247583</ele>
        <time>2020-10-25T22:50:59.619Z</time>
      </trkpt>
      <trkpt lat="46.25573" lon="3.7062">
        <ele>411.357726</ele>
        <time>2020-10-25T22:51:07.774Z</time>
      </trkpt>
      <trkpt lat="46.25545" lon="3.70454">
        <ele>411.111281</ele>
        <time>2020-10-25T22:51:30.900Z</time>
      </trkpt>
      <trkpt lat="46.2552" lon="3.70347">
        <ele>409.619765</ele>
        <time>2020-10-25T22:51:42.661Z</time>
      </trkpt>
      <trkpt lat="46.2549" lon="3.70272">
        <ele>408.493603</ele>
        <time>2020-10-25T22:51:51.477Z</time>
      </trkpt>
      <trkpt lat="46.25477" lon="3.70246">
        <ele>408.146306</ele>
        <time>2020-10-25T22:51:54.782Z</time>
      </trkpt>
      <trkpt lat="46.2545" lon="3.702">
        <ele>407.703911</ele>
        <time>2020-10-25T22:52:01.218Z</time>
      </trkpt>
      <trkpt lat="46.2539" lon="3.70129">
        <ele>406.890976</ele>
        <time>2020-10-25T22:52:14.204Z</time>
      </trkpt>
      <trkpt lat="46.25362" lon="3.70104">
        <ele>406.541782</ele>
        <time>2020-10-25T22:52:20.294Z</time>
      </trkpt>
      <trkpt lat="46.25321" lon="3.70074">
        <ele>406.664531</ele>
        <time>2020-10-25T22:52:31.671Z</time>
      </trkpt>
      <trkpt lat="46.25253" lon="3.70027">
        <ele>407.503358</ele>
        <time>2020-10-25T22:52:52.160Z</time>
      </trkpt>
      <trkpt lat="46.25231" lon="3.70012">
        <ele>407.775902</ele>
        <time>2020-10-25T22:52:59.067Z</time>
      </trkpt>
      <trkpt lat="46.25114" lon="3.69933">
        <ele>409.10091</ele>
        <time>2020-10-25T22:53:37.898Z</time>
      </trkpt>
      <trkpt lat="46.2505" lon="3.69886">
        <ele>409.783074</ele>
        <time>2020-10-25T22:53:58.074Z</time>
      </trkpt>
      <trkpt lat="46.25026" lon="3.69864">
        <ele>410.055309</ele>
        <time>2020-10-25T22:54:04.053Z</time>
      </trkpt>
      <trkpt lat="46.25001" lon="3.69838">
        <ele>409.208887</ele>
        <time>2020-10-25T22:54:09.419Z</time>
      </trkpt>
      <trkpt lat="46.24975" lon="3.69806">
        <ele>408.164127</ele>
        <time>2020-10-25T22:54:14.480Z</time>
      </trkpt>
      <trkpt lat="46.24958" lon="3.69785">
        <ele>407.472214</ele>
        <time>2020-10-25T22:54:17.805Z</time>
      </trkpt>
      <trkpt lat="46.24903" lon="3.69715">
        <ele>405.228491</ele>
        <time>2020-10-25T22:54:27.758Z</time>
      </trkpt>
      <trkpt lat="46.24888" lon="3.69697">
        <ele>404.6108</ele>
        <time>2020-10-25T22:54:30.360Z</time>
      </trkpt>
      <trkpt lat="46.24865" lon="3.69671">
        <ele>403.176678</ele>
        <time>2020-10-25T22:54:34.158Z</time>
      </trkpt>
      <trkpt lat="46.24773" lon="3.6958">
        <ele>397.54239</ele>
        <time>2020-10-25T22:54:48.617Z</time>
      </trkpt>
      <trkpt lat="46.24743" lon="3.69551">
        <ele>395.72979</ele>
        <time>2020-10-25T22:54:53.396Z</time>
      </trkpt>
      <trkpt lat="46.24718" lon="3.69515">
        <ele>394.241529</ele>
        <time>2020-10-25T22:54:58.352Z</time>
      </trkpt>
      <trkpt lat="46.24699" lon="3.69481">
        <ele>393.024544</ele>
        <time>2020-10-25T22:55:02.530Z</time>
      </trkpt>
      <trkpt lat="46.24684" lon="3.69451">
        <ele>392.003143</ele>
        <time>2020-10-25T22:55:06.062Z</time>
      </trkpt>
      <trkpt lat="46.24676" lon="3.69432">
        <ele>391.373898</ele>
        <time>2020-10-25T22:55:08.253Z</time>
      </trkpt>
      <trkpt lat="46.24657" lon="3.69372">
        <ele>389.569336</ele>
        <time>2020-10-25T22:55:14.576Z</time>
      </trkpt>
      <trkpt lat="46.24653" lon="3.69355">
        <ele>389.05451</ele>
        <time>2020-10-25T22:55:16.329Z</time>
      </trkpt>
      <trkpt lat="46.24648" lon="3.69333">
        <ele>388.418117</ele>
        <time>2020-10-25T22:55:18.541Z</time>
      </trkpt>
      <trkpt lat="46.24643" lon="3.693">
        <ele>387.495235</ele>
        <time>2020-10-25T22:55:21.630Z</time>
      </trkpt>
      <trkpt lat="46.24639" lon="3.69217">
        <ele>385.207876</ele>
        <time>2020-10-25T22:55:29.286Z</time>
      </trkpt>
      <trkpt lat="46.24647" lon="3.69124">
        <ele>382.628945</ele>
        <time>2020-10-25T22:55:38.115Z</time>
      </trkpt>
      <trkpt lat="46.24659" lon="3.6905">
        <ele>380.913128</ele>
        <time>2020-10-25T22:55:45.535Z</time>
      </trkpt>
      <trkpt lat="46.24663" lon="3.69028">
        <ele>380.719694</ele>
        <time>2020-10-25T22:55:47.830Z</time>
      </trkpt>
      <trkpt lat="46.24748" lon="3.68524">
        <ele>377.091382</ele>
        <time>2020-10-25T22:56:52.107Z</time>
      </trkpt>
      <trkpt lat="46.24752" lon="3.68501">
        <ele>376.872833</ele>
        <time>2020-10-25T22:56:54.994Z</time>
      </trkpt>
      <trkpt lat="46.24782" lon="3.68394">
        <ele>375.832322</ele>
        <time>2020-10-25T22:57:08.344Z</time>
      </trkpt>
      <trkpt lat="46.24788" lon="3.68368">
        <ele>375.587846</ele>
        <time>2020-10-25T22:57:11.408Z</time>
      </trkpt>
      <trkpt lat="46.24793" lon="3.68342">
        <ele>375.340427</ele>
        <time>2020-10-25T22:57:14.371Z</time>
      </trkpt>
      <trkpt lat="46.24897" lon="3.6741">
        <ele>361.468433</ele>
        <time>2020-10-25T22:58:53.482Z</time>
      </trkpt>
      <trkpt lat="46.24946" lon="3.66962">
        <ele>356.381497</ele>
        <time>2020-10-25T22:59:42.703Z</time>
      </trkpt>
      <trkpt lat="46.24955" lon="3.66874">
        <ele>356.142868</ele>
        <time>2020-10-25T22:59:54.894Z</time>
      </trkpt>
      <trkpt lat="46.2497" lon="3.66743">
        <ele>355.917661</ele>
        <time>2020-10-25T23:00:16.741Z</time>
      </trkpt>
      <trkpt lat="46.2498" lon="3.66656">
        <ele>356.031396</ele>
        <time>2020-10-25T23:00:32.524Z</time>
      </trkpt>
      <trkpt lat="46.25017" lon="3.66323">
        <ele>354.798581</ele>
        <time>2020-10-25T23:01:17.741Z</time>
      </trkpt>
      <trkpt lat="46.25019" lon="3.66303">
        <ele>354.649988</ele>
        <time>2020-10-25T23:01:19.917Z</time>
      </trkpt>
      <trkpt lat="46.25069" lon="3.65854">
        <ele>345.496718</ele>
        <time>2020-10-25T23:02:04.626Z</time>
      </trkpt>
      <trkpt lat="46.25063" lon="3.65274">
        <ele>333.494875</ele>
        <time>2020-10-25T23:03:02.446Z</time>
      </trkpt>
      <trkpt lat="46.25056" lon="3.6481">
        <ele>324.049789</ele>
        <time>2020-10-25T23:03:49.352Z</time>
      </trkpt>
      <trkpt lat="46.25055" lon="3.64764">
        <ele>322.99078</ele>
        <time>2020-10-25T23:03:53.759Z</time>
      </trkpt>
      <trkpt lat="46.25054" lon="3.64665">
        <ele>320.367076</ele>
        <time>2020-10-25T23:04:03.111Z</time>
      </trkpt>
      <trkpt lat="46.2505" lon="3.64555">
        <ele>316.929445</ele>
        <time>2020-10-25T23:04:13.234Z</time>
      </trkpt>
      <trkpt lat="46.25052" lon="3.64498">
        <ele>315.148225</ele>
        <time>2020-10-25T23:04:18.513Z</time>
      </trkpt>
      <trkpt lat="46.25051" lon="3.6444">
        <ele>313.368375</ele>
        <time>2020-10-25T23:04:23.988Z</time>
      </trkpt>
      <trkpt lat="46.2505" lon="3.64354">
        <ele>311.138909</ele>
        <time>2020-10-25T23:04:32.146Z</time>
      </trkpt>
      <trkpt lat="46.25046" lon="3.64095">
        <ele>304.842509</ele>
        <time>2020-10-25T23:04:57.189Z</time>
      </trkpt>
      <trkpt lat="46.25047" lon="3.64077">
        <ele>304.47248</ele>
        <time>2020-10-25T23:04:58.887Z</time>
      </trkpt>
      <trkpt lat="46.25048" lon="3.64048">
        <ele>303.848494</ele>
        <time>2020-10-25T23:05:02.078Z</time>
      </trkpt>
      <trkpt lat="46.25048" lon="3.64028">
        <ele>303.440982</ele>
        <time>2020-10-25T23:05:04.010Z</time>
      </trkpt>
      <trkpt lat="46.25047" lon="3.63982">
        <ele>302.452768</ele>
        <time>2020-10-25T23:05:09.046Z</time>
      </trkpt>
      <trkpt lat="46.25047" lon="3.63966">
        <ele>302.119018</ele>
        <time>2020-10-25T23:05:10.536Z</time>
      </trkpt>
      <trkpt lat="46.25046" lon="3.63949">
        <ele>301.755618</ele>
        <time>2020-10-25T23:05:12.289Z</time>
      </trkpt>
      <trkpt lat="46.25045" lon="3.63926">
        <ele>301.268013</ele>
        <time>2020-10-25T23:05:14.631Z</time>
      </trkpt>
      <trkpt lat="46.25043" lon="3.63912">
        <ele>300.886058</ele>
        <time>2020-10-25T23:05:15.903Z</time>
      </trkpt>
      <trkpt lat="46.25039" lon="3.63896">
        <ele>300.408582</ele>
        <time>2020-10-25T23:05:17.640Z</time>
      </trkpt>
      <trkpt lat="46.25029" lon="3.63892">
        <ele>299.990403</ele>
        <time>2020-10-25T23:05:19.155Z</time>
      </trkpt>
      <trkpt lat="46.25004" lon="3.63891">
        <ele>298.994039</ele>
        <time>2020-10-25T23:05:22.502Z</time>
      </trkpt>
      <trkpt lat="46.24974" lon="3.6389">
        <ele>297.781444</ele>
        <time>2020-10-25T23:05:26.700Z</time>
      </trkpt>
      <trkpt lat="46.24964" lon="3.6389">
        <ele>297.405287</ele>
        <time>2020-10-25T23:05:28.052Z</time>
      </trkpt>
      <trkpt lat="46.24956" lon="3.63887">
        <ele>297.069354</ele>
        <time>2020-10-25T23:05:29.317Z</time>
      </trkpt>
      <trkpt lat="46.24952" lon="3.63879">
        <ele>296.789338</ele>
        <time>2020-10-25T23:05:30.331Z</time>
      </trkpt>
      <trkpt lat="46.24949" lon="3.63869">
        <ele>296.505496</ele>
        <time>2020-10-25T23:05:31.220Z</time>
      </trkpt>
      <trkpt lat="46.2495" lon="3.63824">
        <ele>295.260535</ele>
        <time>2020-10-25T23:05:35.716Z</time>
      </trkpt>
      <trkpt lat="46.2495" lon="3.63753">
        <ele>292.988348</ele>
        <time>2020-10-25T23:05:42.084Z</time>
      </trkpt>
      <trkpt lat="46.24947" lon="3.63743">
        <ele>292.581608</ele>
        <time>2020-10-25T23:05:43.054Z</time>
      </trkpt>
      <trkpt lat="46.24945" lon="3.63738">
        <ele>292.336087</ele>
        <time>2020-10-25T23:05:43.638Z</time>
      </trkpt>
      <trkpt lat="46.24935" lon="3.63737">
        <ele>291.821361</ele>
        <time>2020-10-25T23:05:44.844Z</time>
      </trkpt>
      <trkpt lat="46.24911" lon="3.63753">
        <ele>290.331753</ele>
        <time>2020-10-25T23:05:48.228Z</time>
      </trkpt>
      <trkpt lat="46.24895" lon="3.63758">
        <ele>289.421929</ele>
        <time>2020-10-25T23:05:50.285Z</time>
      </trkpt>
      <trkpt lat="46.24869" lon="3.63761">
        <ele>287.998468</ele>
        <time>2020-10-25T23:05:53.612Z</time>
      </trkpt>
      <trkpt lat="46.24859" lon="3.63755">
        <ele>287.411869</ele>
        <time>2020-10-25T23:05:55.019Z</time>
      </trkpt>
      <trkpt lat="46.24854" lon="3.63753">
        <ele>287.118891</ele>
        <time>2020-10-25T23:05:55.686Z</time>
      </trkpt>
      <trkpt lat="46.24855" lon="3.6375">
        <ele>286.98625</ele>
        <time>2020-10-25T23:05:55.981Z</time>
      </trkpt>
      <trkpt lat="46.24857" lon="3.63743">
        <ele>286.693016</ele>
        <time>2020-10-25T23:05:56.695Z</time>
      </trkpt>
      <trkpt lat="46.24856" lon="3.63738">
        <ele>286.51401</ele>
        <time>2020-10-25T23:05:57.120Z</time>
      </trkpt>
      <trkpt lat="46.24856" lon="3.63733">
        <ele>286.322953</ele>
        <time>2020-10-25T23:05:57.596Z</time>
      </trkpt>
      <trkpt lat="46.24855" lon="3.63729">
        <ele>286.159197</ele>
        <time>2020-10-25T23:05:57.978Z</time>
      </trkpt>
      <trkpt lat="46.24836" lon="3.63646">
        <ele>283.673898</ele>
        <time>2020-10-25T23:06:06.222Z</time>
      </trkpt>
      <trkpt lat="46.24835" lon="3.63643">
        <ele>283.625215</ele>
        <time>2020-10-25T23:06:06.596Z</time>
      </trkpt>
      <trkpt lat="46.24834" lon="3.6364">
        <ele>283.57302</ele>
        <time>2020-10-25T23:06:06.946Z</time>
      </trkpt>
      <trkpt lat="46.24826" lon="3.63604">
        <ele>283.020261</ele>
        <time>2020-10-25T23:06:10.595Z</time>
      </trkpt>
      <trkpt lat="46.24824" lon="3.63596">
        <ele>282.896885</ele>
        <time>2020-10-25T23:06:11.438Z</time>
      </trkpt>
      <trkpt lat="46.24822" lon="3.63585">
        <ele>282.73182</ele>
        <time>2020-10-25T23:06:12.631Z</time>
      </trkpt>
      <trkpt lat="46.24805" lon="3.63496">
        <ele>281.365077</ele>
        <time>2020-10-25T23:06:22.322Z</time>
      </trkpt>
      <trkpt lat="46.24804" lon="3.63479">
        <ele>281.120244</ele>
        <time>2020-10-25T23:06:24.802Z</time>
      </trkpt>
      <trkpt lat="46.24804" lon="3.63463">
        <ele>280.880181</ele>
        <time>2020-10-25T23:06:26.833Z</time>
      </trkpt>
      <trkpt lat="46.24803" lon="3.63453">
        <ele>280.740001</ele>
        <time>2020-10-25T23:06:28.023Z</time>
      </trkpt>
      <trkpt lat="46.24801" lon="3.63399">
        <ele>280.459428</ele>
        <time>2020-10-25T23:06:37.008Z</time>
      </trkpt>
      <trkpt lat="46.24799" lon="3.63354">
        <ele>280.585933</ele>
        <time>2020-10-25T23:06:44.928Z</time>
      </trkpt>
      <trkpt lat="46.24798" lon="3.63333">
        <ele>280.643654</ele>
        <time>2020-10-25T23:06:48.378Z</time>
      </trkpt>
      <trkpt lat="46.24793" lon="3.63243">
        <ele>280.895932</ele>
        <time>2020-10-25T23:07:03.694Z</time>
      </trkpt>
      <trkpt lat="46.24791" lon="3.63188">
        <ele>281.050479</ele>
        <time>2020-10-25T23:07:12.828Z</time>
      </trkpt>
      <trkpt lat="46.2479" lon="3.63167">
        <ele>281.101746</ele>
        <time>2020-10-25T23:07:16.171Z</time>
      </trkpt>
      <trkpt lat="46.2479" lon="3.63156">
        <ele>281.089919</ele>
        <time>2020-10-25T23:07:17.927Z</time>
      </trkpt>
      <trkpt lat="46.24788" lon="3.6311">
        <ele>281.040959</ele>
        <time>2020-10-25T23:07:24.141Z</time>
      </trkpt>
      <trkpt lat="46.24786" lon="3.6307">
        <ele>280.998484</ele>
        <time>2020-10-25T23:07:29.374Z</time>
      </trkpt>
      <trkpt lat="46.24785" lon="3.63061">
        <ele>280.989222</ele>
        <time>2020-10-25T23:07:30.535Z</time>
      </trkpt>
      <trkpt lat="46.2478" lon="3.62949">
        <ele>280.869408</ele>
        <time>2020-10-25T23:07:45.312Z</time>
      </trkpt>
      <trkpt lat="46.24781" lon="3.62896">
        <ele>280.90228</ele>
        <time>2020-10-25T23:07:52.983Z</time>
      </trkpt>
      <trkpt lat="46.24777" lon="3.62819">
        <ele>281.318255</ele>
        <time>2020-10-25T23:08:04.859Z</time>
      </trkpt>
      <trkpt lat="46.24775" lon="3.62768">
        <ele>281.593251</ele>
        <time>2020-10-25T23:08:13.140Z</time>
      </trkpt>
      <trkpt lat="46.24769" lon="3.62651">
        <ele>282.228253</ele>
        <time>2020-10-25T23:08:35.027Z</time>
      </trkpt>
      <trkpt lat="46.2476" lon="3.62465">
        <ele>285.081155</ele>
        <time>2020-10-25T23:09:17.511Z</time>
      </trkpt>
      <trkpt lat="46.24754" lon="3.62304">
        <ele>288.353909</ele>
        <time>2020-10-25T23:09:58.411Z</time>
      </trkpt>
      <trkpt lat="46.2475" lon="3.62219">
        <ele>290.453622</ele>
        <time>2020-10-25T23:10:22.214Z</time>
      </trkpt>
      <trkpt lat="46.24747" lon="3.62161">
        <ele>291.869111</ele>
        <time>2020-10-25T23:10:39.304Z</time>
      </trkpt>
      <trkpt lat="46.24745" lon="3.62108">
        <ele>293.406402</ele>
        <time>2020-10-25T23:10:56.478Z</time>
      </trkpt>
      <trkpt lat="46.24742" lon="3.62044">
        <ele>295.658202</ele>
        <time>2020-10-25T23:11:17.921Z</time>
      </trkpt>
      <trkpt lat="46.24739" lon="3.61977">
        <ele>298.006993</ele>
        <time>2020-10-25T23:11:40.118Z</time>
      </trkpt>
      <trkpt lat="46.24736" lon="3.61909">
        <ele>300.408565</ele>
        <time>2020-10-25T23:12:04.368Z</time>
      </trkpt>
      <trkpt lat="46.24709" lon="3.6174">
        <ele>307.44892</ele>
        <time>2020-10-25T23:13:08.185Z</time>
      </trkpt>
      <trkpt lat="46.24703" lon="3.61711">
        <ele>308.718228</ele>
        <time>2020-10-25T23:13:21.669Z</time>
      </trkpt>
      <trkpt lat="46.247" lon="3.61687">
        <ele>309.742898</ele>
        <time>2020-10-25T23:13:29.898Z</time>
      </trkpt>
      <trkpt lat="46.24701" lon="3.61673">
        <ele>310.303033</ele>
        <time>2020-10-25T23:13:36.135Z</time>
      </trkpt>
      <trkpt lat="46.24702" lon="3.61664">
        <ele>310.685024</ele>
        <time>2020-10-25T23:13:40.000Z</time>
      </trkpt>
      <trkpt lat="46.24705" lon="3.61657">
        <ele>311.054623</ele>
        <time>2020-10-25T23:13:42.691Z</time>
      </trkpt>
      <trkpt lat="46.24707" lon="3.61649">
        <ele>311.418138</ele>
        <time>2020-10-25T23:13:45.454Z</time>
      </trkpt>
      <trkpt lat="46.24707" lon="3.6164">
        <ele>311.783484</ele>
        <time>2020-10-25T23:13:48.533Z</time>
      </trkpt>
      <trkpt lat="46.24705" lon="3.61632">
        <ele>312.14877</ele>
        <time>2020-10-25T23:13:52.059Z</time>
      </trkpt>
      <trkpt lat="46.24701" lon="3.61623">
        <ele>312.611757</ele>
        <time>2020-10-25T23:13:57.416Z</time>
      </trkpt>
      <trkpt lat="46.24696" lon="3.61618">
        <ele>312.900044</ele>
        <time>2020-10-25T23:14:00.867Z</time>
      </trkpt>
      <trkpt lat="46.24685" lon="3.61615">
        <ele>313.456437</ele>
        <time>2020-10-25T23:14:05.821Z</time>
      </trkpt>
      <trkpt lat="46.24679" lon="3.61617">
        <ele>313.740182</ele>
        <time>2020-10-25T23:14:08.818Z</time>
      </trkpt>
      <trkpt lat="46.24677" lon="3.61618">
        <ele>313.87575</ele>
        <time>2020-10-25T23:14:10.470Z</time>
      </trkpt>
      <trkpt lat="46.24675" lon="3.6162">
        <ele>314.014853</ele>
        <time>2020-10-25T23:14:12.044Z</time>
      </trkpt>
      <trkpt lat="46.24669" lon="3.6162">
        <ele>314.278762</ele>
        <time>2020-10-25T23:14:16.078Z</time>
      </trkpt>
      <trkpt lat="46.24658" lon="3.61615">
        <ele>314.873261</ele>
        <time>2020-10-25T23:14:22.328Z</time>
      </trkpt>
      <trkpt lat="46.24612" lon="3.61581">
        <ele>317.408003</ele>
        <time>2020-10-25T23:14:48.703Z</time>
      </trkpt>
      <trkpt lat="46.24547" lon="3.61525">
        <ele>321.157437</ele>
        <time>2020-10-25T23:15:23.262Z</time>
      </trkpt>
      <trkpt lat="46.24489" lon="3.61469">
        <ele>322.757076</ele>
        <time>2020-10-25T23:15:48.612Z</time>
      </trkpt>
      <trkpt lat="46.24433" lon="3.61401">
        <ele>324.174959</ele>
        <time>2020-10-25T23:16:10.056Z</time>
      </trkpt>
      <trkpt lat="46.24296" lon="3.61213">
        <ele>326.060565</ele>
        <time>2020-10-25T23:16:58.109Z</time>
      </trkpt>
      <trkpt lat="46.24254" lon="3.61162">
        <ele>326.251868</ele>
        <time>2020-10-25T23:17:11.044Z</time>
      </trkpt>
      <trkpt lat="46.24024" lon="3.60924">
        <ele>324.382224</ele>
        <time>2020-10-25T23:18:02.935Z</time>
      </trkpt>
      <trkpt lat="46.23986" lon="3.60876">
        <ele>323.837986</ele>
        <time>2020-10-25T23:18:10.609Z</time>
      </trkpt>
      <trkpt lat="46.23951" lon="3.60831">
        <ele>323.257164</ele>
        <time>2020-10-25T23:18:17.781Z</time>
      </trkpt>
      <trkpt lat="46.23915" lon="3.60778">
        <ele>322.611792</ele>
        <time>2020-10-25T23:18:26.183Z</time>
      </trkpt>
      <trkpt lat="46.23876" lon="3.60716">
        <ele>321.87677</ele>
        <time>2020-10-25T23:18:35.948Z</time>
      </trkpt>
      <trkpt lat="46.2385" lon="3.60664">
        <ele>321.481499</ele>
        <time>2020-10-25T23:18:44.314Z</time>
      </trkpt>
      <trkpt lat="46.23808" lon="3.60581">
        <ele>321.47098</ele>
        <time>2020-10-25T23:18:58.367Z</time>
      </trkpt>
      <trkpt lat="46.23724" lon="3.60416">
        <ele>321.743772</ele>
        <time>2020-10-25T23:19:30.238Z</time>
      </trkpt>
      <trkpt lat="46.23706" lon="3.60382">
        <ele>321.924297</ele>
        <time>2020-10-25T23:19:36.261Z</time>
      </trkpt>
      <trkpt lat="46.23686" lon="3.60348">
        <ele>322.1176</ele>
        <time>2020-10-25T23:19:43.373Z</time>
      </trkpt>
      <trkpt lat="46.23508" lon="3.60105">
        <ele>324.430788</ele>
        <time>2020-10-25T23:20:50.215Z</time>
      </trkpt>
      <trkpt lat="46.23215" lon="3.59652">
        <ele>327.087823</ele>
        <time>2020-10-25T23:22:31.558Z</time>
      </trkpt>
      <trkpt lat="46.23027" lon="3.59347">
        <ele>330.452347</ele>
        <time>2020-10-25T23:23:49.407Z</time>
      </trkpt>
      <trkpt lat="46.22986" lon="3.59251">
        <ele>332.053942</ele>
        <time>2020-10-25T23:24:15.101Z</time>
      </trkpt>
      <trkpt lat="46.22961" lon="3.59177">
        <ele>333.311146</ele>
        <time>2020-10-25T23:24:34.776Z</time>
      </trkpt>
      <trkpt lat="46.22955" lon="3.59181">
        <ele>333.451562</ele>
        <time>2020-10-25T23:24:37.590Z</time>
      </trkpt>
      <trkpt lat="46.22928" lon="3.59191">
        <ele>334.079687</ele>
        <time>2020-10-25T23:24:47.021Z</time>
      </trkpt>
      <trkpt lat="46.22912" lon="3.59177">
        <ele>334.502166</ele>
        <time>2020-10-25T23:24:53.664Z</time>
      </trkpt>
      <trkpt lat="46.22903" lon="3.59164">
        <ele>334.753016</ele>
        <time>2020-10-25T23:24:58.488Z</time>
      </trkpt>
      <trkpt lat="46.2278" lon="3.58972">
        <ele>337.403065</ele>
        <time>2020-10-25T23:25:51.912Z</time>
      </trkpt>
      <trkpt lat="46.22734" lon="3.58901">
        <ele>337.118327</ele>
        <time>2020-10-25T23:26:05.322Z</time>
      </trkpt>
      <trkpt lat="46.22598" lon="3.58656">
        <ele>335.790299</ele>
        <time>2020-10-25T23:26:42.705Z</time>
      </trkpt>
      <trkpt lat="46.22584" lon="3.58638">
        <ele>335.638148</ele>
        <time>2020-10-25T23:26:46.070Z</time>
      </trkpt>
      <trkpt lat="46.22554" lon="3.58611">
        <ele>335.354916</ele>
        <time>2020-10-25T23:26:52.499Z</time>
      </trkpt>
      <trkpt lat="46.22505" lon="3.58574">
        <ele>335.09804</ele>
        <time>2020-10-25T23:27:02.803Z</time>
      </trkpt>
      <trkpt lat="46.22462" lon="3.5853">
        <ele>334.917247</ele>
        <time>2020-10-25T23:27:12.901Z</time>
      </trkpt>
      <trkpt lat="46.2232" lon="3.58344">
        <ele>334.047405</ele>
        <time>2020-10-25T23:27:50.693Z</time>
      </trkpt>
      <trkpt lat="46.22218" lon="3.58241">
        <ele>332.936305</ele>
        <time>2020-10-25T23:28:12.037Z</time>
      </trkpt>
      <trkpt lat="46.22025" lon="3.58053">
        <ele>329.292346</ele>
        <time>2020-10-25T23:28:49.096Z</time>
      </trkpt>
      <trkpt lat="46.21742" lon="3.57792">
        <ele>323.090761</ele>
        <time>2020-10-25T23:29:41.301Z</time>
      </trkpt>
      <trkpt lat="46.21626" lon="3.57674">
        <ele>320.359</ele>
        <time>2020-10-25T23:30:03.376Z</time>
      </trkpt>
      <trkpt lat="46.21537" lon="3.5757">
        <ele>318.083894</ele>
        <time>2020-10-25T23:30:21.071Z</time>
      </trkpt>
      <trkpt lat="46.21528" lon="3.57559">
        <ele>317.860581</ele>
        <time>2020-10-25T23:30:22.768Z</time>
      </trkpt>
      <trkpt lat="46.21496" lon="3.57542">
        <ele>317.099964</ele>
        <time>2020-10-25T23:30:27.853Z</time>
      </trkpt>
      <trkpt lat="46.21493" lon="3.5754">
        <ele>317.004971</ele>
        <time>2020-10-25T23:30:28.413Z</time>
      </trkpt>
      <trkpt lat="46.21467" lon="3.57532">
        <ele>316.378763</ele>
        <time>2020-10-25T23:30:32.334Z</time>
      </trkpt>
      <trkpt lat="46.21463" lon="3.5753">
        <ele>316.262649</ele>
        <time>2020-10-25T23:30:33.062Z</time>
      </trkpt>
      <trkpt lat="46.21422" lon="3.57516">
        <ele>315.264006</ele>
        <time>2020-10-25T23:30:39.218Z</time>
      </trkpt>
      <trkpt lat="46.21389" lon="3.57502">
        <ele>314.442058</ele>
        <time>2020-10-25T23:30:44.389Z</time>
      </trkpt>
      <trkpt lat="46.21388" lon="3.57502">
        <ele>314.397234</ele>
        <time>2020-10-25T23:30:44.627Z</time>
      </trkpt>
      <trkpt lat="46.21206" lon="3.57393">
        <ele>309.460123</ele>
        <time>2020-10-25T23:31:13.601Z</time>
      </trkpt>
      <trkpt lat="46.21175" lon="3.57381">
        <ele>308.644139</ele>
        <time>2020-10-25T23:31:18.330Z</time>
      </trkpt>
      <trkpt lat="46.21029" lon="3.57339">
        <ele>305.442743</ele>
        <time>2020-10-25T23:31:40.647Z</time>
      </trkpt>
      <trkpt lat="46.21028" lon="3.57314">
        <ele>305.070009</ele>
        <time>2020-10-25T23:31:43.374Z</time>
      </trkpt>
      <trkpt lat="46.21032" lon="3.57169">
        <ele>304.021376</ele>
        <time>2020-10-25T23:32:00.124Z</time>
      </trkpt>
      <trkpt lat="46.21045" lon="3.57103">
        <ele>303.597158</ele>
        <time>2020-10-25T23:32:09.257Z</time>
      </trkpt>
      <trkpt lat="46.21046" lon="3.57096">
        <ele>303.554919</ele>
        <time>2020-10-25T23:32:10.113Z</time>
      </trkpt>
      <trkpt lat="46.21064" lon="3.5701">
        <ele>303.040878</ele>
        <time>2020-10-25T23:32:22.008Z</time>
      </trkpt>
      <trkpt lat="46.21068" lon="3.56989">
        <ele>302.933198</ele>
        <time>2020-10-25T23:32:24.798Z</time>
      </trkpt>
      <trkpt lat="46.21091" lon="3.56892">
        <ele>302.41599</ele>
        <time>2020-10-25T23:32:37.815Z</time>
      </trkpt>
      <trkpt lat="46.21095" lon="3.56859">
        <ele>302.251453</ele>
        <time>2020-10-25T23:32:41.824Z</time>
      </trkpt>
      <trkpt lat="46.21094" lon="3.56752">
        <ele>301.582832</ele>
        <time>2020-10-25T23:32:54.666Z</time>
      </trkpt>
      <trkpt lat="46.2106" lon="3.56444">
        <ele>299.206266</ele>
        <time>2020-10-25T23:33:30.327Z</time>
      </trkpt>
      <trkpt lat="46.21059" lon="3.56395">
        <ele>298.926679</ele>
        <time>2020-10-25T23:33:36.169Z</time>
      </trkpt>
      <trkpt lat="46.21115" lon="3.55864">
        <ele>297.445063</ele>
        <time>2020-10-25T23:34:46.047Z</time>
      </trkpt>
      <trkpt lat="46.21135" lon="3.55684">
        <ele>298.004574</ele>
        <time>2020-10-25T23:35:16.321Z</time>
      </trkpt>
      <trkpt lat="46.21239" lon="3.55144">
        <ele>301.968272</ele>
        <time>2020-10-25T23:37:05.376Z</time>
      </trkpt>
      <trkpt lat="46.21257" lon="3.55078">
        <ele>302.169857</ele>
        <time>2020-10-25T23:37:16.404Z</time>
      </trkpt>
      <trkpt lat="46.21259" lon="3.5505">
        <ele>302.24927</ele>
        <time>2020-10-25T23:37:20.043Z</time>
      </trkpt>
      <trkpt lat="46.21238" lon="3.54889">
        <ele>300.75008</ele>
        <time>2020-10-25T23:37:39.180Z</time>
      </trkpt>
      <trkpt lat="46.21178" lon="3.54606">
        <ele>296.093458</ele>
        <time>2020-10-25T23:38:09.171Z</time>
      </trkpt>
      <trkpt lat="46.21174" lon="3.54568">
        <ele>295.398816</ele>
        <time>2020-10-25T23:38:13.174Z</time>
      </trkpt>
      <trkpt lat="46.21173" lon="3.54558">
        <ele>295.219318</ele>
        <time>2020-10-25T23:38:14.113Z</time>
      </trkpt>
      <trkpt lat="46.21161" lon="3.54549">
        <ele>294.860084</ele>
        <time>2020-10-25T23:38:16.136Z</time>
      </trkpt>
      <trkpt lat="46.21116" lon="3.54475">
        <ele>293.619239</ele>
        <time>2020-10-25T23:38:26.256Z</time>
      </trkpt>
      <trkpt lat="46.21065" lon="3.54356">
        <ele>292.209437</ele>
        <time>2020-10-25T23:38:41.952Z</time>
      </trkpt>
      <trkpt lat="46.21031" lon="3.54295">
        <ele>291.698819</ele>
        <time>2020-10-25T23:38:52.291Z</time>
      </trkpt>
      <trkpt lat="46.20791" lon="3.54085">
        <ele>292.831815</ele>
        <time>2020-10-25T23:39:56.760Z</time>
      </trkpt>
      <trkpt lat="46.20638" lon="3.5398">
        <ele>294.818603</ele>
        <time>2020-10-25T23:40:43.127Z</time>
      </trkpt>
      <trkpt lat="46.20564" lon="3.53937">
        <ele>295.9889</ele>
        <time>2020-10-25T23:41:07.500Z</time>
      </trkpt>
      <trkpt lat="46.20548" lon="3.53929">
        <ele>296.26551</ele>
        <time>2020-10-25T23:41:13.471Z</time>
      </trkpt>
      <trkpt lat="46.20512" lon="3.53913">
        <ele>296.876605</ele>
        <time>2020-10-25T23:41:25.128Z</time>
      </trkpt>
      <trkpt lat="46.20448" lon="3.5388">
        <ele>297.985205</ele>
        <time>2020-10-25T23:41:46.252Z</time>
      </trkpt>
      <trkpt lat="46.20306" lon="3.53809">
        <ele>299.787498</ele>
        <time>2020-10-25T23:42:26.376Z</time>
      </trkpt>
      <trkpt lat="46.20297" lon="3.53805">
        <ele>299.878706</ele>
        <time>2020-10-25T23:42:28.527Z</time>
      </trkpt>
      <trkpt lat="46.20193" lon="3.53753">
        <ele>300.914405</ele>
        <time>2020-10-25T23:42:56.560Z</time>
      </trkpt>
      <trkpt lat="46.20145" lon="3.53737">
        <ele>301.338062</ele>
        <time>2020-10-25T23:43:09.231Z</time>
      </trkpt>
      <trkpt lat="46.20045" lon="3.5372">
        <ele>302.197841</ele>
        <time>2020-10-25T23:43:35.254Z</time>
      </trkpt>
      <trkpt lat="46.20005" lon="3.53706">
        <ele>302.5327</ele>
        <time>2020-10-25T23:43:45.714Z</time>
      </trkpt>
      <trkpt lat="46.1993" lon="3.53636">
        <ele>303.25776</ele>
        <time>2020-10-25T23:44:08.524Z</time>
      </trkpt>
      <trkpt lat="46.19846" lon="3.53583">
        <ele>303.706146</ele>
        <time>2020-10-25T23:44:31.071Z</time>
      </trkpt>
      <trkpt lat="46.19802" lon="3.53556">
        <ele>303.822761</ele>
        <time>2020-10-25T23:44:41.984Z</time>
      </trkpt>
      <trkpt lat="46.19785" lon="3.53547">
        <ele>303.866803</ele>
        <time>2020-10-25T23:44:46.058Z</time>
      </trkpt>
      <trkpt lat="46.19663" lon="3.53509">
        <ele>303.565527</ele>
        <time>2020-10-25T23:45:10.385Z</time>
      </trkpt>
      <trkpt lat="46.19624" lon="3.53509">
        <ele>303.280898</ele>
        <time>2020-10-25T23:45:17.192Z</time>
      </trkpt>
      <trkpt lat="46.19569" lon="3.53522">
        <ele>302.874477</ele>
        <time>2020-10-25T23:45:26.675Z</time>
      </trkpt>
      <trkpt lat="46.19543" lon="3.53519">
        <ele>302.676887</ele>
        <time>2020-10-25T23:45:31.141Z</time>
      </trkpt>
      <trkpt lat="46.19507" lon="3.535">
        <ele>302.297217</ele>
        <time>2020-10-25T23:45:37.653Z</time>
      </trkpt>
      <trkpt lat="46.19498" lon="3.53491">
        <ele>302.18435</ele>
        <time>2020-10-25T23:45:39.540Z</time>
      </trkpt>
      <trkpt lat="46.1949" lon="3.53484">
        <ele>302.090172</ele>
        <time>2020-10-25T23:45:41.200Z</time>
      </trkpt>
      <trkpt lat="46.19307" lon="3.53241">
        <ele>299.443048</ele>
        <time>2020-10-25T23:46:23.669Z</time>
      </trkpt>
      <trkpt lat="46.19296" lon="3.53227">
        <ele>299.272192</ele>
        <time>2020-10-25T23:46:26.078Z</time>
      </trkpt>
      <trkpt lat="46.1927" lon="3.53193">
        <ele>298.878156</ele>
        <time>2020-10-25T23:46:31.813Z</time>
      </trkpt>
      <trkpt lat="46.19091" lon="3.52991">
        <ele>296.328876</ele>
        <time>2020-10-25T23:47:08.968Z</time>
      </trkpt>
      <trkpt lat="46.18999" lon="3.52909">
        <ele>295.927355</ele>
        <time>2020-10-25T23:47:30.107Z</time>
      </trkpt>
      <trkpt lat="46.18981" lon="3.52893">
        <ele>295.849857</ele>
        <time>2020-10-25T23:47:34.684Z</time>
      </trkpt>
      <trkpt lat="46.18976" lon="3.52889">
        <ele>295.878511</ele>
        <time>2020-10-25T23:47:36.046Z</time>
      </trkpt>
      <trkpt lat="46.1896" lon="3.52879">
        <ele>296.086829</ele>
        <time>2020-10-25T23:47:40.968Z</time>
      </trkpt>
      <trkpt lat="46.18864" lon="3.52822">
        <ele>297.35642</ele>
        <time>2020-10-25T23:48:09.952Z</time>
      </trkpt>
      <trkpt lat="46.18836" lon="3.52797">
        <ele>297.765023</ele>
        <time>2020-10-25T23:48:19.863Z</time>
      </trkpt>
      <trkpt lat="46.18826" lon="3.52782">
        <ele>297.937112</ele>
        <time>2020-10-25T23:48:24.834Z</time>
      </trkpt>
      <trkpt lat="46.18765" lon="3.52686">
        <ele>298.94679</ele>
        <time>2020-10-25T23:48:51.009Z</time>
      </trkpt>
      <trkpt lat="46.18708" lon="3.52598">
        <ele>299.877413</ele>
        <time>2020-10-25T23:49:12.890Z</time>
      </trkpt>
      <trkpt lat="46.18688" lon="3.52575">
        <ele>300.011359</ele>
        <time>2020-10-25T23:49:18.768Z</time>
      </trkpt>
      <trkpt lat="46.18656" lon="3.52544">
        <ele>299.924109</ele>
        <time>2020-10-25T23:49:27.111Z</time>
      </trkpt>
      <trkpt lat="46.18549" lon="3.52425">
        <ele>299.537536</ele>
        <time>2020-10-25T23:49:53.097Z</time>
      </trkpt>
      <trkpt lat="46.18483" lon="3.52355">
        <ele>297.823803</ele>
        <time>2020-10-25T23:50:06.150Z</time>
      </trkpt>
      <trkpt lat="46.18428" lon="3.52295">
        <ele>296.407307</ele>
        <time>2020-10-25T23:50:16.281Z</time>
      </trkpt>
      <trkpt lat="46.18409" lon="3.52274">
        <ele>295.914717</ele>
        <time>2020-10-25T23:50:19.748Z</time>
      </trkpt>
      <trkpt lat="46.18395" lon="3.52261">
        <ele>295.295641</ele>
        <time>2020-10-25T23:50:22.090Z</time>
      </trkpt>
      <trkpt lat="46.18367" lon="3.5224">
        <ele>294.126647</ele>
        <time>2020-10-25T23:50:26.532Z</time>
      </trkpt>
      <trkpt lat="46.18188" lon="3.52144">
        <ele>288.045924</ele>
        <time>2020-10-25T23:50:52.646Z</time>
      </trkpt>
      <trkpt lat="46.18169" lon="3.52135">
        <ele>287.64422</ele>
        <time>2020-10-25T23:50:55.515Z</time>
      </trkpt>
      <trkpt lat="46.1815" lon="3.52125">
        <ele>287.249956</ele>
        <time>2020-10-25T23:50:58.755Z</time>
      </trkpt>
      <trkpt lat="46.18121" lon="3.52109">
        <ele>286.639113</ele>
        <time>2020-10-25T23:51:03.724Z</time>
      </trkpt>
      <trkpt lat="46.18091" lon="3.52094">
        <ele>286.018521</ele>
        <time>2020-10-25T23:51:09.013Z</time>
      </trkpt>
      <trkpt lat="46.18081" lon="3.52089">
        <ele>285.801489</ele>
        <time>2020-10-25T23:51:11.079Z</time>
      </trkpt>
      <trkpt lat="46.18036" lon="3.52067">
        <ele>286.979478</ele>
        <time>2020-10-25T23:51:24.378Z</time>
      </trkpt>
      <trkpt lat="46.18012" lon="3.52055">
        <ele>287.810872</ele>
        <time>2020-10-25T23:51:34.524Z</time>
      </trkpt>
      <trkpt lat="46.17971" lon="3.52029">
        <ele>289.271693</ele>
        <time>2020-10-25T23:51:52.675Z</time>
      </trkpt>
      <trkpt lat="46.1795" lon="3.51999">
        <ele>290.226585</ele>
        <time>2020-10-25T23:52:05.823Z</time>
      </trkpt>
      <trkpt lat="46.17943" lon="3.51978">
        <ele>290.746934</ele>
        <time>2020-10-25T23:52:13.428Z</time>
      </trkpt>
      <trkpt lat="46.17941" lon="3.51956">
        <ele>291.246477</ele>
        <time>2020-10-25T23:52:22.256Z</time>
      </trkpt>
      <trkpt lat="46.17943" lon="3.51839">
        <ele>296.236913</ele>
        <time>2020-10-25T23:53:03.580Z</time>
      </trkpt>
      <trkpt lat="46.1794" lon="3.5182">
        <ele>297.121838</ele>
        <time>2020-10-25T23:53:10.673Z</time>
      </trkpt>
      <trkpt lat="46.17927" lon="3.51788">
        <ele>298.762252</ele>
        <time>2020-10-25T23:53:25.271Z</time>
      </trkpt>
      <trkpt lat="46.17909" lon="3.51767">
        <ele>300.216948</ele>
        <time>2020-10-25T23:53:39.071Z</time>
      </trkpt>
      <trkpt lat="46.17893" lon="3.51747">
        <ele>301.592483</ele>
        <time>2020-10-25T23:53:51.435Z</time>
      </trkpt>
      <trkpt lat="46.1789" lon="3.51743">
        <ele>301.882973</ele>
        <time>2020-10-25T23:53:54.177Z</time>
      </trkpt>
      <trkpt lat="46.17882" lon="3.51733">
        <ele>302.543178</ele>
        <time>2020-10-25T23:54:00.567Z</time>
      </trkpt>
      <trkpt lat="46.17866" lon="3.51699">
        <ele>305.115831</ele>
        <time>2020-10-25T23:54:20.469Z</time>
      </trkpt>
      <trkpt lat="46.1786" lon="3.51686">
        <ele>306.190805</ele>
        <time>2020-10-25T23:54:27.942Z</time>
      </trkpt>
      <trkpt lat="46.17853" lon="3.51675">
        <ele>307.225088</ele>
        <time>2020-10-25T23:54:35.721Z</time>
      </trkpt>
      <trkpt lat="46.17836" lon="3.51652">
        <ele>309.558617</ele>
        <time>2020-10-25T23:54:52.900Z</time>
      </trkpt>
      <trkpt lat="46.1783" lon="3.51643">
        <ele>310.437166</ele>
        <time>2020-10-25T23:54:59.884Z</time>
      </trkpt>
      <trkpt lat="46.17808" lon="3.51607">
        <ele>313.741773</ele>
        <time>2020-10-25T23:55:26.023Z</time>
      </trkpt>
      <trkpt lat="46.17767" lon="3.51537">
        <ele>320.114895</ele>
        <time>2020-10-25T23:56:17.405Z</time>
      </trkpt>
      <trkpt lat="46.17743" lon="3.51491">
        <ele>324.31391</ele>
        <time>2020-10-25T23:56:52.404Z</time>
      </trkpt>
      <trkpt lat="46.17719" lon="3.51464">
        <ele>327.551487</ele>
        <time>2020-10-25T23:57:20.118Z</time>
      </trkpt>
      <trkpt lat="46.17578" lon="3.51431">
        <ele>342.137927</ele>
        <time>2020-10-25T23:59:10.594Z</time>
      </trkpt>
      <trkpt lat="46.17563" lon="3.51422">
        <ele>343.513619</ele>
        <time>2020-10-25T23:59:21.756Z</time>
      </trkpt>
      <trkpt lat="46.17544" lon="3.51397">
        <ele>345.717552</ele>
        <time>2020-10-25T23:59:39.489Z</time>
      </trkpt>
      <trkpt lat="46.17542" lon="3.51379">
        <ele>346.80049</ele>
        <time>2020-10-25T23:59:48.215Z</time>
      </trkpt>
      <trkpt lat="46.17557" lon="3.51363">
        <ele>348.389166</ele>
        <time>2020-10-26T00:00:00.782Z</time>
      </trkpt>
      <trkpt lat="46.17579" lon="3.51361">
        <ele>350.305351</ele>
        <time>2020-10-26T00:00:15.790Z</time>
      </trkpt>
      <trkpt lat="46.17589" lon="3.51354">
        <ele>351.219134</ele>
        <time>2020-10-26T00:00:22.847Z</time>
      </trkpt>
      <trkpt lat="46.17586" lon="3.51331">
        <ele>352.551131</ele>
        <time>2020-10-26T00:00:33.188Z</time>
      </trkpt>
      <trkpt lat="46.1743" lon="3.51246">
        <ele>364.822968</ele>
        <time>2020-10-26T00:02:18.118Z</time>
      </trkpt>
      <trkpt lat="46.1736" lon="3.512">
        <ele>369.390114</ele>
        <time>2020-10-26T00:03:00.660Z</time>
      </trkpt>
      <trkpt lat="46.17341" lon="3.51166">
        <ele>370.588084</ele>
        <time>2020-10-26T00:03:15.715Z</time>
      </trkpt>
      <trkpt lat="46.17314" lon="3.51095">
        <ele>372.776471</ele>
        <time>2020-10-26T00:03:40.229Z</time>
      </trkpt>
      <trkpt lat="46.1721" lon="3.51001">
        <ele>375.436329</ele>
        <time>2020-10-26T00:04:19.772Z</time>
      </trkpt>
      <trkpt lat="46.1716" lon="3.50958">
        <ele>375.552779</ele>
        <time>2020-10-26T00:04:30.750Z</time>
      </trkpt>
      <trkpt lat="46.17146" lon="3.50946">
        <ele>375.587013</ele>
        <time>2020-10-26T00:04:33.666Z</time>
      </trkpt>
      <trkpt lat="46.1713" lon="3.5093">
        <ele>375.62592</ele>
        <time>2020-10-26T00:04:36.969Z</time>
      </trkpt>
      <trkpt lat="46.17123" lon="3.50924">
        <ele>375.641989</ele>
        <time>2020-10-26T00:04:38.309Z</time>
      </trkpt>
      <trkpt lat="46.17056" lon="3.50856">
        <ele>375.663621</ele>
        <time>2020-10-26T00:04:52.231Z</time>
      </trkpt>
      <trkpt lat="46.16997" lon="3.50796">
        <ele>375.640755</ele>
        <time>2020-10-26T00:05:05.850Z</time>
      </trkpt>
      <trkpt lat="46.16979" lon="3.50774">
        <ele>375.633114</ele>
        <time>2020-10-26T00:05:10.669Z</time>
      </trkpt>
      <trkpt lat="46.16966" lon="3.50755">
        <ele>375.627206</ele>
        <time>2020-10-26T00:05:16.387Z</time>
      </trkpt>
      <trkpt lat="46.16954" lon="3.50736">
        <ele>376.17156</ele>
        <time>2020-10-26T00:05:21.100Z</time>
      </trkpt>
      <trkpt lat="46.16895" lon="3.5062">
        <ele>380.074999</ele>
        <time>2020-10-26T00:06:03.718Z</time>
      </trkpt>
      <trkpt lat="46.16824" lon="3.50502">
        <ele>384.182901</ele>
        <time>2020-10-26T00:06:59.206Z</time>
      </trkpt>
      <trkpt lat="46.16793" lon="3.50451">
        <ele>385.842472</ele>
        <time>2020-10-26T00:07:20.477Z</time>
      </trkpt>
      <trkpt lat="46.16783" lon="3.50434">
        <ele>386.402858</ele>
        <time>2020-10-26T00:07:26.648Z</time>
      </trkpt>
      <trkpt lat="46.16749" lon="3.50377">
        <ele>388.272252</ele>
        <time>2020-10-26T00:07:45.791Z</time>
      </trkpt>
      <trkpt lat="46.16714" lon="3.50327">
        <ele>388.980812</ele>
        <time>2020-10-26T00:08:00.317Z</time>
      </trkpt>
      <trkpt lat="46.16676" lon="3.50279">
        <ele>388.730744</ele>
        <time>2020-10-26T00:08:10.442Z</time>
      </trkpt>
      <trkpt lat="46.16636" lon="3.50254">
        <ele>388.514736</ele>
        <time>2020-10-26T00:08:17.822Z</time>
      </trkpt>
      <trkpt lat="46.16547" lon="3.50218">
        <ele>387.402029</ele>
        <time>2020-10-26T00:08:32.396Z</time>
      </trkpt>
      <trkpt lat="46.16515" lon="3.50203">
        <ele>386.560885</ele>
        <time>2020-10-26T00:08:37.609Z</time>
      </trkpt>
      <trkpt lat="46.16491" lon="3.50187">
        <ele>385.907179</ele>
        <time>2020-10-26T00:08:41.568Z</time>
      </trkpt>
      <trkpt lat="46.16403" lon="3.50106">
        <ele>382.982162</ele>
        <time>2020-10-26T00:08:56.715Z</time>
      </trkpt>
      <trkpt lat="46.1634" lon="3.50001">
        <ele>378.55044</ele>
        <time>2020-10-26T00:09:09.621Z</time>
      </trkpt>
      <trkpt lat="46.16311" lon="3.49969">
        <ele>376.913779</ele>
        <time>2020-10-26T00:09:14.339Z</time>
      </trkpt>
      <trkpt lat="46.16296" lon="3.49954">
        <ele>376.043831</ele>
        <time>2020-10-26T00:09:16.846Z</time>
      </trkpt>
      <trkpt lat="46.16286" lon="3.49946">
        <ele>375.535551</ele>
        <time>2020-10-26T00:09:18.257Z</time>
      </trkpt>
      <trkpt lat="46.16028" lon="3.49732">
        <ele>361.756615</ele>
        <time>2020-10-26T00:09:57.621Z</time>
      </trkpt>
      <trkpt lat="46.15998" lon="3.49714">
        <ele>360.417417</ele>
        <time>2020-10-26T00:10:02.224Z</time>
      </trkpt>
      <trkpt lat="46.15926" lon="3.49685">
        <ele>358.85213</ele>
        <time>2020-10-26T00:10:13.220Z</time>
      </trkpt>
      <trkpt lat="46.15839" lon="3.49627">
        <ele>358.102845</ele>
        <time>2020-10-26T00:10:33.009Z</time>
      </trkpt>
      <trkpt lat="46.15794" lon="3.49598">
        <ele>357.702037</ele>
        <time>2020-10-26T00:10:43.468Z</time>
      </trkpt>
      <trkpt lat="46.15781" lon="3.49588">
        <ele>357.55651</ele>
        <time>2020-10-26T00:10:47.733Z</time>
      </trkpt>
      <trkpt lat="46.15731" lon="3.49553">
        <ele>357.029426</ele>
        <time>2020-10-26T00:10:57.500Z</time>
      </trkpt>
      <trkpt lat="46.15715" lon="3.49535">
        <ele>356.83295</ele>
        <time>2020-10-26T00:11:02.164Z</time>
      </trkpt>
      <trkpt lat="46.15688" lon="3.4951">
        <ele>356.52234</ele>
        <time>2020-10-26T00:11:07.886Z</time>
      </trkpt>
      <trkpt lat="46.15663" lon="3.49486">
        <ele>356.234608</ele>
        <time>2020-10-26T00:11:12.616Z</time>
      </trkpt>
      <trkpt lat="46.1547" lon="3.49358">
        <ele>350.529007</ele>
        <time>2020-10-26T00:11:42.562Z</time>
      </trkpt>
      <trkpt lat="46.15435" lon="3.49313">
        <ele>349.993672</ele>
        <time>2020-10-26T00:11:49.832Z</time>
      </trkpt>
      <trkpt lat="46.15428" lon="3.49297">
        <ele>349.839077</ele>
        <time>2020-10-26T00:11:51.869Z</time>
      </trkpt>
      <trkpt lat="46.15422" lon="3.49282">
        <ele>349.701098</ele>
        <time>2020-10-26T00:11:53.936Z</time>
      </trkpt>
      <trkpt lat="46.15396" lon="3.49211">
        <ele>349.069839</ele>
        <time>2020-10-26T00:12:03.724Z</time>
      </trkpt>
      <trkpt lat="46.15381" lon="3.49186">
        <ele>348.802374</ele>
        <time>2020-10-26T00:12:08.766Z</time>
      </trkpt>
      <trkpt lat="46.15356" lon="3.49169">
        <ele>348.919496</ele>
        <time>2020-10-26T00:12:15.226Z</time>
      </trkpt>
      <trkpt lat="46.15293" lon="3.49159">
        <ele>350.167963</ele>
        <time>2020-10-26T00:12:34.127Z</time>
      </trkpt>
      <trkpt lat="46.15246" lon="3.49159">
        <ele>351.100504</ele>
        <time>2020-10-26T00:12:50.681Z</time>
      </trkpt>
      <trkpt lat="46.15207" lon="3.49164">
        <ele>351.866465</ele>
        <time>2020-10-26T00:13:04.428Z</time>
      </trkpt>
      <trkpt lat="46.15174" lon="3.49168">
        <ele>352.655909</ele>
        <time>2020-10-26T00:13:16.494Z</time>
      </trkpt>
      <trkpt lat="46.15153" lon="3.49166">
        <ele>353.248396</ele>
        <time>2020-10-26T00:13:24.137Z</time>
      </trkpt>
      <trkpt lat="46.15145" lon="3.49162">
        <ele>353.501905</ele>
        <time>2020-10-26T00:13:28.072Z</time>
      </trkpt>
      <trkpt lat="46.15053" lon="3.49104">
        <ele>356.332956</ele>
        <time>2020-10-26T00:14:06.533Z</time>
      </trkpt>
      <trkpt lat="46.14945" lon="3.49032">
        <ele>358.833512</ele>
        <time>2020-10-26T00:14:44.781Z</time>
      </trkpt>
      <trkpt lat="46.14931" lon="3.49023">
        <ele>359.102882</ele>
        <time>2020-10-26T00:14:48.925Z</time>
      </trkpt>
      <trkpt lat="46.14886" lon="3.48995">
        <ele>360.015073</ele>
        <time>2020-10-26T00:15:03.454Z</time>
      </trkpt>
      <trkpt lat="46.1482" lon="3.48948">
        <ele>361.419416</ele>
        <time>2020-10-26T00:15:25.209Z</time>
      </trkpt>
      <trkpt lat="46.1476" lon="3.48897">
        <ele>362.800408</ele>
        <time>2020-10-26T00:15:46.770Z</time>
      </trkpt>
      <trkpt lat="46.14722" lon="3.48862">
        <ele>363.697118</ele>
        <time>2020-10-26T00:16:02.229Z</time>
      </trkpt>
      <trkpt lat="46.14665" lon="3.48811">
        <ele>364.756761</ele>
        <time>2020-10-26T00:16:25.643Z</time>
      </trkpt>
      <trkpt lat="46.14636" lon="3.48784">
        <ele>365.237834</ele>
        <time>2020-10-26T00:16:36.499Z</time>
      </trkpt>
      <trkpt lat="46.14587" lon="3.48741">
        <ele>366.033047</ele>
        <time>2020-10-26T00:16:52.660Z</time>
      </trkpt>
      <trkpt lat="46.14556" lon="3.48716">
        <ele>366.526646</ele>
        <time>2020-10-26T00:17:01.068Z</time>
      </trkpt>
      <trkpt lat="46.14525" lon="3.48683">
        <ele>366.180652</ele>
        <time>2020-10-26T00:17:08.777Z</time>
      </trkpt>
      <trkpt lat="46.14495" lon="3.48641">
        <ele>365.591053</ele>
        <time>2020-10-26T00:17:16.237Z</time>
      </trkpt>
      <trkpt lat="46.14472" lon="3.48595">
        <ele>365.039275</ele>
        <time>2020-10-26T00:17:22.773Z</time>
      </trkpt>
      <trkpt lat="46.14439" lon="3.48524">
        <ele>364.193971</ele>
        <time>2020-10-26T00:17:31.836Z</time>
      </trkpt>
      <trkpt lat="46.14417" lon="3.48479">
        <ele>362.330289</ele>
        <time>2020-10-26T00:17:37.280Z</time>
      </trkpt>
      <trkpt lat="46.14374" lon="3.4839">
        <ele>358.01374</ele>
        <time>2020-10-26T00:17:47.050Z</time>
      </trkpt>
      <trkpt lat="46.1433" lon="3.48298">
        <ele>353.514141</ele>
        <time>2020-10-26T00:17:56.690Z</time>
      </trkpt>
      <trkpt lat="46.14309" lon="3.48251">
        <ele>350.076582</ele>
        <time>2020-10-26T00:18:01.567Z</time>
      </trkpt>
      <trkpt lat="46.14287" lon="3.48209">
        <ele>346.92672</ele>
        <time>2020-10-26T00:18:05.983Z</time>
      </trkpt>
      <trkpt lat="46.14228" lon="3.48139">
        <ele>340.292198</ele>
        <time>2020-10-26T00:18:15.229Z</time>
      </trkpt>
      <trkpt lat="46.14162" lon="3.48072">
        <ele>333.705287</ele>
        <time>2020-10-26T00:18:25.188Z</time>
      </trkpt>
      <trkpt lat="46.14131" lon="3.48041">
        <ele>330.759018</ele>
        <time>2020-10-26T00:18:29.868Z</time>
      </trkpt>
      <trkpt lat="46.14059" lon="3.47968">
        <ele>323.864816</ele>
        <time>2020-10-26T00:18:40.818Z</time>
      </trkpt>
      <trkpt lat="46.14025" lon="3.47932">
        <ele>320.822486</ele>
        <time>2020-10-26T00:18:46.120Z</time>
      </trkpt>
      <trkpt lat="46.13993" lon="3.47899">
        <ele>317.946262</ele>
        <time>2020-10-26T00:18:51.170Z</time>
      </trkpt>
      <trkpt lat="46.13954" lon="3.4786">
        <ele>314.588976</ele>
        <time>2020-10-26T00:18:57.058Z</time>
      </trkpt>
      <trkpt lat="46.13882" lon="3.47787">
        <ele>308.24641</ele>
        <time>2020-10-26T00:19:08.093Z</time>
      </trkpt>
      <trkpt lat="46.13819" lon="3.47722">
        <ele>302.710113</ele>
        <time>2020-10-26T00:19:17.751Z</time>
      </trkpt>
      <trkpt lat="46.138" lon="3.47702">
        <ele>301.008311</ele>
        <time>2020-10-26T00:19:20.698Z</time>
      </trkpt>
      <trkpt lat="46.13783" lon="3.47685">
        <ele>299.54212</ele>
        <time>2020-10-26T00:19:23.320Z</time>
      </trkpt>
      <trkpt lat="46.13776" lon="3.47676">
        <ele>298.831784</ele>
        <time>2020-10-26T00:19:24.550Z</time>
      </trkpt>
      <trkpt lat="46.13766" lon="3.47659">
        <ele>297.869848</ele>
        <time>2020-10-26T00:19:26.543Z</time>
      </trkpt>
      <trkpt lat="46.13763" lon="3.47653">
        <ele>297.648512</ele>
        <time>2020-10-26T00:19:27.144Z</time>
      </trkpt>
      <trkpt lat="46.1376" lon="3.47627">
        <ele>296.842654</ele>
        <time>2020-10-26T00:19:29.433Z</time>
      </trkpt>
      <trkpt lat="46.13766" lon="3.47595">
        <ele>295.844197</ele>
        <time>2020-10-26T00:19:32.332Z</time>
      </trkpt>
      <trkpt lat="46.13799" lon="3.47485">
        <ele>292.176145</ele>
        <time>2020-10-26T00:19:43.484Z</time>
      </trkpt>
      <trkpt lat="46.138" lon="3.47465">
        <ele>291.578901</ele>
        <time>2020-10-26T00:19:45.820Z</time>
      </trkpt>
      <trkpt lat="46.13799" lon="3.47455">
        <ele>291.261817</ele>
        <time>2020-10-26T00:19:46.752Z</time>
      </trkpt>
      <trkpt lat="46.13798" lon="3.47444">
        <ele>290.931983</ele>
        <time>2020-10-26T00:19:47.950Z</time>
      </trkpt>
      <trkpt lat="46.13775" lon="3.4738">
        <ele>290.284821</ele>
        <time>2020-10-26T00:19:57.023Z</time>
      </trkpt>
      <trkpt lat="46.13769" lon="3.47364">
        <ele>290.327416</ele>
        <time>2020-10-26T00:19:58.978Z</time>
      </trkpt>
      <trkpt lat="46.13761" lon="3.47343">
        <ele>290.384071</ele>
        <time>2020-10-26T00:20:03.026Z</time>
      </trkpt>
      <trkpt lat="46.13757" lon="3.47333">
        <ele>290.412028</ele>
        <time>2020-10-26T00:20:05.088Z</time>
      </trkpt>
      <trkpt lat="46.13747" lon="3.47308">
        <ele>290.479228</ele>
        <time>2020-10-26T00:20:08.644Z</time>
      </trkpt>
      <trkpt lat="46.13743" lon="3.47296">
        <ele>290.511071</ele>
        <time>2020-10-26T00:20:11.459Z</time>
      </trkpt>
      <trkpt lat="46.13739" lon="3.4728">
        <ele>290.550958</ele>
        <time>2020-10-26T00:20:14.546Z</time>
      </trkpt>
      <trkpt lat="46.13736" lon="3.47259">
        <ele>290.601643</ele>
        <time>2020-10-26T00:20:17.758Z</time>
      </trkpt>
      <trkpt lat="46.13734" lon="3.47251">
        <ele>290.621556</ele>
        <time>2020-10-26T00:20:19.658Z</time>
      </trkpt>
      <trkpt lat="46.1373" lon="3.47229">
        <ele>290.674503</ele>
        <time>2020-10-26T00:20:24.165Z</time>
      </trkpt>
      <trkpt lat="46.13728" lon="3.47221">
        <ele>290.695158</ele>
        <time>2020-10-26T00:20:26.227Z</time>
      </trkpt>
      <trkpt lat="46.13721" lon="3.47175">
        <ele>290.874976</ele>
        <time>2020-10-26T00:20:37.016Z</time>
      </trkpt>
      <trkpt lat="46.13709" lon="3.47118">
        <ele>291.47319</ele>
        <time>2020-10-26T00:20:51.201Z</time>
      </trkpt>
      <trkpt lat="46.13701" lon="3.47079">
        <ele>291.877299</ele>
        <time>2020-10-26T00:20:59.426Z</time>
      </trkpt>
      <trkpt lat="46.13698" lon="3.47064">
        <ele>292.033227</ele>
        <time>2020-10-26T00:21:02.874Z</time>
      </trkpt>
      <trkpt lat="46.13697" lon="3.4706">
        <ele>292.080861</ele>
        <time>2020-10-26T00:21:03.943Z</time>
      </trkpt>
      <trkpt lat="46.13681" lon="3.46919">
        <ele>293.410257</ele>
        <time>2020-10-26T00:21:30.326Z</time>
      </trkpt>
      <trkpt lat="46.13654" lon="3.46801">
        <ele>293.591663</ele>
        <time>2020-10-26T00:21:50.066Z</time>
      </trkpt>
      <trkpt lat="46.1365" lon="3.46784">
        <ele>293.617569</ele>
        <time>2020-10-26T00:21:52.555Z</time>
      </trkpt>
      <trkpt lat="46.1363" lon="3.46695">
        <ele>293.753574</ele>
        <time>2020-10-26T00:22:05.650Z</time>
      </trkpt>
      <trkpt lat="46.13627" lon="3.46681">
        <ele>293.752366</ele>
        <time>2020-10-26T00:22:07.687Z</time>
      </trkpt>
      <trkpt lat="46.13622" lon="3.46663">
        <ele>293.62194</ele>
        <time>2020-10-26T00:22:10.305Z</time>
      </trkpt>
      <trkpt lat="46.1362" lon="3.46655">
        <ele>293.564928</ele>
        <time>2020-10-26T00:22:11.550Z</time>
      </trkpt>
      <trkpt lat="46.13618" lon="3.46645">
        <ele>293.497428</ele>
        <time>2020-10-26T00:22:12.838Z</time>
      </trkpt>
      <trkpt lat="46.13618" lon="3.46638">
        <ele>293.44426</ele>
        <time>2020-10-26T00:22:13.856Z</time>
      </trkpt>
      <trkpt lat="46.13616" lon="3.4663">
        <ele>293.390104</ele>
        <time>2020-10-26T00:22:14.925Z</time>
      </trkpt>
      <trkpt lat="46.13612" lon="3.46624">
        <ele>293.336906</ele>
        <time>2020-10-26T00:22:15.957Z</time>
      </trkpt>
      <trkpt lat="46.13608" lon="3.46616">
        <ele>293.263922</ele>
        <time>2020-10-26T00:22:17.422Z</time>
      </trkpt>
      <trkpt lat="46.13607" lon="3.46607">
        <ele>293.205378</ele>
        <time>2020-10-26T00:22:18.642Z</time>
      </trkpt>
      <trkpt lat="46.13607" lon="3.46598">
        <ele>293.142127</ele>
        <time>2020-10-26T00:22:19.847Z</time>
      </trkpt>
      <trkpt lat="46.13606" lon="3.46588">
        <ele>293.074424</ele>
        <time>2020-10-26T00:22:21.135Z</time>
      </trkpt>
      <trkpt lat="46.13603" lon="3.46575">
        <ele>292.983507</ele>
        <time>2020-10-26T00:22:22.894Z</time>
      </trkpt>
      <trkpt lat="46.13601" lon="3.46564">
        <ele>292.909358</ele>
        <time>2020-10-26T00:22:24.383Z</time>
      </trkpt>
      <trkpt lat="46.13577" lon="3.4646">
        <ele>292.173066</ele>
        <time>2020-10-26T00:22:36.856Z</time>
      </trkpt>
      <trkpt lat="46.13574" lon="3.46449">
        <ele>292.089488</ele>
        <time>2020-10-26T00:22:38.300Z</time>
      </trkpt>
      <trkpt lat="46.13571" lon="3.46436">
        <ele>291.913999</ele>
        <time>2020-10-26T00:22:39.877Z</time>
      </trkpt>
      <trkpt lat="46.13542" lon="3.4636">
        <ele>289.774943</ele>
        <time>2020-10-26T00:22:48.647Z</time>
      </trkpt>
      <trkpt lat="46.13537" lon="3.46347">
        <ele>289.401931</ele>
        <time>2020-10-26T00:22:50.203Z</time>
      </trkpt>
      <trkpt lat="46.13531" lon="3.46333">
        <ele>288.996277</ele>
        <time>2020-10-26T00:22:51.734Z</time>
      </trkpt>
      <trkpt lat="46.13489" lon="3.4623">
        <ele>286.021126</ele>
        <time>2020-10-26T00:23:02.934Z</time>
      </trkpt>
      <trkpt lat="46.13477" lon="3.46196">
        <ele>284.970465</ele>
        <time>2020-10-26T00:23:06.477Z</time>
      </trkpt>
      <trkpt lat="46.13471" lon="3.46184">
        <ele>284.545929</ele>
        <time>2020-10-26T00:23:07.752Z</time>
      </trkpt>
      <trkpt lat="46.13412" lon="3.46138">
        <ele>281.689838</ele>
        <time>2020-10-26T00:23:16.641Z</time>
      </trkpt>
      <trkpt lat="46.13403" lon="3.4613">
        <ele>281.222834</ele>
        <time>2020-10-26T00:23:18.057Z</time>
      </trkpt>
      <trkpt lat="46.13393" lon="3.46116">
        <ele>280.644722</ele>
        <time>2020-10-26T00:23:19.996Z</time>
      </trkpt>
      <trkpt lat="46.13387" lon="3.46107">
        <ele>280.283063</ele>
        <time>2020-10-26T00:23:21.141Z</time>
      </trkpt>
      <trkpt lat="46.13366" lon="3.46065">
        <ele>278.75649</ele>
        <time>2020-10-26T00:23:26.043Z</time>
      </trkpt>
      <trkpt lat="46.13349" lon="3.46022">
        <ele>277.771579</ele>
        <time>2020-10-26T00:23:31.078Z</time>
      </trkpt>
      <trkpt lat="46.13342" lon="3.46002">
        <ele>277.609459</ele>
        <time>2020-10-26T00:23:33.420Z</time>
      </trkpt>
      <trkpt lat="46.13337" lon="3.45986">
        <ele>277.485204</ele>
        <time>2020-10-26T00:23:35.461Z</time>
      </trkpt>
      <trkpt lat="46.13327" lon="3.45959">
        <ele>277.268073</ele>
        <time>2020-10-26T00:23:38.716Z</time>
      </trkpt>
      <trkpt lat="46.13328" lon="3.45955">
        <ele>277.233414</ele>
        <time>2020-10-26T00:23:39.219Z</time>
      </trkpt>
      <trkpt lat="46.13327" lon="3.4595">
        <ele>277.199754</ele>
        <time>2020-10-26T00:23:39.790Z</time>
      </trkpt>
      <trkpt lat="46.13326" lon="3.45946">
        <ele>277.166413</ele>
        <time>2020-10-26T00:23:40.348Z</time>
      </trkpt>
      <trkpt lat="46.13323" lon="3.45943">
        <ele>277.132755</ele>
        <time>2020-10-26T00:23:40.909Z</time>
      </trkpt>
      <trkpt lat="46.13325" lon="3.45923">
        <ele>276.987287</ele>
        <time>2020-10-26T00:23:43.266Z</time>
      </trkpt>
      <trkpt lat="46.13335" lon="3.45896">
        <ele>276.766639</ele>
        <time>2020-10-26T00:23:47.575Z</time>
      </trkpt>
      <trkpt lat="46.13341" lon="3.4588">
        <ele>276.645382</ele>
        <time>2020-10-26T00:23:50.022Z</time>
      </trkpt>
      <trkpt lat="46.13367" lon="3.45827">
        <ele>276.171327</ele>
        <time>2020-10-26T00:23:59.598Z</time>
      </trkpt>
      <trkpt lat="46.13379" lon="3.45809">
        <ele>276.033962</ele>
        <time>2020-10-26T00:24:03.511Z</time>
      </trkpt>
      <trkpt lat="46.13393" lon="3.45773">
        <ele>275.924534</ele>
        <time>2020-10-26T00:24:09.866Z</time>
      </trkpt>
      <trkpt lat="46.1341" lon="3.45739">
        <ele>275.809372</ele>
        <time>2020-10-26T00:24:16.385Z</time>
      </trkpt>
      <trkpt lat="46.13419" lon="3.45734">
        <ele>275.771768</ele>
        <time>2020-10-26T00:24:18.437Z</time>
      </trkpt>
      <trkpt lat="46.13425" lon="3.45733">
        <ele>275.746962</ele>
        <time>2020-10-26T00:24:19.850Z</time>
      </trkpt>
      <trkpt lat="46.1343" lon="3.45733">
        <ele>275.729617</ele>
        <time>2020-10-26T00:24:20.830Z</time>
      </trkpt>
      <trkpt lat="46.13434" lon="3.45734">
        <ele>275.710866</ele>
        <time>2020-10-26T00:24:21.874Z</time>
      </trkpt>
      <trkpt lat="46.13441" lon="3.45731">
        <ele>275.682384</ele>
        <time>2020-10-26T00:24:23.320Z</time>
      </trkpt>
      <trkpt lat="46.13444" lon="3.45726">
        <ele>275.66656</ele>
        <time>2020-10-26T00:24:24.102Z</time>
      </trkpt>
      <trkpt lat="46.13446" lon="3.4572">
        <ele>275.646903</ele>
        <time>2020-10-26T00:24:25.130Z</time>
      </trkpt>
      <trkpt lat="46.13446" lon="3.45714">
        <ele>275.631965</ele>
        <time>2020-10-26T00:24:25.830Z</time>
      </trkpt>
      <trkpt lat="46.13444" lon="3.45708">
        <ele>275.614134</ele>
        <time>2020-10-26T00:24:26.701Z</time>
      </trkpt>
      <trkpt lat="46.13442" lon="3.45704">
        <ele>275.600054</ele>
        <time>2020-10-26T00:24:27.385Z</time>
      </trkpt>
      <trkpt lat="46.1344" lon="3.45696">
        <ele>275.576577</ele>
        <time>2020-10-26T00:24:28.488Z</time>
      </trkpt>
      <trkpt lat="46.1344" lon="3.45689">
        <ele>275.557567</ele>
        <time>2020-10-26T00:24:29.345Z</time>
      </trkpt>
      <trkpt lat="46.13448" lon="3.45667">
        <ele>275.492452</ele>
        <time>2020-10-26T00:24:32.007Z</time>
      </trkpt>
      <trkpt lat="46.13452" lon="3.4565">
        <ele>275.442254</ele>
        <time>2020-10-26T00:24:34.258Z</time>
      </trkpt>
      <trkpt lat="46.1345" lon="3.45616">
        <ele>275.339669</ele>
        <time>2020-10-26T00:24:38.011Z</time>
      </trkpt>
      <trkpt lat="46.13444" lon="3.45597">
        <ele>275.125896</ele>
        <time>2020-10-26T00:24:40.617Z</time>
      </trkpt>
      <trkpt lat="46.13438" lon="3.45576">
        <ele>274.904032</ele>
        <time>2020-10-26T00:24:43.051Z</time>
      </trkpt>
      <trkpt lat="46.13432" lon="3.45547">
        <ele>274.596308</ele>
        <time>2020-10-26T00:24:46.647Z</time>
      </trkpt>
      <trkpt lat="46.13431" lon="3.45522">
        <ele>274.347352</ele>
        <time>2020-10-26T00:24:49.352Z</time>
      </trkpt>
      <trkpt lat="46.13431" lon="3.45489">
        <ele>274.018066</ele>
        <time>2020-10-26T00:24:53.131Z</time>
      </trkpt>
      <trkpt lat="46.13432" lon="3.45479">
        <ele>273.91408</ele>
        <time>2020-10-26T00:24:54.192Z</time>
      </trkpt>
      <trkpt lat="46.13434" lon="3.45464">
        <ele>273.765036</ele>
        <time>2020-10-26T00:24:55.816Z</time>
      </trkpt>
      <trkpt lat="46.13432" lon="3.45443">
        <ele>273.555658</ele>
        <time>2020-10-26T00:24:58.171Z</time>
      </trkpt>
      <trkpt lat="46.13429" lon="3.45436">
        <ele>273.467018</ele>
        <time>2020-10-26T00:24:59.109Z</time>
      </trkpt>
      <trkpt lat="46.13424" lon="3.45427">
        <ele>273.361952</ele>
        <time>2020-10-26T00:25:00.184Z</time>
      </trkpt>
      <trkpt lat="46.13408" lon="3.45397">
        <ele>272.976654</ele>
        <time>2020-10-26T00:25:04.445Z</time>
      </trkpt>
      <trkpt lat="46.13377" lon="3.45322">
        <ele>272.904804</ele>
        <time>2020-10-26T00:25:14.567Z</time>
      </trkpt>
      <trkpt lat="46.1337" lon="3.45298">
        <ele>272.959318</ele>
        <time>2020-10-26T00:25:18.028Z</time>
      </trkpt>
      <trkpt lat="46.13362" lon="3.45279">
        <ele>273.004854</ele>
        <time>2020-10-26T00:25:21.538Z</time>
      </trkpt>
      <trkpt lat="46.13359" lon="3.45271">
        <ele>273.024766</ele>
        <time>2020-10-26T00:25:22.972Z</time>
      </trkpt>
      <trkpt lat="46.13356" lon="3.4526">
        <ele>273.048813</ele>
        <time>2020-10-26T00:25:24.986Z</time>
      </trkpt>
      <trkpt lat="46.13349" lon="3.45243">
        <ele>273.089334</ele>
        <time>2020-10-26T00:25:28.527Z</time>
      </trkpt>
      <trkpt lat="46.13344" lon="3.45229">
        <ele>273.122848</ele>
        <time>2020-10-26T00:25:31.650Z</time>
      </trkpt>
      <trkpt lat="46.13342" lon="3.45222">
        <ele>273.139325</ele>
        <time>2020-10-26T00:25:32.879Z</time>
      </trkpt>
      <trkpt lat="46.13339" lon="3.45214">
        <ele>273.157436</ele>
        <time>2020-10-26T00:25:34.567Z</time>
      </trkpt>
      <trkpt lat="46.13332" lon="3.45195">
        <ele>273.203486</ele>
        <time>2020-10-26T00:25:38.709Z</time>
      </trkpt>
      <trkpt lat="46.13324" lon="3.45183">
        <ele>273.239109</ele>
        <time>2020-10-26T00:25:41.977Z</time>
      </trkpt>
      <trkpt lat="46.13317" lon="3.45165">
        <ele>273.28246</ele>
        <time>2020-10-26T00:25:45.919Z</time>
      </trkpt>
      <trkpt lat="46.13316" lon="3.45161">
        <ele>273.28988</ele>
        <time>2020-10-26T00:25:46.747Z</time>
      </trkpt>
      <trkpt lat="46.13313" lon="3.45152">
        <ele>273.318911</ele>
        <time>2020-10-26T00:25:48.782Z</time>
      </trkpt>
      <trkpt lat="46.13312" lon="3.45137">
        <ele>273.545223</ele>
        <time>2020-10-26T00:25:52.199Z</time>
      </trkpt>
      <trkpt lat="46.13312" lon="3.45121">
        <ele>273.771558</ele>
        <time>2020-10-26T00:25:55.343Z</time>
      </trkpt>
      <trkpt lat="46.13318" lon="3.45096">
        <ele>274.137372</ele>
        <time>2020-10-26T00:26:01.215Z</time>
      </trkpt>
      <trkpt lat="46.13329" lon="3.45066">
        <ele>274.640268</ele>
        <time>2020-10-26T00:26:09.210Z</time>
      </trkpt>
      <trkpt lat="46.13346" lon="3.45022">
        <ele>275.353673</ele>
        <time>2020-10-26T00:26:21.485Z</time>
      </trkpt>
      <trkpt lat="46.13379" lon="3.44926">
        <ele>276.889362</ele>
        <time>2020-10-26T00:26:47.989Z</time>
      </trkpt>
      <trkpt lat="46.13422" lon="3.44689">
        <ele>278.300507</ele>
        <time>2020-10-26T00:27:32.459Z</time>
      </trkpt>
      <trkpt lat="46.13428" lon="3.44645">
        <ele>278.219641</ele>
        <time>2020-10-26T00:27:37.794Z</time>
      </trkpt>
      <trkpt lat="46.13433" lon="3.44602">
        <ele>277.76121</ele>
        <time>2020-10-26T00:27:42.852Z</time>
      </trkpt>
      <trkpt lat="46.13435" lon="3.44585">
        <ele>277.583228</ele>
        <time>2020-10-26T00:27:44.752Z</time>
      </trkpt>
      <trkpt lat="46.13438" lon="3.44562">
        <ele>277.33976</ele>
        <time>2020-10-26T00:27:47.430Z</time>
      </trkpt>
      <trkpt lat="46.13439" lon="3.44552">
        <ele>277.228877</ele>
        <time>2020-10-26T00:27:48.533Z</time>
      </trkpt>
      <trkpt lat="46.13441" lon="3.44506">
        <ele>276.754572</ele>
        <time>2020-10-26T00:27:53.515Z</time>
      </trkpt>
      <trkpt lat="46.13444" lon="3.44432">
        <ele>275.982776</ele>
        <time>2020-10-26T00:28:01.323Z</time>
      </trkpt>
      <trkpt lat="46.13444" lon="3.44336">
        <ele>275.069902</ele>
        <time>2020-10-26T00:28:11.548Z</time>
      </trkpt>
      <trkpt lat="46.1344" lon="3.44259">
        <ele>274.352079</ele>
        <time>2020-10-26T00:28:20.224Z</time>
      </trkpt>
      <trkpt lat="46.13436" lon="3.44185">
        <ele>273.674806</ele>
        <time>2020-10-26T00:28:29.162Z</time>
      </trkpt>
      <trkpt lat="46.13435" lon="3.44175">
        <ele>273.580694</ele>
        <time>2020-10-26T00:28:30.468Z</time>
      </trkpt>
      <trkpt lat="46.13423" lon="3.44097">
        <ele>273.148221</ele>
        <time>2020-10-26T00:28:40.999Z</time>
      </trkpt>
      <trkpt lat="46.13403" lon="3.44009">
        <ele>272.824469</ele>
        <time>2020-10-26T00:28:53.086Z</time>
      </trkpt>
      <trkpt lat="46.13367" lon="3.43908">
        <ele>272.423513</ele>
        <time>2020-10-26T00:29:07.841Z</time>
      </trkpt>
      <trkpt lat="46.13353" lon="3.43874">
        <ele>272.177171</ele>
        <time>2020-10-26T00:29:12.687Z</time>
      </trkpt>
      <trkpt lat="46.13336" lon="3.43838">
        <ele>271.913252</ele>
        <time>2020-10-26T00:29:17.821Z</time>
      </trkpt>
      <trkpt lat="46.13336" lon="3.43837">
        <ele>271.902088</ele>
        <time>2020-10-26T00:29:18.148Z</time>
      </trkpt>
      <trkpt lat="46.13329" lon="3.43822">
        <ele>271.787918</ele>
        <time>2020-10-26T00:29:21.493Z</time>
      </trkpt>
      <trkpt lat="46.13322" lon="3.43807">
        <ele>271.681868</ele>
        <time>2020-10-26T00:29:24.310Z</time>
      </trkpt>
      <trkpt lat="46.13319" lon="3.43802">
        <ele>271.639754</ele>
        <time>2020-10-26T00:29:25.221Z</time>
      </trkpt>
      <trkpt lat="46.13308" lon="3.4378">
        <ele>271.470735</ele>
        <time>2020-10-26T00:29:28.754Z</time>
      </trkpt>
      <trkpt lat="46.13296" lon="3.43757">
        <ele>271.29453</ele>
        <time>2020-10-26T00:29:31.808Z</time>
      </trkpt>
      <trkpt lat="46.13234" lon="3.43641">
        <ele>270.635819</ele>
        <time>2020-10-26T00:29:50.356Z</time>
      </trkpt>
      <trkpt lat="46.13232" lon="3.43638">
        <ele>270.626458</ele>
        <time>2020-10-26T00:29:50.666Z</time>
      </trkpt>
      <trkpt lat="46.13221" lon="3.43612">
        <ele>270.546738</ele>
        <time>2020-10-26T00:29:55.462Z</time>
      </trkpt>
      <trkpt lat="46.13199" lon="3.43588">
        <ele>270.440083</ele>
        <time>2020-10-26T00:30:00.387Z</time>
      </trkpt>
      <trkpt lat="46.13196" lon="3.43584">
        <ele>270.423808</ele>
        <time>2020-10-26T00:30:01.365Z</time>
      </trkpt>
      <trkpt lat="46.13184" lon="3.43569">
        <ele>270.363069</ele>
        <time>2020-10-26T00:30:04.804Z</time>
      </trkpt>
      <trkpt lat="46.13181" lon="3.43562">
        <ele>270.343266</ele>
        <time>2020-10-26T00:30:05.550Z</time>
      </trkpt>
      <trkpt lat="46.13177" lon="3.43565">
        <ele>270.325344</ele>
        <time>2020-10-26T00:30:06.628Z</time>
      </trkpt>
      <trkpt lat="46.13171" lon="3.43569">
        <ele>270.30043</ele>
        <time>2020-10-26T00:30:08.100Z</time>
      </trkpt>
      <trkpt lat="46.1317" lon="3.43566">
        <ele>270.29089</ele>
        <time>2020-10-26T00:30:08.853Z</time>
      </trkpt>
      <trkpt lat="46.13168" lon="3.43558">
        <ele>270.267558</ele>
        <time>2020-10-26T00:30:10.711Z</time>
      </trkpt>
      <trkpt lat="46.13163" lon="3.43539">
        <ele>270.214224</ele>
        <time>2020-10-26T00:30:14.129Z</time>
      </trkpt>
      <trkpt lat="46.13161" lon="3.43525">
        <ele>270.175597</ele>
        <time>2020-10-26T00:30:17.215Z</time>
      </trkpt>
      <trkpt lat="46.13153" lon="3.43504">
        <ele>270.113813</ele>
        <time>2020-10-26T00:30:21.121Z</time>
      </trkpt>
      <trkpt lat="46.13119" lon="3.43445">
        <ele>269.926228</ele>
        <time>2020-10-26T00:30:32.666Z</time>
      </trkpt>
      <trkpt lat="46.13113" lon="3.43435">
        <ele>269.896301</ele>
        <time>2020-10-26T00:30:34.479Z</time>
      </trkpt>
      <trkpt lat="46.13063" lon="3.43346">
        <ele>269.616281</ele>
        <time>2020-10-26T00:30:50.112Z</time>
      </trkpt>
      <trkpt lat="46.13046" lon="3.43323">
        <ele>269.532263</ele>
        <time>2020-10-26T00:30:54.539Z</time>
      </trkpt>
      <trkpt lat="46.13039" lon="3.43309">
        <ele>269.457899</ele>
        <time>2020-10-26T00:30:56.263Z</time>
      </trkpt>
      <trkpt lat="46.12986" lon="3.43238">
        <ele>268.080039</ele>
        <time>2020-10-26T00:31:07.725Z</time>
      </trkpt>
      <trkpt lat="46.1294" lon="3.43175">
        <ele>266.879077</ele>
        <time>2020-10-26T00:31:17.347Z</time>
      </trkpt>
      <trkpt lat="46.12942" lon="3.43173">
        <ele>266.840317</ele>
        <time>2020-10-26T00:31:17.641Z</time>
      </trkpt>
      <trkpt lat="46.12943" lon="3.43172">
        <ele>266.800992</ele>
        <time>2020-10-26T00:31:17.938Z</time>
      </trkpt>
      <trkpt lat="46.12939" lon="3.4316">
        <ele>266.627794</ele>
        <time>2020-10-26T00:31:19.262Z</time>
      </trkpt>
      <trkpt lat="46.12916" lon="3.43131">
        <ele>266.054503</ele>
        <time>2020-10-26T00:31:23.864Z</time>
      </trkpt>
      <trkpt lat="46.12904" lon="3.43116">
        <ele>265.833697</ele>
        <time>2020-10-26T00:31:26.181Z</time>
      </trkpt>
      <trkpt lat="46.12893" lon="3.43105">
        <ele>265.647583</ele>
        <time>2020-10-26T00:31:28.184Z</time>
      </trkpt>
      <trkpt lat="46.12872" lon="3.43085">
        <ele>265.29738</ele>
        <time>2020-10-26T00:31:31.973Z</time>
      </trkpt>
      <trkpt lat="46.12851" lon="3.43067">
        <ele>264.941917</ele>
        <time>2020-10-26T00:31:35.964Z</time>
      </trkpt>
      <trkpt lat="46.12816" lon="3.43023">
        <ele>264.289099</ele>
        <time>2020-10-26T00:31:43.687Z</time>
      </trkpt>
      <trkpt lat="46.12785" lon="3.42982">
        <ele>263.693774</ele>
        <time>2020-10-26T00:31:51.160Z</time>
      </trkpt>
      <trkpt lat="46.1276" lon="3.42946">
        <ele>263.450767</ele>
        <time>2020-10-26T00:31:57.799Z</time>
      </trkpt>
      <trkpt lat="46.12745" lon="3.42925">
        <ele>263.370128</ele>
        <time>2020-10-26T00:32:02.024Z</time>
      </trkpt>
      <trkpt lat="46.12742" lon="3.42914">
        <ele>263.339734</ele>
        <time>2020-10-26T00:32:03.636Z</time>
      </trkpt>
      <trkpt lat="46.12714" lon="3.42877">
        <ele>263.192029</ele>
        <time>2020-10-26T00:32:11.383Z</time>
      </trkpt>
      <trkpt lat="46.12697" lon="3.42856">
        <ele>263.105121</ele>
        <time>2020-10-26T00:32:15.898Z</time>
      </trkpt>
      <trkpt lat="46.12691" lon="3.42848">
        <ele>263.073606</ele>
        <time>2020-10-26T00:32:17.563Z</time>
      </trkpt>
      <trkpt lat="46.12685" lon="3.4284">
        <ele>263.041221</ele>
        <time>2020-10-26T00:32:19.136Z</time>
      </trkpt>
      <trkpt lat="46.12671" lon="3.42821">
        <ele>262.967494</ele>
        <time>2020-10-26T00:32:22.844Z</time>
      </trkpt>
      <trkpt lat="46.12668" lon="3.42802">
        <ele>262.916393</ele>
        <time>2020-10-26T00:32:25.386Z</time>
      </trkpt>
      <trkpt lat="46.12667" lon="3.42792">
        <ele>262.888769</ele>
        <time>2020-10-26T00:32:26.557Z</time>
      </trkpt>
      <trkpt lat="46.12666" lon="3.42782">
        <ele>262.861214</ele>
        <time>2020-10-26T00:32:27.829Z</time>
      </trkpt>
      <trkpt lat="46.12662" lon="3.42748">
        <ele>262.696657</ele>
        <time>2020-10-26T00:32:32.185Z</time>
      </trkpt>
      <trkpt lat="46.12657" lon="3.4275">
        <ele>262.659889</ele>
        <time>2020-10-26T00:32:32.988Z</time>
      </trkpt>
      <trkpt lat="46.12616" lon="3.42764">
        <ele>262.355334</ele>
        <time>2020-10-26T00:32:40.181Z</time>
      </trkpt>
      <trkpt lat="46.1261" lon="3.42768">
        <ele>262.306679</ele>
        <time>2020-10-26T00:32:41.350Z</time>
      </trkpt>
      <trkpt lat="46.12561" lon="3.42746">
        <ele>261.928337</ele>
        <time>2020-10-26T00:32:50.564Z</time>
      </trkpt>
      <trkpt lat="46.12557" lon="3.42744">
        <ele>261.901839</ele>
        <time>2020-10-26T00:32:51.278Z</time>
      </trkpt>
      <trkpt lat="46.12552" lon="3.42742">
        <ele>261.860577</ele>
        <time>2020-10-26T00:32:52.158Z</time>
      </trkpt>
      <trkpt lat="46.1254" lon="3.42717">
        <ele>261.708408</ele>
        <time>2020-10-26T00:32:56.036Z</time>
      </trkpt>
      <trkpt lat="46.12538" lon="3.42713">
        <ele>261.682193</ele>
        <time>2020-10-26T00:32:56.663Z</time>
      </trkpt>
      <trkpt lat="46.12526" lon="3.42703">
        <ele>261.57717</ele>
        <time>2020-10-26T00:33:00.240Z</time>
      </trkpt>
      <trkpt lat="46.12494" lon="3.42683">
        <ele>261.558791</ele>
        <time>2020-10-26T00:33:08.879Z</time>
      </trkpt>
      <trkpt lat="46.12462" lon="3.42663">
        <ele>261.584023</ele>
        <time>2020-10-26T00:33:18.036Z</time>
      </trkpt>
      <trkpt lat="46.12457" lon="3.42666">
        <ele>261.58819</ele>
        <time>2020-10-26T00:33:19.949Z</time>
      </trkpt>
      <trkpt lat="46.1246" lon="3.42626">
        <ele>261.608355</ele>
        <time>2020-10-26T00:33:25.602Z</time>
      </trkpt>
      <trkpt lat="46.12463" lon="3.42586">
        <ele>261.628213</ele>
        <time>2020-10-26T00:33:32.016Z</time>
      </trkpt>
      <trkpt lat="46.12466" lon="3.42556">
        <ele>261.64365</ele>
        <time>2020-10-26T00:33:37.561Z</time>
      </trkpt>
      <trkpt lat="46.12456" lon="3.42534">
        <ele>261.656867</ele>
        <time>2020-10-26T00:33:41.941Z</time>
      </trkpt>
      <trkpt lat="46.12452" lon="3.42525">
        <ele>261.661891</ele>
        <time>2020-10-26T00:33:43.686Z</time>
      </trkpt>
      <trkpt lat="46.12412" lon="3.42436">
        <ele>262.202529</ele>
        <time>2020-10-26T00:34:01.781Z</time>
      </trkpt>
      <trkpt lat="46.12408" lon="3.42427">
        <ele>262.259021</ele>
        <time>2020-10-26T00:34:03.435Z</time>
      </trkpt>
      <trkpt lat="46.12405" lon="3.42421">
        <ele>262.298838</ele>
        <time>2020-10-26T00:34:04.574Z</time>
      </trkpt>
      <trkpt lat="46.12399" lon="3.42407">
        <ele>262.398865</ele>
        <time>2020-10-26T00:34:07.461Z</time>
      </trkpt>
      <trkpt lat="46.12391" lon="3.42389">
        <ele>262.51787</ele>
        <time>2020-10-26T00:34:11.261Z</time>
      </trkpt>
      <trkpt lat="46.12375" lon="3.42353">
        <ele>262.757268</ele>
        <time>2020-10-26T00:34:18.637Z</time>
      </trkpt>
      <trkpt lat="46.12371" lon="3.42345">
        <ele>262.809599</ele>
        <time>2020-10-26T00:34:20.943Z</time>
      </trkpt>
      <trkpt lat="46.12353" lon="3.42306">
        <ele>263.077716</ele>
        <time>2020-10-26T00:34:29.776Z</time>
      </trkpt>
      <trkpt lat="46.12347" lon="3.42292">
        <ele>263.150133</ele>
        <time>2020-10-26T00:34:32.756Z</time>
      </trkpt>
      <trkpt lat="46.12349" lon="3.42244">
        <ele>263.289546</ele>
        <time>2020-10-26T00:34:41.759Z</time>
      </trkpt>
      <trkpt lat="46.12349" lon="3.42235">
        <ele>263.314383</ele>
        <time>2020-10-26T00:34:43.221Z</time>
      </trkpt>
      <trkpt lat="46.12332" lon="3.42232">
        <ele>263.383982</ele>
        <time>2020-10-26T00:34:47.574Z</time>
      </trkpt>
      <trkpt lat="46.12329" lon="3.42232">
        <ele>263.396978</ele>
        <time>2020-10-26T00:34:48.569Z</time>
      </trkpt>
      <trkpt lat="46.12327" lon="3.42231">
        <ele>263.404978</ele>
        <time>2020-10-26T00:34:49.361Z</time>
      </trkpt>
      <trkpt lat="46.12311" lon="3.42228">
        <ele>263.47505</ele>
        <time>2020-10-26T00:34:53.131Z</time>
      </trkpt>
      <trkpt lat="46.12294" lon="3.42224">
        <ele>263.544</ele>
        <time>2020-10-26T00:34:57.020Z</time>
      </trkpt>
      <trkpt lat="46.12293" lon="3.42224">
        <ele>263.550691</ele>
        <time>2020-10-26T00:34:57.818Z</time>
      </trkpt>
      <trkpt lat="46.12244" lon="3.42212">
        <ele>263.757302</ele>
        <time>2020-10-26T00:35:08.108Z</time>
      </trkpt>
      <trkpt lat="46.12218" lon="3.42195">
        <ele>263.874854</ele>
        <time>2020-10-26T00:35:13.690Z</time>
      </trkpt>
      <trkpt lat="46.12205" lon="3.42177">
        <ele>263.599681</ele>
        <time>2020-10-26T00:35:16.792Z</time>
      </trkpt>
      <trkpt lat="46.12201" lon="3.42165">
        <ele>263.452807</ele>
        <time>2020-10-26T00:35:18.848Z</time>
      </trkpt>
      <trkpt lat="46.12196" lon="3.42143">
        <ele>263.191086</ele>
        <time>2020-10-26T00:35:21.671Z</time>
      </trkpt>
      <trkpt lat="46.12192" lon="3.42127">
        <ele>263.005315</ele>
        <time>2020-10-26T00:35:23.590Z</time>
      </trkpt>
      <trkpt lat="46.12191" lon="3.42087">
        <ele>262.571806</ele>
        <time>2020-10-26T00:35:28.308Z</time>
      </trkpt>
      <trkpt lat="46.12191" lon="3.42079">
        <ele>262.478579</ele>
        <time>2020-10-26T00:35:29.240Z</time>
      </trkpt>
      <trkpt lat="46.12188" lon="3.4207">
        <ele>262.377078</ele>
        <time>2020-10-26T00:35:30.374Z</time>
      </trkpt>
      <trkpt lat="46.12186" lon="3.42064">
        <ele>262.296985</ele>
        <time>2020-10-26T00:35:31.392Z</time>
      </trkpt>
      <trkpt lat="46.12181" lon="3.42054">
        <ele>262.166815</ele>
        <time>2020-10-26T00:35:32.615Z</time>
      </trkpt>
      <trkpt lat="46.12174" lon="3.42043">
        <ele>262.000654</ele>
        <time>2020-10-26T00:35:34.234Z</time>
      </trkpt>
      <trkpt lat="46.12135" lon="3.41991">
        <ele>261.14932</ele>
        <time>2020-10-26T00:35:42.128Z</time>
      </trkpt>
      <trkpt lat="46.1213" lon="3.41983">
        <ele>261.02958</ele>
        <time>2020-10-26T00:35:43.171Z</time>
      </trkpt>
      <trkpt lat="46.12122" lon="3.41972">
        <ele>260.761461</ele>
        <time>2020-10-26T00:35:44.823Z</time>
      </trkpt>
      <trkpt lat="46.1211" lon="3.41957">
        <ele>260.379473</ele>
        <time>2020-10-26T00:35:47.022Z</time>
      </trkpt>
      <trkpt lat="46.12088" lon="3.41927">
        <ele>259.637792</ele>
        <time>2020-10-26T00:35:51.315Z</time>
      </trkpt>
      <trkpt lat="46.12075" lon="3.4191">
        <ele>259.202259</ele>
        <time>2020-10-26T00:35:53.916Z</time>
      </trkpt>
      <trkpt lat="46.1207" lon="3.41904">
        <ele>259.049116</ele>
        <time>2020-10-26T00:35:54.819Z</time>
      </trkpt>
      <trkpt lat="46.12068" lon="3.41901">
        <ele>258.968485</ele>
        <time>2020-10-26T00:35:55.293Z</time>
      </trkpt>
      <trkpt lat="46.12062" lon="3.41893">
        <ele>258.769115</ele>
        <time>2020-10-26T00:35:56.452Z</time>
      </trkpt>
      <trkpt lat="46.12025" lon="3.41846">
        <ele>257.564733</ele>
        <time>2020-10-26T00:36:03.750Z</time>
      </trkpt>
      <trkpt lat="46.12022" lon="3.41842">
        <ele>257.46413</ele>
        <time>2020-10-26T00:36:04.365Z</time>
      </trkpt>
      <trkpt lat="46.12026" lon="3.41836">
        <ele>257.325909</ele>
        <time>2020-10-26T00:36:05.228Z</time>
      </trkpt>
      <trkpt lat="46.1202" lon="3.4183">
        <ele>257.154279</ele>
        <time>2020-10-26T00:36:06.687Z</time>
      </trkpt>
      <trkpt lat="46.1185" lon="3.41602">
        <ele>254.790048</ele>
        <time>2020-10-26T00:36:46.534Z</time>
      </trkpt>
      <trkpt lat="46.11841" lon="3.4159">
        <ele>254.78634</ele>
        <time>2020-10-26T00:36:49.606Z</time>
      </trkpt>
      <trkpt lat="46.11818" lon="3.41558">
        <ele>254.776992</ele>
        <time>2020-10-26T00:36:56.752Z</time>
      </trkpt>
      <trkpt lat="46.11807" lon="3.41543">
        <ele>254.772575</ele>
        <time>2020-10-26T00:37:00.062Z</time>
      </trkpt>
      <trkpt lat="46.11763" lon="3.41484">
        <ele>254.754939</ele>
        <time>2020-10-26T00:37:13.384Z</time>
      </trkpt>
      <trkpt lat="46.11744" lon="3.41453">
        <ele>254.746521</ele>
        <time>2020-10-26T00:37:19.609Z</time>
      </trkpt>
      <trkpt lat="46.11739" lon="3.41442">
        <ele>254.72894</ele>
        <time>2020-10-26T00:37:21.763Z</time>
      </trkpt>
      <trkpt lat="46.11735" lon="3.41427">
        <ele>254.700094</ele>
        <time>2020-10-26T00:37:24.234Z</time>
      </trkpt>
      <trkpt lat="46.11733" lon="3.41391">
        <ele>254.638517</ele>
        <time>2020-10-26T00:37:29.454Z</time>
      </trkpt>
      <trkpt lat="46.11734" lon="3.41367">
        <ele>254.595811</ele>
        <time>2020-10-26T00:37:32.696Z</time>
      </trkpt>
      <trkpt lat="46.11735" lon="3.41358">
        <ele>254.580165</ele>
        <time>2020-10-26T00:37:33.898Z</time>
      </trkpt>
      <trkpt lat="46.1174" lon="3.41304">
        <ele>254.485847</ele>
        <time>2020-10-26T00:37:40.927Z</time>
      </trkpt>
      <trkpt lat="46.11747" lon="3.41241">
        <ele>254.375052</ele>
        <time>2020-10-26T00:37:49.159Z</time>
      </trkpt>
      <trkpt lat="46.11746" lon="3.41229">
        <ele>254.353129</ele>
        <time>2020-10-26T00:37:50.741Z</time>
      </trkpt>
      <trkpt lat="46.1175" lon="3.41219">
        <ele>254.334756</ele>
        <time>2020-10-26T00:37:52.063Z</time>
      </trkpt>
      <trkpt lat="46.11753" lon="3.41215">
        <ele>254.322833</ele>
        <time>2020-10-26T00:37:52.974Z</time>
      </trkpt>
      <trkpt lat="46.11756" lon="3.41209">
        <ele>254.310804</ele>
        <time>2020-10-26T00:37:53.888Z</time>
      </trkpt>
      <trkpt lat="46.11757" lon="3.41202">
        <ele>254.29812</ele>
        <time>2020-10-26T00:37:54.852Z</time>
      </trkpt>
      <trkpt lat="46.11755" lon="3.41195">
        <ele>254.318239</ele>
        <time>2020-10-26T00:37:55.865Z</time>
      </trkpt>
      <trkpt lat="46.11752" lon="3.41189">
        <ele>254.350035</ele>
        <time>2020-10-26T00:37:56.825Z</time>
      </trkpt>
      <trkpt lat="46.11747" lon="3.41185">
        <ele>254.3915</ele>
        <time>2020-10-26T00:37:58.073Z</time>
      </trkpt>
      <trkpt lat="46.1174" lon="3.41185">
        <ele>254.433842</ele>
        <time>2020-10-26T00:37:59.320Z</time>
      </trkpt>
      <trkpt lat="46.11737" lon="3.41186">
        <ele>254.453328</ele>
        <time>2020-10-26T00:37:59.914Z</time>
      </trkpt>
      <trkpt lat="46.1173" lon="3.41188">
        <ele>254.498225</ele>
        <time>2020-10-26T00:38:01.255Z</time>
      </trkpt>
      <trkpt lat="46.11725" lon="3.41184">
        <ele>254.535991</ele>
        <time>2020-10-26T00:38:02.442Z</time>
      </trkpt>
      <trkpt lat="46.11721" lon="3.41175">
        <ele>254.585695</ele>
        <time>2020-10-26T00:38:04.078Z</time>
      </trkpt>
      <trkpt lat="46.11712" lon="3.41152">
        <ele>254.70281</ele>
        <time>2020-10-26T00:38:07.941Z</time>
      </trkpt>
      <trkpt lat="46.11704" lon="3.41124">
        <ele>254.837874</ele>
        <time>2020-10-26T00:38:12.785Z</time>
      </trkpt>
      <trkpt lat="46.1169" lon="3.41077">
        <ele>255.066087</ele>
        <time>2020-10-26T00:38:21.723Z</time>
      </trkpt>
      <trkpt lat="46.11684" lon="3.41058">
        <ele>255.15732</ele>
        <time>2020-10-26T00:38:25.634Z</time>
      </trkpt>
      <trkpt lat="46.11681" lon="3.4105">
        <ele>255.197371</ele>
        <time>2020-10-26T00:38:27.148Z</time>
      </trkpt>
      <trkpt lat="46.11677" lon="3.4104">
        <ele>255.25007</ele>
        <time>2020-10-26T00:38:29.249Z</time>
      </trkpt>
      <trkpt lat="46.11658" lon="3.40998">
        <ele>255.559091</ele>
        <time>2020-10-26T00:38:39.238Z</time>
      </trkpt>
      <trkpt lat="46.11651" lon="3.40984">
        <ele>255.858024</ele>
        <time>2020-10-26T00:38:42.756Z</time>
      </trkpt>
      <trkpt lat="46.11634" lon="3.40949">
        <ele>256.651654</ele>
        <time>2020-10-26T00:38:52.994Z</time>
      </trkpt>
      <trkpt lat="46.11625" lon="3.40937">
        <ele>256.982087</ele>
        <time>2020-10-26T00:38:57.192Z</time>
      </trkpt>
      <trkpt lat="46.11576" lon="3.40863">
        <ele>258.867157</ele>
        <time>2020-10-26T00:39:23.053Z</time>
      </trkpt>
      <trkpt lat="46.11558" lon="3.40839">
        <ele>259.531049</ele>
        <time>2020-10-26T00:39:32.653Z</time>
      </trkpt>
      <trkpt lat="46.11548" lon="3.40826">
        <ele>259.890098</ele>
        <time>2020-10-26T00:39:37.638Z</time>
      </trkpt>
      <trkpt lat="46.11538" lon="3.40813">
        <ele>260.225435</ele>
        <time>2020-10-26T00:39:43.197Z</time>
      </trkpt>
      <trkpt lat="46.11532" lon="3.40807">
        <ele>260.47366</ele>
        <time>2020-10-26T00:39:47.166Z</time>
      </trkpt>
      <trkpt lat="46.1146" lon="3.40662">
        <ele>264.219321</ele>
        <time>2020-10-26T00:40:34.854Z</time>
      </trkpt>
      <trkpt lat="46.11453" lon="3.40647">
        <ele>264.586271</ele>
        <time>2020-10-26T00:40:39.862Z</time>
      </trkpt>
      <trkpt lat="46.11445" lon="3.40631">
        <ele>265.003397</ele>
        <time>2020-10-26T00:40:45.527Z</time>
      </trkpt>
      <trkpt lat="46.11397" lon="3.40533">
        <ele>266.865323</ele>
        <time>2020-10-26T00:41:11.520Z</time>
      </trkpt>
      <trkpt lat="46.11391" lon="3.40521">
        <ele>267.063651</ele>
        <time>2020-10-26T00:41:15.593Z</time>
      </trkpt>
      <trkpt lat="46.11385" lon="3.4051">
        <ele>267.243341</ele>
        <time>2020-10-26T00:41:18.544Z</time>
      </trkpt>
      <trkpt lat="46.11362" lon="3.40462">
        <ele>268.03771</ele>
        <time>2020-10-26T00:41:31.845Z</time>
      </trkpt>
      <trkpt lat="46.11354" lon="3.40446">
        <ele>268.290842</ele>
        <time>2020-10-26T00:41:34.886Z</time>
      </trkpt>
      <trkpt lat="46.11334" lon="3.40405">
        <ele>268.959208</ele>
        <time>2020-10-26T00:41:44.927Z</time>
      </trkpt>
      <trkpt lat="46.11328" lon="3.4039">
        <ele>269.182298</ele>
        <time>2020-10-26T00:41:48.841Z</time>
      </trkpt>
      <trkpt lat="46.11299" lon="3.40335">
        <ele>269.870094</ele>
        <time>2020-10-26T00:42:03.249Z</time>
      </trkpt>
      <trkpt lat="46.11294" lon="3.40318">
        <ele>270.050594</ele>
        <time>2020-10-26T00:42:06.407Z</time>
      </trkpt>
      <trkpt lat="46.11293" lon="3.40308">
        <ele>270.151257</ele>
        <time>2020-10-26T00:42:08.617Z</time>
      </trkpt>
      <trkpt lat="46.11293" lon="3.40307">
        <ele>270.161056</ele>
        <time>2020-10-26T00:42:08.838Z</time>
      </trkpt>
      <trkpt lat="46.11294" lon="3.40302">
        <ele>270.218332</ele>
        <time>2020-10-26T00:42:10.056Z</time>
      </trkpt>
      <trkpt lat="46.11293" lon="3.40296">
        <ele>270.275128</ele>
        <time>2020-10-26T00:42:11.211Z</time>
      </trkpt>
      <trkpt lat="46.11291" lon="3.40292">
        <ele>270.331807</ele>
        <time>2020-10-26T00:42:12.355Z</time>
      </trkpt>
      <trkpt lat="46.11287" lon="3.4029">
        <ele>270.387759</ele>
        <time>2020-10-26T00:42:13.485Z</time>
      </trkpt>
      <trkpt lat="46.11283" lon="3.40291">
        <ele>270.444353</ele>
        <time>2020-10-26T00:42:14.458Z</time>
      </trkpt>
      <trkpt lat="46.1128" lon="3.40295">
        <ele>270.49964</ele>
        <time>2020-10-26T00:42:15.426Z</time>
      </trkpt>
      <trkpt lat="46.11279" lon="3.40299">
        <ele>270.54683</ele>
        <time>2020-10-26T00:42:16.150Z</time>
      </trkpt>
      <trkpt lat="46.11261" lon="3.40293">
        <ele>270.815523</ele>
        <time>2020-10-26T00:42:21.701Z</time>
      </trkpt>
      <trkpt lat="46.11247" lon="3.4029">
        <ele>271.01677</ele>
        <time>2020-10-26T00:42:25.596Z</time>
      </trkpt>
      <trkpt lat="46.11149" lon="3.40273">
        <ele>272.180531</ele>
        <time>2020-10-26T00:42:54.338Z</time>
      </trkpt>
      <trkpt lat="46.11071" lon="3.4026">
        <ele>272.899884</ele>
        <time>2020-10-26T00:43:14.642Z</time>
      </trkpt>
      <trkpt lat="46.11065" lon="3.40259">
        <ele>272.949704</ele>
        <time>2020-10-26T00:43:16.186Z</time>
      </trkpt>
      <trkpt lat="46.11044" lon="3.40259">
        <ele>273.148342</ele>
        <time>2020-10-26T00:43:21.116Z</time>
      </trkpt>
      <trkpt lat="46.11042" lon="3.40254">
        <ele>273.185015</ele>
        <time>2020-10-26T00:43:22.340Z</time>
      </trkpt>
      <trkpt lat="46.11038" lon="3.4025">
        <ele>273.229212</ele>
        <time>2020-10-26T00:43:23.493Z</time>
      </trkpt>
      <trkpt lat="46.11034" lon="3.40249">
        <ele>273.26881</ele>
        <time>2020-10-26T00:43:24.763Z</time>
      </trkpt>
      <trkpt lat="46.1103" lon="3.40252">
        <ele>273.309543</ele>
        <time>2020-10-26T00:43:25.695Z</time>
      </trkpt>
      <trkpt lat="46.11027" lon="3.40256">
        <ele>273.342512</ele>
        <time>2020-10-26T00:43:26.350Z</time>
      </trkpt>
      <trkpt lat="46.11027" lon="3.40261">
        <ele>273.375898</ele>
        <time>2020-10-26T00:43:27.006Z</time>
      </trkpt>
      <trkpt lat="46.11015" lon="3.40262">
        <ele>273.37806</ele>
        <time>2020-10-26T00:43:30.069Z</time>
      </trkpt>
      <trkpt lat="46.10991" lon="3.40263">
        <ele>273.362532</ele>
        <time>2020-10-26T00:43:35.483Z</time>
      </trkpt>
      <trkpt lat="46.10859" lon="3.40208">
        <ele>273.274853</ele>
        <time>2020-10-26T00:44:03.169Z</time>
      </trkpt>
      <trkpt lat="46.10772" lon="3.40142">
        <ele>272.759028</ele>
        <time>2020-10-26T00:44:20.333Z</time>
      </trkpt>
      <trkpt lat="46.10734" lon="3.40129">
        <ele>272.537634</ele>
        <time>2020-10-26T00:44:27.454Z</time>
      </trkpt>
      <trkpt lat="46.10708" lon="3.40116">
        <ele>272.38448</ele>
        <time>2020-10-26T00:44:32.296Z</time>
      </trkpt>
      <trkpt lat="46.1065" lon="3.40074">
        <ele>272.383826</ele>
        <time>2020-10-26T00:44:45.490Z</time>
      </trkpt>
      <trkpt lat="46.10621" lon="3.40039">
        <ele>272.50205</ele>
        <time>2020-10-26T00:44:53.839Z</time>
      </trkpt>
      <trkpt lat="46.10565" lon="3.39942">
        <ele>272.771681</ele>
        <time>2020-10-26T00:45:14.943Z</time>
      </trkpt>
      <trkpt lat="46.10554" lon="3.39923">
        <ele>272.817188</ele>
        <time>2020-10-26T00:45:19.728Z</time>
      </trkpt>
      <trkpt lat="46.10552" lon="3.39918">
        <ele>272.822797</ele>
        <time>2020-10-26T00:45:20.614Z</time>
      </trkpt>
      <trkpt lat="46.10533" lon="3.39877">
        <ele>272.87362</ele>
        <time>2020-10-26T00:45:28.654Z</time>
      </trkpt>
      <trkpt lat="46.10521" lon="3.39852">
        <ele>272.905406</ele>
        <time>2020-10-26T00:45:33.089Z</time>
      </trkpt>
      <trkpt lat="46.10512" lon="3.39831">
        <ele>272.931517</ele>
        <time>2020-10-26T00:45:37.419Z</time>
      </trkpt>
      <trkpt lat="46.10491" lon="3.39789">
        <ele>272.984467</ele>
        <time>2020-10-26T00:45:45.115Z</time>
      </trkpt>
      <trkpt lat="46.10487" lon="3.39783">
        <ele>272.992927</ele>
        <time>2020-10-26T00:45:46.044Z</time>
      </trkpt>
      <trkpt lat="46.10452" lon="3.39733">
        <ele>273.066187</ele>
        <time>2020-10-26T00:45:55.910Z</time>
      </trkpt>
      <trkpt lat="46.10387" lon="3.39595">
        <ele>272.793427</ele>
        <time>2020-10-26T00:46:17.528Z</time>
      </trkpt>
      <trkpt lat="46.1036" lon="3.39481">
        <ele>272.689131</ele>
        <time>2020-10-26T00:46:34.183Z</time>
      </trkpt>
      <trkpt lat="46.10342" lon="3.39428">
        <ele>272.991775</ele>
        <time>2020-10-26T00:46:43.595Z</time>
      </trkpt>
      <trkpt lat="46.10319" lon="3.39391">
        <ele>273.250163</ele>
        <time>2020-10-26T00:46:52.456Z</time>
      </trkpt>
      <trkpt lat="46.10265" lon="3.39328">
        <ele>273.760034</ele>
        <time>2020-10-26T00:47:10.692Z</time>
      </trkpt>
      <trkpt lat="46.10256" lon="3.39312">
        <ele>273.868979</ele>
        <time>2020-10-26T00:47:14.723Z</time>
      </trkpt>
      <trkpt lat="46.10222" lon="3.39246">
        <ele>274.528364</ele>
        <time>2020-10-26T00:47:30.797Z</time>
      </trkpt>
      <trkpt lat="46.10188" lon="3.39191">
        <ele>275.157053</ele>
        <time>2020-10-26T00:47:45.235Z</time>
      </trkpt>
      <trkpt lat="46.10159" lon="3.39127">
        <ele>275.80844</ele>
        <time>2020-10-26T00:48:00.108Z</time>
      </trkpt>
      <trkpt lat="46.10142" lon="3.39075">
        <ele>276.266147</ele>
        <time>2020-10-26T00:48:10.792Z</time>
      </trkpt>
      <trkpt lat="46.10131" lon="3.38981">
        <ele>276.896786</ele>
        <time>2020-10-26T00:48:28.143Z</time>
      </trkpt>
      <trkpt lat="46.1013" lon="3.38903">
        <ele>277.406356</ele>
        <time>2020-10-26T00:48:41.783Z</time>
      </trkpt>
      <trkpt lat="46.10134" lon="3.38874">
        <ele>277.603067</ele>
        <time>2020-10-26T00:48:46.964Z</time>
      </trkpt>
      <trkpt lat="46.1014" lon="3.38837">
        <ele>277.85332</ele>
        <time>2020-10-26T00:48:53.496Z</time>
      </trkpt>
      <trkpt lat="46.10142" lon="3.38809">
        <ele>278.044187</ele>
        <time>2020-10-26T00:48:58.972Z</time>
      </trkpt>
      <trkpt lat="46.10138" lon="3.38647">
        <ele>279.133655</ele>
        <time>2020-10-26T00:49:29.041Z</time>
      </trkpt>
      <trkpt lat="46.10137" lon="3.38633">
        <ele>279.232175</ele>
        <time>2020-10-26T00:49:31.538Z</time>
      </trkpt>
      <trkpt lat="46.10132" lon="3.38616">
        <ele>279.352653</ele>
        <time>2020-10-26T00:49:35.258Z</time>
      </trkpt>
      <trkpt lat="46.10118" lon="3.38585">
        <ele>279.595817</ele>
        <time>2020-10-26T00:49:41.332Z</time>
      </trkpt>
      <trkpt lat="46.10086" lon="3.38544">
        <ele>279.873903</ele>
        <time>2020-10-26T00:49:52.508Z</time>
      </trkpt>
      <trkpt lat="46.09921" lon="3.38383">
        <ele>281.004386</ele>
        <time>2020-10-26T00:50:39.881Z</time>
      </trkpt>
      <trkpt lat="46.09908" lon="3.38361">
        <ele>281.088351</ele>
        <time>2020-10-26T00:50:44.430Z</time>
      </trkpt>
      <trkpt lat="46.09858" lon="3.3824">
        <ele>281.492645</ele>
        <time>2020-10-26T00:51:06.618Z</time>
      </trkpt>
      <trkpt lat="46.09839" lon="3.38219">
        <ele>281.643644</ele>
        <time>2020-10-26T00:51:12.157Z</time>
      </trkpt>
      <trkpt lat="46.09828" lon="3.38213">
        <ele>281.71954</ele>
        <time>2020-10-26T00:51:14.998Z</time>
      </trkpt>
      <trkpt lat="46.09788" lon="3.38204">
        <ele>281.971128</ele>
        <time>2020-10-26T00:51:24.423Z</time>
      </trkpt>
      <trkpt lat="46.0975" lon="3.3819">
        <ele>282.218661</ele>
        <time>2020-10-26T00:51:34.065Z</time>
      </trkpt>
      <trkpt lat="46.09726" lon="3.38171">
        <ele>282.388661</ele>
        <time>2020-10-26T00:51:40.817Z</time>
      </trkpt>
      <trkpt lat="46.09669" lon="3.38089">
        <ele>283.004587</ele>
        <time>2020-10-26T00:52:01.581Z</time>
      </trkpt>
      <trkpt lat="46.09632" lon="3.38058">
        <ele>283.374252</ele>
        <time>2020-10-26T00:52:12.178Z</time>
      </trkpt>
      <trkpt lat="46.09488" lon="3.38013">
        <ele>284.902061</ele>
        <time>2020-10-26T00:52:50.427Z</time>
      </trkpt>
      <trkpt lat="46.09416" lon="3.3797">
        <ele>285.921702</ele>
        <time>2020-10-26T00:53:12.054Z</time>
      </trkpt>
      <trkpt lat="46.09385" lon="3.37944">
        <ele>286.394886</ele>
        <time>2020-10-26T00:53:22.633Z</time>
      </trkpt>
      <trkpt lat="46.09333" lon="3.37886">
        <ele>287.531859</ele>
        <time>2020-10-26T00:53:43.915Z</time>
      </trkpt>
      <trkpt lat="46.09265" lon="3.37782">
        <ele>289.361435</ele>
        <time>2020-10-26T00:54:14.980Z</time>
      </trkpt>
      <trkpt lat="46.09254" lon="3.37766">
        <ele>289.634499</ele>
        <time>2020-10-26T00:54:20.081Z</time>
      </trkpt>
      <trkpt lat="46.09244" lon="3.37757">
        <ele>289.856426</ele>
        <time>2020-10-26T00:54:23.373Z</time>
      </trkpt>
      <trkpt lat="46.09219" lon="3.3774">
        <ele>290.291921</ele>
        <time>2020-10-26T00:54:31.915Z</time>
      </trkpt>
      <trkpt lat="46.09117" lon="3.37696">
        <ele>291.913136</ele>
        <time>2020-10-26T00:55:02.460Z</time>
      </trkpt>
      <trkpt lat="46.0903" lon="3.37619">
        <ele>293.981917</ele>
        <time>2020-10-26T00:55:31.871Z</time>
      </trkpt>
      <trkpt lat="46.08948" lon="3.3758">
        <ele>296.104407</ele>
        <time>2020-10-26T00:56:02.941Z</time>
      </trkpt>
      <trkpt lat="46.089" lon="3.37532">
        <ele>297.588404</ele>
        <time>2020-10-26T00:56:26.201Z</time>
      </trkpt>
      <trkpt lat="46.08857" lon="3.37477">
        <ele>299.125491</ele>
        <time>2020-10-26T00:56:48.457Z</time>
      </trkpt>
      <trkpt lat="46.08841" lon="3.3746">
        <ele>299.651921</ele>
        <time>2020-10-26T00:56:56.079Z</time>
      </trkpt>
      <trkpt lat="46.08833" lon="3.37451">
        <ele>299.931855</ele>
        <time>2020-10-26T00:56:59.964Z</time>
      </trkpt>
      <trkpt lat="46.08806" lon="3.37438">
        <ele>300.687029</ele>
        <time>2020-10-26T00:57:09.581Z</time>
      </trkpt>
      <trkpt lat="46.08785" lon="3.37439">
        <ele>301.249355</ele>
        <time>2020-10-26T00:57:16.533Z</time>
      </trkpt>
      <trkpt lat="46.0868" lon="3.3747">
        <ele>302.847214</ele>
        <time>2020-10-26T00:57:47.379Z</time>
      </trkpt>
      <trkpt lat="46.08665" lon="3.37474">
        <ele>303.031266</ele>
        <time>2020-10-26T00:57:50.430Z</time>
      </trkpt>
      <trkpt lat="46.08628" lon="3.37474">
        <ele>303.466054</ele>
        <time>2020-10-26T00:57:59.178Z</time>
      </trkpt>
      <trkpt lat="46.08524" lon="3.3744">
        <ele>305.650315</ele>
        <time>2020-10-26T00:58:28.988Z</time>
      </trkpt>
      <trkpt lat="46.08464" lon="3.37419">
        <ele>307.263092</ele>
        <time>2020-10-26T00:58:50.590Z</time>
      </trkpt>
      <trkpt lat="46.08446" lon="3.37405">
        <ele>307.810128</ele>
        <time>2020-10-26T00:58:58.882Z</time>
      </trkpt>
      <trkpt lat="46.08436" lon="3.3739">
        <ele>308.182445</ele>
        <time>2020-10-26T00:59:04.863Z</time>
      </trkpt>
      <trkpt lat="46.08379" lon="3.37273">
        <ele>312.890738</ele>
        <time>2020-10-26T00:59:52.987Z</time>
      </trkpt>
      <trkpt lat="46.08358" lon="3.37228">
        <ele>314.850851</ele>
        <time>2020-10-26T01:00:12.793Z</time>
      </trkpt>
      <trkpt lat="46.08253" lon="3.37004">
        <ele>323.617123</ele>
        <time>2020-10-26T01:01:51.379Z</time>
      </trkpt>
      <trkpt lat="46.08234" lon="3.36964">
        <ele>325.095434</ele>
        <time>2020-10-26T01:02:04.565Z</time>
      </trkpt>
      <trkpt lat="46.08213" lon="3.36943">
        <ele>325.973996</ele>
        <time>2020-10-26T01:02:12.496Z</time>
      </trkpt>
      <trkpt lat="46.08122" lon="3.36912">
        <ele>325.273567</ele>
        <time>2020-10-26T01:02:31.047Z</time>
      </trkpt>
      <trkpt lat="46.08099" lon="3.36904">
        <ele>325.091122</ele>
        <time>2020-10-26T01:02:34.871Z</time>
      </trkpt>
      <trkpt lat="46.08087" lon="3.36897">
        <ele>324.997205</ele>
        <time>2020-10-26T01:02:36.712Z</time>
      </trkpt>
      <trkpt lat="46.08017" lon="3.36856">
        <ele>323.867429</ele>
        <time>2020-10-26T01:02:47.745Z</time>
      </trkpt>
      <trkpt lat="46.07979" lon="3.3684">
        <ele>322.838424</ele>
        <time>2020-10-26T01:02:53.532Z</time>
      </trkpt>
      <trkpt lat="46.07885" lon="3.36825">
        <ele>320.366288</ele>
        <time>2020-10-26T01:03:07.491Z</time>
      </trkpt>
      <trkpt lat="46.07843" lon="3.36816">
        <ele>319.097045</ele>
        <time>2020-10-26T01:03:13.833Z</time>
      </trkpt>
      <trkpt lat="46.0784" lon="3.36816">
        <ele>319.010029</ele>
        <time>2020-10-26T01:03:14.267Z</time>
      </trkpt>
      <trkpt lat="46.07813" lon="3.36806">
        <ele>318.120033</ele>
        <time>2020-10-26T01:03:18.349Z</time>
      </trkpt>
      <trkpt lat="46.07801" lon="3.36802">
        <ele>317.727879</ele>
        <time>2020-10-26T01:03:20.253Z</time>
      </trkpt>
      <trkpt lat="46.07774" lon="3.36811">
        <ele>316.840007</ele>
        <time>2020-10-26T01:03:24.179Z</time>
      </trkpt>
      <trkpt lat="46.07746" lon="3.36813">
        <ele>315.944091</ele>
        <time>2020-10-26T01:03:28.117Z</time>
      </trkpt>
      <trkpt lat="46.07653" lon="3.36787">
        <ele>312.931792</ele>
        <time>2020-10-26T01:03:41.025Z</time>
      </trkpt>
      <trkpt lat="46.07599" lon="3.36775">
        <ele>311.200561</ele>
        <time>2020-10-26T01:03:48.482Z</time>
      </trkpt>
      <trkpt lat="46.07586" lon="3.36774">
        <ele>310.780283</ele>
        <time>2020-10-26T01:03:50.367Z</time>
      </trkpt>
      <trkpt lat="46.07556" lon="3.36771">
        <ele>309.833962</ele>
        <time>2020-10-26T01:03:54.700Z</time>
      </trkpt>
      <trkpt lat="46.07531" lon="3.36764">
        <ele>309.034298</ele>
        <time>2020-10-26T01:03:58.490Z</time>
      </trkpt>
      <trkpt lat="46.07518" lon="3.36756">
        <ele>308.586153</ele>
        <time>2020-10-26T01:04:00.619Z</time>
      </trkpt>
      <trkpt lat="46.07504" lon="3.36747">
        <ele>308.564049</ele>
        <time>2020-10-26T01:04:03.154Z</time>
      </trkpt>
      <trkpt lat="46.07481" lon="3.36726">
        <ele>308.6113</ele>
        <time>2020-10-26T01:04:07.467Z</time>
      </trkpt>
      <trkpt lat="46.07418" lon="3.36626">
        <ele>308.775257</ele>
        <time>2020-10-26T01:04:28.277Z</time>
      </trkpt>
      <trkpt lat="46.07372" lon="3.36578">
        <ele>309.150466</ele>
        <time>2020-10-26T01:04:46.338Z</time>
      </trkpt>
      <trkpt lat="46.07347" lon="3.3656">
        <ele>309.822081</ele>
        <time>2020-10-26T01:04:55.259Z</time>
      </trkpt>
      <trkpt lat="46.07325" lon="3.36548">
        <ele>310.408687</ele>
        <time>2020-10-26T01:05:04.277Z</time>
      </trkpt>
      <trkpt lat="46.07304" lon="3.36537">
        <ele>310.954491</ele>
        <time>2020-10-26T01:05:12.060Z</time>
      </trkpt>
      <trkpt lat="46.07237" lon="3.36505">
        <ele>312.676218</ele>
        <time>2020-10-26T01:05:37.002Z</time>
      </trkpt>
      <trkpt lat="46.07211" lon="3.36489">
        <ele>313.389607</ele>
        <time>2020-10-26T01:05:46.987Z</time>
      </trkpt>
      <trkpt lat="46.072" lon="3.36476">
        <ele>313.757036</ele>
        <time>2020-10-26T01:05:52.602Z</time>
      </trkpt>
      <trkpt lat="46.07192" lon="3.36467">
        <ele>314.026864</ele>
        <time>2020-10-26T01:05:56.163Z</time>
      </trkpt>
      <trkpt lat="46.07135" lon="3.36334">
        <ele>316.878338</ele>
        <time>2020-10-26T01:06:33.809Z</time>
      </trkpt>
      <trkpt lat="46.07081" lon="3.36188">
        <ele>320.200705</ele>
        <time>2020-10-26T01:07:15.520Z</time>
      </trkpt>
      <trkpt lat="46.07073" lon="3.36158">
        <ele>320.878473</ele>
        <time>2020-10-26T01:07:23.264Z</time>
      </trkpt>
      <trkpt lat="46.07065" lon="3.36059">
        <ele>322.981985</ele>
        <time>2020-10-26T01:07:49.491Z</time>
      </trkpt>
      <trkpt lat="46.07059" lon="3.36048">
        <ele>323.278698</ele>
        <time>2020-10-26T01:07:55.139Z</time>
      </trkpt>
      <trkpt lat="46.07051" lon="3.36039">
        <ele>323.627479</ele>
        <time>2020-10-26T01:07:58.920Z</time>
      </trkpt>
      <trkpt lat="46.0704" lon="3.36033">
        <ele>324.182733</ele>
        <time>2020-10-26T01:08:02.790Z</time>
      </trkpt>
      <trkpt lat="46.07025" lon="3.3603">
        <ele>324.856374</ele>
        <time>2020-10-26T01:08:10.375Z</time>
      </trkpt>
      <trkpt lat="46.07002" lon="3.36029">
        <ele>325.921673</ele>
        <time>2020-10-26T01:08:20.111Z</time>
      </trkpt>
      <trkpt lat="46.0697" lon="3.36027">
        <ele>327.340625</ele>
        <time>2020-10-26T01:08:34.616Z</time>
      </trkpt>
      <trkpt lat="46.06964" lon="3.36021">
        <ele>327.688292</ele>
        <time>2020-10-26T01:08:38.644Z</time>
      </trkpt>
      <trkpt lat="46.06959" lon="3.36011">
        <ele>328.091232</ele>
        <time>2020-10-26T01:08:43.917Z</time>
      </trkpt>
      <trkpt lat="46.06956" lon="3.35967">
        <ele>329.457511</ele>
        <time>2020-10-26T01:08:57.134Z</time>
      </trkpt>
      <trkpt lat="46.06951" lon="3.35949">
        <ele>330.065067</ele>
        <time>2020-10-26T01:09:05.171Z</time>
      </trkpt>
      <trkpt lat="46.06932" lon="3.35896">
        <ele>331.941125</ele>
        <time>2020-10-26T01:09:24.061Z</time>
      </trkpt>
      <trkpt lat="46.0693" lon="3.35889">
        <ele>332.188042</ele>
        <time>2020-10-26T01:09:26.592Z</time>
      </trkpt>
      <trkpt lat="46.06926" lon="3.35878">
        <ele>332.558401</ele>
        <time>2020-10-26T01:09:30.814Z</time>
      </trkpt>
      <trkpt lat="46.06906" lon="3.35771">
        <ele>335.924692</ele>
        <time>2020-10-26T01:10:07.270Z</time>
      </trkpt>
      <trkpt lat="46.06904" lon="3.35765">
        <ele>336.124917</ele>
        <time>2020-10-26T01:10:10.339Z</time>
      </trkpt>
      <trkpt lat="46.069" lon="3.35757">
        <ele>336.412646</ele>
        <time>2020-10-26T01:10:12.967Z</time>
      </trkpt>
      <trkpt lat="46.06893" lon="3.35751">
        <ele>336.792999</ele>
        <time>2020-10-26T01:10:16.616Z</time>
      </trkpt>
      <trkpt lat="46.06829" lon="3.35696">
        <ele>339.867759</ele>
        <time>2020-10-26T01:10:48.244Z</time>
      </trkpt>
      <trkpt lat="46.06806" lon="3.35678">
        <ele>340.611088</ele>
        <time>2020-10-26T01:10:58.206Z</time>
      </trkpt>
      <trkpt lat="46.0679" lon="3.35668">
        <ele>341.118425</ele>
        <time>2020-10-26T01:11:04.656Z</time>
      </trkpt>
      <trkpt lat="46.06759" lon="3.35649">
        <ele>342.107039</ele>
        <time>2020-10-26T01:11:18.094Z</time>
      </trkpt>
      <trkpt lat="46.0675" lon="3.35637">
        <ele>342.458198</ele>
        <time>2020-10-26T01:11:22.099Z</time>
      </trkpt>
      <trkpt lat="46.06733" lon="3.35612">
        <ele>343.152153</ele>
        <time>2020-10-26T01:11:30.620Z</time>
      </trkpt>
      <trkpt lat="46.06724" lon="3.35567">
        <ele>344.095553</ele>
        <time>2020-10-26T01:11:41.975Z</time>
      </trkpt>
      <trkpt lat="46.06712" lon="3.35394">
        <ele>346.069803</ele>
        <time>2020-10-26T01:12:21.478Z</time>
      </trkpt>
      <trkpt lat="46.06711" lon="3.3537">
        <ele>346.296515</ele>
        <time>2020-10-26T01:12:26.593Z</time>
      </trkpt>
      <trkpt lat="46.0668" lon="3.35208">
        <ele>346.406867</ele>
        <time>2020-10-26T01:12:51.341Z</time>
      </trkpt>
      <trkpt lat="46.0667" lon="3.35152">
        <ele>345.827782</ele>
        <time>2020-10-26T01:12:57.910Z</time>
      </trkpt>
      <trkpt lat="46.06642" lon="3.3486">
        <ele>342.235634</ele>
        <time>2020-10-26T01:13:28.480Z</time>
      </trkpt>
      <trkpt lat="46.06627" lon="3.34701">
        <ele>341.232074</ele>
        <time>2020-10-26T01:13:46.852Z</time>
      </trkpt>
      <trkpt lat="46.06614" lon="3.34659">
        <ele>341.382855</ele>
        <time>2020-10-26T01:13:53.620Z</time>
      </trkpt>
      <trkpt lat="46.06571" lon="3.34576">
        <ele>341.726147</ele>
        <time>2020-10-26T01:14:12.874Z</time>
      </trkpt>
      <trkpt lat="46.0654" lon="3.34478">
        <ele>343.300816</ele>
        <time>2020-10-26T01:14:37.720Z</time>
      </trkpt>
      <trkpt lat="46.06495" lon="3.34356">
        <ele>346.253463</ele>
        <time>2020-10-26T01:15:15.030Z</time>
      </trkpt>
      <trkpt lat="46.06481" lon="3.34323">
        <ele>347.088602</ele>
        <time>2020-10-26T01:15:26.995Z</time>
      </trkpt>
      <trkpt lat="46.06448" lon="3.3426">
        <ele>349.32602</ele>
        <time>2020-10-26T01:15:50.430Z</time>
      </trkpt>
      <trkpt lat="46.06443" lon="3.3425">
        <ele>349.71775</ele>
        <time>2020-10-26T01:15:55.025Z</time>
      </trkpt>
      <trkpt lat="46.06427" lon="3.3422">
        <ele>350.828882</ele>
        <time>2020-10-26T01:16:05.937Z</time>
      </trkpt>
      <trkpt lat="46.0642" lon="3.34207">
        <ele>351.337343</ele>
        <time>2020-10-26T01:16:11.765Z</time>
      </trkpt>
      <trkpt lat="46.06391" lon="3.34113">
        <ele>354.448621</ele>
        <time>2020-10-26T01:16:44.482Z</time>
      </trkpt>
      <trkpt lat="46.06354" lon="3.34024">
        <ele>357.5017</ele>
        <time>2020-10-26T01:17:18.125Z</time>
      </trkpt>
      <trkpt lat="46.06305" lon="3.33961">
        <ele>360.240421</ele>
        <time>2020-10-26T01:17:48.155Z</time>
      </trkpt>
      <trkpt lat="46.06237" lon="3.33833">
        <ele>364.192873</ele>
        <time>2020-10-26T01:18:34.137Z</time>
      </trkpt>
      <trkpt lat="46.06207" lon="3.33772">
        <ele>365.649202</ele>
        <time>2020-10-26T01:18:53.548Z</time>
      </trkpt>
      <trkpt lat="46.06123" lon="3.33515">
        <ele>370.209295</ele>
        <time>2020-10-26T01:19:57.296Z</time>
      </trkpt>
      <trkpt lat="46.06104" lon="3.33423">
        <ele>371.551003</ele>
        <time>2020-10-26T01:20:17.899Z</time>
      </trkpt>
      <trkpt lat="46.06091" lon="3.33287">
        <ele>373.511274</ele>
        <time>2020-10-26T01:20:48.456Z</time>
      </trkpt>
      <trkpt lat="46.06069" lon="3.33194">
        <ele>374.911542</ele>
        <time>2020-10-26T01:21:10.720Z</time>
      </trkpt>
      <trkpt lat="46.06043" lon="3.33131">
        <ele>376.099504</ele>
        <time>2020-10-26T01:21:27.804Z</time>
      </trkpt>
      <trkpt lat="46.06013" lon="3.33087">
        <ele>377.113144</ele>
        <time>2020-10-26T01:21:42.286Z</time>
      </trkpt>
      <trkpt lat="46.05857" lon="3.32937">
        <ele>381.382695</ele>
        <time>2020-10-26T01:22:47.374Z</time>
      </trkpt>
      <trkpt lat="46.05832" lon="3.3289">
        <ele>382.270818</ele>
        <time>2020-10-26T01:23:01.259Z</time>
      </trkpt>
      <trkpt lat="46.0574" lon="3.32606">
        <ele>385.465466</ele>
        <time>2020-10-26T01:24:04.975Z</time>
      </trkpt>
      <trkpt lat="46.05704" lon="3.32466">
        <ele>384.731991</ele>
        <time>2020-10-26T01:24:25.485Z</time>
      </trkpt>
      <trkpt lat="46.05694" lon="3.32338">
        <ele>383.845855</ele>
        <time>2020-10-26T01:24:39.698Z</time>
      </trkpt>
      <trkpt lat="46.05325" lon="3.32482">
        <ele>372.658072</ele>
        <time>2020-10-26T01:25:34.121Z</time>
      </trkpt>
      <trkpt lat="46.05217" lon="3.32524">
        <ele>370.229526</ele>
        <time>2020-10-26T01:25:50.971Z</time>
      </trkpt>
      <trkpt lat="46.05129" lon="3.32546">
        <ele>369.158662</ele>
        <time>2020-10-26T01:26:05.665Z</time>
      </trkpt>
      <trkpt lat="46.05088" lon="3.32552">
        <ele>368.986153</ele>
        <time>2020-10-26T01:26:13.134Z</time>
      </trkpt>
      <trkpt lat="46.05028" lon="3.32546">
        <ele>368.738532</ele>
        <time>2020-10-26T01:26:25.167Z</time>
      </trkpt>
      <trkpt lat="46.04931" lon="3.32518">
        <ele>369.861246</ele>
        <time>2020-10-26T01:26:49.825Z</time>
      </trkpt>
      <trkpt lat="46.04432" lon="3.32368">
        <ele>379.689978</ele>
        <time>2020-10-26T01:29:35.275Z</time>
      </trkpt>
      <trkpt lat="46.04363" lon="3.32352">
        <ele>381.141244</ele>
        <time>2020-10-26T01:29:58.248Z</time>
      </trkpt>
      <trkpt lat="46.04326" lon="3.32351">
        <ele>381.912177</ele>
        <time>2020-10-26T01:30:10.446Z</time>
      </trkpt>
      <trkpt lat="46.04237" lon="3.32365">
        <ele>383.383464</ele>
        <time>2020-10-26T01:30:38.698Z</time>
      </trkpt>
      <trkpt lat="46.04193" lon="3.3238">
        <ele>384.009795</ele>
        <time>2020-10-26T01:30:51.952Z</time>
      </trkpt>
      <trkpt lat="46.04195" lon="3.32318">
        <ele>384.613277</ele>
        <time>2020-10-26T01:31:04.211Z</time>
      </trkpt>
      <trkpt lat="46.04199" lon="3.32256">
        <ele>385.111924</ele>
        <time>2020-10-26T01:31:15.227Z</time>
      </trkpt>
      <trkpt lat="46.04222" lon="3.32093">
        <ele>385.208494</ele>
        <time>2020-10-26T01:31:40.763Z</time>
      </trkpt>
      <trkpt lat="46.04219" lon="3.32077">
        <ele>385.218126</ele>
        <time>2020-10-26T01:31:43.227Z</time>
      </trkpt>
      <trkpt lat="46.0421" lon="3.3206">
        <ele>385.230191</ele>
        <time>2020-10-26T01:31:45.736Z</time>
      </trkpt>
      <trkpt lat="46.04129" lon="3.31959">
        <ele>384.355851</ele>
        <time>2020-10-26T01:32:05.188Z</time>
      </trkpt>
      <trkpt lat="46.04032" lon="3.31863">
        <ele>382.669963</ele>
        <time>2020-10-26T01:32:24.314Z</time>
      </trkpt>
      <trkpt lat="46.03962" lon="3.31798">
        <ele>379.803034</ele>
        <time>2020-10-26T01:32:36.523Z</time>
      </trkpt>
      <trkpt lat="46.03942" lon="3.31786">
        <ele>379.072614</ele>
        <time>2020-10-26T01:32:39.492Z</time>
      </trkpt>
      <trkpt lat="46.03923" lon="3.31758">
        <ele>378.145095</ele>
        <time>2020-10-26T01:32:43.203Z</time>
      </trkpt>
      <trkpt lat="46.03852" lon="3.31608">
        <ele>371.919942</ele>
        <time>2020-10-26T01:32:59.694Z</time>
      </trkpt>
      <trkpt lat="46.03843" lon="3.31577">
        <ele>370.619275</ele>
        <time>2020-10-26T01:33:02.739Z</time>
      </trkpt>
      <trkpt lat="46.03831" lon="3.31491">
        <ele>367.265091</ele>
        <time>2020-10-26T01:33:10.586Z</time>
      </trkpt>
      <trkpt lat="46.03785" lon="3.31295">
        <ele>360.0423</ele>
        <time>2020-10-26T01:33:29.425Z</time>
      </trkpt>
      <trkpt lat="46.03766" lon="3.31194">
        <ele>356.912716</ele>
        <time>2020-10-26T01:33:39.439Z</time>
      </trkpt>
      <trkpt lat="46.03753" lon="3.311">
        <ele>354.602735</ele>
        <time>2020-10-26T01:33:48.755Z</time>
      </trkpt>
      <trkpt lat="46.03753" lon="3.31038">
        <ele>353.096899</ele>
        <time>2020-10-26T01:33:54.914Z</time>
      </trkpt>
      <trkpt lat="46.03757" lon="3.30961">
        <ele>351.273369</ele>
        <time>2020-10-26T01:34:02.546Z</time>
      </trkpt>
      <trkpt lat="46.03757" lon="3.30951">
        <ele>351.05417</ele>
        <time>2020-10-26T01:34:03.525Z</time>
      </trkpt>
      <trkpt lat="46.03765" lon="3.30897">
        <ele>349.795563</ele>
        <time>2020-10-26T01:34:09.003Z</time>
      </trkpt>
      <trkpt lat="46.03779" lon="3.30798">
        <ele>347.488419</ele>
        <time>2020-10-26T01:34:18.837Z</time>
      </trkpt>
      <trkpt lat="46.03785" lon="3.30623">
        <ele>344.035203</ele>
        <time>2020-10-26T01:34:36.178Z</time>
      </trkpt>
      <trkpt lat="46.03782" lon="3.30601">
        <ele>343.627151</ele>
        <time>2020-10-26T01:34:38.403Z</time>
      </trkpt>
      <trkpt lat="46.03766" lon="3.30569">
        <ele>342.940609</ele>
        <time>2020-10-26T01:34:42.506Z</time>
      </trkpt>
      <trkpt lat="46.0369" lon="3.30502">
        <ele>340.998021</ele>
        <time>2020-10-26T01:34:56.194Z</time>
      </trkpt>
      <trkpt lat="46.03612" lon="3.30445">
        <ele>339.893177</ele>
        <time>2020-10-26T01:35:11.063Z</time>
      </trkpt>
      <trkpt lat="46.03475" lon="3.30373">
        <ele>338.27201</ele>
        <time>2020-10-26T01:35:36.079Z</time>
      </trkpt>
      <trkpt lat="46.03431" lon="3.30309">
        <ele>337.645489</ele>
        <time>2020-10-26T01:35:46.835Z</time>
      </trkpt>
      <trkpt lat="46.03282" lon="3.30126">
        <ele>335.753208</ele>
        <time>2020-10-26T01:36:20.784Z</time>
      </trkpt>
      <trkpt lat="46.03221" lon="3.30068">
        <ele>334.95145</ele>
        <time>2020-10-26T01:36:33.070Z</time>
      </trkpt>
      <trkpt lat="46.03192" lon="3.30046">
        <ele>334.569522</ele>
        <time>2020-10-26T01:36:38.552Z</time>
      </trkpt>
      <trkpt lat="46.03037" lon="3.29983">
        <ele>332.703239</ele>
        <time>2020-10-26T01:37:05.221Z</time>
      </trkpt>
      <trkpt lat="46.02983" lon="3.29976">
        <ele>332.080505</ele>
        <time>2020-10-26T01:37:14.325Z</time>
      </trkpt>
      <trkpt lat="46.02909" lon="3.29955">
        <ele>331.320048</ele>
        <time>2020-10-26T01:37:27.226Z</time>
      </trkpt>
      <trkpt lat="46.02857" lon="3.29904">
        <ele>330.992917</ele>
        <time>2020-10-26T01:37:38.644Z</time>
      </trkpt>
      <trkpt lat="46.02796" lon="3.29888">
        <ele>330.67007</ele>
        <time>2020-10-26T01:37:50.325Z</time>
      </trkpt>
      <trkpt lat="46.02761" lon="3.29878">
        <ele>330.482213</ele>
        <time>2020-10-26T01:37:57.062Z</time>
      </trkpt>
      <trkpt lat="46.02704" lon="3.29863">
        <ele>330.440349</ele>
        <time>2020-10-26T01:38:08.631Z</time>
      </trkpt>
      <trkpt lat="46.02678" lon="3.2986">
        <ele>330.429384</ele>
        <time>2020-10-26T01:38:14.049Z</time>
      </trkpt>
      <trkpt lat="46.02617" lon="3.29858">
        <ele>330.403154</ele>
        <time>2020-10-26T01:38:27.367Z</time>
      </trkpt>
      <trkpt lat="46.02568" lon="3.29857">
        <ele>330.301662</ele>
        <time>2020-10-26T01:38:37.775Z</time>
      </trkpt>
      <trkpt lat="46.02511" lon="3.29855">
        <ele>329.842715</ele>
        <time>2020-10-26T01:38:48.217Z</time>
      </trkpt>
      <trkpt lat="46.025" lon="3.29854">
        <ele>329.753193</ele>
        <time>2020-10-26T01:38:50.325Z</time>
      </trkpt>
      <trkpt lat="46.02434" lon="3.29846">
        <ele>329.210148</ele>
        <time>2020-10-26T01:39:01.807Z</time>
      </trkpt>
      <trkpt lat="46.02398" lon="3.29837">
        <ele>328.906899</ele>
        <time>2020-10-26T01:39:07.796Z</time>
      </trkpt>
      <trkpt lat="46.02396" lon="3.29821">
        <ele>328.696405</ele>
        <time>2020-10-26T01:39:09.674Z</time>
      </trkpt>
      <trkpt lat="46.0239" lon="3.29784">
        <ele>328.233763</ele>
        <time>2020-10-26T01:39:13.806Z</time>
      </trkpt>
      <trkpt lat="46.02367" lon="3.2979">
        <ele>327.816825</ele>
        <time>2020-10-26T01:39:17.300Z</time>
      </trkpt>
      <trkpt lat="46.02264" lon="3.29797">
        <ele>325.97767</ele>
        <time>2020-10-26T01:39:33.127Z</time>
      </trkpt>
      <trkpt lat="46.02228" lon="3.29794">
        <ele>325.49934</ele>
        <time>2020-10-26T01:39:38.882Z</time>
      </trkpt>
      <trkpt lat="46.02074" lon="3.29775">
        <ele>323.958255</ele>
        <time>2020-10-26T01:40:05.524Z</time>
      </trkpt>
      <trkpt lat="46.01778" lon="3.29698">
        <ele>323.00204</ele>
        <time>2020-10-26T01:41:04.141Z</time>
      </trkpt>
      <trkpt lat="46.01746" lon="3.29674">
        <ele>322.907356</ele>
        <time>2020-10-26T01:41:11.102Z</time>
      </trkpt>
      <trkpt lat="46.01677" lon="3.29605">
        <ele>322.647054</ele>
        <time>2020-10-26T01:41:27.595Z</time>
      </trkpt>
      <trkpt lat="46.01655" lon="3.2959">
        <ele>322.567407</ele>
        <time>2020-10-26T01:41:32.261Z</time>
      </trkpt>
      <trkpt lat="46.01601" lon="3.29551">
        <ele>322.370476</ele>
        <time>2020-10-26T01:41:43.919Z</time>
      </trkpt>
      <trkpt lat="46.01415" lon="3.29433">
        <ele>321.528322</ele>
        <time>2020-10-26T01:42:22.470Z</time>
      </trkpt>
      <trkpt lat="46.01365" lon="3.29413">
        <ele>321.18596</ele>
        <time>2020-10-26T01:42:31.767Z</time>
      </trkpt>
      <trkpt lat="46.01143" lon="3.29345">
        <ele>319.238378</ele>
        <time>2020-10-26T01:43:11.635Z</time>
      </trkpt>
      <trkpt lat="46.01019" lon="3.29295">
        <ele>317.773801</ele>
        <time>2020-10-26T01:43:33.109Z</time>
      </trkpt>
      <trkpt lat="46.01009" lon="3.29292">
        <ele>317.633721</ele>
        <time>2020-10-26T01:43:34.686Z</time>
      </trkpt>
      <trkpt lat="46.00945" lon="3.29272">
        <ele>316.691551</ele>
        <time>2020-10-26T01:43:45.488Z</time>
      </trkpt>
      <trkpt lat="46.00888" lon="3.29252">
        <ele>315.857632</ele>
        <time>2020-10-26T01:43:54.801Z</time>
      </trkpt>
      <trkpt lat="46.00858" lon="3.29245">
        <ele>315.498763</ele>
        <time>2020-10-26T01:43:59.665Z</time>
      </trkpt>
      <trkpt lat="46.00843" lon="3.29249">
        <ele>315.341229</ele>
        <time>2020-10-26T01:44:02.064Z</time>
      </trkpt>
      <trkpt lat="46.00796" lon="3.29289">
        <ele>314.767325</ele>
        <time>2020-10-26T01:44:11.195Z</time>
      </trkpt>
      <trkpt lat="46.00788" lon="3.29297">
        <ele>314.670917</ele>
        <time>2020-10-26T01:44:12.682Z</time>
      </trkpt>
      <trkpt lat="46.00775" lon="3.2931">
        <ele>314.497192</ele>
        <time>2020-10-26T01:44:15.582Z</time>
      </trkpt>
      <trkpt lat="46.00554" lon="3.29426">
        <ele>312.973366</ele>
        <time>2020-10-26T01:44:58.496Z</time>
      </trkpt>
      <trkpt lat="46.00512" lon="3.29438">
        <ele>313.049557</ele>
        <time>2020-10-26T01:45:07.272Z</time>
      </trkpt>
      <trkpt lat="46.00512" lon="3.29439">
        <ele>313.051255</ele>
        <time>2020-10-26T01:45:07.358Z</time>
      </trkpt>
      <trkpt lat="46.00509" lon="3.2944">
        <ele>313.061272</ele>
        <time>2020-10-26T01:45:07.892Z</time>
      </trkpt>
      <trkpt lat="46.005" lon="3.29443">
        <ele>313.099999</ele>
        <time>2020-10-26T01:45:09.936Z</time>
      </trkpt>
      <trkpt lat="46.00494" lon="3.29445">
        <ele>313.126649</ele>
        <time>2020-10-26T01:45:11.329Z</time>
      </trkpt>
      <trkpt lat="46.00421" lon="3.2947">
        <ele>313.427436</ele>
        <time>2020-10-26T01:45:28.405Z</time>
      </trkpt>
      <trkpt lat="46.00351" lon="3.29494">
        <ele>313.868561</ele>
        <time>2020-10-26T01:45:46.569Z</time>
      </trkpt>
      <trkpt lat="46.00302" lon="3.29519">
        <ele>314.529974</ele>
        <time>2020-10-26T01:46:01.479Z</time>
      </trkpt>
      <trkpt lat="46.00298" lon="3.29523">
        <ele>314.597107</ele>
        <time>2020-10-26T01:46:03.252Z</time>
      </trkpt>
      <trkpt lat="46.00249" lon="3.29566">
        <ele>315.319981</ele>
        <time>2020-10-26T01:46:19.445Z</time>
      </trkpt>
      <trkpt lat="46.00221" lon="3.29593">
        <ele>315.749105</ele>
        <time>2020-10-26T01:46:29.128Z</time>
      </trkpt>
      <trkpt lat="46.00213" lon="3.29599">
        <ele>315.860543</ele>
        <time>2020-10-26T01:46:31.898Z</time>
      </trkpt>
      <trkpt lat="46.00146" lon="3.29662">
        <ele>316.494771</ele>
        <time>2020-10-26T01:46:52.920Z</time>
      </trkpt>
      <trkpt lat="46.00118" lon="3.29695">
        <ele>316.773821</ele>
        <time>2020-10-26T01:47:01.569Z</time>
      </trkpt>
      <trkpt lat="46.00109" lon="3.29684">
        <ele>316.862266</ele>
        <time>2020-10-26T01:47:03.902Z</time>
      </trkpt>
      <trkpt lat="46.00081" lon="3.29649">
        <ele>317.148231</ele>
        <time>2020-10-26T01:47:12.922Z</time>
      </trkpt>
      <trkpt lat="46.00087" lon="3.29571">
        <ele>317.76665</ele>
        <time>2020-10-26T01:47:25.892Z</time>
      </trkpt>
      <trkpt lat="46.00087" lon="3.29537">
        <ele>318.095612</ele>
        <time>2020-10-26T01:47:31.423Z</time>
      </trkpt>
      <trkpt lat="46.00048" lon="3.29537">
        <ele>318.626117</ele>
        <time>2020-10-26T01:47:43.717Z</time>
      </trkpt>
      <trkpt lat="46.00038" lon="3.29535">
        <ele>318.769943</ele>
        <time>2020-10-26T01:47:47.286Z</time>
      </trkpt>
      <trkpt lat="46.00011" lon="3.29516">
        <ele>319.174422</ele>
        <time>2020-10-26T01:47:58.956Z</time>
      </trkpt>
      <trkpt lat="45.99965" lon="3.29472">
        <ele>320.272566</ele>
        <time>2020-10-26T01:48:22.741Z</time>
      </trkpt>
      <trkpt lat="45.99934" lon="3.29463">
        <ele>321.488978</ele>
        <time>2020-10-26T01:48:37.658Z</time>
      </trkpt>
      <trkpt lat="45.99904" lon="3.29463">
        <ele>322.64452</ele>
        <time>2020-10-26T01:48:52.673Z</time>
      </trkpt>
      <trkpt lat="45.99872" lon="3.29464">
        <ele>323.884823</ele>
        <time>2020-10-26T01:49:09.383Z</time>
      </trkpt>
      <trkpt lat="45.99719" lon="3.29454">
        <ele>329.405416</ele>
        <time>2020-10-26T01:50:30.156Z</time>
      </trkpt>
      <trkpt lat="45.99636" lon="3.29465">
        <ele>332.260196</ele>
        <time>2020-10-26T01:51:07.908Z</time>
      </trkpt>
      <trkpt lat="45.99596" lon="3.2947">
        <ele>333.084878</ele>
        <time>2020-10-26T01:51:24.104Z</time>
      </trkpt>
      <trkpt lat="45.99594" lon="3.2946">
        <ele>333.172447</ele>
        <time>2020-10-26T01:51:26.267Z</time>
      </trkpt>
      <trkpt lat="45.99544" lon="3.29199">
        <ele>335.07089</ele>
        <time>2020-10-26T01:52:15.006Z</time>
      </trkpt>
      <trkpt lat="45.99543" lon="3.29195">
        <ele>335.077311</ele>
        <time>2020-10-26T01:52:15.625Z</time>
      </trkpt>
      <trkpt lat="45.99523" lon="3.29169">
        <ele>335.141438</ele>
        <time>2020-10-26T01:52:23.445Z</time>
      </trkpt>
      <trkpt lat="45.99419" lon="3.29039">
        <ele>335.406221</ele>
        <time>2020-10-26T01:53:02.223Z</time>
      </trkpt>
      <trkpt lat="45.99342" lon="3.28941">
        <ele>335.429595</ele>
        <time>2020-10-26T01:53:31.631Z</time>
      </trkpt>
      <trkpt lat="45.99271" lon="3.28814">
        <ele>335.347133</ele>
        <time>2020-10-26T01:54:04.171Z</time>
      </trkpt>
      <trkpt lat="45.99158" lon="3.28611">
        <ele>334.842555</ele>
        <time>2020-10-26T01:54:53.190Z</time>
      </trkpt>
      <trkpt lat="45.99134" lon="3.28555">
        <ele>334.60963</ele>
        <time>2020-10-26T01:55:05.060Z</time>
      </trkpt>
      <trkpt lat="45.99128" lon="3.28532">
        <ele>334.520618</ele>
        <time>2020-10-26T01:55:09.614Z</time>
      </trkpt>
      <trkpt lat="45.99081" lon="3.28405">
        <ele>333.686451</ele>
        <time>2020-10-26T01:55:34.559Z</time>
      </trkpt>
      <trkpt lat="45.99062" lon="3.28352">
        <ele>333.205772</ele>
        <time>2020-10-26T01:55:44.141Z</time>
      </trkpt>
      <trkpt lat="45.99046" lon="3.28318">
        <ele>332.867238</ele>
        <time>2020-10-26T01:55:50.821Z</time>
      </trkpt>
      <trkpt lat="45.99037" lon="3.28297">
        <ele>332.664382</ele>
        <time>2020-10-26T01:55:54.877Z</time>
      </trkpt>
      <trkpt lat="45.99007" lon="3.28233">
        <ele>332.066423</ele>
        <time>2020-10-26T01:56:07.242Z</time>
      </trkpt>
      <trkpt lat="45.99002" lon="3.28215">
        <ele>331.949188</ele>
        <time>2020-10-26T01:56:10.543Z</time>
      </trkpt>
      <trkpt lat="45.98989" lon="3.28214">
        <ele>331.843787</ele>
        <time>2020-10-26T01:56:13.390Z</time>
      </trkpt>
      <trkpt lat="45.98977" lon="3.28207">
        <ele>331.731171</ele>
        <time>2020-10-26T01:56:16.559Z</time>
      </trkpt>
      <trkpt lat="45.98899" lon="3.28177">
        <ele>331.04372</ele>
        <time>2020-10-26T01:56:35.926Z</time>
      </trkpt>
      <trkpt lat="45.98846" lon="3.28151">
        <ele>330.630558</ele>
        <time>2020-10-26T01:56:50.785Z</time>
      </trkpt>
      <trkpt lat="45.9871" lon="3.27987">
        <ele>331.263622</ele>
        <time>2020-10-26T01:57:45.908Z</time>
      </trkpt>
      <trkpt lat="45.98633" lon="3.27913">
        <ele>331.670746</ele>
        <time>2020-10-26T01:58:15.938Z</time>
      </trkpt>
      <trkpt lat="45.98591" lon="3.27868">
        <ele>331.898018</ele>
        <time>2020-10-26T01:58:31.905Z</time>
      </trkpt>
      <trkpt lat="45.98527" lon="3.27793">
        <ele>331.773658</ele>
        <time>2020-10-26T01:58:55.326Z</time>
      </trkpt>
      <trkpt lat="45.98464" lon="3.27704">
        <ele>331.305498</ele>
        <time>2020-10-26T01:59:17.910Z</time>
      </trkpt>
      <trkpt lat="45.98364" lon="3.27547">
        <ele>330.246333</ele>
        <time>2020-10-26T01:59:53.411Z</time>
      </trkpt>
      <trkpt lat="45.98338" lon="3.27525">
        <ele>330.009056</ele>
        <time>2020-10-26T02:00:00.961Z</time>
      </trkpt>
      <trkpt lat="45.98321" lon="3.27521">
        <ele>329.87065</ele>
        <time>2020-10-26T02:00:05.570Z</time>
      </trkpt>
      <trkpt lat="45.98298" lon="3.27517">
        <ele>329.685879</ele>
        <time>2020-10-26T02:00:11.665Z</time>
      </trkpt>
      <trkpt lat="45.98239" lon="3.27477">
        <ele>330.169358</ele>
        <time>2020-10-26T02:00:30.294Z</time>
      </trkpt>
      <trkpt lat="45.98206" lon="3.27454">
        <ele>330.459972</ele>
        <time>2020-10-26T02:00:42.298Z</time>
      </trkpt>
      <trkpt lat="45.98172" lon="3.27421">
        <ele>330.790422</ele>
        <time>2020-10-26T02:00:57.299Z</time>
      </trkpt>
      <trkpt lat="45.98124" lon="3.27389">
        <ele>331.311597</ele>
        <time>2020-10-26T02:01:16.309Z</time>
      </trkpt>
      <trkpt lat="45.98105" lon="3.27382">
        <ele>331.627597</ele>
        <time>2020-10-26T02:01:24.286Z</time>
      </trkpt>
      <trkpt lat="45.98032" lon="3.27332">
        <ele>332.922515</ele>
        <time>2020-10-26T02:01:54.863Z</time>
      </trkpt>
      <trkpt lat="45.9798" lon="3.27289">
        <ele>333.872926</ele>
        <time>2020-10-26T02:02:18.010Z</time>
      </trkpt>
      <trkpt lat="45.97887" lon="3.27198">
        <ele>334.35087</ele>
        <time>2020-10-26T02:02:55.473Z</time>
      </trkpt>
      <trkpt lat="45.97776" lon="3.27143">
        <ele>333.716505</ele>
        <time>2020-10-26T02:03:25.804Z</time>
      </trkpt>
      <trkpt lat="45.97709" lon="3.27093">
        <ele>332.143609</ele>
        <time>2020-10-26T02:03:42.379Z</time>
      </trkpt>
      <trkpt lat="45.9767" lon="3.27046">
        <ele>331.080442</ele>
        <time>2020-10-26T02:03:53.001Z</time>
      </trkpt>
      <trkpt lat="45.97622" lon="3.27007">
        <ele>329.203304</ele>
        <time>2020-10-26T02:04:04.000Z</time>
      </trkpt>
      <trkpt lat="45.97551" lon="3.26981">
        <ele>326.490293</ele>
        <time>2020-10-26T02:04:18.371Z</time>
      </trkpt>
      <trkpt lat="45.97518" lon="3.26955">
        <ele>325.109172</ele>
        <time>2020-10-26T02:04:25.787Z</time>
      </trkpt>
      <trkpt lat="45.97501" lon="3.26929">
        <ele>324.214533</ele>
        <time>2020-10-26T02:04:30.839Z</time>
      </trkpt>
      <trkpt lat="45.97492" lon="3.26922">
        <ele>323.907931</ele>
        <time>2020-10-26T02:04:32.918Z</time>
      </trkpt>
      <trkpt lat="45.97471" lon="3.26856">
        <ele>322.511894</ele>
        <time>2020-10-26T02:04:39.948Z</time>
      </trkpt>
      <trkpt lat="45.97454" lon="3.26805">
        <ele>321.39573</ele>
        <time>2020-10-26T02:04:45.666Z</time>
      </trkpt>
      <trkpt lat="45.9743" lon="3.26776">
        <ele>320.520607</ele>
        <time>2020-10-26T02:04:50.191Z</time>
      </trkpt>
      <trkpt lat="45.97387" lon="3.26743">
        <ele>319.169841</ele>
        <time>2020-10-26T02:04:57.548Z</time>
      </trkpt>
      <trkpt lat="45.97378" lon="3.26732">
        <ele>319.061544</ele>
        <time>2020-10-26T02:04:59.422Z</time>
      </trkpt>
      <trkpt lat="45.97372" lon="3.26718">
        <ele>318.953748</ele>
        <time>2020-10-26T02:05:01.376Z</time>
      </trkpt>
      <trkpt lat="45.97359" lon="3.26652">
        <ele>318.517287</ele>
        <time>2020-10-26T02:05:09.217Z</time>
      </trkpt>
      <trkpt lat="45.97313" lon="3.26425">
        <ele>317.695227</ele>
        <time>2020-10-26T02:05:40.453Z</time>
      </trkpt>
      <trkpt lat="45.97259" lon="3.26149">
        <ele>318.099116</ele>
        <time>2020-10-26T02:06:28.789Z</time>
      </trkpt>
      <trkpt lat="45.97237" lon="3.26101">
        <ele>318.130783</ele>
        <time>2020-10-26T02:06:36.766Z</time>
      </trkpt>
      <trkpt lat="45.97208" lon="3.2611">
        <ele>318.154215</ele>
        <time>2020-10-26T02:06:42.413Z</time>
      </trkpt>
      <trkpt lat="45.971" lon="3.26131">
        <ele>317.984044</ele>
        <time>2020-10-26T02:07:02.522Z</time>
      </trkpt>
      <trkpt lat="45.97093" lon="3.26132">
        <ele>317.964846</ele>
        <time>2020-10-26T02:07:03.704Z</time>
      </trkpt>
      <trkpt lat="45.97078" lon="3.26131">
        <ele>317.923434</ele>
        <time>2020-10-26T02:07:06.507Z</time>
      </trkpt>
      <trkpt lat="45.97074" lon="3.26131">
        <ele>317.913352</ele>
        <time>2020-10-26T02:07:07.189Z</time>
      </trkpt>
      <trkpt lat="45.9707" lon="3.2613">
        <ele>317.903853</ele>
        <time>2020-10-26T02:07:08.032Z</time>
      </trkpt>
      <trkpt lat="45.96992" lon="3.26071">
        <ele>317.691029</ele>
        <time>2020-10-26T02:07:26.854Z</time>
      </trkpt>
      <trkpt lat="45.96904" lon="3.26055">
        <ele>317.600318</ele>
        <time>2020-10-26T02:07:46.521Z</time>
      </trkpt>
      <trkpt lat="45.96863" lon="3.2605">
        <ele>317.558729</ele>
        <time>2020-10-26T02:07:54.435Z</time>
      </trkpt>
      <trkpt lat="45.9681" lon="3.26097">
        <ele>317.376771</ele>
        <time>2020-10-26T02:08:05.812Z</time>
      </trkpt>
      <trkpt lat="45.96771" lon="3.26122">
        <ele>317.139849</ele>
        <time>2020-10-26T02:08:13.470Z</time>
      </trkpt>
      <trkpt lat="45.96749" lon="3.26126">
        <ele>317.011274</ele>
        <time>2020-10-26T02:08:17.353Z</time>
      </trkpt>
      <trkpt lat="45.96713" lon="3.26132">
        <ele>316.812363</ele>
        <time>2020-10-26T02:08:23.433Z</time>
      </trkpt>
      <trkpt lat="45.96679" lon="3.26121">
        <ele>316.614339</ele>
        <time>2020-10-26T02:08:29.851Z</time>
      </trkpt>
      <trkpt lat="45.96641" lon="3.2609">
        <ele>316.526352</ele>
        <time>2020-10-26T02:08:39.526Z</time>
      </trkpt>
      <trkpt lat="45.96625" lon="3.26063">
        <ele>316.541834</ele>
        <time>2020-10-26T02:08:44.523Z</time>
      </trkpt>
      <trkpt lat="45.96615" lon="3.26008">
        <ele>316.566784</ele>
        <time>2020-10-26T02:08:53.694Z</time>
      </trkpt>
      <trkpt lat="45.96651" lon="3.25948">
        <ele>316.601231</ele>
        <time>2020-10-26T02:09:05.577Z</time>
      </trkpt>
      <trkpt lat="45.96658" lon="3.25917">
        <ele>316.615704</ele>
        <time>2020-10-26T02:09:10.986Z</time>
      </trkpt>
      <trkpt lat="45.96652" lon="3.25917">
        <ele>316.619793</ele>
        <time>2020-10-26T02:09:12.031Z</time>
      </trkpt>
      <trkpt lat="45.96604" lon="3.25909">
        <ele>316.382494</ele>
        <time>2020-10-26T02:09:21.594Z</time>
      </trkpt>
      <trkpt lat="45.96523" lon="3.25858">
        <ele>315.863945</ele>
        <time>2020-10-26T02:09:38.155Z</time>
      </trkpt>
      <trkpt lat="45.96481" lon="3.25832">
        <ele>315.599237</ele>
        <time>2020-10-26T02:09:45.590Z</time>
      </trkpt>
      <trkpt lat="45.96476" lon="3.25828">
        <ele>315.553498</ele>
        <time>2020-10-26T02:09:46.626Z</time>
      </trkpt>
      <trkpt lat="45.96415" lon="3.25803">
        <ele>314.874435</ele>
        <time>2020-10-26T02:09:57.449Z</time>
      </trkpt>
      <trkpt lat="45.96348" lon="3.25787">
        <ele>314.146606</ele>
        <time>2020-10-26T02:10:09.083Z</time>
      </trkpt>
      <trkpt lat="45.96278" lon="3.25766">
        <ele>313.260553</ele>
        <time>2020-10-26T02:10:21.061Z</time>
      </trkpt>
      <trkpt lat="45.96254" lon="3.25759">
        <ele>312.878626</ele>
        <time>2020-10-26T02:10:25.117Z</time>
      </trkpt>
      <trkpt lat="45.96177" lon="3.25745">
        <ele>311.672966</ele>
        <time>2020-10-26T02:10:37.560Z</time>
      </trkpt>
      <trkpt lat="45.96099" lon="3.2571">
        <ele>310.350725</ele>
        <time>2020-10-26T02:10:50.215Z</time>
      </trkpt>
      <trkpt lat="45.96032" lon="3.25644">
        <ele>308.959579</ele>
        <time>2020-10-26T02:11:02.799Z</time>
      </trkpt>
      <trkpt lat="45.95981" lon="3.25578">
        <ele>307.786294</ele>
        <time>2020-10-26T02:11:13.815Z</time>
      </trkpt>
      <trkpt lat="45.95921" lon="3.25504">
        <ele>307.144503</ele>
        <time>2020-10-26T02:11:27.011Z</time>
      </trkpt>
      <trkpt lat="45.95775" lon="3.25379">
        <ele>306.240663</ele>
        <time>2020-10-26T02:11:58.924Z</time>
      </trkpt>
      <trkpt lat="45.95698" lon="3.25303">
        <ele>306.122668</ele>
        <time>2020-10-26T02:12:18.621Z</time>
      </trkpt>
      <trkpt lat="45.95672" lon="3.25274">
        <ele>306.122047</ele>
        <time>2020-10-26T02:12:25.626Z</time>
      </trkpt>
      <trkpt lat="45.95584" lon="3.25176">
        <ele>306.301412</ele>
        <time>2020-10-26T02:12:49.602Z</time>
      </trkpt>
      <trkpt lat="45.95525" lon="3.25111">
        <ele>306.471951</ele>
        <time>2020-10-26T02:13:05.662Z</time>
      </trkpt>
      <trkpt lat="45.95459" lon="3.25057">
        <ele>306.802142</ele>
        <time>2020-10-26T02:13:23.719Z</time>
      </trkpt>
      <trkpt lat="45.95391" lon="3.25027">
        <ele>307.108158</ele>
        <time>2020-10-26T02:13:40.415Z</time>
      </trkpt>
      <trkpt lat="45.95368" lon="3.25019">
        <ele>307.187907</ele>
        <time>2020-10-26T02:13:46.213Z</time>
      </trkpt>
      <trkpt lat="45.95153" lon="3.24961">
        <ele>307.456672</ele>
        <time>2020-10-26T02:14:33.705Z</time>
      </trkpt>
      <trkpt lat="45.95103" lon="3.2496">
        <ele>307.328106</ele>
        <time>2020-10-26T02:14:43.159Z</time>
      </trkpt>
      <trkpt lat="45.9508" lon="3.24964">
        <ele>307.268825</ele>
        <time>2020-10-26T02:14:47.522Z</time>
      </trkpt>
      <trkpt lat="45.9498" lon="3.2498">
        <ele>306.983557</ele>
        <time>2020-10-26T02:15:06.306Z</time>
      </trkpt>
      <trkpt lat="45.94896" lon="3.24994">
        <ele>306.715438</ele>
        <time>2020-10-26T02:15:22.237Z</time>
      </trkpt>
      <trkpt lat="45.94849" lon="3.24994">
        <ele>306.564019</ele>
        <time>2020-10-26T02:15:31.588Z</time>
      </trkpt>
      <trkpt lat="45.94811" lon="3.24986">
        <ele>306.589417</ele>
        <time>2020-10-26T02:15:39.616Z</time>
      </trkpt>
      <trkpt lat="45.94757" lon="3.24963">
        <ele>306.657823</ele>
        <time>2020-10-26T02:15:51.598Z</time>
      </trkpt>
      <trkpt lat="45.94703" lon="3.24955">
        <ele>306.723968</ele>
        <time>2020-10-26T02:16:03.552Z</time>
      </trkpt>
      <trkpt lat="45.94658" lon="3.24962">
        <ele>306.788897</ele>
        <time>2020-10-26T02:16:13.627Z</time>
      </trkpt>
      <trkpt lat="45.94484" lon="3.25025">
        <ele>307.204484</ele>
        <time>2020-10-26T02:16:53.440Z</time>
      </trkpt>
      <trkpt lat="45.94438" lon="3.25041">
        <ele>307.333964</ele>
        <time>2020-10-26T02:17:03.834Z</time>
      </trkpt>
      <trkpt lat="45.94286" lon="3.25158">
        <ele>307.948769</ele>
        <time>2020-10-26T02:17:42.238Z</time>
      </trkpt>
      <trkpt lat="45.94249" lon="3.25173">
        <ele>308.161291</ele>
        <time>2020-10-26T02:17:51.330Z</time>
      </trkpt>
      <trkpt lat="45.94212" lon="3.25182">
        <ele>308.375487</ele>
        <time>2020-10-26T02:18:00.523Z</time>
      </trkpt>
      <trkpt lat="45.94171" lon="3.2518">
        <ele>308.610735</ele>
        <time>2020-10-26T02:18:10.653Z</time>
      </trkpt>
      <trkpt lat="45.94139" lon="3.25176">
        <ele>308.859232</ele>
        <time>2020-10-26T02:18:18.573Z</time>
      </trkpt>
      <trkpt lat="45.94009" lon="3.25156">
        <ele>310.090056</ele>
        <time>2020-10-26T02:18:52.609Z</time>
      </trkpt>
      <trkpt lat="45.93924" lon="3.25124">
        <ele>311.045713</ele>
        <time>2020-10-26T02:19:16.647Z</time>
      </trkpt>
      <trkpt lat="45.93859" lon="3.25095">
        <ele>311.837824</ele>
        <time>2020-10-26T02:19:35.669Z</time>
      </trkpt>
      <trkpt lat="45.93846" lon="3.25093">
        <ele>311.993401</ele>
        <time>2020-10-26T02:19:39.118Z</time>
      </trkpt>
      <trkpt lat="45.93832" lon="3.25094">
        <ele>312.155227</ele>
        <time>2020-10-26T02:19:43.181Z</time>
      </trkpt>
      <trkpt lat="45.93795" lon="3.25112">
        <ele>312.555595</ele>
        <time>2020-10-26T02:19:53.702Z</time>
      </trkpt>
      <trkpt lat="45.93787" lon="3.25116">
        <ele>312.60862</ele>
        <time>2020-10-26T02:19:55.739Z</time>
      </trkpt>
      <trkpt lat="45.93744" lon="3.25133">
        <ele>312.898483</ele>
        <time>2020-10-26T02:20:07.316Z</time>
      </trkpt>
      <trkpt lat="45.93738" lon="3.25136">
        <ele>312.939669</ele>
        <time>2020-10-26T02:20:08.986Z</time>
      </trkpt>
      <trkpt lat="45.93674" lon="3.25161">
        <ele>313.364689</ele>
        <time>2020-10-26T02:20:25.108Z</time>
      </trkpt>
      <trkpt lat="45.9364" lon="3.25174">
        <ele>313.590324</ele>
        <time>2020-10-26T02:20:32.674Z</time>
      </trkpt>
      <trkpt lat="45.93581" lon="3.25198">
        <ele>313.876171</ele>
        <time>2020-10-26T02:20:45.370Z</time>
      </trkpt>
      <trkpt lat="45.93575" lon="3.252">
        <ele>313.902545</ele>
        <time>2020-10-26T02:20:46.659Z</time>
      </trkpt>
      <trkpt lat="45.93469" lon="3.25237">
        <ele>314.382404</ele>
        <time>2020-10-26T02:21:12.168Z</time>
      </trkpt>
      <trkpt lat="45.93438" lon="3.25239">
        <ele>314.741039</ele>
        <time>2020-10-26T02:21:20.370Z</time>
      </trkpt>
      <trkpt lat="45.93404" lon="3.25233">
        <ele>315.256974</ele>
        <time>2020-10-26T02:21:29.581Z</time>
      </trkpt>
      <trkpt lat="45.93389" lon="3.25225">
        <ele>315.503272</ele>
        <time>2020-10-26T02:21:34.115Z</time>
      </trkpt>
      <trkpt lat="45.93368" lon="3.25214">
        <ele>315.843907</ele>
        <time>2020-10-26T02:21:40.668Z</time>
      </trkpt>
      <trkpt lat="45.9334" lon="3.25189">
        <ele>316.356543</ele>
        <time>2020-10-26T02:21:50.784Z</time>
      </trkpt>
      <trkpt lat="45.9331" lon="3.2515">
        <ele>316.981096</ele>
        <time>2020-10-26T02:22:03.815Z</time>
      </trkpt>
      <trkpt lat="45.93179" lon="3.24961">
        <ele>320.985439</ele>
        <time>2020-10-26T02:23:06.048Z</time>
      </trkpt>
      <trkpt lat="45.93117" lon="3.24877">
        <ele>322.011097</ele>
        <time>2020-10-26T02:23:32.913Z</time>
      </trkpt>
      <trkpt lat="45.93078" lon="3.24837">
        <ele>322.534602</ele>
        <time>2020-10-26T02:23:45.713Z</time>
      </trkpt>
      <trkpt lat="45.93036" lon="3.24807">
        <ele>323.047849</ele>
        <time>2020-10-26T02:23:56.372Z</time>
      </trkpt>
      <trkpt lat="45.92999" lon="3.24788">
        <ele>322.836817</ele>
        <time>2020-10-26T02:24:03.960Z</time>
      </trkpt>
      <trkpt lat="45.92853" lon="3.24732">
        <ele>321.376088</ele>
        <time>2020-10-26T02:24:29.245Z</time>
      </trkpt>
      <trkpt lat="45.92585" lon="3.24579">
        <ele>317.606454</ele>
        <time>2020-10-26T02:25:16.386Z</time>
      </trkpt>
      <trkpt lat="45.92564" lon="3.24567">
        <ele>317.317944</ele>
        <time>2020-10-26T02:25:20.241Z</time>
      </trkpt>
      <trkpt lat="45.92349" lon="3.24431">
        <ele>314.503672</ele>
        <time>2020-10-26T02:25:59.388Z</time>
      </trkpt>
      <trkpt lat="45.92296" lon="3.24398">
        <ele>313.862389</ele>
        <time>2020-10-26T02:26:08.955Z</time>
      </trkpt>
      <trkpt lat="45.92245" lon="3.24386">
        <ele>313.285865</ele>
        <time>2020-10-26T02:26:17.642Z</time>
      </trkpt>
      <trkpt lat="45.92052" lon="3.24371">
        <ele>311.633264</ele>
        <time>2020-10-26T02:26:50.829Z</time>
      </trkpt>
      <trkpt lat="45.92018" lon="3.24368">
        <ele>311.383744</ele>
        <time>2020-10-26T02:26:57.491Z</time>
      </trkpt>
      <trkpt lat="45.91956" lon="3.24343">
        <ele>311.235535</ele>
        <time>2020-10-26T02:27:11.032Z</time>
      </trkpt>
      <trkpt lat="45.91936" lon="3.24327">
        <ele>311.214608</ele>
        <time>2020-10-26T02:27:15.748Z</time>
      </trkpt>
      <trkpt lat="45.91912" lon="3.24297">
        <ele>311.186232</ele>
        <time>2020-10-26T02:27:22.196Z</time>
      </trkpt>
      <trkpt lat="45.91886" lon="3.24255">
        <ele>311.151145</ele>
        <time>2020-10-26T02:27:30.036Z</time>
      </trkpt>
      <trkpt lat="45.91866" lon="3.24219">
        <ele>311.122912</ele>
        <time>2020-10-26T02:27:36.679Z</time>
      </trkpt>
      <trkpt lat="45.91848" lon="3.24189">
        <ele>311.172519</ele>
        <time>2020-10-26T02:27:42.155Z</time>
      </trkpt>
      <trkpt lat="45.91789" lon="3.24115">
        <ele>311.35017</ele>
        <time>2020-10-26T02:27:58.654Z</time>
      </trkpt>
      <trkpt lat="45.91691" lon="3.24032">
        <ele>312.253181</ele>
        <time>2020-10-26T02:28:24.373Z</time>
      </trkpt>
      <trkpt lat="45.91318" lon="3.23728">
        <ele>320.514126</ele>
        <time>2020-10-26T02:30:46.925Z</time>
      </trkpt>
      <trkpt lat="45.91211" lon="3.23644">
        <ele>321.884711</ele>
        <time>2020-10-26T02:31:19.162Z</time>
      </trkpt>
      <trkpt lat="45.90992" lon="3.23472">
        <ele>321.983394</ele>
        <time>2020-10-26T02:32:10.197Z</time>
      </trkpt>
      <trkpt lat="45.90869" lon="3.23375">
        <ele>321.556051</ele>
        <time>2020-10-26T02:32:36.851Z</time>
      </trkpt>
      <trkpt lat="45.90826" lon="3.23334">
        <ele>321.349401</ele>
        <time>2020-10-26T02:32:46.406Z</time>
      </trkpt>
      <trkpt lat="45.90778" lon="3.23275">
        <ele>321.0777</ele>
        <time>2020-10-26T02:32:58.424Z</time>
      </trkpt>
      <trkpt lat="45.90679" lon="3.23091">
        <ele>320.253927</ele>
        <time>2020-10-26T02:33:28.103Z</time>
      </trkpt>
      <trkpt lat="45.90642" lon="3.2304">
        <ele>320.162929</ele>
        <time>2020-10-26T02:33:37.734Z</time>
      </trkpt>
      <trkpt lat="45.90627" lon="3.23016">
        <ele>320.130447</ele>
        <time>2020-10-26T02:33:42.498Z</time>
      </trkpt>
      <trkpt lat="45.9061" lon="3.22994">
        <ele>320.098522</ele>
        <time>2020-10-26T02:33:46.943Z</time>
      </trkpt>
      <trkpt lat="45.90601" lon="3.22979">
        <ele>320.078407</ele>
        <time>2020-10-26T02:33:49.903Z</time>
      </trkpt>
      <trkpt lat="45.90601" lon="3.22968">
        <ele>320.067416</ele>
        <time>2020-10-26T02:33:51.347Z</time>
      </trkpt>
      <trkpt lat="45.90598" lon="3.22958">
        <ele>320.056516</ele>
        <time>2020-10-26T02:33:52.900Z</time>
      </trkpt>
      <trkpt lat="45.90594" lon="3.22949">
        <ele>320.045947</ele>
        <time>2020-10-26T02:33:54.531Z</time>
      </trkpt>
      <trkpt lat="45.90574" lon="3.22936">
        <ele>320.015303</ele>
        <time>2020-10-26T02:33:58.866Z</time>
      </trkpt>
      <trkpt lat="45.90567" lon="3.22938">
        <ele>320.004809</ele>
        <time>2020-10-26T02:34:00.389Z</time>
      </trkpt>
      <trkpt lat="45.90562" lon="3.2294">
        <ele>319.997606</ele>
        <time>2020-10-26T02:34:01.507Z</time>
      </trkpt>
      <trkpt lat="45.90558" lon="3.22944">
        <ele>319.990491</ele>
        <time>2020-10-26T02:34:02.594Z</time>
      </trkpt>
      <trkpt lat="45.90548" lon="3.22943">
        <ele>319.975334</ele>
        <time>2020-10-26T02:34:04.907Z</time>
      </trkpt>
      <trkpt lat="45.90516" lon="3.22926">
        <ele>320.017618</ele>
        <time>2020-10-26T02:34:12.363Z</time>
      </trkpt>
      <trkpt lat="45.90494" lon="3.22906">
        <ele>320.055884</ele>
        <time>2020-10-26T02:34:18.226Z</time>
      </trkpt>
      <trkpt lat="45.90362" lon="3.22832">
        <ele>320.219398</ele>
        <time>2020-10-26T02:34:49.066Z</time>
      </trkpt>
      <trkpt lat="45.90199" lon="3.22771">
        <ele>320.041738</ele>
        <time>2020-10-26T02:35:22.864Z</time>
      </trkpt>
      <trkpt lat="45.90162" lon="3.22744">
        <ele>319.855829</ele>
        <time>2020-10-26T02:35:30.998Z</time>
      </trkpt>
      <trkpt lat="45.90146" lon="3.22729">
        <ele>319.771355</ele>
        <time>2020-10-26T02:35:34.599Z</time>
      </trkpt>
      <trkpt lat="45.90101" lon="3.22665">
        <ele>319.493954</ele>
        <time>2020-10-26T02:35:46.152Z</time>
      </trkpt>
      <trkpt lat="45.90052" lon="3.22579">
        <ele>319.24509</ele>
        <time>2020-10-26T02:36:00.150Z</time>
      </trkpt>
      <trkpt lat="45.89986" lon="3.22484">
        <ele>319.135917</ele>
        <time>2020-10-26T02:36:18.845Z</time>
      </trkpt>
      <trkpt lat="45.89978" lon="3.22462">
        <ele>319.115734</ele>
        <time>2020-10-26T02:36:22.654Z</time>
      </trkpt>
      <trkpt lat="45.89972" lon="3.22458">
        <ele>319.1085</ele>
        <time>2020-10-26T02:36:24.092Z</time>
      </trkpt>
      <trkpt lat="45.89966" lon="3.22454">
        <ele>319.100143</ele>
        <time>2020-10-26T02:36:25.601Z</time>
      </trkpt>
      <trkpt lat="45.89951" lon="3.22454">
        <ele>319.083675</ele>
        <time>2020-10-26T02:36:28.713Z</time>
      </trkpt>
      <trkpt lat="45.89944" lon="3.22454">
        <ele>319.074795</ele>
        <time>2020-10-26T02:36:30.325Z</time>
      </trkpt>
      <trkpt lat="45.89934" lon="3.22454">
        <ele>319.079236</ele>
        <time>2020-10-26T02:36:32.692Z</time>
      </trkpt>
      <trkpt lat="45.89888" lon="3.22455">
        <ele>319.173157</ele>
        <time>2020-10-26T02:36:42.840Z</time>
      </trkpt>
      <trkpt lat="45.89878" lon="3.22454">
        <ele>319.19414</ele>
        <time>2020-10-26T02:36:45.337Z</time>
      </trkpt>
      <trkpt lat="45.89857" lon="3.22451">
        <ele>319.237627</ele>
        <time>2020-10-26T02:36:50.186Z</time>
      </trkpt>
      <trkpt lat="45.89785" lon="3.22433">
        <ele>319.387592</ele>
        <time>2020-10-26T02:37:06.685Z</time>
      </trkpt>
      <trkpt lat="45.89778" lon="3.22431">
        <ele>319.401293</ele>
        <time>2020-10-26T02:37:08.154Z</time>
      </trkpt>
      <trkpt lat="45.89766" lon="3.22432">
        <ele>319.426765</ele>
        <time>2020-10-26T02:37:10.693Z</time>
      </trkpt>
      <trkpt lat="45.89715" lon="3.22437">
        <ele>319.119884</ele>
        <time>2020-10-26T02:37:20.497Z</time>
      </trkpt>
      <trkpt lat="45.89654" lon="3.22442">
        <ele>318.700549</ele>
        <time>2020-10-26T02:37:31.339Z</time>
      </trkpt>
      <trkpt lat="45.8965" lon="3.22442">
        <ele>318.668587</ele>
        <time>2020-10-26T02:37:32.093Z</time>
      </trkpt>
      <trkpt lat="45.89575" lon="3.22448">
        <ele>318.103525</ele>
        <time>2020-10-26T02:37:45.123Z</time>
      </trkpt>
      <trkpt lat="45.8956" lon="3.2245">
        <ele>317.897955</ele>
        <time>2020-10-26T02:37:47.755Z</time>
      </trkpt>
      <trkpt lat="45.89553" lon="3.22451">
        <ele>317.800045</ele>
        <time>2020-10-26T02:37:48.899Z</time>
      </trkpt>
      <trkpt lat="45.89545" lon="3.22451">
        <ele>317.699398</ele>
        <time>2020-10-26T02:37:50.021Z</time>
      </trkpt>
      <trkpt lat="45.89472" lon="3.22458">
        <ele>316.683413</ele>
        <time>2020-10-26T02:38:02.126Z</time>
      </trkpt>
      <trkpt lat="45.89467" lon="3.22459">
        <ele>316.618737</ele>
        <time>2020-10-26T02:38:02.917Z</time>
      </trkpt>
      <trkpt lat="45.89413" lon="3.22463">
        <ele>315.884292</ele>
        <time>2020-10-26T02:38:11.658Z</time>
      </trkpt>
      <trkpt lat="45.89402" lon="3.22463">
        <ele>315.73181</ele>
        <time>2020-10-26T02:38:13.325Z</time>
      </trkpt>
      <trkpt lat="45.89249" lon="3.22465">
        <ele>313.061481</ele>
        <time>2020-10-26T02:38:37.067Z</time>
      </trkpt>
      <trkpt lat="45.89187" lon="3.22456">
        <ele>312.283363</ele>
        <time>2020-10-26T02:38:47.130Z</time>
      </trkpt>
      <trkpt lat="45.89141" lon="3.22444">
        <ele>311.881051</ele>
        <time>2020-10-26T02:38:55.021Z</time>
      </trkpt>
      <trkpt lat="45.89108" lon="3.2243">
        <ele>311.580631</ele>
        <time>2020-10-26T02:39:01.107Z</time>
      </trkpt>
      <trkpt lat="45.88977" lon="3.22357">
        <ele>310.876766</ele>
        <time>2020-10-26T02:39:28.540Z</time>
      </trkpt>
      <trkpt lat="45.88963" lon="3.22345">
        <ele>310.844243</ele>
        <time>2020-10-26T02:39:31.854Z</time>
      </trkpt>
      <trkpt lat="45.88951" lon="3.22331">
        <ele>310.813105</ele>
        <time>2020-10-26T02:39:34.990Z</time>
      </trkpt>
      <trkpt lat="45.8895" lon="3.22318">
        <ele>310.795556</ele>
        <time>2020-10-26T02:39:36.743Z</time>
      </trkpt>
      <trkpt lat="45.88946" lon="3.22307">
        <ele>310.777843</ele>
        <time>2020-10-26T02:39:38.503Z</time>
      </trkpt>
      <trkpt lat="45.8894" lon="3.22298">
        <ele>310.760251</ele>
        <time>2020-10-26T02:39:40.280Z</time>
      </trkpt>
      <trkpt lat="45.88934" lon="3.22292">
        <ele>310.744577</ele>
        <time>2020-10-26T02:39:41.839Z</time>
      </trkpt>
      <trkpt lat="45.88911" lon="3.22294">
        <ele>310.698904</ele>
        <time>2020-10-26T02:39:46.378Z</time>
      </trkpt>
      <trkpt lat="45.88905" lon="3.22301">
        <ele>310.683243</ele>
        <time>2020-10-26T02:39:47.970Z</time>
      </trkpt>
      <trkpt lat="45.88894" lon="3.22303">
        <ele>310.667078</ele>
        <time>2020-10-26T02:39:50.088Z</time>
      </trkpt>
      <trkpt lat="45.88868" lon="3.22302">
        <ele>310.647693</ele>
        <time>2020-10-26T02:39:55.415Z</time>
      </trkpt>
      <trkpt lat="45.88858" lon="3.22303">
        <ele>310.640691</ele>
        <time>2020-10-26T02:39:57.288Z</time>
      </trkpt>
      <trkpt lat="45.88842" lon="3.22298">
        <ele>310.628504</ele>
        <time>2020-10-26T02:40:00.618Z</time>
      </trkpt>
      <trkpt lat="45.88803" lon="3.22274">
        <ele>310.597521</ele>
        <time>2020-10-26T02:40:09.127Z</time>
      </trkpt>
      <trkpt lat="45.88604" lon="3.22154">
        <ele>310.56175</ele>
        <time>2020-10-26T02:40:54.328Z</time>
      </trkpt>
      <trkpt lat="45.88567" lon="3.22134">
        <ele>310.568719</ele>
        <time>2020-10-26T02:41:02.618Z</time>
      </trkpt>
      <trkpt lat="45.88231" lon="3.21952">
        <ele>310.29871</ele>
        <time>2020-10-26T02:42:15.016Z</time>
      </trkpt>
      <trkpt lat="45.8819" lon="3.2193">
        <ele>310.369563</ele>
        <time>2020-10-26T02:42:24.643Z</time>
      </trkpt>
      <trkpt lat="45.88173" lon="3.21921">
        <ele>310.406653</ele>
        <time>2020-10-26T02:42:29.006Z</time>
      </trkpt>
      <trkpt lat="45.88061" lon="3.21882">
        <ele>310.635199</ele>
        <time>2020-10-26T02:42:54.620Z</time>
      </trkpt>
      <trkpt lat="45.87922" lon="3.21874">
        <ele>310.686744</ele>
        <time>2020-10-26T02:43:23.484Z</time>
      </trkpt>
      <trkpt lat="45.87691" lon="3.21883">
        <ele>310.718709</ele>
        <time>2020-10-26T02:44:11.486Z</time>
      </trkpt>
      <trkpt lat="45.87689" lon="3.21884">
        <ele>310.720705</ele>
        <time>2020-10-26T02:44:11.991Z</time>
      </trkpt>
      <trkpt lat="45.87682" lon="3.21884">
        <ele>310.725914</ele>
        <time>2020-10-26T02:44:13.276Z</time>
      </trkpt>
      <trkpt lat="45.87376" lon="3.21896">
        <ele>310.99561</ele>
        <time>2020-10-26T02:45:18.149Z</time>
      </trkpt>
      <trkpt lat="45.87337" lon="3.21892">
        <ele>311.032445</ele>
        <time>2020-10-26T02:45:26.698Z</time>
      </trkpt>
      <trkpt lat="45.8733" lon="3.2189">
        <ele>311.021624</ele>
        <time>2020-10-26T02:45:28.514Z</time>
      </trkpt>
      <trkpt lat="45.87317" lon="3.21886">
        <ele>310.975856</ele>
        <time>2020-10-26T02:45:31.212Z</time>
      </trkpt>
      <trkpt lat="45.87306" lon="3.21881">
        <ele>310.935405</ele>
        <time>2020-10-26T02:45:33.479Z</time>
      </trkpt>
      <trkpt lat="45.87291" lon="3.21874">
        <ele>310.877002</ele>
        <time>2020-10-26T02:45:37.015Z</time>
      </trkpt>
      <trkpt lat="45.87264" lon="3.21859">
        <ele>310.773814</ele>
        <time>2020-10-26T02:45:42.714Z</time>
      </trkpt>
      <trkpt lat="45.87228" lon="3.21824">
        <ele>310.618861</ele>
        <time>2020-10-26T02:45:50.748Z</time>
      </trkpt>
      <trkpt lat="45.87146" lon="3.21744">
        <ele>310.260192</ele>
        <time>2020-10-26T02:46:08.610Z</time>
      </trkpt>
      <trkpt lat="45.87133" lon="3.21732">
        <ele>310.205281</ele>
        <time>2020-10-26T02:46:11.201Z</time>
      </trkpt>
      <trkpt lat="45.87114" lon="3.21715">
        <ele>310.120579</ele>
        <time>2020-10-26T02:46:15.430Z</time>
      </trkpt>
      <trkpt lat="45.87038" lon="3.21667">
        <ele>309.815644</ele>
        <time>2020-10-26T02:46:30.740Z</time>
      </trkpt>
      <trkpt lat="45.86882" lon="3.21571">
        <ele>310.477295</ele>
        <time>2020-10-26T02:47:10.244Z</time>
      </trkpt>
      <trkpt lat="45.86784" lon="3.2151">
        <ele>311.132266</ele>
        <time>2020-10-26T02:47:38.084Z</time>
      </trkpt>
      <trkpt lat="45.86781" lon="3.21507">
        <ele>311.151109</ele>
        <time>2020-10-26T02:47:38.807Z</time>
      </trkpt>
      <trkpt lat="45.86766" lon="3.21498">
        <ele>311.260146</ele>
        <time>2020-10-26T02:47:43.071Z</time>
      </trkpt>
      <trkpt lat="45.86696" lon="3.21456">
        <ele>311.758937</ele>
        <time>2020-10-26T02:48:01.444Z</time>
      </trkpt>
      <trkpt lat="45.8665" lon="3.21419">
        <ele>311.846135</ele>
        <time>2020-10-26T02:48:13.042Z</time>
      </trkpt>
      <trkpt lat="45.86608" lon="3.21366">
        <ele>311.873745</ele>
        <time>2020-10-26T02:48:24.935Z</time>
      </trkpt>
      <trkpt lat="45.86583" lon="3.2132">
        <ele>311.893415</ele>
        <time>2020-10-26T02:48:32.981Z</time>
      </trkpt>
      <trkpt lat="45.86567" lon="3.21282">
        <ele>311.908823</ele>
        <time>2020-10-26T02:48:39.186Z</time>
      </trkpt>
      <trkpt lat="45.86555" lon="3.21242">
        <ele>311.931916</ele>
        <time>2020-10-26T02:48:45.291Z</time>
      </trkpt>
      <trkpt lat="45.86539" lon="3.21161">
        <ele>311.983121</ele>
        <time>2020-10-26T02:48:56.942Z</time>
      </trkpt>
      <trkpt lat="45.86482" lon="3.20796">
        <ele>312.496221</ele>
        <time>2020-10-26T02:49:55.182Z</time>
      </trkpt>
      <trkpt lat="45.86447" lon="3.20578">
        <ele>312.884878</ele>
        <time>2020-10-26T02:50:30.128Z</time>
      </trkpt>
      <trkpt lat="45.86427" lon="3.20452">
        <ele>313.083678</ele>
        <time>2020-10-26T02:50:49.848Z</time>
      </trkpt>
      <trkpt lat="45.8639" lon="3.20298">
        <ele>313.305967</ele>
        <time>2020-10-26T02:51:14.676Z</time>
      </trkpt>
      <trkpt lat="45.86326" lon="3.2011">
        <ele>313.499656</ele>
        <time>2020-10-26T02:51:46.233Z</time>
      </trkpt>
      <trkpt lat="45.8611" lon="3.19545">
        <ele>313.431292</ele>
        <time>2020-10-26T02:53:18.902Z</time>
      </trkpt>
      <trkpt lat="45.86081" lon="3.19439">
        <ele>313.459607</ele>
        <time>2020-10-26T02:53:34.994Z</time>
      </trkpt>
      <trkpt lat="45.86058" lon="3.19308">
        <ele>313.535285</ele>
        <time>2020-10-26T02:53:55.141Z</time>
      </trkpt>
      <trkpt lat="45.86045" lon="3.19172">
        <ele>313.713298</ele>
        <time>2020-10-26T02:54:16.177Z</time>
      </trkpt>
      <trkpt lat="45.86044" lon="3.19141">
        <ele>313.753948</ele>
        <time>2020-10-26T02:54:20.841Z</time>
      </trkpt>
      <trkpt lat="45.86047" lon="3.19114">
        <ele>313.78964</ele>
        <time>2020-10-26T02:54:25.093Z</time>
      </trkpt>
      <trkpt lat="45.8605" lon="3.19109">
        <ele>313.797678</ele>
        <time>2020-10-26T02:54:26.003Z</time>
      </trkpt>
      <trkpt lat="45.86051" lon="3.19104">
        <ele>313.805617</ele>
        <time>2020-10-26T02:54:26.958Z</time>
      </trkpt>
      <trkpt lat="45.8605" lon="3.1909">
        <ele>313.824803</ele>
        <time>2020-10-26T02:54:29.013Z</time>
      </trkpt>
      <trkpt lat="45.86049" lon="3.19089">
        <ele>313.827932</ele>
        <time>2020-10-26T02:54:29.323Z</time>
      </trkpt>
      <trkpt lat="45.86047" lon="3.19085">
        <ele>313.837811</ele>
        <time>2020-10-26T02:54:30.162Z</time>
      </trkpt>
      <trkpt lat="45.86043" lon="3.19081">
        <ele>313.850823</ele>
        <time>2020-10-26T02:54:31.245Z</time>
      </trkpt>
      <trkpt lat="45.86032" lon="3.19043">
        <ele>313.929134</ele>
        <time>2020-10-26T02:54:37.656Z</time>
      </trkpt>
      <trkpt lat="45.86025" lon="3.19012">
        <ele>313.991576</ele>
        <time>2020-10-26T02:54:42.805Z</time>
      </trkpt>
      <trkpt lat="45.86015" lon="3.18951">
        <ele>314.109967</ele>
        <time>2020-10-26T02:54:52.749Z</time>
      </trkpt>
      <trkpt lat="45.85992" lon="3.18869">
        <ele>314.278148</ele>
        <time>2020-10-26T02:55:06.506Z</time>
      </trkpt>
      <trkpt lat="45.85934" lon="3.18697">
        <ele>314.593637</ele>
        <time>2020-10-26T02:55:35.486Z</time>
      </trkpt>
      <trkpt lat="45.8592" lon="3.18654">
        <ele>314.672071</ele>
        <time>2020-10-26T02:55:42.990Z</time>
      </trkpt>
      <trkpt lat="45.85896" lon="3.18584">
        <ele>314.787504</ele>
        <time>2020-10-26T02:55:55.124Z</time>
      </trkpt>
      <trkpt lat="45.85863" lon="3.18498">
        <ele>314.918215</ele>
        <time>2020-10-26T02:56:09.815Z</time>
      </trkpt>
      <trkpt lat="45.85828" lon="3.18426">
        <ele>315.036258</ele>
        <time>2020-10-26T02:56:23.366Z</time>
      </trkpt>
      <trkpt lat="45.85651" lon="3.18115">
        <ele>315.984304</ele>
        <time>2020-10-26T02:57:26.093Z</time>
      </trkpt>
      <trkpt lat="45.85645" lon="3.18106">
        <ele>316.026731</ele>
        <time>2020-10-26T02:57:28.070Z</time>
      </trkpt>
      <trkpt lat="45.85527" lon="3.17904">
        <ele>316.966359</ele>
        <time>2020-10-26T02:58:12.997Z</time>
      </trkpt>
      <trkpt lat="45.85487" lon="3.17852">
        <ele>317.236586</ele>
        <time>2020-10-26T02:58:25.687Z</time>
      </trkpt>
      <trkpt lat="45.85471" lon="3.17833">
        <ele>317.342532</ele>
        <time>2020-10-26T02:58:30.673Z</time>
      </trkpt>
      <trkpt lat="45.85422" lon="3.17781">
        <ele>317.328844</ele>
        <time>2020-10-26T02:58:43.680Z</time>
      </trkpt>
      <trkpt lat="45.85396" lon="3.17751">
        <ele>317.266475</ele>
        <time>2020-10-26T02:58:50.300Z</time>
      </trkpt>
      <trkpt lat="45.85358" lon="3.17677">
        <ele>317.144354</ele>
        <time>2020-10-26T02:59:02.710Z</time>
      </trkpt>
      <trkpt lat="45.85355" lon="3.17661">
        <ele>317.122159</ele>
        <time>2020-10-26T02:59:04.752Z</time>
      </trkpt>
      <trkpt lat="45.85357" lon="3.17652">
        <ele>317.111059</ele>
        <time>2020-10-26T02:59:05.869Z</time>
      </trkpt>
      <trkpt lat="45.85356" lon="3.17644">
        <ele>317.099905</ele>
        <time>2020-10-26T02:59:07.159Z</time>
      </trkpt>
      <trkpt lat="45.85354" lon="3.17636">
        <ele>317.08877</ele>
        <time>2020-10-26T02:59:08.180Z</time>
      </trkpt>
      <trkpt lat="45.8535" lon="3.17629">
        <ele>317.076696</ele>
        <time>2020-10-26T02:59:09.276Z</time>
      </trkpt>
      <trkpt lat="45.85345" lon="3.17624">
        <ele>317.059009</ele>
        <time>2020-10-26T02:59:10.387Z</time>
      </trkpt>
      <trkpt lat="45.85339" lon="3.17621">
        <ele>317.040759</ele>
        <time>2020-10-26T02:59:11.516Z</time>
      </trkpt>
      <trkpt lat="45.85333" lon="3.17621">
        <ele>317.022021</ele>
        <time>2020-10-26T02:59:12.805Z</time>
      </trkpt>
      <trkpt lat="45.85327" lon="3.17623">
        <ele>317.003344</ele>
        <time>2020-10-26T02:59:14.201Z</time>
      </trkpt>
      <trkpt lat="45.85314" lon="3.17626">
        <ele>316.967309</ele>
        <time>2020-10-26T02:59:16.335Z</time>
      </trkpt>
      <trkpt lat="45.85292" lon="3.17622">
        <ele>316.903447</ele>
        <time>2020-10-26T02:59:20.622Z</time>
      </trkpt>
      <trkpt lat="45.85259" lon="3.17593">
        <ele>316.792083</ele>
        <time>2020-10-26T02:59:27.859Z</time>
      </trkpt>
      <trkpt lat="45.85242" lon="3.17576">
        <ele>316.732125</ele>
        <time>2020-10-26T02:59:31.593Z</time>
      </trkpt>
      <trkpt lat="45.85213" lon="3.17525">
        <ele>316.598863</ele>
        <time>2020-10-26T02:59:41.094Z</time>
      </trkpt>
      <trkpt lat="45.85081" lon="3.17292">
        <ele>317.204693</ele>
        <time>2020-10-26T03:00:28.612Z</time>
      </trkpt>
      <trkpt lat="45.84871" lon="3.17038">
        <ele>318.18598</ele>
        <time>2020-10-26T03:01:32.269Z</time>
      </trkpt>
      <trkpt lat="45.84764" lon="3.16896">
        <ele>318.555229</ele>
        <time>2020-10-26T03:02:03.402Z</time>
      </trkpt>
      <trkpt lat="45.84705" lon="3.16814">
        <ele>318.730493</ele>
        <time>2020-10-26T03:02:21.366Z</time>
      </trkpt>
      <trkpt lat="45.84676" lon="3.16763">
        <ele>318.858093</ele>
        <time>2020-10-26T03:02:31.939Z</time>
      </trkpt>
      <trkpt lat="45.84659" lon="3.16719">
        <ele>318.97733</ele>
        <time>2020-10-26T03:02:40.024Z</time>
      </trkpt>
      <trkpt lat="45.84658" lon="3.16707">
        <ele>319.004489</ele>
        <time>2020-10-26T03:02:41.783Z</time>
      </trkpt>
      <trkpt lat="45.84661" lon="3.16696">
        <ele>319.033684</ele>
        <time>2020-10-26T03:02:43.798Z</time>
      </trkpt>
      <trkpt lat="45.84667" lon="3.16684">
        <ele>319.068978</ele>
        <time>2020-10-26T03:02:46.234Z</time>
      </trkpt>
      <trkpt lat="45.84671" lon="3.1667">
        <ele>319.104877</ele>
        <time>2020-10-26T03:02:48.635Z</time>
      </trkpt>
      <trkpt lat="45.84673" lon="3.16652">
        <ele>319.146917</ele>
        <time>2020-10-26T03:02:51.418Z</time>
      </trkpt>
      <trkpt lat="45.84671" lon="3.16634">
        <ele>319.188768</ele>
        <time>2020-10-26T03:02:54.319Z</time>
      </trkpt>
      <trkpt lat="45.84665" lon="3.16618">
        <ele>319.230863</ele>
        <time>2020-10-26T03:02:57.107Z</time>
      </trkpt>
      <trkpt lat="45.84655" lon="3.16602">
        <ele>319.282278</ele>
        <time>2020-10-26T03:03:00.558Z</time>
      </trkpt>
      <trkpt lat="45.84642" lon="3.16592">
        <ele>319.333663</ele>
        <time>2020-10-26T03:03:04.053Z</time>
      </trkpt>
      <trkpt lat="45.84641" lon="3.16571">
        <ele>319.383597</ele>
        <time>2020-10-26T03:03:07.224Z</time>
      </trkpt>
      <trkpt lat="45.84629" lon="3.16524">
        <ele>319.463018</ele>
        <time>2020-10-26T03:03:14.901Z</time>
      </trkpt>
      <trkpt lat="45.84617" lon="3.16506">
        <ele>319.503776</ele>
        <time>2020-10-26T03:03:19.007Z</time>
      </trkpt>
      <trkpt lat="45.84602" lon="3.16494">
        <ele>319.541859</ele>
        <time>2020-10-26T03:03:22.647Z</time>
      </trkpt>
      <trkpt lat="45.84545" lon="3.1648">
        <ele>319.67221</ele>
        <time>2020-10-26T03:03:35.168Z</time>
      </trkpt>
      <trkpt lat="45.84524" lon="3.16469">
        <ele>319.723528</ele>
        <time>2020-10-26T03:03:39.960Z</time>
      </trkpt>
      <trkpt lat="45.84488" lon="3.16432">
        <ele>319.847143</ele>
        <time>2020-10-26T03:03:49.552Z</time>
      </trkpt>
      <trkpt lat="45.84423" lon="3.16304">
        <ele>320.307223</ele>
        <time>2020-10-26T03:04:14.576Z</time>
      </trkpt>
      <trkpt lat="45.84384" lon="3.16207">
        <ele>320.712162</ele>
        <time>2020-10-26T03:04:33.718Z</time>
      </trkpt>
      <trkpt lat="45.84351" lon="3.16119">
        <ele>321.264614</ele>
        <time>2020-10-26T03:04:51.388Z</time>
      </trkpt>
      <trkpt lat="45.84313" lon="3.1598">
        <ele>322.089347</ele>
        <time>2020-10-26T03:05:17.827Z</time>
      </trkpt>
      <trkpt lat="45.84298" lon="3.15933">
        <ele>322.380497</ele>
        <time>2020-10-26T03:05:27.127Z</time>
      </trkpt>
      <trkpt lat="45.84279" lon="3.15889">
        <ele>322.679961</ele>
        <time>2020-10-26T03:05:36.399Z</time>
      </trkpt>
      <trkpt lat="45.84258" lon="3.15861">
        <ele>322.915774</ele>
        <time>2020-10-26T03:05:43.711Z</time>
      </trkpt>
      <trkpt lat="45.84246" lon="3.15846">
        <ele>323.045354</ele>
        <time>2020-10-26T03:05:47.847Z</time>
      </trkpt>
      <trkpt lat="45.84223" lon="3.15828">
        <ele>323.265504</ele>
        <time>2020-10-26T03:05:54.394Z</time>
      </trkpt>
      <trkpt lat="45.84209" lon="3.15815">
        <ele>323.396643</ele>
        <time>2020-10-26T03:05:58.575Z</time>
      </trkpt>
      <trkpt lat="45.84207" lon="3.15805">
        <ele>323.452546</ele>
        <time>2020-10-26T03:06:00.344Z</time>
      </trkpt>
      <trkpt lat="45.84199" lon="3.15788">
        <ele>323.532279</ele>
        <time>2020-10-26T03:06:03.687Z</time>
      </trkpt>
      <trkpt lat="45.84192" lon="3.15783">
        <ele>323.573835</ele>
        <time>2020-10-26T03:06:05.741Z</time>
      </trkpt>
      <trkpt lat="45.84184" lon="3.15779">
        <ele>323.619855</ele>
        <time>2020-10-26T03:06:07.784Z</time>
      </trkpt>
      <trkpt lat="45.84174" lon="3.15779">
        <ele>323.675946</ele>
        <time>2020-10-26T03:06:10.173Z</time>
      </trkpt>
      <trkpt lat="45.84163" lon="3.15785">
        <ele>323.744929</ele>
        <time>2020-10-26T03:06:13.115Z</time>
      </trkpt>
      <trkpt lat="45.84143" lon="3.15706">
        <ele>324.069499</ele>
        <time>2020-10-26T03:06:27.508Z</time>
      </trkpt>
      <trkpt lat="45.84125" lon="3.1564">
        <ele>324.341341</ele>
        <time>2020-10-26T03:06:38.695Z</time>
      </trkpt>
      <trkpt lat="45.84084" lon="3.15525">
        <ele>324.591565</ele>
        <time>2020-10-26T03:06:58.963Z</time>
      </trkpt>
      <trkpt lat="45.8406" lon="3.15479">
        <ele>324.674905</ele>
        <time>2020-10-26T03:07:07.791Z</time>
      </trkpt>
      <trkpt lat="45.84051" lon="3.15464">
        <ele>324.701963</ele>
        <time>2020-10-26T03:07:10.663Z</time>
      </trkpt>
      <trkpt lat="45.83989" lon="3.15366">
        <ele>324.705758</ele>
        <time>2020-10-26T03:07:30.707Z</time>
      </trkpt>
      <trkpt lat="45.83946" lon="3.15299">
        <ele>324.524737</ele>
        <time>2020-10-26T03:07:42.688Z</time>
      </trkpt>
      <trkpt lat="45.83919" lon="3.15253">
        <ele>324.403307</ele>
        <time>2020-10-26T03:07:50.591Z</time>
      </trkpt>
      <trkpt lat="45.83897" lon="3.15209">
        <ele>324.294172</ele>
        <time>2020-10-26T03:07:57.566Z</time>
      </trkpt>
      <trkpt lat="45.83877" lon="3.15169">
        <ele>324.133737</ele>
        <time>2020-10-26T03:08:03.972Z</time>
      </trkpt>
      <trkpt lat="45.83826" lon="3.1507">
        <ele>323.729763</ele>
        <time>2020-10-26T03:08:20.002Z</time>
      </trkpt>
      <trkpt lat="45.83813" lon="3.15049">
        <ele>323.637452</ele>
        <time>2020-10-26T03:08:23.584Z</time>
      </trkpt>
      <trkpt lat="45.83791" lon="3.15026">
        <ele>323.51049</ele>
        <time>2020-10-26T03:08:28.464Z</time>
      </trkpt>
      <trkpt lat="45.83782" lon="3.1501">
        <ele>323.454206</ele>
        <time>2020-10-26T03:08:31.167Z</time>
      </trkpt>
      <trkpt lat="45.8378" lon="3.15">
        <ele>323.452601</ele>
        <time>2020-10-26T03:08:32.631Z</time>
      </trkpt>
      <trkpt lat="45.8378" lon="3.14993">
        <ele>323.451499</ele>
        <time>2020-10-26T03:08:33.634Z</time>
      </trkpt>
      <trkpt lat="45.83775" lon="3.14982">
        <ele>323.449598</ele>
        <time>2020-10-26T03:08:35.315Z</time>
      </trkpt>
      <trkpt lat="45.83773" lon="3.14979">
        <ele>323.448911</ele>
        <time>2020-10-26T03:08:36.012Z</time>
      </trkpt>
      <trkpt lat="45.83768" lon="3.14977">
        <ele>323.447812</ele>
        <time>2020-10-26T03:08:37.022Z</time>
      </trkpt>
      <trkpt lat="45.83762" lon="3.14977">
        <ele>323.446451</ele>
        <time>2020-10-26T03:08:38.258Z</time>
      </trkpt>
      <trkpt lat="45.83757" lon="3.1498">
        <ele>323.445348</ele>
        <time>2020-10-26T03:08:39.276Z</time>
      </trkpt>
      <trkpt lat="45.83754" lon="3.14985">
        <ele>323.444239</ele>
        <time>2020-10-26T03:08:40.298Z</time>
      </trkpt>
      <trkpt lat="45.83752" lon="3.14989">
        <ele>323.443493</ele>
        <time>2020-10-26T03:08:41.015Z</time>
      </trkpt>
      <trkpt lat="45.83746" lon="3.14995">
        <ele>323.441969</ele>
        <time>2020-10-26T03:08:42.378Z</time>
      </trkpt>
      <trkpt lat="45.83724" lon="3.14994">
        <ele>323.437007</ele>
        <time>2020-10-26T03:08:47.117Z</time>
      </trkpt>
      <trkpt lat="45.83703" lon="3.14982">
        <ele>323.432215</ele>
        <time>2020-10-26T03:08:51.725Z</time>
      </trkpt>
      <trkpt lat="45.83684" lon="3.14972">
        <ele>323.427675</ele>
        <time>2020-10-26T03:08:56.144Z</time>
      </trkpt>
      <trkpt lat="45.83658" lon="3.14954">
        <ele>323.421263</ele>
        <time>2020-10-26T03:09:02.438Z</time>
      </trkpt>
      <trkpt lat="45.83632" lon="3.14929">
        <ele>323.429967</ele>
        <time>2020-10-26T03:09:09.121Z</time>
      </trkpt>
      <trkpt lat="45.83554" lon="3.14828">
        <ele>323.833681</ele>
        <time>2020-10-26T03:09:32.701Z</time>
      </trkpt>
      <trkpt lat="45.83542" lon="3.14812">
        <ele>323.897016</ele>
        <time>2020-10-26T03:09:36.629Z</time>
      </trkpt>
      <trkpt lat="45.8352" lon="3.14787">
        <ele>324.00453</ele>
        <time>2020-10-26T03:09:43.269Z</time>
      </trkpt>
      <trkpt lat="45.83515" lon="3.14783">
        <ele>324.027019</ele>
        <time>2020-10-26T03:09:44.652Z</time>
      </trkpt>
      <trkpt lat="45.8351" lon="3.14779">
        <ele>324.048074</ele>
        <time>2020-10-26T03:09:45.988Z</time>
      </trkpt>
      <trkpt lat="45.83497" lon="3.14771">
        <ele>324.101434</ele>
        <time>2020-10-26T03:09:49.243Z</time>
      </trkpt>
      <trkpt lat="45.83416" lon="3.14732">
        <ele>324.489415</ele>
        <time>2020-10-26T03:10:10.014Z</time>
      </trkpt>
      <trkpt lat="45.83382" lon="3.14705">
        <ele>324.663913</ele>
        <time>2020-10-26T03:10:19.430Z</time>
      </trkpt>
      <trkpt lat="45.83372" lon="3.14696">
        <ele>324.714156</ele>
        <time>2020-10-26T03:10:22.108Z</time>
      </trkpt>
      <trkpt lat="45.83365" lon="3.14689">
        <ele>324.7525</ele>
        <time>2020-10-26T03:10:24.017Z</time>
      </trkpt>
      <trkpt lat="45.83325" lon="3.14642">
        <ele>324.909643</ele>
        <time>2020-10-26T03:10:35.502Z</time>
      </trkpt>
      <trkpt lat="45.83295" lon="3.14581">
        <ele>324.881903</ele>
        <time>2020-10-26T03:10:46.135Z</time>
      </trkpt>
      <trkpt lat="45.83283" lon="3.14555">
        <ele>324.870033</ele>
        <time>2020-10-26T03:10:50.610Z</time>
      </trkpt>
      <trkpt lat="45.83267" lon="3.1452">
        <ele>324.854456</ele>
        <time>2020-10-26T03:10:56.787Z</time>
      </trkpt>
      <trkpt lat="45.83263" lon="3.14508">
        <ele>324.849563</ele>
        <time>2020-10-26T03:10:58.333Z</time>
      </trkpt>
      <trkpt lat="45.83244" lon="3.14479">
        <ele>324.834561</ele>
        <time>2020-10-26T03:11:04.280Z</time>
      </trkpt>
      <trkpt lat="45.83241" lon="3.14475">
        <ele>324.832298</ele>
        <time>2020-10-26T03:11:04.979Z</time>
      </trkpt>
      <trkpt lat="45.8324" lon="3.1447">
        <ele>324.830393</ele>
        <time>2020-10-26T03:11:05.568Z</time>
      </trkpt>
      <trkpt lat="45.83238" lon="3.14456">
        <ele>324.825189</ele>
        <time>2020-10-26T03:11:07.570Z</time>
      </trkpt>
      <trkpt lat="45.83204" lon="3.14378">
        <ele>324.780824</ele>
        <time>2020-10-26T03:11:20.244Z</time>
      </trkpt>
      <trkpt lat="45.83184" lon="3.14351">
        <ele>324.761369</ele>
        <time>2020-10-26T03:11:25.899Z</time>
      </trkpt>
      <trkpt lat="45.83173" lon="3.14338">
        <ele>324.751382</ele>
        <time>2020-10-26T03:11:28.467Z</time>
      </trkpt>
      <trkpt lat="45.83168" lon="3.14333">
        <ele>324.746795</ele>
        <time>2020-10-26T03:11:29.920Z</time>
      </trkpt>
      <trkpt lat="45.8316" lon="3.14325">
        <ele>324.740147</ele>
        <time>2020-10-26T03:11:31.932Z</time>
      </trkpt>
      <trkpt lat="45.83157" lon="3.14307">
        <ele>324.730883</ele>
        <time>2020-10-26T03:11:34.369Z</time>
      </trkpt>
      <trkpt lat="45.83158" lon="3.14299">
        <ele>324.727001</ele>
        <time>2020-10-26T03:11:35.551Z</time>
      </trkpt>
      <trkpt lat="45.83148" lon="3.14292">
        <ele>324.719182</ele>
        <time>2020-10-26T03:11:38.011Z</time>
      </trkpt>
      <trkpt lat="45.83096" lon="3.14276">
        <ele>324.747743</ele>
        <time>2020-10-26T03:11:49.563Z</time>
      </trkpt>
      <trkpt lat="45.83062" lon="3.14263">
        <ele>324.854833</ele>
        <time>2020-10-26T03:11:57.290Z</time>
      </trkpt>
      <trkpt lat="45.83011" lon="3.14242">
        <ele>325.016496</ele>
        <time>2020-10-26T03:12:09.160Z</time>
      </trkpt>
      <trkpt lat="45.82931" lon="3.14227">
        <ele>325.298266</ele>
        <time>2020-10-26T03:12:27.737Z</time>
      </trkpt>
      <trkpt lat="45.82899" lon="3.14215">
        <ele>325.565083</ele>
        <time>2020-10-26T03:12:35.650Z</time>
      </trkpt>
      <trkpt lat="45.82868" lon="3.14198">
        <ele>325.84039</ele>
        <time>2020-10-26T03:12:43.915Z</time>
      </trkpt>
      <trkpt lat="45.82819" lon="3.14174">
        <ele>326.264231</ele>
        <time>2020-10-26T03:12:57.270Z</time>
      </trkpt>
      <trkpt lat="45.82774" lon="3.14153">
        <ele>326.64582</ele>
        <time>2020-10-26T03:13:09.719Z</time>
      </trkpt>
      <trkpt lat="45.82715" lon="3.14124">
        <ele>327.264135</ele>
        <time>2020-10-26T03:13:26.363Z</time>
      </trkpt>
      <trkpt lat="45.82691" lon="3.14117">
        <ele>327.514344</ele>
        <time>2020-10-26T03:13:33.147Z</time>
      </trkpt>
      <trkpt lat="45.82666" lon="3.14105">
        <ele>327.782098</ele>
        <time>2020-10-26T03:13:40.201Z</time>
      </trkpt>
      <trkpt lat="45.82649" lon="3.14097">
        <ele>327.961833</ele>
        <time>2020-10-26T03:13:44.824Z</time>
      </trkpt>
      <trkpt lat="45.82614" lon="3.14089">
        <ele>328.318377</ele>
        <time>2020-10-26T03:13:54.024Z</time>
      </trkpt>
      <trkpt lat="45.82583" lon="3.14097">
        <ele>328.568191</ele>
        <time>2020-10-26T03:14:02.440Z</time>
      </trkpt>
      <trkpt lat="45.8257" lon="3.14103">
        <ele>328.612122</ele>
        <time>2020-10-26T03:14:05.759Z</time>
      </trkpt>
      <trkpt lat="45.82555" lon="3.14111">
        <ele>328.665096</ele>
        <time>2020-10-26T03:14:09.838Z</time>
      </trkpt>
      <trkpt lat="45.82542" lon="3.14119">
        <ele>328.71314</ele>
        <time>2020-10-26T03:14:13.318Z</time>
      </trkpt>
      <trkpt lat="45.82517" lon="3.14131">
        <ele>328.800546</ele>
        <time>2020-10-26T03:14:19.266Z</time>
      </trkpt>
      <trkpt lat="45.82506" lon="3.14141">
        <ele>328.841822</ele>
        <time>2020-10-26T03:14:22.047Z</time>
      </trkpt>
      <trkpt lat="45.82498" lon="3.14148">
        <ele>328.875002</ele>
        <time>2020-10-26T03:14:24.145Z</time>
      </trkpt>
      <trkpt lat="45.82479" lon="3.14169">
        <ele>328.953365</ele>
        <time>2020-10-26T03:14:29.362Z</time>
      </trkpt>
      <trkpt lat="45.82469" lon="3.14172">
        <ele>328.987943</ele>
        <time>2020-10-26T03:14:31.533Z</time>
      </trkpt>
      <trkpt lat="45.82453" lon="3.14178">
        <ele>329.041512</ele>
        <time>2020-10-26T03:14:34.977Z</time>
      </trkpt>
      <trkpt lat="45.82431" lon="3.14187">
        <ele>329.117902</ele>
        <time>2020-10-26T03:14:39.813Z</time>
      </trkpt>
      <trkpt lat="45.82424" lon="3.1419">
        <ele>329.114035</ele>
        <time>2020-10-26T03:14:41.364Z</time>
      </trkpt>
      <trkpt lat="45.82401" lon="3.14199">
        <ele>329.00154</ele>
        <time>2020-10-26T03:14:46.070Z</time>
      </trkpt>
      <trkpt lat="45.82399" lon="3.142">
        <ele>328.992388</ele>
        <time>2020-10-26T03:14:46.391Z</time>
      </trkpt>
      <trkpt lat="45.82345" lon="3.14212">
        <ele>328.735912</ele>
        <time>2020-10-26T03:14:56.598Z</time>
      </trkpt>
      <trkpt lat="45.8234" lon="3.14213">
        <ele>328.711431</ele>
        <time>2020-10-26T03:14:57.506Z</time>
      </trkpt>
      <trkpt lat="45.82335" lon="3.14214">
        <ele>328.68624</ele>
        <time>2020-10-26T03:14:58.463Z</time>
      </trkpt>
      <trkpt lat="45.82279" lon="3.14217">
        <ele>328.420787</ele>
        <time>2020-10-26T03:15:08.609Z</time>
      </trkpt>
      <trkpt lat="45.82271" lon="3.14214">
        <ele>328.386397</ele>
        <time>2020-10-26T03:15:09.879Z</time>
      </trkpt>
      <trkpt lat="45.82265" lon="3.14211">
        <ele>328.355732</ele>
        <time>2020-10-26T03:15:11.024Z</time>
      </trkpt>
      <trkpt lat="45.8225" lon="3.14202">
        <ele>328.2834</ele>
        <time>2020-10-26T03:15:14.098Z</time>
      </trkpt>
      <trkpt lat="45.82228" lon="3.14189">
        <ele>328.264574</ele>
        <time>2020-10-26T03:15:18.478Z</time>
      </trkpt>
      <trkpt lat="45.82199" lon="3.14172">
        <ele>328.240178</ele>
        <time>2020-10-26T03:15:24.327Z</time>
      </trkpt>
      <trkpt lat="45.82193" lon="3.14166">
        <ele>328.234318</ele>
        <time>2020-10-26T03:15:25.788Z</time>
      </trkpt>
      <trkpt lat="45.82188" lon="3.14159">
        <ele>328.228505</ele>
        <time>2020-10-26T03:15:27.315Z</time>
      </trkpt>
      <trkpt lat="45.8219" lon="3.14155">
        <ele>328.22552</ele>
        <time>2020-10-26T03:15:28.070Z</time>
      </trkpt>
      <trkpt lat="45.82188" lon="3.14139">
        <ele>328.217011</ele>
        <time>2020-10-26T03:15:30.126Z</time>
      </trkpt>
      <trkpt lat="45.82185" lon="3.14136">
        <ele>328.214055</ele>
        <time>2020-10-26T03:15:30.805Z</time>
      </trkpt>
      <trkpt lat="45.82181" lon="3.14135">
        <ele>328.210657</ele>
        <time>2020-10-26T03:15:31.623Z</time>
      </trkpt>
      <trkpt lat="45.82173" lon="3.1414">
        <ele>328.204213</ele>
        <time>2020-10-26T03:15:33.273Z</time>
      </trkpt>
      <trkpt lat="45.82171" lon="3.14145">
        <ele>328.200843</ele>
        <time>2020-10-26T03:15:34.225Z</time>
      </trkpt>
      <trkpt lat="45.8216" lon="3.14147">
        <ele>328.192195</ele>
        <time>2020-10-26T03:15:36.510Z</time>
      </trkpt>
      <trkpt lat="45.82122" lon="3.14142">
        <ele>328.161979</ele>
        <time>2020-10-26T03:15:44.595Z</time>
      </trkpt>
      <trkpt lat="45.82096" lon="3.1414">
        <ele>328.154269</ele>
        <time>2020-10-26T03:15:50.833Z</time>
      </trkpt>
      <trkpt lat="45.82067" lon="3.14137">
        <ele>328.334531</ele>
        <time>2020-10-26T03:15:57.753Z</time>
      </trkpt>
      <trkpt lat="45.82057" lon="3.14135">
        <ele>328.400078</ele>
        <time>2020-10-26T03:16:00.495Z</time>
      </trkpt>
      <trkpt lat="45.82033" lon="3.14132">
        <ele>328.550674</ele>
        <time>2020-10-26T03:16:06.463Z</time>
      </trkpt>
      <trkpt lat="45.8198" lon="3.14126">
        <ele>328.889384</ele>
        <time>2020-10-26T03:16:20.203Z</time>
      </trkpt>
      <trkpt lat="45.81928" lon="3.14119">
        <ele>329.219896</ele>
        <time>2020-10-26T03:16:32.846Z</time>
      </trkpt>
      <trkpt lat="45.81928" lon="3.14114">
        <ele>329.243281</ele>
        <time>2020-10-26T03:16:33.976Z</time>
      </trkpt>
      <trkpt lat="45.81847" lon="3.14102">
        <ele>329.354755</ele>
        <time>2020-10-26T03:16:52.514Z</time>
      </trkpt>
      <trkpt lat="45.81731" lon="3.14072">
        <ele>329.430757</ele>
        <time>2020-10-26T03:17:16.204Z</time>
      </trkpt>
      <trkpt lat="45.8173" lon="3.14077">
        <ele>329.423196</ele>
        <time>2020-10-26T03:17:17.267Z</time>
      </trkpt>
      <trkpt lat="45.81715" lon="3.14073">
        <ele>329.392132</ele>
        <time>2020-10-26T03:17:20.305Z</time>
      </trkpt>
      <trkpt lat="45.81706" lon="3.14072">
        <ele>329.375087</ele>
        <time>2020-10-26T03:17:22.029Z</time>
      </trkpt>
      <trkpt lat="45.81701" lon="3.14072">
        <ele>329.366187</ele>
        <time>2020-10-26T03:17:22.863Z</time>
      </trkpt>
      <trkpt lat="45.817" lon="3.14071">
        <ele>329.362629</ele>
        <time>2020-10-26T03:17:23.195Z</time>
      </trkpt>
      <trkpt lat="45.81693" lon="3.14074">
        <ele>329.349574</ele>
        <time>2020-10-26T03:17:24.475Z</time>
      </trkpt>
      <trkpt lat="45.81692" lon="3.14076">
        <ele>329.346108</ele>
        <time>2020-10-26T03:17:24.807Z</time>
      </trkpt>
      <trkpt lat="45.81688" lon="3.14073">
        <ele>329.33645</ele>
        <time>2020-10-26T03:17:25.737Z</time>
      </trkpt>
      <trkpt lat="45.8163" lon="3.14056">
        <ele>329.221514</ele>
        <time>2020-10-26T03:17:37.211Z</time>
      </trkpt>
      <trkpt lat="45.81619" lon="3.14049">
        <ele>329.199049</ele>
        <time>2020-10-26T03:17:39.520Z</time>
      </trkpt>
      <trkpt lat="45.81615" lon="3.14047">
        <ele>329.191193</ele>
        <time>2020-10-26T03:17:40.329Z</time>
      </trkpt>
      <trkpt lat="45.81609" lon="3.14038">
        <ele>329.173528</ele>
        <time>2020-10-26T03:17:42.174Z</time>
      </trkpt>
      <trkpt lat="45.81605" lon="3.14031">
        <ele>329.162134</ele>
        <time>2020-10-26T03:17:43.419Z</time>
      </trkpt>
      <trkpt lat="45.81565" lon="3.13894">
        <ele>329.072435</ele>
        <time>2020-10-26T03:18:05.122Z</time>
      </trkpt>
      <trkpt lat="45.81544" lon="3.13845">
        <ele>329.052649</ele>
        <time>2020-10-26T03:18:13.558Z</time>
      </trkpt>
      <trkpt lat="45.8152" lon="3.13805">
        <ele>329.034786</ele>
        <time>2020-10-26T03:18:20.953Z</time>
      </trkpt>
      <trkpt lat="45.81512" lon="3.13795">
        <ele>329.029811</ele>
        <time>2020-10-26T03:18:23.141Z</time>
      </trkpt>
      <trkpt lat="45.815" lon="3.1378">
        <ele>329.021967</ele>
        <time>2020-10-26T03:18:26.156Z</time>
      </trkpt>
      <trkpt lat="45.81486" lon="3.13763">
        <ele>329.000775</ele>
        <time>2020-10-26T03:18:29.885Z</time>
      </trkpt>
      <trkpt lat="45.81392" lon="3.13652">
        <ele>328.860277</ele>
        <time>2020-10-26T03:18:54.315Z</time>
      </trkpt>
      <trkpt lat="45.81387" lon="3.13643">
        <ele>328.8508</ele>
        <time>2020-10-26T03:18:55.863Z</time>
      </trkpt>
      <trkpt lat="45.81378" lon="3.13636">
        <ele>328.838731</ele>
        <time>2020-10-26T03:18:58.090Z</time>
      </trkpt>
      <trkpt lat="45.81363" lon="3.13633">
        <ele>328.821646</ele>
        <time>2020-10-26T03:19:01.131Z</time>
      </trkpt>
      <trkpt lat="45.8136" lon="3.13626">
        <ele>328.815356</ele>
        <time>2020-10-26T03:19:02.249Z</time>
      </trkpt>
      <trkpt lat="45.81356" lon="3.13621">
        <ele>328.818901</ele>
        <time>2020-10-26T03:19:03.289Z</time>
      </trkpt>
      <trkpt lat="45.81352" lon="3.13618">
        <ele>328.826047</ele>
        <time>2020-10-26T03:19:04.437Z</time>
      </trkpt>
      <trkpt lat="45.81346" lon="3.13597">
        <ele>328.846456</ele>
        <time>2020-10-26T03:19:07.688Z</time>
      </trkpt>
      <trkpt lat="45.81335" lon="3.1358">
        <ele>328.868551</ele>
        <time>2020-10-26T03:19:11.058Z</time>
      </trkpt>
      <trkpt lat="45.8132" lon="3.13566">
        <ele>328.891881</ele>
        <time>2020-10-26T03:19:14.850Z</time>
      </trkpt>
      <trkpt lat="45.81312" lon="3.13557">
        <ele>328.906017</ele>
        <time>2020-10-26T03:19:17.090Z</time>
      </trkpt>
      <trkpt lat="45.81273" lon="3.13506">
        <ele>328.976656</ele>
        <time>2020-10-26T03:19:28.520Z</time>
      </trkpt>
      <trkpt lat="45.81224" lon="3.13421">
        <ele>329.11468</ele>
        <time>2020-10-26T03:19:45.416Z</time>
      </trkpt>
      <trkpt lat="45.81154" lon="3.13296">
        <ele>329.473121</ele>
        <time>2020-10-26T03:20:10.105Z</time>
      </trkpt>
      <trkpt lat="45.8115" lon="3.13269">
        <ele>329.535838</ele>
        <time>2020-10-26T03:20:14.492Z</time>
      </trkpt>
      <trkpt lat="45.81151" lon="3.13259">
        <ele>329.558693</ele>
        <time>2020-10-26T03:20:15.961Z</time>
      </trkpt>
      <trkpt lat="45.81164" lon="3.13209">
        <ele>329.766442</ele>
        <time>2020-10-26T03:20:24.675Z</time>
      </trkpt>
      <trkpt lat="45.81165" lon="3.13202">
        <ele>329.82321</ele>
        <time>2020-10-26T03:20:26.135Z</time>
      </trkpt>
      <trkpt lat="45.81165" lon="3.13194">
        <ele>329.874273</ele>
        <time>2020-10-26T03:20:27.609Z</time>
      </trkpt>
      <trkpt lat="45.8116" lon="3.13174">
        <ele>330.029561</ele>
        <time>2020-10-26T03:20:31.390Z</time>
      </trkpt>
      <trkpt lat="45.81151" lon="3.13162">
        <ele>330.148254</ele>
        <time>2020-10-26T03:20:34.209Z</time>
      </trkpt>
      <trkpt lat="45.81089" lon="3.13116">
        <ele>330.84778</ele>
        <time>2020-10-26T03:20:52.575Z</time>
      </trkpt>
      <trkpt lat="45.81076" lon="3.13103">
        <ele>331.010476</ele>
        <time>2020-10-26T03:20:57.331Z</time>
      </trkpt>
      <trkpt lat="45.80973" lon="3.13002">
        <ele>332.470141</ele>
        <time>2020-10-26T03:21:32.866Z</time>
      </trkpt>
      <trkpt lat="45.80926" lon="3.12967">
        <ele>333.143252</ele>
        <time>2020-10-26T03:21:47.755Z</time>
      </trkpt>
      <trkpt lat="45.80908" lon="3.12957">
        <ele>333.395242</ele>
        <time>2020-10-26T03:21:53.454Z</time>
      </trkpt>
      <trkpt lat="45.80861" lon="3.12931">
        <ele>333.83496</ele>
        <time>2020-10-26T03:22:06.570Z</time>
      </trkpt>
      <trkpt lat="45.80794" lon="3.12893">
        <ele>334.170022</ele>
        <time>2020-10-26T03:22:24.251Z</time>
      </trkpt>
      <trkpt lat="45.80778" lon="3.12885">
        <ele>334.247068</ele>
        <time>2020-10-26T03:22:28.162Z</time>
      </trkpt>
      <trkpt lat="45.80741" lon="3.12861">
        <ele>334.436441</ele>
        <time>2020-10-26T03:22:36.778Z</time>
      </trkpt>
      <trkpt lat="45.80718" lon="3.12838">
        <ele>334.552903</ele>
        <time>2020-10-26T03:22:42.430Z</time>
      </trkpt>
      <trkpt lat="45.80713" lon="3.12823">
        <ele>334.530166</ele>
        <time>2020-10-26T03:22:44.697Z</time>
      </trkpt>
      <trkpt lat="45.8071" lon="3.12813">
        <ele>334.513604</ele>
        <time>2020-10-26T03:22:46.308Z</time>
      </trkpt>
      <trkpt lat="45.8071" lon="3.12805">
        <ele>334.50308</ele>
        <time>2020-10-26T03:22:47.350Z</time>
      </trkpt>
      <trkpt lat="45.8069" lon="3.12802">
        <ele>334.462973</ele>
        <time>2020-10-26T03:22:51.261Z</time>
      </trkpt>
      <trkpt lat="45.80667" lon="3.12786">
        <ele>334.410762</ele>
        <time>2020-10-26T03:22:56.271Z</time>
      </trkpt>
      <trkpt lat="45.80649" lon="3.12765">
        <ele>334.362523</ele>
        <time>2020-10-26T03:23:00.995Z</time>
      </trkpt>
      <trkpt lat="45.80609" lon="3.12662">
        <ele>334.195624</ele>
        <time>2020-10-26T03:23:16.988Z</time>
      </trkpt>
      <trkpt lat="45.80595" lon="3.12612">
        <ele>334.117217</ele>
        <time>2020-10-26T03:23:24.123Z</time>
      </trkpt>
      <trkpt lat="45.8058" lon="3.12563">
        <ele>334.037919</ele>
        <time>2020-10-26T03:23:31.592Z</time>
      </trkpt>
      <trkpt lat="45.80576" lon="3.12544">
        <ele>334.008683</ele>
        <time>2020-10-26T03:23:34.306Z</time>
      </trkpt>
      <trkpt lat="45.80563" lon="3.12501">
        <ele>333.93856</ele>
        <time>2020-10-26T03:23:40.909Z</time>
      </trkpt>
      <trkpt lat="45.80489" lon="3.12242">
        <ele>333.76728</ele>
        <time>2020-10-26T03:24:19.500Z</time>
      </trkpt>
      <trkpt lat="45.80454" lon="3.12119">
        <ele>334.069204</ele>
        <time>2020-10-26T03:24:40.273Z</time>
      </trkpt>
      <trkpt lat="45.80417" lon="3.11989">
        <ele>334.718755</ele>
        <time>2020-10-26T03:25:05.465Z</time>
      </trkpt>
      <trkpt lat="45.80407" lon="3.11956">
        <ele>334.881804</ele>
        <time>2020-10-26T03:25:11.625Z</time>
      </trkpt>
      <trkpt lat="45.80406" lon="3.11953">
        <ele>334.899286</ele>
        <time>2020-10-26T03:25:12.403Z</time>
      </trkpt>
      <trkpt lat="45.80405" lon="3.11948">
        <ele>334.922908</ele>
        <time>2020-10-26T03:25:13.376Z</time>
      </trkpt>
      <trkpt lat="45.80401" lon="3.11933">
        <ele>334.977214</ele>
        <time>2020-10-26T03:25:16.212Z</time>
      </trkpt>
      <trkpt lat="45.80406" lon="3.11927">
        <ele>335.004874</ele>
        <time>2020-10-26T03:25:17.736Z</time>
      </trkpt>
      <trkpt lat="45.8041" lon="3.1191">
        <ele>335.06014</ele>
        <time>2020-10-26T03:25:20.836Z</time>
      </trkpt>
      <trkpt lat="45.8041" lon="3.11903">
        <ele>335.082488</ele>
        <time>2020-10-26T03:25:22.256Z</time>
      </trkpt>
      <trkpt lat="45.80409" lon="3.11891">
        <ele>335.117688</ele>
        <time>2020-10-26T03:25:24.429Z</time>
      </trkpt>
      <trkpt lat="45.80404" lon="3.11881">
        <ele>335.155091</ele>
        <time>2020-10-26T03:25:26.523Z</time>
      </trkpt>
      <trkpt lat="45.80401" lon="3.11877">
        <ele>335.173769</ele>
        <time>2020-10-26T03:25:27.468Z</time>
      </trkpt>
      <trkpt lat="45.80395" lon="3.11872">
        <ele>335.200142</ele>
        <time>2020-10-26T03:25:28.852Z</time>
      </trkpt>
      <trkpt lat="45.80389" lon="3.1187">
        <ele>335.226623</ele>
        <time>2020-10-26T03:25:30.265Z</time>
      </trkpt>
      <trkpt lat="45.80383" lon="3.1187">
        <ele>335.253046</ele>
        <time>2020-10-26T03:25:31.875Z</time>
      </trkpt>
      <trkpt lat="45.80378" lon="3.11859">
        <ele>335.29243</ele>
        <time>2020-10-26T03:25:34.131Z</time>
      </trkpt>
      <trkpt lat="45.80354" lon="3.11774">
        <ele>335.569056</ele>
        <time>2020-10-26T03:25:48.568Z</time>
      </trkpt>
      <trkpt lat="45.8034" lon="3.11731">
        <ele>335.712265</ele>
        <time>2020-10-26T03:25:55.500Z</time>
      </trkpt>
      <trkpt lat="45.80334" lon="3.11714">
        <ele>335.740047</ele>
        <time>2020-10-26T03:25:58.514Z</time>
      </trkpt>
      <trkpt lat="45.80325" lon="3.11694">
        <ele>335.7639</ele>
        <time>2020-10-26T03:26:01.819Z</time>
      </trkpt>
      <trkpt lat="45.80262" lon="3.11587">
        <ele>335.906284</ele>
        <time>2020-10-26T03:26:21.879Z</time>
      </trkpt>
      <trkpt lat="45.8018" lon="3.1145">
        <ele>336.541152</ele>
        <time>2020-10-26T03:26:51.160Z</time>
      </trkpt>
      <trkpt lat="45.80165" lon="3.11425">
        <ele>336.721233</ele>
        <time>2020-10-26T03:26:56.978Z</time>
      </trkpt>
      <trkpt lat="45.80139" lon="3.11381">
        <ele>337.040265</ele>
        <time>2020-10-26T03:27:07.787Z</time>
      </trkpt>
      <trkpt lat="45.80109" lon="3.1133">
        <ele>337.405591</ele>
        <time>2020-10-26T03:27:20.181Z</time>
      </trkpt>
      <trkpt lat="45.80074" lon="3.1127">
        <ele>337.908238</ele>
        <time>2020-10-26T03:27:35.208Z</time>
      </trkpt>
      <trkpt lat="45.80063" lon="3.11248">
        <ele>338.082312</ele>
        <time>2020-10-26T03:27:40.027Z</time>
      </trkpt>
      <trkpt lat="45.80058" lon="3.11237">
        <ele>338.163787</ele>
        <time>2020-10-26T03:27:42.583Z</time>
      </trkpt>
      <trkpt lat="45.80046" lon="3.11209">
        <ele>338.372821</ele>
        <time>2020-10-26T03:27:48.387Z</time>
      </trkpt>
      <trkpt lat="45.80042" lon="3.11201">
        <ele>338.435394</ele>
        <time>2020-10-26T03:27:50.163Z</time>
      </trkpt>
      <trkpt lat="45.80028" lon="3.11185">
        <ele>338.598387</ele>
        <time>2020-10-26T03:27:54.801Z</time>
      </trkpt>
      <trkpt lat="45.80022" lon="3.11178">
        <ele>338.670999</ele>
        <time>2020-10-26T03:27:56.807Z</time>
      </trkpt>
      <trkpt lat="45.80015" lon="3.11169">
        <ele>338.75886</ele>
        <time>2020-10-26T03:27:59.180Z</time>
      </trkpt>
      <trkpt lat="45.80001" lon="3.11157">
        <ele>338.900688</ele>
        <time>2020-10-26T03:28:03.221Z</time>
      </trkpt>
      <trkpt lat="45.79998" lon="3.11154">
        <ele>338.935413</ele>
        <time>2020-10-26T03:28:04.087Z</time>
      </trkpt>
      <trkpt lat="45.79994" lon="3.11151">
        <ele>338.978701</ele>
        <time>2020-10-26T03:28:05.307Z</time>
      </trkpt>
      <trkpt lat="45.79989" lon="3.11153">
        <ele>339.023165</ele>
        <time>2020-10-26T03:28:06.806Z</time>
      </trkpt>
      <trkpt lat="45.79974" lon="3.11168">
        <ele>339.096254</ele>
        <time>2020-10-26T03:28:12.927Z</time>
      </trkpt>
      <trkpt lat="45.79969" lon="3.11172">
        <ele>339.114553</ele>
        <time>2020-10-26T03:28:14.666Z</time>
      </trkpt>
      <trkpt lat="45.79962" lon="3.11177">
        <ele>339.139943</ele>
        <time>2020-10-26T03:28:17.108Z</time>
      </trkpt>
      <trkpt lat="45.79937" lon="3.11179">
        <ele>339.22149</ele>
        <time>2020-10-26T03:28:25.067Z</time>
      </trkpt>
      <trkpt lat="45.79781" lon="3.11226">
        <ele>339.941013</ele>
        <time>2020-10-26T03:29:11.117Z</time>
      </trkpt>
      <trkpt lat="45.79771" lon="3.11231">
        <ele>340.044355</ele>
        <time>2020-10-26T03:29:14.753Z</time>
      </trkpt>
      <trkpt lat="45.79763" lon="3.11233">
        <ele>340.112399</ele>
        <time>2020-10-26T03:29:16.593Z</time>
      </trkpt>
      <trkpt lat="45.79736" lon="3.11239">
        <ele>340.36792</ele>
        <time>2020-10-26T03:29:23.559Z</time>
      </trkpt>
      <trkpt lat="45.79727" lon="3.11242">
        <ele>340.451124</ele>
        <time>2020-10-26T03:29:25.904Z</time>
      </trkpt>
      <trkpt lat="45.79674" lon="3.11253">
        <ele>340.94177</ele>
        <time>2020-10-26T03:29:39.884Z</time>
      </trkpt>
      <trkpt lat="45.79667" lon="3.11248">
        <ele>341.02035</ele>
        <time>2020-10-26T03:29:42.274Z</time>
      </trkpt>
      <trkpt lat="45.79651" lon="3.11235">
        <ele>341.184271</ele>
        <time>2020-10-26T03:29:47.168Z</time>
      </trkpt>
      <trkpt lat="45.79619" lon="3.11193">
        <ele>342.125966</ele>
        <time>2020-10-26T03:30:00.185Z</time>
      </trkpt>
      <trkpt lat="45.79537" lon="3.11046">
        <ele>345.461811</ele>
        <time>2020-10-26T03:30:48.837Z</time>
      </trkpt>
      <trkpt lat="45.7953" lon="3.11036">
        <ele>345.71385</ele>
        <time>2020-10-26T03:30:53.052Z</time>
      </trkpt>
      <trkpt lat="45.79518" lon="3.11011">
        <ele>346.175511</ele>
        <time>2020-10-26T03:31:00.326Z</time>
      </trkpt>
      <trkpt lat="45.79514" lon="3.11002">
        <ele>346.34361</ele>
        <time>2020-10-26T03:31:03.508Z</time>
      </trkpt>
      <trkpt lat="45.79502" lon="3.10977">
        <ele>346.775188</ele>
        <time>2020-10-26T03:31:10.939Z</time>
      </trkpt>
      <trkpt lat="45.79494" lon="3.10962">
        <ele>347.052945</ele>
        <time>2020-10-26T03:31:15.651Z</time>
      </trkpt>
      <trkpt lat="45.79452" lon="3.10849">
        <ele>348.916663</ele>
        <time>2020-10-26T03:31:46.750Z</time>
      </trkpt>
      <trkpt lat="45.79408" lon="3.10734">
        <ele>348.974854</ele>
        <time>2020-10-26T03:32:07.831Z</time>
      </trkpt>
      <trkpt lat="45.79371" lon="3.10679">
        <ele>348.39988</ele>
        <time>2020-10-26T03:32:16.320Z</time>
      </trkpt>
      <trkpt lat="45.79322" lon="3.10658">
        <ele>347.85161</ele>
        <time>2020-10-26T03:32:24.176Z</time>
      </trkpt>
      <trkpt lat="45.79312" lon="3.1065">
        <ele>347.723541</ele>
        <time>2020-10-26T03:32:25.902Z</time>
      </trkpt>
      <trkpt lat="45.79281" lon="3.1062">
        <ele>347.071425</ele>
        <time>2020-10-26T03:32:31.429Z</time>
      </trkpt>
      <trkpt lat="45.79273" lon="3.10619">
        <ele>346.926855</ele>
        <time>2020-10-26T03:32:32.513Z</time>
      </trkpt>
      <trkpt lat="45.79257" lon="3.10626">
        <ele>346.616745</ele>
        <time>2020-10-26T03:32:35.066Z</time>
      </trkpt>
      <trkpt lat="45.79225" lon="3.10638">
        <ele>346.00569</ele>
        <time>2020-10-26T03:32:39.944Z</time>
      </trkpt>
      <trkpt lat="45.79193" lon="3.1065">
        <ele>345.403439</ele>
        <time>2020-10-26T03:32:44.813Z</time>
      </trkpt>
      <trkpt lat="45.79185" lon="3.10653">
        <ele>345.240874</ele>
        <time>2020-10-26T03:32:46.237Z</time>
      </trkpt>
      <trkpt lat="45.7912" lon="3.10677">
        <ele>344.405197</ele>
        <time>2020-10-26T03:32:57.886Z</time>
      </trkpt>
      <trkpt lat="45.79113" lon="3.1068">
        <ele>344.430196</ele>
        <time>2020-10-26T03:32:59.451Z</time>
      </trkpt>
      <trkpt lat="45.79058" lon="3.10698">
        <ele>344.617174</ele>
        <time>2020-10-26T03:33:11.213Z</time>
      </trkpt>
      <trkpt lat="45.79052" lon="3.107">
        <ele>344.639018</ele>
        <time>2020-10-26T03:33:12.475Z</time>
      </trkpt>
      <trkpt lat="45.79051" lon="3.10695">
        <ele>344.651311</ele>
        <time>2020-10-26T03:33:13.422Z</time>
      </trkpt>
      <trkpt lat="45.79046" lon="3.10668">
        <ele>344.716111</ele>
        <time>2020-10-26T03:33:17.813Z</time>
      </trkpt>
      <trkpt lat="45.79043" lon="3.10655">
        <ele>344.747783</ele>
        <time>2020-10-26T03:33:20.159Z</time>
      </trkpt>
      <trkpt lat="45.7904" lon="3.10643">
        <ele>344.778177</ele>
        <time>2020-10-26T03:33:22.473Z</time>
      </trkpt>
      <trkpt lat="45.79035" lon="3.1063">
        <ele>344.813485</ele>
        <time>2020-10-26T03:33:25.340Z</time>
      </trkpt>
      <trkpt lat="45.79032" lon="3.10622">
        <ele>344.833984</ele>
        <time>2020-10-26T03:33:26.733Z</time>
      </trkpt>
      <trkpt lat="45.79004" lon="3.10548">
        <ele>345.334002</ele>
        <time>2020-10-26T03:33:43.511Z</time>
      </trkpt>
      <trkpt lat="45.7899" lon="3.10517">
        <ele>345.722993</ele>
        <time>2020-10-26T03:33:51.128Z</time>
      </trkpt>
      <trkpt lat="45.78983" lon="3.10502">
        <ele>345.914807</ele>
        <time>2020-10-26T03:33:55.222Z</time>
      </trkpt>
      <trkpt lat="45.7898" lon="3.10496">
        <ele>345.990347</ele>
        <time>2020-10-26T03:33:56.801Z</time>
      </trkpt>
      <trkpt lat="45.78936" lon="3.10396">
        <ele>347.242585</ele>
        <time>2020-10-26T03:34:20.910Z</time>
      </trkpt>
      <trkpt lat="45.78934" lon="3.10391">
        <ele>347.307727</ele>
        <time>2020-10-26T03:34:22.397Z</time>
      </trkpt>
      <trkpt lat="45.78931" lon="3.10385">
        <ele>347.37978</ele>
        <time>2020-10-26T03:34:23.716Z</time>
      </trkpt>
      <trkpt lat="45.78923" lon="3.10367">
        <ele>347.611761</ele>
        <time>2020-10-26T03:34:28.145Z</time>
      </trkpt>
      <trkpt lat="45.78916" lon="3.10351">
        <ele>347.807402</ele>
        <time>2020-10-26T03:34:31.959Z</time>
      </trkpt>
      <trkpt lat="45.78915" lon="3.10349">
        <ele>347.831976</ele>
        <time>2020-10-26T03:34:32.583Z</time>
      </trkpt>
      <trkpt lat="45.78887" lon="3.10283">
        <ele>348.622185</ele>
        <time>2020-10-26T03:34:48.649Z</time>
      </trkpt>
      <trkpt lat="45.78804" lon="3.10086">
        <ele>350.864309</ele>
        <time>2020-10-26T03:35:34.833Z</time>
      </trkpt>
      <trkpt lat="45.78765" lon="3.09994">
        <ele>351.750274</ele>
        <time>2020-10-26T03:35:54.966Z</time>
      </trkpt>
      <trkpt lat="45.78758" lon="3.09996">
        <ele>351.829741</ele>
        <time>2020-10-26T03:35:56.699Z</time>
      </trkpt>
      <trkpt lat="45.78708" lon="3.10048">
        <ele>352.532791</ele>
        <time>2020-10-26T03:36:13.618Z</time>
      </trkpt>
      <trkpt lat="45.78659" lon="3.10097">
        <ele>353.063652</ele>
        <time>2020-10-26T03:36:29.652Z</time>
      </trkpt>
      <trkpt lat="45.78573" lon="3.10182">
        <ele>353.995805</ele>
        <time>2020-10-26T03:36:56.160Z</time>
      </trkpt>
      <trkpt lat="45.78567" lon="3.10182">
        <ele>354.048451</ele>
        <time>2020-10-26T03:36:57.602Z</time>
      </trkpt>
      <trkpt lat="45.78562" lon="3.10182">
        <ele>354.089352</ele>
        <time>2020-10-26T03:36:58.803Z</time>
      </trkpt>
      <trkpt lat="45.78558" lon="3.10175">
        <ele>354.134663</ele>
        <time>2020-10-26T03:37:00.801Z</time>
      </trkpt>
      <trkpt lat="45.7853" lon="3.10117">
        <ele>354.49755</ele>
        <time>2020-10-26T03:37:15.955Z</time>
      </trkpt>
      <trkpt lat="45.78511" lon="3.10079">
        <ele>354.734591</ele>
        <time>2020-10-26T03:37:26.185Z</time>
      </trkpt>
      <trkpt lat="45.78504" lon="3.10064">
        <ele>354.830242</ele>
        <time>2020-10-26T03:37:30.286Z</time>
      </trkpt>
      <trkpt lat="45.78492" lon="3.10028">
        <ele>355.029202</ele>
        <time>2020-10-26T03:37:37.289Z</time>
      </trkpt>
      <trkpt lat="45.78488" lon="3.09993">
        <ele>355.213794</ele>
        <time>2020-10-26T03:37:44.177Z</time>
      </trkpt>
      <trkpt lat="45.7849" lon="3.0998">
        <ele>355.281727</ele>
        <time>2020-10-26T03:37:46.260Z</time>
      </trkpt>
      <trkpt lat="45.78492" lon="3.09974">
        <ele>355.310461</ele>
        <time>2020-10-26T03:37:47.138Z</time>
      </trkpt>
      <trkpt lat="45.78489" lon="3.09973">
        <ele>355.330145</ele>
        <time>2020-10-26T03:37:47.886Z</time>
      </trkpt>
      <trkpt lat="45.78486" lon="3.09967">
        <ele>355.369999</ele>
        <time>2020-10-26T03:37:49.460Z</time>
      </trkpt>
      <trkpt lat="45.78484" lon="3.0996">
        <ele>355.437133</ele>
        <time>2020-10-26T03:37:51.193Z</time>
      </trkpt>
      <trkpt lat="45.7848" lon="3.09929">
        <ele>355.765326</ele>
        <time>2020-10-26T03:37:56.502Z</time>
      </trkpt>
      <trkpt lat="45.78477" lon="3.09915">
        <ele>355.914069</ele>
        <time>2020-10-26T03:37:59.480Z</time>
      </trkpt>
      <trkpt lat="45.78475" lon="3.09906">
        <ele>356.012766</ele>
        <time>2020-10-26T03:38:01.613Z</time>
      </trkpt>
      <trkpt lat="45.78469" lon="3.09905">
        <ele>356.091775</ele>
        <time>2020-10-26T03:38:02.847Z</time>
      </trkpt>
      <trkpt lat="45.78467" lon="3.09907">
        <ele>356.128306</ele>
        <time>2020-10-26T03:38:03.495Z</time>
      </trkpt>
      <trkpt lat="45.78461" lon="3.0991">
        <ele>356.227841</ele>
        <time>2020-10-26T03:38:04.934Z</time>
      </trkpt>
      <trkpt lat="45.78458" lon="3.09912">
        <ele>356.268446</ele>
        <time>2020-10-26T03:38:05.526Z</time>
      </trkpt>
      <trkpt lat="45.78454" lon="3.09915">
        <ele>356.33364</ele>
        <time>2020-10-26T03:38:06.705Z</time>
      </trkpt>
      <trkpt lat="45.78453" lon="3.09911">
        <ele>356.378036</ele>
        <time>2020-10-26T03:38:07.531Z</time>
      </trkpt>
      <trkpt lat="45.78449" lon="3.09898">
        <ele>356.522576</ele>
        <time>2020-10-26T03:38:10.861Z</time>
      </trkpt>
      <trkpt lat="45.78365" lon="3.09723">
        <ele>359.281037</ele>
        <time>2020-10-26T03:38:56.208Z</time>
      </trkpt>
      <trkpt lat="45.78356" lon="3.09706">
        <ele>359.68729</ele>
        <time>2020-10-26T03:39:01.177Z</time>
      </trkpt>
      <trkpt lat="45.7835" lon="3.0969">
        <ele>360.018539</ele>
        <time>2020-10-26T03:39:05.385Z</time>
      </trkpt>
      <trkpt lat="45.78324" lon="3.09637">
        <ele>361.255901</ele>
        <time>2020-10-26T03:39:21.377Z</time>
      </trkpt>
      <trkpt lat="45.78305" lon="3.09589">
        <ele>362.309048</ele>
        <time>2020-10-26T03:39:36.577Z</time>
      </trkpt>
      <trkpt lat="45.78295" lon="3.09572">
        <ele>362.735577</ele>
        <time>2020-10-26T03:39:43.282Z</time>
      </trkpt>
      <trkpt lat="45.78265" lon="3.09549">
        <ele>364.157651</ele>
        <time>2020-10-26T03:39:57.821Z</time>
      </trkpt>
      <trkpt lat="45.78255" lon="3.0954">
        <ele>364.722993</ele>
        <time>2020-10-26T03:40:04.052Z</time>
      </trkpt>
      <trkpt lat="45.78248" lon="3.09534">
        <ele>365.096912</ele>
        <time>2020-10-26T03:40:07.026Z</time>
      </trkpt>
      <trkpt lat="45.78245" lon="3.0953">
        <ele>365.282764</ele>
        <time>2020-10-26T03:40:08.742Z</time>
      </trkpt>
      <trkpt lat="45.78239" lon="3.09529">
        <ele>365.57218</ele>
        <time>2020-10-26T03:40:11.106Z</time>
      </trkpt>
      <trkpt lat="45.78234" lon="3.09526">
        <ele>365.832842</ele>
        <time>2020-10-26T03:40:13.807Z</time>
      </trkpt>
      <trkpt lat="45.78223" lon="3.0952">
        <ele>366.357912</ele>
        <time>2020-10-26T03:40:19.581Z</time>
      </trkpt>
      <trkpt lat="45.78207" lon="3.09505">
        <ele>367.204786</ele>
        <time>2020-10-26T03:40:27.047Z</time>
      </trkpt>
      <trkpt lat="45.78194" lon="3.095">
        <ele>367.83839</ele>
        <time>2020-10-26T03:40:34.411Z</time>
      </trkpt>
      <trkpt lat="45.78148" lon="3.09418">
        <ele>371.192007</ele>
        <time>2020-10-26T03:41:10.636Z</time>
      </trkpt>
      <trkpt lat="45.78126" lon="3.09361">
        <ele>373.348149</ele>
        <time>2020-10-26T03:41:33.905Z</time>
      </trkpt>
      <trkpt lat="45.78111" lon="3.09288">
        <ele>375.806912</ele>
        <time>2020-10-26T03:41:59.821Z</time>
      </trkpt>
      <trkpt lat="45.78096" lon="3.09197">
        <ele>378.873477</ele>
        <time>2020-10-26T03:42:29.362Z</time>
      </trkpt>
      <trkpt lat="45.78098" lon="3.09189">
        <ele>379.160167</ele>
        <time>2020-10-26T03:42:32.594Z</time>
      </trkpt>
      <trkpt lat="45.78098" lon="3.09163">
        <ele>379.868001</ele>
        <time>2020-10-26T03:42:40.995Z</time>
      </trkpt>
      <trkpt lat="45.78103" lon="3.09154">
        <ele>380.13083</ele>
        <time>2020-10-26T03:42:44.834Z</time>
      </trkpt>
      <trkpt lat="45.78103" lon="3.09146">
        <ele>380.324991</ele>
        <time>2020-10-26T03:42:47.725Z</time>
      </trkpt>
      <trkpt lat="45.78107" lon="3.09106">
        <ele>381.282651</ele>
        <time>2020-10-26T03:43:01.573Z</time>
      </trkpt>
      <trkpt lat="45.78104" lon="3.09106">
        <ele>381.374659</ele>
        <time>2020-10-26T03:43:02.656Z</time>
      </trkpt>
      <trkpt lat="45.78098" lon="3.09107">
        <ele>381.60272</ele>
        <time>2020-10-26T03:43:05.492Z</time>
      </trkpt>
      <trkpt lat="45.78072" lon="3.09107">
        <ele>382.48759</ele>
        <time>2020-10-26T03:43:16.025Z</time>
      </trkpt>
      <trkpt lat="45.78056" lon="3.09107">
        <ele>383.028712</ele>
        <time>2020-10-26T03:43:22.454Z</time>
      </trkpt>
      <trkpt lat="45.78037" lon="3.09108">
        <ele>383.682157</ele>
        <time>2020-10-26T03:43:29.846Z</time>
      </trkpt>
      <trkpt lat="45.78034" lon="3.09108">
        <ele>383.770639</ele>
        <time>2020-10-26T03:43:30.669Z</time>
      </trkpt>
      <trkpt lat="45.78011" lon="3.09107">
        <ele>384.56698</ele>
        <time>2020-10-26T03:43:39.709Z</time>
      </trkpt>
      <trkpt lat="45.78005" lon="3.09107">
        <ele>384.75769</ele>
        <time>2020-10-26T03:43:41.857Z</time>
      </trkpt>
      <trkpt lat="45.78" lon="3.09104">
        <ele>384.939029</ele>
        <time>2020-10-26T03:43:43.795Z</time>
      </trkpt>
      <trkpt lat="45.77987" lon="3.09094">
        <ele>385.4467</ele>
        <time>2020-10-26T03:43:49.022Z</time>
      </trkpt>
      <trkpt lat="45.77983" lon="3.09092">
        <ele>385.588983</ele>
        <time>2020-10-26T03:43:50.608Z</time>
      </trkpt>
      <trkpt lat="45.7798" lon="3.0909">
        <ele>385.697195</ele>
        <time>2020-10-26T03:43:51.832Z</time>
      </trkpt>
      <trkpt lat="45.77926" lon="3.09049">
        <ele>387.302614</ele>
        <time>2020-10-26T03:44:14.571Z</time>
      </trkpt>
      <trkpt lat="45.77907" lon="3.09037">
        <ele>387.841624</ele>
        <time>2020-10-26T03:44:21.918Z</time>
      </trkpt>
      <trkpt lat="45.77892" lon="3.0903">
        <ele>388.258976</ele>
        <time>2020-10-26T03:44:26.467Z</time>
      </trkpt>
      <trkpt lat="45.77882" lon="3.09024">
        <ele>388.531671</ele>
        <time>2020-10-26T03:44:29.699Z</time>
      </trkpt>
      <trkpt lat="45.77879" lon="3.09016">
        <ele>388.705383</ele>
        <time>2020-10-26T03:44:32.491Z</time>
      </trkpt>
      <trkpt lat="45.77872" lon="3.09012">
        <ele>388.896948</ele>
        <time>2020-10-26T03:44:34.785Z</time>
      </trkpt>
      <trkpt lat="45.77849" lon="3.09009">
        <ele>389.510574</ele>
        <time>2020-10-26T03:44:42.783Z</time>
      </trkpt>
      <trkpt lat="45.77844" lon="3.09009">
        <ele>389.650172</ele>
        <time>2020-10-26T03:44:45.390Z</time>
      </trkpt>
      <trkpt lat="45.77793" lon="3.09007">
        <ele>391.040228</ele>
        <time>2020-10-26T03:45:03.329Z</time>
      </trkpt>
      <trkpt lat="45.77774" lon="3.09005">
        <ele>391.58911</ele>
        <time>2020-10-26T03:45:10.343Z</time>
      </trkpt>
      <trkpt lat="45.77772" lon="3.09009">
        <ele>391.690762</ele>
        <time>2020-10-26T03:45:11.683Z</time>
      </trkpt>
      <trkpt lat="45.77768" lon="3.09015">
        <ele>391.84291</ele>
        <time>2020-10-26T03:45:13.681Z</time>
      </trkpt>
      <trkpt lat="45.77755" lon="3.09014">
        <ele>392.215448</ele>
        <time>2020-10-26T03:45:17.299Z</time>
      </trkpt>
      <trkpt lat="45.77749" lon="3.09012">
        <ele>392.406796</ele>
        <time>2020-10-26T03:45:19.642Z</time>
      </trkpt>
      <trkpt lat="45.77743" lon="3.0901">
        <ele>392.583697</ele>
        <time>2020-10-26T03:45:22.063Z</time>
      </trkpt>
      <trkpt lat="45.77739" lon="3.08995">
        <ele>392.903664</ele>
        <time>2020-10-26T03:45:26.374Z</time>
      </trkpt>
      <trkpt lat="45.77737" lon="3.08986">
        <ele>393.091776</ele>
        <time>2020-10-26T03:45:28.113Z</time>
      </trkpt>
      <trkpt lat="45.77735" lon="3.08978">
        <ele>393.264876</ele>
        <time>2020-10-26T03:45:30.145Z</time>
      </trkpt>
      <trkpt lat="45.77734" lon="3.08951">
        <ele>393.806973</ele>
        <time>2020-10-26T03:45:37.113Z</time>
      </trkpt>
      <trkpt lat="45.77734" lon="3.08946">
        <ele>393.908221</ele>
        <time>2020-10-26T03:45:38.635Z</time>
      </trkpt>
      <trkpt lat="45.77724" lon="3.08916">
        <ele>394.57658</ele>
        <time>2020-10-26T03:45:46.710Z</time>
      </trkpt>
      <trkpt lat="45.77699" lon="3.08896">
        <ele>395.407824</ele>
        <time>2020-10-26T03:45:57.253Z</time>
      </trkpt>
      <trkpt lat="45.77692" lon="3.08893">
        <ele>395.616073</ele>
        <time>2020-10-26T03:46:00.090Z</time>
      </trkpt>
      <trkpt lat="45.77676" lon="3.08886">
        <ele>396.290149</ele>
        <time>2020-10-26T03:46:07.882Z</time>
      </trkpt>
      <trkpt lat="45.77666" lon="3.08882">
        <ele>396.713418</ele>
        <time>2020-10-26T03:46:11.650Z</time>
      </trkpt>
      <trkpt lat="45.77646" lon="3.08874">
        <ele>397.552103</ele>
        <time>2020-10-26T03:46:21.780Z</time>
      </trkpt>
      <trkpt lat="45.77636" lon="3.0887">
        <ele>397.980065</ele>
        <time>2020-10-26T03:46:27.050Z</time>
      </trkpt>
      <trkpt lat="45.77632" lon="3.08868">
        <ele>398.171996</ele>
        <time>2020-10-26T03:46:29.021Z</time>
      </trkpt>
      <trkpt lat="45.77627" lon="3.08865">
        <ele>398.38705</ele>
        <time>2020-10-26T03:46:31.238Z</time>
      </trkpt>
      <trkpt lat="45.77624" lon="3.08862">
        <ele>398.544852</ele>
        <time>2020-10-26T03:46:33.054Z</time>
      </trkpt>
      <trkpt lat="45.77618" lon="3.08857">
        <ele>398.796993</ele>
        <time>2020-10-26T03:46:36.074Z</time>
      </trkpt>
      <trkpt lat="45.77614" lon="3.08852">
        <ele>399.028945</ele>
        <time>2020-10-26T03:46:39.068Z</time>
      </trkpt>
      <trkpt lat="45.77604" lon="3.08841">
        <ele>399.537844</ele>
        <time>2020-10-26T03:46:44.796Z</time>
      </trkpt>
      <trkpt lat="45.77601" lon="3.08834">
        <ele>399.783695</ele>
        <time>2020-10-26T03:46:47.042Z</time>
      </trkpt>
      <trkpt lat="45.7759" lon="3.08801">
        <ele>400.818865</ele>
        <time>2020-10-26T03:46:59.004Z</time>
      </trkpt>
      <trkpt lat="45.77587" lon="3.08775">
        <ele>401.566954</ele>
        <time>2020-10-26T03:47:06.204Z</time>
      </trkpt>
      <trkpt lat="45.77586" lon="3.08756">
        <ele>402.120772</ele>
        <time>2020-10-26T03:47:12.860Z</time>
      </trkpt>
      <trkpt lat="45.77583" lon="3.08705">
        <ele>403.144</ele>
        <time>2020-10-26T03:47:28.073Z</time>
      </trkpt>
      <trkpt lat="45.77583" lon="3.08701">
        <ele>403.182319</ele>
        <time>2020-10-26T03:47:30.038Z</time>
      </trkpt>
      <trkpt lat="45.77582" lon="3.08693">
        <ele>403.263039</ele>
        <time>2020-10-26T03:47:31.812Z</time>
      </trkpt>
      <trkpt lat="45.77582" lon="3.0869">
        <ele>403.29623</ele>
        <time>2020-10-26T03:47:32.616Z</time>
      </trkpt>
      <trkpt lat="45.77581" lon="3.08683">
        <ele>403.368602</ele>
        <time>2020-10-26T03:47:34.305Z</time>
      </trkpt>
      <trkpt lat="45.77581" lon="3.08677">
        <ele>403.428345</ele>
        <time>2020-10-26T03:47:35.737Z</time>
      </trkpt>
      <trkpt lat="45.7758" lon="3.08671">
        <ele>403.490883</ele>
        <time>2020-10-26T03:47:37.426Z</time>
      </trkpt>
      <trkpt lat="45.7758" lon="3.08664">
        <ele>403.559563</ele>
        <time>2020-10-26T03:47:39.496Z</time>
      </trkpt>
      <trkpt lat="45.7758" lon="3.08659">
        <ele>403.608661</ele>
        <time>2020-10-26T03:47:40.933Z</time>
      </trkpt>
      <trkpt lat="45.77579" lon="3.08646">
        <ele>403.735043</ele>
        <time>2020-10-26T03:47:45.365Z</time>
      </trkpt>
      <trkpt lat="45.77579" lon="3.08608">
        <ele>404.117808</ele>
        <time>2020-10-26T03:47:52.671Z</time>
      </trkpt>
      <trkpt lat="45.77578" lon="3.08553">
        <ele>404.673036</ele>
        <time>2020-10-26T03:48:02.422Z</time>
      </trkpt>
      <trkpt lat="45.77578" lon="3.08545">
        <ele>404.749188</ele>
        <time>2020-10-26T03:48:04.776Z</time>
      </trkpt>
      <trkpt lat="45.77579" lon="3.08536">
        <ele>404.844259</ele>
        <time>2020-10-26T03:48:06.306Z</time>
      </trkpt>
      <trkpt lat="45.77579" lon="3.08535">
        <ele>404.850441</ele>
        <time>2020-10-26T03:48:06.418Z</time>
      </trkpt>
      <trkpt lat="45.77583" lon="3.08511">
        <ele>405.094435</ele>
        <time>2020-10-26T03:48:09.098Z</time>
      </trkpt>
      <trkpt lat="45.77587" lon="3.08487">
        <ele>405.343308</ele>
        <time>2020-10-26T03:48:13.166Z</time>
      </trkpt>
      <trkpt lat="45.77588" lon="3.08475">
        <ele>405.470082</ele>
        <time>2020-10-26T03:48:15.062Z</time>
      </trkpt>
      <trkpt lat="45.77588" lon="3.08462">
        <ele>405.347883</ele>
        <time>2020-10-26T03:48:16.284Z</time>
      </trkpt>
      <trkpt lat="45.77609" lon="3.08458">
        <ele>404.924626</ele>
        <time>2020-10-26T03:48:20.137Z</time>
      </trkpt>
      <trkpt lat="45.77616" lon="3.08456">
        <ele>404.784565</ele>
        <time>2020-10-26T03:48:21.622Z</time>
      </trkpt>
      <trkpt lat="45.77619" lon="3.08452">
        <ele>404.694476</ele>
        <time>2020-10-26T03:48:22.204Z</time>
      </trkpt>
      <trkpt lat="45.77633" lon="3.08404">
        <ele>403.973768</ele>
        <time>2020-10-26T03:48:27.884Z</time>
      </trkpt>
      <trkpt lat="45.77641" lon="3.0839">
        <ele>403.704991</ele>
        <time>2020-10-26T03:48:29.828Z</time>
      </trkpt>
      <trkpt lat="45.77648" lon="3.08384">
        <ele>403.554823</ele>
        <time>2020-10-26T03:48:31.227Z</time>
      </trkpt>
      <trkpt lat="45.77682" lon="3.08371">
        <ele>402.843137</ele>
        <time>2020-10-26T03:48:36.487Z</time>
      </trkpt>
      <trkpt lat="45.77694" lon="3.08367">
        <ele>402.603041</ele>
        <time>2020-10-26T03:48:38.416Z</time>
      </trkpt>
      <trkpt lat="45.7771" lon="3.0836">
        <ele>402.257971</ele>
        <time>2020-10-26T03:48:40.738Z</time>
      </trkpt>
      <trkpt lat="45.77725" lon="3.08338">
        <ele>401.900429</ele>
        <time>2020-10-26T03:48:43.806Z</time>
      </trkpt>
      <trkpt lat="45.77725" lon="3.08322">
        <ele>401.900429</ele>
        <time>2020-10-26T03:48:45.313Z</time>
      </trkpt>
      <trkpt lat="45.77723" lon="3.08309">
        <ele>401.900429</ele>
        <time>2020-10-26T03:48:46.632Z</time>
      </trkpt>
      <trkpt lat="45.77723" lon="3.08305">
        <ele>401.900429</ele>
        <time>2020-10-26T03:48:47.082Z</time>
      </trkpt>
      <trkpt lat="45.77722" lon="3.08297">
        <ele>401.900429</ele>
        <time>2020-10-26T03:48:48.028Z</time>
      </trkpt>
      <trkpt lat="45.77716" lon="3.08249">
        <ele>401.900429</ele>
        <time>2020-10-26T03:48:53.057Z</time>
      </trkpt>
      <trkpt lat="45.77719" lon="3.08238">
        <ele>401.900429</ele>
        <time>2020-10-26T03:48:57.121Z</time>
      </trkpt>
      <trkpt lat="45.7775" lon="3.0823">
        <ele>401.900429</ele>
        <time>2020-10-26T03:49:44.774Z</time>
      </trkpt>
      <trkpt lat="45.77759" lon="3.08226">
        <ele>401.900429</ele>
        <time>2020-10-26T03:49:46.773Z</time>
      </trkpt>
      <trkpt lat="45.7776" lon="3.08215">
        <ele>401.900429</ele>
        <time>2020-10-26T03:49:48.549Z</time>
      </trkpt>
      <trkpt lat="45.77757" lon="3.08191">
        <ele>401.900429</ele>
        <time>2020-10-26T03:49:52.292Z</time>
      </trkpt>
    </trkseg>
  </trk>
</gpx>